<?xml version='1.0' encoding='UTF-8'?><gpx version="1.1" creator="JPX - https://github.com/jenetics/jpx" xmlns="http://www.topografix.com/GPX/1/1"><trk><trkseg><trkpt lat="45.6907419" lon="8.7065456"><ele>289.0</ele><time>2026-05-04T07:01:37.161Z</time></trkpt><trkpt lat="45.6906863" lon="8.7064342"><ele>289.0</ele><time>2026-05-04T07:01:40.161Z</time></trkpt><trkpt lat="45.6906474" lon="8.7063342"><ele>289.0</ele><time>2026-05-04T07:01:42.162Z</time></trkpt><trkpt lat="45.6906041" lon="8.7061976"><ele>289.0</ele><time>2026-05-04T07:01:44.163Z</time></trkpt><trkpt lat="45.6905634" lon="8.706054"><ele>289.0</ele><time>2026-05-04T07:01:46.162Z</time></trkpt><trkpt lat="45.6905407" lon="8.7059668"><ele>288.4</ele><time>2026-05-04T07:01:47.161Z</time></trkpt><trkpt lat="45.6905328" lon="8.7058252"><ele>287.79999999999995</ele><time>2026-05-04T07:01:49.162Z</time></trkpt><trkpt lat="45.6905235" lon="8.7056593"><ele>287.20000000000005</ele><time>2026-05-04T07:01:51.162Z</time></trkpt><trkpt lat="45.6905254" lon="8.7055509"><ele>286.6</ele><time>2026-05-04T07:01:53.161Z</time></trkpt><trkpt lat="45.6905438" lon="8.7054612"><ele>286.0</ele><time>2026-05-04T07:01:54.161Z</time></trkpt><trkpt lat="45.6906051" lon="8.7053539"><ele>285.0</ele><time>2026-05-04T07:01:56.161Z</time></trkpt><trkpt lat="45.6906809" lon="8.7052283"><ele>284.0</ele><time>2026-05-04T07:01:58.161Z</time></trkpt><trkpt lat="45.6907508" lon="8.7051065"><ele>283.0</ele><time>2026-05-04T07:02:00.161Z</time></trkpt><trkpt lat="45.690841" lon="8.7050141"><ele>282.0</ele><time>2026-05-04T07:02:02.162Z</time></trkpt><trkpt lat="45.6909187" lon="8.7048957"><ele>282.0</ele><time>2026-05-04T07:02:04.161Z</time></trkpt><trkpt lat="45.6909906" lon="8.7047997"><ele>282.0</ele><time>2026-05-04T07:02:06.161Z</time></trkpt><trkpt lat="45.6910417" lon="8.7046955"><ele>282.0</ele><time>2026-05-04T07:02:08.161Z</time></trkpt><trkpt lat="45.6911153" lon="8.7046413"><ele>282.0</ele><time>2026-05-04T07:02:28.162Z</time></trkpt><trkpt lat="45.6911615" lon="8.7045522"><ele>282.0</ele><time>2026-05-04T07:02:30.161Z</time></trkpt><trkpt lat="45.6912275" lon="8.7044673"><ele>282.0</ele><time>2026-05-04T07:02:32.161Z</time></trkpt><trkpt lat="45.6913079" lon="8.7043885"><ele>282.5</ele><time>2026-05-04T07:02:34.16Z</time></trkpt><trkpt lat="45.6913891" lon="8.7043286"><ele>283.0</ele><time>2026-05-04T07:02:36.161Z</time></trkpt><trkpt lat="45.6914714" lon="8.7042736"><ele>283.5</ele><time>2026-05-04T07:02:38.16Z</time></trkpt><trkpt lat="45.6915291" lon="8.7042257"><ele>284.0</ele><time>2026-05-04T07:02:40.161Z</time></trkpt><trkpt lat="45.6915896" lon="8.7041854"><ele>284.5</ele><time>2026-05-04T07:02:42.16Z</time></trkpt><trkpt lat="45.6916739" lon="8.7041478"><ele>285.0</ele><time>2026-05-04T07:02:45.162Z</time></trkpt><trkpt lat="45.6917534" lon="8.7040991"><ele>285.0</ele><time>2026-05-04T07:03:06.16Z</time></trkpt><trkpt lat="45.6918121" lon="8.7040583"><ele>285.0</ele><time>2026-05-04T07:03:08.162Z</time></trkpt><trkpt lat="45.6918784" lon="8.7040168"><ele>285.0</ele><time>2026-05-04T07:03:10.161Z</time></trkpt><trkpt lat="45.6919575" lon="8.703962"><ele>285.0</ele><time>2026-05-04T07:03:12.162Z</time></trkpt><trkpt lat="45.69205" lon="8.7039061"><ele>285.0</ele><time>2026-05-04T07:03:14.162Z</time></trkpt><trkpt lat="45.6921451" lon="8.7038551"><ele>285.0</ele><time>2026-05-04T07:03:16.161Z</time></trkpt><trkpt lat="45.6922425" lon="8.7037851"><ele>284.4</ele><time>2026-05-04T07:03:18.161Z</time></trkpt><trkpt lat="45.6923411" lon="8.7037336"><ele>283.8</ele><time>2026-05-04T07:03:20.162Z</time></trkpt><trkpt lat="45.6924439" lon="8.7036773"><ele>283.2</ele><time>2026-05-04T07:03:22.161Z</time></trkpt><trkpt lat="45.692556" lon="8.7036315"><ele>282.6</ele><time>2026-05-04T07:03:24.161Z</time></trkpt><trkpt lat="45.6926639" lon="8.70357"><ele>282.0</ele><time>2026-05-04T07:03:26.162Z</time></trkpt><trkpt lat="45.6927717" lon="8.7035156"><ele>282.0</ele><time>2026-05-04T07:03:28.162Z</time></trkpt><trkpt lat="45.6928821" lon="8.703482"><ele>282.0</ele><time>2026-05-04T07:03:30.161Z</time></trkpt><trkpt lat="45.6930038" lon="8.7034306"><ele>282.0</ele><time>2026-05-04T07:03:32.161Z</time></trkpt><trkpt lat="45.6931235" lon="8.7033912"><ele>282.0</ele><time>2026-05-04T07:03:34.162Z</time></trkpt><trkpt lat="45.6932454" lon="8.7033617"><ele>282.0</ele><time>2026-05-04T07:03:36.161Z</time></trkpt><trkpt lat="45.6933616" lon="8.7033177"><ele>282.0</ele><time>2026-05-04T07:03:38.161Z</time></trkpt><trkpt lat="45.6934679" lon="8.7032895"><ele>282.0</ele><time>2026-05-04T07:03:40.161Z</time></trkpt><trkpt lat="45.6935884" lon="8.7032489"><ele>282.0</ele><time>2026-05-04T07:03:42.16Z</time></trkpt><trkpt lat="45.6937001" lon="8.7032182"><ele>282.0</ele><time>2026-05-04T07:03:44.159Z</time></trkpt><trkpt lat="45.6938222" lon="8.7031998"><ele>282.0</ele><time>2026-05-04T07:03:46.161Z</time></trkpt><trkpt lat="45.6939375" lon="8.7031873"><ele>282.0</ele><time>2026-05-04T07:03:48.161Z</time></trkpt><trkpt lat="45.6940564" lon="8.7031819"><ele>282.0</ele><time>2026-05-04T07:03:50.162Z</time></trkpt><trkpt lat="45.6941197" lon="8.7031625"><ele>282.0</ele><time>2026-05-04T07:03:51.162Z</time></trkpt><trkpt lat="45.6942368" lon="8.7031411"><ele>282.0</ele><time>2026-05-04T07:03:53.162Z</time></trkpt><trkpt lat="45.6943611" lon="8.703125"><ele>282.0</ele><time>2026-05-04T07:03:55.16Z</time></trkpt><trkpt lat="45.6944269" lon="8.703122"><ele>282.0</ele><time>2026-05-04T07:03:56.161Z</time></trkpt><trkpt lat="45.6944912" lon="8.7031129"><ele>282.0</ele><time>2026-05-04T07:03:57.161Z</time></trkpt><trkpt lat="45.6946227" lon="8.7031162"><ele>282.0</ele><time>2026-05-04T07:03:59.162Z</time></trkpt><trkpt lat="45.6946907" lon="8.7031102"><ele>282.0</ele><time>2026-05-04T07:04:00.161Z</time></trkpt><trkpt lat="45.6947719" lon="8.7031048"><ele>282.0</ele><time>2026-05-04T07:04:01.161Z</time></trkpt><trkpt lat="45.6948494" lon="8.7030919"><ele>282.0</ele><time>2026-05-04T07:04:02.161Z</time></trkpt><trkpt lat="45.6949187" lon="8.70309"><ele>282.0</ele><time>2026-05-04T07:04:03.162Z</time></trkpt><trkpt lat="45.694986" lon="8.7031034"><ele>282.0</ele><time>2026-05-04T07:04:04.162Z</time></trkpt><trkpt lat="45.6950555" lon="8.7031109"><ele>282.0</ele><time>2026-05-04T07:04:05.161Z</time></trkpt><trkpt lat="45.6951711" lon="8.7031531"><ele>282.0</ele><time>2026-05-04T07:04:07.161Z</time></trkpt><trkpt lat="45.6952482" lon="8.7032752"><ele>282.0</ele><time>2026-05-04T07:04:09.162Z</time></trkpt><trkpt lat="45.69532" lon="8.7034016"><ele>282.0</ele><time>2026-05-04T07:04:11.162Z</time></trkpt><trkpt lat="45.6953964" lon="8.7035052"><ele>282.0</ele><time>2026-05-04T07:04:13.161Z</time></trkpt><trkpt lat="45.6954626" lon="8.7036154"><ele>282.0</ele><time>2026-05-04T07:04:15.162Z</time></trkpt><trkpt lat="45.6955236" lon="8.7037156"><ele>282.8</ele><time>2026-05-04T07:04:17.16Z</time></trkpt><trkpt lat="45.6955613" lon="8.7038231"><ele>283.6</ele><time>2026-05-04T07:04:19.161Z</time></trkpt><trkpt lat="45.6956323" lon="8.7039401"><ele>284.40000000000003</ele><time>2026-05-04T07:04:21.161Z</time></trkpt><trkpt lat="45.6957187" lon="8.7040534"><ele>285.2</ele><time>2026-05-04T07:04:23.162Z</time></trkpt><trkpt lat="45.6958068" lon="8.7041538"><ele>286.0</ele><time>2026-05-04T07:04:25.162Z</time></trkpt><trkpt lat="45.6958777" lon="8.7042874"><ele>285.75</ele><time>2026-05-04T07:04:27.16Z</time></trkpt><trkpt lat="45.6959468" lon="8.7044283"><ele>285.5</ele><time>2026-05-04T07:04:29.161Z</time></trkpt><trkpt lat="45.6960073" lon="8.7045675"><ele>285.25</ele><time>2026-05-04T07:04:31.16Z</time></trkpt><trkpt lat="45.6960524" lon="8.7046936"><ele>285.0</ele><time>2026-05-04T07:04:33.161Z</time></trkpt><trkpt lat="45.6961034" lon="8.7048437"><ele>284.2</ele><time>2026-05-04T07:04:35.161Z</time></trkpt><trkpt lat="45.6961415" lon="8.7049206"><ele>283.4</ele><time>2026-05-04T07:04:36.162Z</time></trkpt><trkpt lat="45.6961903" lon="8.7050627"><ele>282.6</ele><time>2026-05-04T07:04:38.162Z</time></trkpt><trkpt lat="45.6962571" lon="8.70519"><ele>281.8</ele><time>2026-05-04T07:04:40.161Z</time></trkpt><trkpt lat="45.6963139" lon="8.7053224"><ele>281.0</ele><time>2026-05-04T07:04:42.161Z</time></trkpt><trkpt lat="45.6963679" lon="8.705464"><ele>281.0</ele><time>2026-05-04T07:04:44.161Z</time></trkpt><trkpt lat="45.6964222" lon="8.7056039"><ele>281.0</ele><time>2026-05-04T07:04:46.161Z</time></trkpt><trkpt lat="45.6964719" lon="8.7057515"><ele>281.0</ele><time>2026-05-04T07:04:48.161Z</time></trkpt><trkpt lat="45.6965248" lon="8.7058901"><ele>281.0</ele><time>2026-05-04T07:04:50.162Z</time></trkpt><trkpt lat="45.6965782" lon="8.7060273"><ele>281.0</ele><time>2026-05-04T07:04:52.162Z</time></trkpt><trkpt lat="45.6966459" lon="8.7061517"><ele>280.6</ele><time>2026-05-04T07:04:54.162Z</time></trkpt><trkpt lat="45.6967146" lon="8.706282"><ele>280.20000000000005</ele><time>2026-05-04T07:04:56.161Z</time></trkpt><trkpt lat="45.696778" lon="8.7064075"><ele>279.79999999999995</ele><time>2026-05-04T07:04:58.161Z</time></trkpt><trkpt lat="45.6968454" lon="8.7065427"><ele>279.4</ele><time>2026-05-04T07:05:00.162Z</time></trkpt><trkpt lat="45.696905" lon="8.7066668"><ele>279.0</ele><time>2026-05-04T07:05:02.161Z</time></trkpt><trkpt lat="45.6969755" lon="8.7068112"><ele>279.2</ele><time>2026-05-04T07:05:04.16Z</time></trkpt><trkpt lat="45.6970544" lon="8.7069117"><ele>279.4</ele><time>2026-05-04T07:05:06.161Z</time></trkpt><trkpt lat="45.6970976" lon="8.7069841"><ele>279.6</ele><time>2026-05-04T07:05:07.162Z</time></trkpt><trkpt lat="45.697174" lon="8.7071027"><ele>279.8</ele><time>2026-05-04T07:05:09.162Z</time></trkpt><trkpt lat="45.6972399" lon="8.707232"><ele>280.0</ele><time>2026-05-04T07:05:11.162Z</time></trkpt><trkpt lat="45.6972938" lon="8.7073478"><ele>280.0</ele><time>2026-05-04T07:05:13.161Z</time></trkpt><trkpt lat="45.6973467" lon="8.7074812"><ele>280.0</ele><time>2026-05-04T07:05:15.162Z</time></trkpt><trkpt lat="45.69744" lon="8.7075783"><ele>280.0</ele><time>2026-05-04T07:05:17.161Z</time></trkpt><trkpt lat="45.6974998" lon="8.7076351"><ele>280.0</ele><time>2026-05-04T07:05:18.161Z</time></trkpt><trkpt lat="45.6975492" lon="8.7077766"><ele>280.0</ele><time>2026-05-04T07:05:20.161Z</time></trkpt><trkpt lat="45.6976188" lon="8.7078975"><ele>280.6</ele><time>2026-05-04T07:05:22.161Z</time></trkpt><trkpt lat="45.6976896" lon="8.7080035"><ele>281.2</ele><time>2026-05-04T07:05:24.162Z</time></trkpt><trkpt lat="45.6977514" lon="8.7081131"><ele>281.8</ele><time>2026-05-04T07:05:26.161Z</time></trkpt><trkpt lat="45.6978229" lon="8.7082315"><ele>282.4</ele><time>2026-05-04T07:05:28.161Z</time></trkpt><trkpt lat="45.6978855" lon="8.7083609"><ele>283.0</ele><time>2026-05-04T07:05:30.161Z</time></trkpt><trkpt lat="45.6979562" lon="8.7084735"><ele>284.8</ele><time>2026-05-04T07:05:32.161Z</time></trkpt><trkpt lat="45.6980222" lon="8.7085817"><ele>286.6</ele><time>2026-05-04T07:05:34.16Z</time></trkpt><trkpt lat="45.6980877" lon="8.7086891"><ele>288.4</ele><time>2026-05-04T07:05:36.162Z</time></trkpt><trkpt lat="45.6981466" lon="8.7087931"><ele>290.2</ele><time>2026-05-04T07:05:38.161Z</time></trkpt><trkpt lat="45.6982076" lon="8.7088724"><ele>292.0</ele><time>2026-05-04T07:05:40.161Z</time></trkpt><trkpt lat="45.6982847" lon="8.7089736"><ele>292.0</ele><time>2026-05-04T07:05:42.161Z</time></trkpt><trkpt lat="45.6983402" lon="8.7090696"><ele>292.0</ele><time>2026-05-04T07:05:44.161Z</time></trkpt><trkpt lat="45.698406" lon="8.7091473"><ele>292.0</ele><time>2026-05-04T07:05:46.162Z</time></trkpt><trkpt lat="45.6984854" lon="8.7091968"><ele>292.0</ele><time>2026-05-04T07:05:48.161Z</time></trkpt><trkpt lat="45.6985535" lon="8.7092221"><ele>292.0</ele><time>2026-05-04T07:05:50.161Z</time></trkpt><trkpt lat="45.6986662" lon="8.7092404"><ele>292.0</ele><time>2026-05-04T07:05:52.161Z</time></trkpt><trkpt lat="45.6987773" lon="8.7092396"><ele>291.8</ele><time>2026-05-04T07:05:54.161Z</time></trkpt><trkpt lat="45.6988876" lon="8.7092475"><ele>291.6</ele><time>2026-05-04T07:05:56.161Z</time></trkpt><trkpt lat="45.6989761" lon="8.7092661"><ele>291.40000000000003</ele><time>2026-05-04T07:05:58.161Z</time></trkpt><trkpt lat="45.6990969" lon="8.7092934"><ele>291.2</ele><time>2026-05-04T07:06:00.161Z</time></trkpt><trkpt lat="45.6991634" lon="8.709307"><ele>291.0</ele><time>2026-05-04T07:06:01.162Z</time></trkpt><trkpt lat="45.6992593" lon="8.7093398"><ele>291.0</ele><time>2026-05-04T07:06:03.163Z</time></trkpt><trkpt lat="45.6993559" lon="8.7093372"><ele>291.0</ele><time>2026-05-04T07:06:05.162Z</time></trkpt><trkpt lat="45.6994468" lon="8.7092858"><ele>291.0</ele><time>2026-05-04T07:06:07.162Z</time></trkpt><trkpt lat="45.6995413" lon="8.7093023"><ele>291.0</ele><time>2026-05-04T07:06:09.163Z</time></trkpt><trkpt lat="45.6996388" lon="8.7093368"><ele>291.0</ele><time>2026-05-04T07:06:11.161Z</time></trkpt><trkpt lat="45.6997363" lon="8.7093416"><ele>291.5</ele><time>2026-05-04T07:06:13.161Z</time></trkpt><trkpt lat="45.6998116" lon="8.7093525"><ele>292.0</ele><time>2026-05-04T07:06:15.161Z</time></trkpt><trkpt lat="45.6999051" lon="8.709326"><ele>292.5</ele><time>2026-05-04T07:06:17.161Z</time></trkpt><trkpt lat="45.6999626" lon="8.7093628"><ele>293.0</ele><time>2026-05-04T07:06:19.161Z</time></trkpt><trkpt lat="45.7000622" lon="8.7093749"><ele>293.5</ele><time>2026-05-04T07:06:21.161Z</time></trkpt><trkpt lat="45.700126" lon="8.7093759"><ele>294.0</ele><time>2026-05-04T07:06:22.161Z</time></trkpt><trkpt lat="45.7002068" lon="8.7093721"><ele>294.0</ele><time>2026-05-04T07:06:24.162Z</time></trkpt><trkpt lat="45.7002739" lon="8.7093664"><ele>294.0</ele><time>2026-05-04T07:06:26.162Z</time></trkpt><trkpt lat="45.7003429" lon="8.709366"><ele>294.0</ele><time>2026-05-04T07:06:28.161Z</time></trkpt><trkpt lat="45.7004124" lon="8.709359"><ele>294.0</ele><time>2026-05-04T07:06:30.162Z</time></trkpt><trkpt lat="45.7004901" lon="8.7093405"><ele>294.0</ele><time>2026-05-04T07:06:32.162Z</time></trkpt><trkpt lat="45.7005701" lon="8.7093288"><ele>294.0</ele><time>2026-05-04T07:06:34.162Z</time></trkpt><trkpt lat="45.7006568" lon="8.7093109"><ele>294.0</ele><time>2026-05-04T07:06:36.161Z</time></trkpt><trkpt lat="45.7007498" lon="8.7092691"><ele>294.0</ele><time>2026-05-04T07:06:38.162Z</time></trkpt><trkpt lat="45.7008412" lon="8.7092561"><ele>294.0</ele><time>2026-05-04T07:06:40.162Z</time></trkpt><trkpt lat="45.7009291" lon="8.7092341"><ele>294.0</ele><time>2026-05-04T07:06:42.161Z</time></trkpt><trkpt lat="45.7010229" lon="8.7092129"><ele>294.0</ele><time>2026-05-04T07:06:44.163Z</time></trkpt><trkpt lat="45.7011077" lon="8.7091809"><ele>294.3333333333333</ele><time>2026-05-04T07:06:46.162Z</time></trkpt><trkpt lat="45.7012075" lon="8.7091711"><ele>294.6666666666667</ele><time>2026-05-04T07:06:48.161Z</time></trkpt><trkpt lat="45.7012778" lon="8.7091844"><ele>295.0</ele><time>2026-05-04T07:06:49.162Z</time></trkpt><trkpt lat="45.7013736" lon="8.7091662"><ele>295.33333333333337</ele><time>2026-05-04T07:06:51.161Z</time></trkpt><trkpt lat="45.7014882" lon="8.7091583"><ele>295.6666666666667</ele><time>2026-05-04T07:06:53.161Z</time></trkpt><trkpt lat="45.7015504" lon="8.70914"><ele>296.0</ele><time>2026-05-04T07:06:54.161Z</time></trkpt><trkpt lat="45.7016764" lon="8.709109"><ele>296.0</ele><time>2026-05-04T07:06:56.161Z</time></trkpt><trkpt lat="45.701738" lon="8.7090835"><ele>296.0</ele><time>2026-05-04T07:06:57.161Z</time></trkpt><trkpt lat="45.7018446" lon="8.7091369"><ele>296.0</ele><time>2026-05-04T07:06:58.161Z</time></trkpt><trkpt lat="45.701924" lon="8.7091629"><ele>296.0</ele><time>2026-05-04T07:06:59.161Z</time></trkpt><trkpt lat="45.7019912" lon="8.7091405"><ele>296.0</ele><time>2026-05-04T07:07:00.162Z</time></trkpt><trkpt lat="45.7020687" lon="8.7091595"><ele>296.0</ele><time>2026-05-04T07:07:01.162Z</time></trkpt><trkpt lat="45.7021374" lon="8.7091754"><ele>294.6666666666667</ele><time>2026-05-04T07:07:02.162Z</time></trkpt><trkpt lat="45.7022085" lon="8.7091921"><ele>293.33333333333337</ele><time>2026-05-04T07:07:03.163Z</time></trkpt><trkpt lat="45.7023252" lon="8.7091813"><ele>292.0</ele><time>2026-05-04T07:07:05.161Z</time></trkpt><trkpt lat="45.7023912" lon="8.7091891"><ele>290.6666666666667</ele><time>2026-05-04T07:07:06.161Z</time></trkpt><trkpt lat="45.7024937" lon="8.7091953"><ele>289.3333333333333</ele><time>2026-05-04T07:07:07.162Z</time></trkpt><trkpt lat="45.7025633" lon="8.7091907"><ele>288.0</ele><time>2026-05-04T07:07:08.161Z</time></trkpt><trkpt lat="45.7026363" lon="8.7092049"><ele>288.0</ele><time>2026-05-04T07:07:09.161Z</time></trkpt><trkpt lat="45.7027088" lon="8.7092252"><ele>288.0</ele><time>2026-05-04T07:07:10.161Z</time></trkpt><trkpt lat="45.7027783" lon="8.709237"><ele>288.0</ele><time>2026-05-04T07:07:11.162Z</time></trkpt><trkpt lat="45.7028781" lon="8.7092135"><ele>288.0</ele><time>2026-05-04T07:07:12.162Z</time></trkpt><trkpt lat="45.702945" lon="8.7092236"><ele>288.0</ele><time>2026-05-04T07:07:13.161Z</time></trkpt><trkpt lat="45.7030128" lon="8.7092255"><ele>288.0</ele><time>2026-05-04T07:07:14.163Z</time></trkpt><trkpt lat="45.7031344" lon="8.709222"><ele>287.8</ele><time>2026-05-04T07:07:16.162Z</time></trkpt><trkpt lat="45.7032487" lon="8.7093392"><ele>287.6</ele><time>2026-05-04T07:07:18.162Z</time></trkpt><trkpt lat="45.7033255" lon="8.709431"><ele>287.4</ele><time>2026-05-04T07:07:20.162Z</time></trkpt><trkpt lat="45.7033661" lon="8.7095212"><ele>287.2</ele><time>2026-05-04T07:07:21.162Z</time></trkpt><trkpt lat="45.7034487" lon="8.7095489"><ele>287.0</ele><time>2026-05-04T07:07:23.162Z</time></trkpt><trkpt lat="45.7035476" lon="8.7094501"><ele>285.2</ele><time>2026-05-04T07:07:26.163Z</time></trkpt><trkpt lat="45.7036068" lon="8.7093957"><ele>283.4</ele><time>2026-05-04T07:07:28.161Z</time></trkpt><trkpt lat="45.703733" lon="8.709303"><ele>281.6</ele><time>2026-05-04T07:07:30.163Z</time></trkpt><trkpt lat="45.7037932" lon="8.7092441"><ele>279.8</ele><time>2026-05-04T07:07:31.161Z</time></trkpt><trkpt lat="45.7038977" lon="8.7091365"><ele>278.0</ele><time>2026-05-04T07:07:33.163Z</time></trkpt><trkpt lat="45.7039533" lon="8.7090753"><ele>278.0</ele><time>2026-05-04T07:07:34.163Z</time></trkpt><trkpt lat="45.7040223" lon="8.7089927"><ele>278.0</ele><time>2026-05-04T07:07:35.161Z</time></trkpt><trkpt lat="45.7041072" lon="8.7088237"><ele>278.0</ele><time>2026-05-04T07:07:37.161Z</time></trkpt><trkpt lat="45.7041333" lon="8.7087184"><ele>278.0</ele><time>2026-05-04T07:07:38.16Z</time></trkpt><trkpt lat="45.7041594" lon="8.7086187"><ele>278.0</ele><time>2026-05-04T07:07:39.162Z</time></trkpt><trkpt lat="45.7041913" lon="8.7085167"><ele>276.1666666666667</ele><time>2026-05-04T07:07:40.162Z</time></trkpt><trkpt lat="45.7042067" lon="8.7084171"><ele>274.33333333333337</ele><time>2026-05-04T07:07:41.161Z</time></trkpt><trkpt lat="45.7041809" lon="8.708293"><ele>272.5</ele><time>2026-05-04T07:07:43.161Z</time></trkpt><trkpt lat="45.7041173" lon="8.7081882"><ele>270.6666666666667</ele><time>2026-05-04T07:07:45.162Z</time></trkpt><trkpt lat="45.7040836" lon="8.7081061"><ele>268.8333333333333</ele><time>2026-05-04T07:07:46.161Z</time></trkpt><trkpt lat="45.704025" lon="8.7080688"><ele>267.0</ele><time>2026-05-04T07:07:47.161Z</time></trkpt><trkpt lat="45.703934" lon="8.707962"><ele>267.0</ele><time>2026-05-04T07:07:49.162Z</time></trkpt><trkpt lat="45.7038214" lon="8.7077864"><ele>267.0</ele><time>2026-05-04T07:07:51.162Z</time></trkpt><trkpt lat="45.7038054" lon="8.7076824"><ele>267.0</ele><time>2026-05-04T07:07:52.162Z</time></trkpt><trkpt lat="45.7037661" lon="8.7075954"><ele>267.0</ele><time>2026-05-04T07:07:53.161Z</time></trkpt><trkpt lat="45.7037287" lon="8.7074964"><ele>267.0</ele><time>2026-05-04T07:07:54.161Z</time></trkpt><trkpt lat="45.7036865" lon="8.7073025"><ele>266.2</ele><time>2026-05-04T07:07:56.161Z</time></trkpt><trkpt lat="45.7036104" lon="8.7071706"><ele>265.4</ele><time>2026-05-04T07:07:58.162Z</time></trkpt><trkpt lat="45.7035088" lon="8.7071011"><ele>264.6</ele><time>2026-05-04T07:08:00.162Z</time></trkpt><trkpt lat="45.7034465" lon="8.7070512"><ele>263.8</ele><time>2026-05-04T07:08:01.161Z</time></trkpt><trkpt lat="45.7033547" lon="8.7070213"><ele>263.0</ele><time>2026-05-04T07:08:03.161Z</time></trkpt><trkpt lat="45.7032948" lon="8.7069723"><ele>263.0</ele><time>2026-05-04T07:08:04.161Z</time></trkpt><trkpt lat="45.7032126" lon="8.7069135"><ele>263.0</ele><time>2026-05-04T07:08:06.161Z</time></trkpt><trkpt lat="45.7031351" lon="8.7068221"><ele>263.0</ele><time>2026-05-04T07:08:08.161Z</time></trkpt><trkpt lat="45.7030527" lon="8.7067286"><ele>263.0</ele><time>2026-05-04T07:08:10.162Z</time></trkpt><trkpt lat="45.702959" lon="8.7066572"><ele>263.0</ele><time>2026-05-04T07:08:12.162Z</time></trkpt><trkpt lat="45.7028955" lon="8.7066409"><ele>261.8</ele><time>2026-05-04T07:08:13.161Z</time></trkpt><trkpt lat="45.7027868" lon="8.7066538"><ele>260.6</ele><time>2026-05-04T07:08:15.161Z</time></trkpt><trkpt lat="45.7027143" lon="8.7066756"><ele>259.4</ele><time>2026-05-04T07:08:16.162Z</time></trkpt><trkpt lat="45.7026046" lon="8.7067211"><ele>258.2</ele><time>2026-05-04T07:08:18.161Z</time></trkpt><trkpt lat="45.7024913" lon="8.7067723"><ele>257.0</ele><time>2026-05-04T07:08:20.162Z</time></trkpt><trkpt lat="45.7024011" lon="8.7068277"><ele>256.8</ele><time>2026-05-04T07:08:22.161Z</time></trkpt><trkpt lat="45.7023176" lon="8.706891"><ele>256.6</ele><time>2026-05-04T07:08:24.161Z</time></trkpt><trkpt lat="45.7022193" lon="8.7069281"><ele>256.40000000000003</ele><time>2026-05-04T07:08:26.162Z</time></trkpt><trkpt lat="45.7021204" lon="8.706972"><ele>256.2</ele><time>2026-05-04T07:08:28.162Z</time></trkpt><trkpt lat="45.7020351" lon="8.7069131"><ele>256.0</ele><time>2026-05-04T07:08:30.162Z</time></trkpt><trkpt lat="45.7019329" lon="8.7068468"><ele>257.2</ele><time>2026-05-04T07:08:32.161Z</time></trkpt><trkpt lat="45.7018374" lon="8.7068106"><ele>258.40000000000003</ele><time>2026-05-04T07:08:34.161Z</time></trkpt><trkpt lat="45.7017229" lon="8.7067677"><ele>259.6</ele><time>2026-05-04T07:08:36.162Z</time></trkpt><trkpt lat="45.7016283" lon="8.706683"><ele>260.8</ele><time>2026-05-04T07:08:38.161Z</time></trkpt><trkpt lat="45.7015412" lon="8.7065891"><ele>262.0</ele><time>2026-05-04T07:08:40.162Z</time></trkpt><trkpt lat="45.7014843" lon="8.7065049"><ele>262.0</ele><time>2026-05-04T07:08:42.161Z</time></trkpt><trkpt lat="45.7013978" lon="8.7064084"><ele>262.0</ele><time>2026-05-04T07:08:44.161Z</time></trkpt><trkpt lat="45.7013317" lon="8.7062867"><ele>262.0</ele><time>2026-05-04T07:08:46.163Z</time></trkpt><trkpt lat="45.7012549" lon="8.7062077"><ele>262.0</ele><time>2026-05-04T07:08:48.162Z</time></trkpt><trkpt lat="45.7011885" lon="8.7061384"><ele>262.0</ele><time>2026-05-04T07:08:50.163Z</time></trkpt><trkpt lat="45.7011219" lon="8.7060345"><ele>263.4</ele><time>2026-05-04T07:08:52.162Z</time></trkpt><trkpt lat="45.7010584" lon="8.705951"><ele>264.79999999999995</ele><time>2026-05-04T07:08:54.161Z</time></trkpt><trkpt lat="45.7009926" lon="8.7058706"><ele>266.2</ele><time>2026-05-04T07:08:56.161Z</time></trkpt><trkpt lat="45.7009224" lon="8.7057898"><ele>267.59999999999997</ele><time>2026-05-04T07:08:58.161Z</time></trkpt><trkpt lat="45.7008611" lon="8.7056986"><ele>269.0</ele><time>2026-05-04T07:09:00.162Z</time></trkpt><trkpt lat="45.7007976" lon="8.7055646"><ele>269.0</ele><time>2026-05-04T07:09:02.162Z</time></trkpt><trkpt lat="45.7007483" lon="8.7054284"><ele>269.0</ele><time>2026-05-04T07:09:04.162Z</time></trkpt><trkpt lat="45.7006903" lon="8.7053296"><ele>269.0</ele><time>2026-05-04T07:09:06.162Z</time></trkpt><trkpt lat="45.7006372" lon="8.7052475"><ele>269.0</ele><time>2026-05-04T07:09:08.161Z</time></trkpt><trkpt lat="45.700569" lon="8.7051271"><ele>269.0</ele><time>2026-05-04T07:09:10.161Z</time></trkpt><trkpt lat="45.7005269" lon="8.7050498"><ele>271.2</ele><time>2026-05-04T07:09:11.163Z</time></trkpt><trkpt lat="45.7004423" lon="8.7049484"><ele>273.4</ele><time>2026-05-04T07:09:13.161Z</time></trkpt><trkpt lat="45.7003581" lon="8.7048422"><ele>275.6</ele><time>2026-05-04T07:09:15.161Z</time></trkpt><trkpt lat="45.7003069" lon="8.7047466"><ele>277.8</ele><time>2026-05-04T07:09:17.161Z</time></trkpt><trkpt lat="45.7002409" lon="8.7046616"><ele>280.0</ele><time>2026-05-04T07:09:19.161Z</time></trkpt><trkpt lat="45.7001703" lon="8.7045783"><ele>280.0</ele><time>2026-05-04T07:09:21.162Z</time></trkpt><trkpt lat="45.7000889" lon="8.7044921"><ele>280.0</ele><time>2026-05-04T07:09:23.162Z</time></trkpt><trkpt lat="45.6999956" lon="8.7044073"><ele>280.0</ele><time>2026-05-04T07:09:25.162Z</time></trkpt><trkpt lat="45.6999076" lon="8.7043466"><ele>280.0</ele><time>2026-05-04T07:09:27.163Z</time></trkpt><trkpt lat="45.6998567" lon="8.7042776"><ele>280.0</ele><time>2026-05-04T07:09:29.164Z</time></trkpt><trkpt lat="45.6998507" lon="8.7041174"><ele>276.8</ele><time>2026-05-04T07:09:32.161Z</time></trkpt><trkpt lat="45.699826" lon="8.7039952"><ele>273.6</ele><time>2026-05-04T07:09:34.163Z</time></trkpt><trkpt lat="45.6997617" lon="8.7039096"><ele>270.4</ele><time>2026-05-04T07:09:37.163Z</time></trkpt><trkpt lat="45.6996706" lon="8.7037542"><ele>267.2</ele><time>2026-05-04T07:09:39.161Z</time></trkpt><trkpt lat="45.6996264" lon="8.7036353"><ele>264.0</ele><time>2026-05-04T07:09:41.162Z</time></trkpt><trkpt lat="45.6995584" lon="8.7035219"><ele>263.0</ele><time>2026-05-04T07:09:43.161Z</time></trkpt><trkpt lat="45.6994981" lon="8.7034533"><ele>262.0</ele><time>2026-05-04T07:09:45.162Z</time></trkpt><trkpt lat="45.6994366" lon="8.7033712"><ele>261.0</ele><time>2026-05-04T07:09:48.161Z</time></trkpt><trkpt lat="45.6993683" lon="8.7032828"><ele>260.0</ele><time>2026-05-04T07:09:50.163Z</time></trkpt><trkpt lat="45.6992706" lon="8.7031068"><ele>259.0</ele><time>2026-05-04T07:09:52.161Z</time></trkpt><trkpt lat="45.6992051" lon="8.7030146"><ele>259.14285714285717</ele><time>2026-05-04T07:09:54.161Z</time></trkpt><trkpt lat="45.6991611" lon="8.7029424"><ele>259.2857142857143</ele><time>2026-05-04T07:09:56.162Z</time></trkpt><trkpt lat="45.6991251" lon="8.7028552"><ele>259.42857142857144</ele><time>2026-05-04T07:09:58.162Z</time></trkpt><trkpt lat="45.6991216" lon="8.7027464"><ele>259.57142857142856</ele><time>2026-05-04T07:10:00.161Z</time></trkpt><trkpt lat="45.6990947" lon="8.7026421"><ele>259.7142857142857</ele><time>2026-05-04T07:10:04.161Z</time></trkpt><trkpt lat="45.6990081" lon="8.7026121"><ele>259.8571428571429</ele><time>2026-05-04T07:10:07.162Z</time></trkpt><trkpt lat="45.6989778" lon="8.7025329"><ele>260.0</ele><time>2026-05-04T07:10:11.162Z</time></trkpt><trkpt lat="45.699057" lon="8.7024938"><ele>260.0</ele><time>2026-05-04T07:10:13.161Z</time></trkpt><trkpt lat="45.6991342" lon="8.7024274"><ele>260.0</ele><time>2026-05-04T07:10:15.161Z</time></trkpt><trkpt lat="45.6992189" lon="8.7023657"><ele>260.0</ele><time>2026-05-04T07:10:17.162Z</time></trkpt><trkpt lat="45.6993157" lon="8.702333"><ele>260.0</ele><time>2026-05-04T07:10:19.162Z</time></trkpt><trkpt lat="45.6994111" lon="8.7022717"><ele>260.0</ele><time>2026-05-04T07:10:21.163Z</time></trkpt><trkpt lat="45.699504" lon="8.7022114"><ele>259.8</ele><time>2026-05-04T07:10:23.163Z</time></trkpt><trkpt lat="45.6996134" lon="8.7021937"><ele>259.6</ele><time>2026-05-04T07:10:25.161Z</time></trkpt><trkpt lat="45.6996978" lon="8.7021357"><ele>259.4</ele><time>2026-05-04T07:10:27.162Z</time></trkpt><trkpt lat="45.699787" lon="8.7020696"><ele>259.2</ele><time>2026-05-04T07:10:29.162Z</time></trkpt><trkpt lat="45.6998533" lon="8.7020019"><ele>259.0</ele><time>2026-05-04T07:10:31.161Z</time></trkpt><trkpt lat="45.6999335" lon="8.7019446"><ele>259.2</ele><time>2026-05-04T07:10:33.16Z</time></trkpt><trkpt lat="45.7000272" lon="8.7018798"><ele>259.4</ele><time>2026-05-04T07:10:35.163Z</time></trkpt><trkpt lat="45.7001274" lon="8.7018224"><ele>259.6</ele><time>2026-05-04T07:10:37.162Z</time></trkpt><trkpt lat="45.7002282" lon="8.7017603"><ele>259.8</ele><time>2026-05-04T07:10:39.161Z</time></trkpt><trkpt lat="45.7003332" lon="8.70169"><ele>260.0</ele><time>2026-05-04T07:10:41.161Z</time></trkpt><trkpt lat="45.7004205" lon="8.7016475"><ele>260.1666666666667</ele><time>2026-05-04T07:10:43.161Z</time></trkpt><trkpt lat="45.700481" lon="8.7016055"><ele>260.33333333333337</ele><time>2026-05-04T07:10:44.161Z</time></trkpt><trkpt lat="45.7005745" lon="8.7015465"><ele>260.5</ele><time>2026-05-04T07:10:46.161Z</time></trkpt><trkpt lat="45.7006726" lon="8.7014835"><ele>260.6666666666667</ele><time>2026-05-04T07:10:48.163Z</time></trkpt><trkpt lat="45.700745" lon="8.7014402"><ele>260.8333333333333</ele><time>2026-05-04T07:10:49.162Z</time></trkpt><trkpt lat="45.7008068" lon="8.7014053"><ele>261.0</ele><time>2026-05-04T07:10:50.161Z</time></trkpt><trkpt lat="45.7009123" lon="8.7013582"><ele>261.0</ele><time>2026-05-04T07:10:52.162Z</time></trkpt><trkpt lat="45.7010226" lon="8.7012865"><ele>261.0</ele><time>2026-05-04T07:10:54.162Z</time></trkpt><trkpt lat="45.701122" lon="8.7012243"><ele>261.0</ele><time>2026-05-04T07:10:56.162Z</time></trkpt><trkpt lat="45.701225" lon="8.7011628"><ele>261.0</ele><time>2026-05-04T07:10:58.161Z</time></trkpt><trkpt lat="45.7012966" lon="8.7011484"><ele>261.0</ele><time>2026-05-04T07:10:59.163Z</time></trkpt><trkpt lat="45.7013774" lon="8.7010959"><ele>261.6</ele><time>2026-05-04T07:11:01.162Z</time></trkpt><trkpt lat="45.7014795" lon="8.701029"><ele>262.20000000000005</ele><time>2026-05-04T07:11:03.163Z</time></trkpt><trkpt lat="45.7015857" lon="8.7009568"><ele>262.79999999999995</ele><time>2026-05-04T07:11:05.161Z</time></trkpt><trkpt lat="45.7016472" lon="8.700923"><ele>263.4</ele><time>2026-05-04T07:11:06.161Z</time></trkpt><trkpt lat="45.7017457" lon="8.7008506"><ele>264.0</ele><time>2026-05-04T07:11:08.161Z</time></trkpt><trkpt lat="45.7018564" lon="8.7007788"><ele>264.0</ele><time>2026-05-04T07:11:10.162Z</time></trkpt><trkpt lat="45.7019165" lon="8.7007378"><ele>264.0</ele><time>2026-05-04T07:11:11.162Z</time></trkpt><trkpt lat="45.7020318" lon="8.700683"><ele>264.0</ele><time>2026-05-04T07:11:13.161Z</time></trkpt><trkpt lat="45.7020888" lon="8.7006443"><ele>264.0</ele><time>2026-05-04T07:11:14.162Z</time></trkpt><trkpt lat="45.7021549" lon="8.7006124"><ele>264.0</ele><time>2026-05-04T07:11:15.161Z</time></trkpt><trkpt lat="45.7022135" lon="8.700569"><ele>264.0</ele><time>2026-05-04T07:11:16.162Z</time></trkpt><trkpt lat="45.7023453" lon="8.7004808"><ele>264.0</ele><time>2026-05-04T07:11:18.161Z</time></trkpt><trkpt lat="45.7024517" lon="8.7004045"><ele>264.0</ele><time>2026-05-04T07:11:20.162Z</time></trkpt><trkpt lat="45.7025564" lon="8.7003472"><ele>264.0</ele><time>2026-05-04T07:11:22.161Z</time></trkpt><trkpt lat="45.7026452" lon="8.7002885"><ele>264.0</ele><time>2026-05-04T07:11:24.161Z</time></trkpt><trkpt lat="45.7027489" lon="8.7002346"><ele>264.0</ele><time>2026-05-04T07:11:26.162Z</time></trkpt><trkpt lat="45.702813" lon="8.7001991"><ele>264.25</ele><time>2026-05-04T07:11:27.162Z</time></trkpt><trkpt lat="45.7029124" lon="8.700148"><ele>264.5</ele><time>2026-05-04T07:11:29.163Z</time></trkpt><trkpt lat="45.7030189" lon="8.7001124"><ele>264.75</ele><time>2026-05-04T07:11:31.161Z</time></trkpt><trkpt lat="45.7031509" lon="8.7000327"><ele>265.0</ele><time>2026-05-04T07:11:33.162Z</time></trkpt><trkpt lat="45.7032648" lon="8.6999744"><ele>265.0</ele><time>2026-05-04T07:11:35.162Z</time></trkpt><trkpt lat="45.7033538" lon="8.699933"><ele>265.0</ele><time>2026-05-04T07:11:37.162Z</time></trkpt><trkpt lat="45.7034155" lon="8.6999094"><ele>265.0</ele><time>2026-05-04T07:11:38.161Z</time></trkpt><trkpt lat="45.7035198" lon="8.699836"><ele>265.0</ele><time>2026-05-04T07:11:40.162Z</time></trkpt><trkpt lat="45.7036261" lon="8.6997988"><ele>265.0</ele><time>2026-05-04T07:11:42.162Z</time></trkpt><trkpt lat="45.7037389" lon="8.6997291"><ele>264.6</ele><time>2026-05-04T07:11:44.161Z</time></trkpt><trkpt lat="45.7038308" lon="8.6996667"><ele>264.2</ele><time>2026-05-04T07:11:46.161Z</time></trkpt><trkpt lat="45.7039246" lon="8.6996013"><ele>263.8</ele><time>2026-05-04T07:11:48.163Z</time></trkpt><trkpt lat="45.7039889" lon="8.6995782"><ele>263.4</ele><time>2026-05-04T07:11:49.162Z</time></trkpt><trkpt lat="45.7040731" lon="8.6995406"><ele>263.0</ele><time>2026-05-04T07:11:51.162Z</time></trkpt><trkpt lat="45.704164" lon="8.6994786"><ele>263.0</ele><time>2026-05-04T07:11:53.162Z</time></trkpt><trkpt lat="45.704264" lon="8.699449"><ele>263.0</ele><time>2026-05-04T07:11:55.161Z</time></trkpt><trkpt lat="45.7043695" lon="8.6994777"><ele>263.0</ele><time>2026-05-04T07:11:57.162Z</time></trkpt><trkpt lat="45.7044788" lon="8.6995082"><ele>263.0</ele><time>2026-05-04T07:11:59.162Z</time></trkpt><trkpt lat="45.7045472" lon="8.6994804"><ele>263.0</ele><time>2026-05-04T07:12:00.163Z</time></trkpt><trkpt lat="45.7046145" lon="8.6994558"><ele>263.4</ele><time>2026-05-04T07:12:01.161Z</time></trkpt><trkpt lat="45.7046824" lon="8.6993352"><ele>263.8</ele><time>2026-05-04T07:12:03.162Z</time></trkpt><trkpt lat="45.704717" lon="8.6992563"><ele>264.2</ele><time>2026-05-04T07:12:04.16Z</time></trkpt><trkpt lat="45.7047778" lon="8.6991031"><ele>264.6</ele><time>2026-05-04T07:12:06.162Z</time></trkpt><trkpt lat="45.7048674" lon="8.6989878"><ele>265.0</ele><time>2026-05-04T07:12:08.161Z</time></trkpt><trkpt lat="45.7049706" lon="8.6989094"><ele>265.0</ele><time>2026-05-04T07:12:10.161Z</time></trkpt><trkpt lat="45.7050777" lon="8.698837"><ele>265.0</ele><time>2026-05-04T07:12:12.161Z</time></trkpt><trkpt lat="45.7051385" lon="8.6988101"><ele>265.0</ele><time>2026-05-04T07:12:13.162Z</time></trkpt><trkpt lat="45.7052005" lon="8.698779"><ele>265.0</ele><time>2026-05-04T07:12:14.162Z</time></trkpt><trkpt lat="45.7053069" lon="8.6987052"><ele>265.0</ele><time>2026-05-04T07:12:16.161Z</time></trkpt><trkpt lat="45.7054184" lon="8.6986308"><ele>265.8</ele><time>2026-05-04T07:12:18.163Z</time></trkpt><trkpt lat="45.7055274" lon="8.6985628"><ele>266.6</ele><time>2026-05-04T07:12:20.161Z</time></trkpt><trkpt lat="45.7055842" lon="8.6985214"><ele>267.4</ele><time>2026-05-04T07:12:21.162Z</time></trkpt><trkpt lat="45.7056899" lon="8.69844"><ele>268.2</ele><time>2026-05-04T07:12:23.163Z</time></trkpt><trkpt lat="45.7057908" lon="8.6983844"><ele>269.0</ele><time>2026-05-04T07:12:25.162Z</time></trkpt><trkpt lat="45.7058986" lon="8.698323"><ele>269.0</ele><time>2026-05-04T07:12:27.161Z</time></trkpt><trkpt lat="45.7060091" lon="8.6982542"><ele>269.0</ele><time>2026-05-04T07:12:29.162Z</time></trkpt><trkpt lat="45.7060682" lon="8.6982179"><ele>269.0</ele><time>2026-05-04T07:12:30.161Z</time></trkpt><trkpt lat="45.7061805" lon="8.6981521"><ele>269.0</ele><time>2026-05-04T07:12:32.162Z</time></trkpt><trkpt lat="45.7062878" lon="8.6980804"><ele>269.0</ele><time>2026-05-04T07:12:34.162Z</time></trkpt><trkpt lat="45.7063976" lon="8.698027"><ele>268.5</ele><time>2026-05-04T07:12:36.161Z</time></trkpt><trkpt lat="45.7065084" lon="8.6979604"><ele>268.0</ele><time>2026-05-04T07:12:38.162Z</time></trkpt><trkpt lat="45.7066214" lon="8.6978851"><ele>267.5</ele><time>2026-05-04T07:12:40.162Z</time></trkpt><trkpt lat="45.706735" lon="8.6978081"><ele>267.0</ele><time>2026-05-04T07:12:42.162Z</time></trkpt><trkpt lat="45.7068493" lon="8.6977444"><ele>267.0</ele><time>2026-05-04T07:12:44.161Z</time></trkpt><trkpt lat="45.7069073" lon="8.6977024"><ele>267.0</ele><time>2026-05-04T07:12:45.162Z</time></trkpt><trkpt lat="45.7069658" lon="8.6976689"><ele>267.0</ele><time>2026-05-04T07:12:46.162Z</time></trkpt><trkpt lat="45.7070822" lon="8.6975927"><ele>267.0</ele><time>2026-05-04T07:12:48.162Z</time></trkpt><trkpt lat="45.707195" lon="8.6975222"><ele>267.0</ele><time>2026-05-04T07:12:50.162Z</time></trkpt><trkpt lat="45.7073082" lon="8.6974599"><ele>267.0</ele><time>2026-05-04T07:12:52.161Z</time></trkpt><trkpt lat="45.7074237" lon="8.6973853"><ele>267.0</ele><time>2026-05-04T07:12:54.162Z</time></trkpt><trkpt lat="45.7074822" lon="8.6973486"><ele>267.0</ele><time>2026-05-04T07:12:55.161Z</time></trkpt><trkpt lat="45.7075993" lon="8.6972881"><ele>267.0</ele><time>2026-05-04T07:12:57.162Z</time></trkpt><trkpt lat="45.7077119" lon="8.6971939"><ele>267.0</ele><time>2026-05-04T07:12:59.161Z</time></trkpt><trkpt lat="45.7077759" lon="8.6971684"><ele>267.0</ele><time>2026-05-04T07:13:00.162Z</time></trkpt><trkpt lat="45.707848" lon="8.6971526"><ele>267.0</ele><time>2026-05-04T07:13:01.162Z</time></trkpt><trkpt lat="45.7079551" lon="8.697095"><ele>267.0</ele><time>2026-05-04T07:13:03.163Z</time></trkpt><trkpt lat="45.7080705" lon="8.6970274"><ele>267.0</ele><time>2026-05-04T07:13:05.162Z</time></trkpt><trkpt lat="45.7081315" lon="8.6969862"><ele>267.0</ele><time>2026-05-04T07:13:06.162Z</time></trkpt><trkpt lat="45.7082332" lon="8.6969185"><ele>267.0</ele><time>2026-05-04T07:13:08.162Z</time></trkpt><trkpt lat="45.7083509" lon="8.6968509"><ele>267.0</ele><time>2026-05-04T07:13:10.163Z</time></trkpt><trkpt lat="45.7084634" lon="8.6967869"><ele>267.0</ele><time>2026-05-04T07:13:12.162Z</time></trkpt><trkpt lat="45.7085819" lon="8.6967197"><ele>267.0</ele><time>2026-05-04T07:13:14.162Z</time></trkpt><trkpt lat="45.7086978" lon="8.6966505"><ele>266.75</ele><time>2026-05-04T07:13:16.162Z</time></trkpt><trkpt lat="45.7088206" lon="8.6965715"><ele>266.5</ele><time>2026-05-04T07:13:18.163Z</time></trkpt><trkpt lat="45.7089327" lon="8.6965127"><ele>266.25</ele><time>2026-05-04T07:13:20.163Z</time></trkpt><trkpt lat="45.7090599" lon="8.6964395"><ele>266.0</ele><time>2026-05-04T07:13:22.162Z</time></trkpt><trkpt lat="45.7091666" lon="8.6963872"><ele>266.0</ele><time>2026-05-04T07:13:24.163Z</time></trkpt><trkpt lat="45.7092817" lon="8.6963079"><ele>266.0</ele><time>2026-05-04T07:13:26.162Z</time></trkpt><trkpt lat="45.7093877" lon="8.6962398"><ele>266.0</ele><time>2026-05-04T07:13:28.163Z</time></trkpt><trkpt lat="45.709502" lon="8.6961759"><ele>266.0</ele><time>2026-05-04T07:13:30.162Z</time></trkpt><trkpt lat="45.7096046" lon="8.696104"><ele>265.40000000000003</ele><time>2026-05-04T07:13:32.162Z</time></trkpt><trkpt lat="45.7097151" lon="8.6960231"><ele>264.8</ele><time>2026-05-04T07:13:34.163Z</time></trkpt><trkpt lat="45.7098284" lon="8.6959654"><ele>264.20000000000005</ele><time>2026-05-04T07:13:36.161Z</time></trkpt><trkpt lat="45.7099351" lon="8.6958884"><ele>263.6</ele><time>2026-05-04T07:13:38.163Z</time></trkpt><trkpt lat="45.7099958" lon="8.695858"><ele>263.0</ele><time>2026-05-04T07:13:39.161Z</time></trkpt><trkpt lat="45.7101044" lon="8.6958022"><ele>263.0</ele><time>2026-05-04T07:13:41.161Z</time></trkpt><trkpt lat="45.7102182" lon="8.6957399"><ele>263.0</ele><time>2026-05-04T07:13:43.162Z</time></trkpt><trkpt lat="45.7103348" lon="8.695687"><ele>263.0</ele><time>2026-05-04T07:13:45.162Z</time></trkpt><trkpt lat="45.7104393" lon="8.6956244"><ele>263.0</ele><time>2026-05-04T07:13:47.163Z</time></trkpt><trkpt lat="45.7105567" lon="8.695563"><ele>262.6</ele><time>2026-05-04T07:13:49.161Z</time></trkpt><trkpt lat="45.7106174" lon="8.6955378"><ele>262.20000000000005</ele><time>2026-05-04T07:13:50.162Z</time></trkpt><trkpt lat="45.7107172" lon="8.6954678"><ele>261.8</ele><time>2026-05-04T07:13:52.162Z</time></trkpt><trkpt lat="45.7108165" lon="8.6954054"><ele>261.40000000000003</ele><time>2026-05-04T07:13:54.163Z</time></trkpt><trkpt lat="45.710919" lon="8.6953351"><ele>261.0</ele><time>2026-05-04T07:13:56.161Z</time></trkpt><trkpt lat="45.7110277" lon="8.6952636"><ele>261.75</ele><time>2026-05-04T07:13:58.162Z</time></trkpt><trkpt lat="45.7111386" lon="8.6952094"><ele>262.5</ele><time>2026-05-04T07:14:00.162Z</time></trkpt><trkpt lat="45.7112476" lon="8.6951493"><ele>263.25</ele><time>2026-05-04T07:14:02.162Z</time></trkpt><trkpt lat="45.7113511" lon="8.6950899"><ele>264.0</ele><time>2026-05-04T07:14:04.161Z</time></trkpt><trkpt lat="45.7114566" lon="8.6950148"><ele>264.0</ele><time>2026-05-04T07:14:06.162Z</time></trkpt><trkpt lat="45.7115721" lon="8.6949469"><ele>264.0</ele><time>2026-05-04T07:14:08.16Z</time></trkpt><trkpt lat="45.7116839" lon="8.6948669"><ele>264.0</ele><time>2026-05-04T07:14:10.163Z</time></trkpt><trkpt lat="45.7117446" lon="8.6948376"><ele>264.0</ele><time>2026-05-04T07:14:11.161Z</time></trkpt><trkpt lat="45.7118506" lon="8.694771"><ele>264.0</ele><time>2026-05-04T07:14:13.162Z</time></trkpt><trkpt lat="45.7119653" lon="8.6947014"><ele>263.8</ele><time>2026-05-04T07:14:15.163Z</time></trkpt><trkpt lat="45.7120815" lon="8.6946481"><ele>263.59999999999997</ele><time>2026-05-04T07:14:17.163Z</time></trkpt><trkpt lat="45.7121405" lon="8.6946095"><ele>263.4</ele><time>2026-05-04T07:14:18.162Z</time></trkpt><trkpt lat="45.7122504" lon="8.6945363"><ele>263.2</ele><time>2026-05-04T07:14:20.162Z</time></trkpt><trkpt lat="45.7123693" lon="8.6944714"><ele>263.0</ele><time>2026-05-04T07:14:22.162Z</time></trkpt><trkpt lat="45.7124748" lon="8.6944162"><ele>263.0</ele><time>2026-05-04T07:14:24.162Z</time></trkpt><trkpt lat="45.7125877" lon="8.6943362"><ele>263.0</ele><time>2026-05-04T07:14:26.162Z</time></trkpt><trkpt lat="45.7127025" lon="8.69427"><ele>263.0</ele><time>2026-05-04T07:14:28.162Z</time></trkpt><trkpt lat="45.7128176" lon="8.6942"><ele>263.0</ele><time>2026-05-04T07:14:30.163Z</time></trkpt><trkpt lat="45.7129329" lon="8.6941291"><ele>263.0</ele><time>2026-05-04T07:14:32.16Z</time></trkpt><trkpt lat="45.7130458" lon="8.6940497"><ele>263.0</ele><time>2026-05-04T07:14:34.162Z</time></trkpt><trkpt lat="45.7131052" lon="8.6940087"><ele>263.0</ele><time>2026-05-04T07:14:35.162Z</time></trkpt><trkpt lat="45.7132235" lon="8.69395"><ele>263.0</ele><time>2026-05-04T07:14:37.162Z</time></trkpt><trkpt lat="45.7133429" lon="8.6938941"><ele>263.0</ele><time>2026-05-04T07:14:39.161Z</time></trkpt><trkpt lat="45.713402" lon="8.6938556"><ele>263.0</ele><time>2026-05-04T07:14:40.163Z</time></trkpt><trkpt lat="45.7134605" lon="8.6938197"><ele>263.0</ele><time>2026-05-04T07:14:41.163Z</time></trkpt><trkpt lat="45.7135199" lon="8.6937816"><ele>263.0</ele><time>2026-05-04T07:14:42.163Z</time></trkpt><trkpt lat="45.7135829" lon="8.6937467"><ele>263.0</ele><time>2026-05-04T07:14:43.162Z</time></trkpt><trkpt lat="45.7136984" lon="8.6936947"><ele>263.0</ele><time>2026-05-04T07:14:45.163Z</time></trkpt><trkpt lat="45.7137609" lon="8.6936557"><ele>263.0</ele><time>2026-05-04T07:14:46.163Z</time></trkpt><trkpt lat="45.7138229" lon="8.693621"><ele>262.85714285714283</ele><time>2026-05-04T07:14:47.162Z</time></trkpt><trkpt lat="45.7138858" lon="8.6935759"><ele>262.71428571428567</ele><time>2026-05-04T07:14:48.163Z</time></trkpt><trkpt lat="45.7139526" lon="8.6935447"><ele>262.57142857142856</ele><time>2026-05-04T07:14:49.162Z</time></trkpt><trkpt lat="45.714019" lon="8.6935086"><ele>262.42857142857144</ele><time>2026-05-04T07:14:50.161Z</time></trkpt><trkpt lat="45.7140799" lon="8.6934769"><ele>262.28571428571433</ele><time>2026-05-04T07:14:51.162Z</time></trkpt><trkpt lat="45.7141442" lon="8.6934339"><ele>262.14285714285717</ele><time>2026-05-04T07:14:52.163Z</time></trkpt><trkpt lat="45.7142088" lon="8.693392"><ele>262.0</ele><time>2026-05-04T07:14:53.162Z</time></trkpt><trkpt lat="45.7142682" lon="8.6933568"><ele>262.0</ele><time>2026-05-04T07:14:54.163Z</time></trkpt><trkpt lat="45.7143365" lon="8.6933213"><ele>262.0</ele><time>2026-05-04T07:14:55.162Z</time></trkpt><trkpt lat="45.7143984" lon="8.6932824"><ele>262.0</ele><time>2026-05-04T07:14:56.163Z</time></trkpt><trkpt lat="45.7144571" lon="8.6932428"><ele>262.0</ele><time>2026-05-04T07:14:57.162Z</time></trkpt><trkpt lat="45.7145177" lon="8.6931935"><ele>262.0</ele><time>2026-05-04T07:14:58.162Z</time></trkpt><trkpt lat="45.7145793" lon="8.69315"><ele>262.0</ele><time>2026-05-04T07:14:59.162Z</time></trkpt><trkpt lat="45.714644" lon="8.6931193"><ele>262.0</ele><time>2026-05-04T07:15:00.163Z</time></trkpt><trkpt lat="45.7147078" lon="8.6930803"><ele>262.14285714285717</ele><time>2026-05-04T07:15:01.163Z</time></trkpt><trkpt lat="45.7147731" lon="8.6930425"><ele>262.28571428571433</ele><time>2026-05-04T07:15:02.162Z</time></trkpt><trkpt lat="45.7148418" lon="8.6930019"><ele>262.42857142857144</ele><time>2026-05-04T07:15:03.162Z</time></trkpt><trkpt lat="45.7149156" lon="8.692971"><ele>262.57142857142856</ele><time>2026-05-04T07:15:04.162Z</time></trkpt><trkpt lat="45.7149806" lon="8.6929291"><ele>262.71428571428567</ele><time>2026-05-04T07:15:05.161Z</time></trkpt><trkpt lat="45.7150437" lon="8.6928967"><ele>262.85714285714283</ele><time>2026-05-04T07:15:06.161Z</time></trkpt><trkpt lat="45.7151144" lon="8.6928556"><ele>263.0</ele><time>2026-05-04T07:15:07.162Z</time></trkpt><trkpt lat="45.7151828" lon="8.6928181"><ele>263.0</ele><time>2026-05-04T07:15:08.161Z</time></trkpt><trkpt lat="45.7152459" lon="8.6927813"><ele>263.0</ele><time>2026-05-04T07:15:09.161Z</time></trkpt><trkpt lat="45.7153082" lon="8.6927583"><ele>263.0</ele><time>2026-05-04T07:15:10.163Z</time></trkpt><trkpt lat="45.715365" lon="8.6927188"><ele>263.0</ele><time>2026-05-04T07:15:11.161Z</time></trkpt><trkpt lat="45.715482" lon="8.6926377"><ele>263.0</ele><time>2026-05-04T07:15:13.162Z</time></trkpt><trkpt lat="45.7155414" lon="8.6926024"><ele>263.0</ele><time>2026-05-04T07:15:14.161Z</time></trkpt><trkpt lat="45.7156606" lon="8.6925263"><ele>263.0</ele><time>2026-05-04T07:15:16.162Z</time></trkpt><trkpt lat="45.715758" lon="8.6924395"><ele>263.0</ele><time>2026-05-04T07:15:18.162Z</time></trkpt><trkpt lat="45.7158682" lon="8.6923569"><ele>263.0</ele><time>2026-05-04T07:15:20.161Z</time></trkpt><trkpt lat="45.7159773" lon="8.6922832"><ele>263.0</ele><time>2026-05-04T07:15:22.163Z</time></trkpt><trkpt lat="45.7160369" lon="8.6922528"><ele>263.0</ele><time>2026-05-04T07:15:23.162Z</time></trkpt><trkpt lat="45.7160964" lon="8.692212"><ele>263.0</ele><time>2026-05-04T07:15:24.162Z</time></trkpt><trkpt lat="45.7161656" lon="8.6921724"><ele>263.0</ele><time>2026-05-04T07:15:25.161Z</time></trkpt><trkpt lat="45.7162276" lon="8.6921327"><ele>263.0</ele><time>2026-05-04T07:15:26.162Z</time></trkpt><trkpt lat="45.7163413" lon="8.6920703"><ele>263.0</ele><time>2026-05-04T07:15:28.162Z</time></trkpt><trkpt lat="45.7164513" lon="8.6920003"><ele>263.0</ele><time>2026-05-04T07:15:30.162Z</time></trkpt><trkpt lat="45.7165275" lon="8.6919848"><ele>263.0</ele><time>2026-05-04T07:15:31.162Z</time></trkpt><trkpt lat="45.7165945" lon="8.6919592"><ele>263.0</ele><time>2026-05-04T07:15:32.162Z</time></trkpt><trkpt lat="45.7166662" lon="8.6919376"><ele>263.0</ele><time>2026-05-04T07:15:33.162Z</time></trkpt><trkpt lat="45.7167388" lon="8.6918977"><ele>263.0</ele><time>2026-05-04T07:15:34.161Z</time></trkpt><trkpt lat="45.7168046" lon="8.6918611"><ele>263.0</ele><time>2026-05-04T07:15:35.162Z</time></trkpt><trkpt lat="45.7168774" lon="8.69185"><ele>263.0</ele><time>2026-05-04T07:15:36.162Z</time></trkpt><trkpt lat="45.7169488" lon="8.691854"><ele>263.0</ele><time>2026-05-04T07:15:37.163Z</time></trkpt><trkpt lat="45.717016" lon="8.6918578"><ele>263.0</ele><time>2026-05-04T07:15:38.162Z</time></trkpt><trkpt lat="45.7170831" lon="8.6918406"><ele>263.0</ele><time>2026-05-04T07:15:39.163Z</time></trkpt><trkpt lat="45.7171461" lon="8.691808"><ele>263.0</ele><time>2026-05-04T07:15:40.162Z</time></trkpt><trkpt lat="45.7172159" lon="8.6917644"><ele>263.0</ele><time>2026-05-04T07:15:41.163Z</time></trkpt><trkpt lat="45.7172819" lon="8.6917258"><ele>263.0</ele><time>2026-05-04T07:15:42.161Z</time></trkpt><trkpt lat="45.7173397" lon="8.6916849"><ele>263.0</ele><time>2026-05-04T07:15:43.161Z</time></trkpt><trkpt lat="45.7174025" lon="8.6916557"><ele>263.0</ele><time>2026-05-04T07:15:44.161Z</time></trkpt><trkpt lat="45.7174603" lon="8.691619"><ele>263.0</ele><time>2026-05-04T07:15:45.162Z</time></trkpt><trkpt lat="45.7175186" lon="8.6915792"><ele>263.0</ele><time>2026-05-04T07:15:46.162Z</time></trkpt><trkpt lat="45.7176269" lon="8.6914822"><ele>263.0</ele><time>2026-05-04T07:15:48.162Z</time></trkpt><trkpt lat="45.717688" lon="8.6914581"><ele>263.0</ele><time>2026-05-04T07:15:49.162Z</time></trkpt><trkpt lat="45.7177903" lon="8.6915081"><ele>263.0</ele><time>2026-05-04T07:15:51.162Z</time></trkpt><trkpt lat="45.7178697" lon="8.6916306"><ele>263.0</ele><time>2026-05-04T07:15:53.161Z</time></trkpt><trkpt lat="45.717977" lon="8.6916305"><ele>263.0</ele><time>2026-05-04T07:15:55.162Z</time></trkpt><trkpt lat="45.718089" lon="8.6916078"><ele>263.0</ele><time>2026-05-04T07:15:57.163Z</time></trkpt><trkpt lat="45.7181536" lon="8.6915976"><ele>263.0</ele><time>2026-05-04T07:15:58.163Z</time></trkpt><trkpt lat="45.7182612" lon="8.691551"><ele>263.0</ele><time>2026-05-04T07:16:00.162Z</time></trkpt><trkpt lat="45.7183613" lon="8.6915204"><ele>263.0</ele><time>2026-05-04T07:16:02.163Z</time></trkpt><trkpt lat="45.7184295" lon="8.6916077"><ele>263.0</ele><time>2026-05-04T07:16:04.162Z</time></trkpt><trkpt lat="45.7184819" lon="8.691747"><ele>263.0</ele><time>2026-05-04T07:16:06.163Z</time></trkpt><trkpt lat="45.7185385" lon="8.6918628"><ele>263.0</ele><time>2026-05-04T07:16:08.162Z</time></trkpt><trkpt lat="45.7186091" lon="8.6919747"><ele>263.0</ele><time>2026-05-04T07:16:10.162Z</time></trkpt><trkpt lat="45.718662" lon="8.6921043"><ele>263.2</ele><time>2026-05-04T07:16:12.162Z</time></trkpt><trkpt lat="45.7187051" lon="8.6922211"><ele>263.4</ele><time>2026-05-04T07:16:14.162Z</time></trkpt><trkpt lat="45.7187438" lon="8.6923382"><ele>263.59999999999997</ele><time>2026-05-04T07:16:16.162Z</time></trkpt><trkpt lat="45.7187881" lon="8.6924729"><ele>263.8</ele><time>2026-05-04T07:16:18.162Z</time></trkpt><trkpt lat="45.718829" lon="8.6926008"><ele>264.0</ele><time>2026-05-04T07:16:20.162Z</time></trkpt><trkpt lat="45.7188845" lon="8.6927358"><ele>264.3333333333333</ele><time>2026-05-04T07:16:22.162Z</time></trkpt><trkpt lat="45.7188847" lon="8.6928282"><ele>264.6666666666667</ele><time>2026-05-04T07:16:23.161Z</time></trkpt><trkpt lat="45.7189111" lon="8.6929117"><ele>265.0</ele><time>2026-05-04T07:16:24.162Z</time></trkpt><trkpt lat="45.718967" lon="8.693073"><ele>265.33333333333337</ele><time>2026-05-04T07:16:26.162Z</time></trkpt><trkpt lat="45.7189947" lon="8.6931624"><ele>265.6666666666667</ele><time>2026-05-04T07:16:27.162Z</time></trkpt><trkpt lat="45.7189783" lon="8.6933084"><ele>266.0</ele><time>2026-05-04T07:16:29.162Z</time></trkpt><trkpt lat="45.7189437" lon="8.6934242"><ele>266.0</ele><time>2026-05-04T07:16:31.162Z</time></trkpt><trkpt lat="45.71898" lon="8.6935278"><ele>266.0</ele><time>2026-05-04T07:16:33.162Z</time></trkpt><trkpt lat="45.7190683" lon="8.693521"><ele>266.0</ele><time>2026-05-04T07:16:35.162Z</time></trkpt><trkpt lat="45.7191836" lon="8.6934976"><ele>266.0</ele><time>2026-05-04T07:16:37.162Z</time></trkpt><trkpt lat="45.7192491" lon="8.693494"><ele>266.0</ele><time>2026-05-04T07:16:38.162Z</time></trkpt><trkpt lat="45.7193117" lon="8.6935094"><ele>266.0</ele><time>2026-05-04T07:16:39.162Z</time></trkpt><trkpt lat="45.7194306" lon="8.6935368"><ele>266.0</ele><time>2026-05-04T07:16:41.163Z</time></trkpt><trkpt lat="45.7195401" lon="8.6935713"><ele>266.0</ele><time>2026-05-04T07:16:43.162Z</time></trkpt><trkpt lat="45.7196416" lon="8.6936018"><ele>266.0</ele><time>2026-05-04T07:16:45.163Z</time></trkpt><trkpt lat="45.719748" lon="8.6936198"><ele>266.0</ele><time>2026-05-04T07:16:47.162Z</time></trkpt><trkpt lat="45.7198385" lon="8.6936518"><ele>266.0</ele><time>2026-05-04T07:16:49.162Z</time></trkpt><trkpt lat="45.7199478" lon="8.6936532"><ele>266.2</ele><time>2026-05-04T07:16:51.162Z</time></trkpt><trkpt lat="45.720055" lon="8.6936917"><ele>266.40000000000003</ele><time>2026-05-04T07:16:53.163Z</time></trkpt><trkpt lat="45.720156" lon="8.6937099"><ele>266.6</ele><time>2026-05-04T07:16:55.163Z</time></trkpt><trkpt lat="45.7202692" lon="8.693685"><ele>266.8</ele><time>2026-05-04T07:16:57.162Z</time></trkpt><trkpt lat="45.7203606" lon="8.693705"><ele>267.0</ele><time>2026-05-04T07:16:59.163Z</time></trkpt><trkpt lat="45.7204622" lon="8.6937318"><ele>267.2</ele><time>2026-05-04T07:17:01.163Z</time></trkpt><trkpt lat="45.7205509" lon="8.6937612"><ele>267.4</ele><time>2026-05-04T07:17:03.162Z</time></trkpt><trkpt lat="45.7206428" lon="8.6937803"><ele>267.6</ele><time>2026-05-04T07:17:05.162Z</time></trkpt><trkpt lat="45.7207333" lon="8.6937884"><ele>267.8</ele><time>2026-05-04T07:17:07.162Z</time></trkpt><trkpt lat="45.7208174" lon="8.693809"><ele>268.0</ele><time>2026-05-04T07:17:09.163Z</time></trkpt><trkpt lat="45.7209187" lon="8.6938354"><ele>268.0</ele><time>2026-05-04T07:17:11.162Z</time></trkpt><trkpt lat="45.7210215" lon="8.693866"><ele>268.0</ele><time>2026-05-04T07:17:13.163Z</time></trkpt><trkpt lat="45.721118" lon="8.693901"><ele>268.0</ele><time>2026-05-04T07:17:15.162Z</time></trkpt><trkpt lat="45.7212219" lon="8.6939208"><ele>268.0</ele><time>2026-05-04T07:17:17.162Z</time></trkpt><trkpt lat="45.7213309" lon="8.6939448"><ele>268.0</ele><time>2026-05-04T07:17:19.162Z</time></trkpt><trkpt lat="45.7214242" lon="8.6939658"><ele>268.0</ele><time>2026-05-04T07:17:21.162Z</time></trkpt><trkpt lat="45.7215253" lon="8.6939979"><ele>268.0</ele><time>2026-05-04T07:17:23.162Z</time></trkpt><trkpt lat="45.7216059" lon="8.6941026"><ele>268.0</ele><time>2026-05-04T07:17:25.162Z</time></trkpt><trkpt lat="45.7216885" lon="8.6942124"><ele>268.0</ele><time>2026-05-04T07:17:27.162Z</time></trkpt><trkpt lat="45.7218014" lon="8.6942077"><ele>268.0</ele><time>2026-05-04T07:17:29.162Z</time></trkpt><trkpt lat="45.7218972" lon="8.6941365"><ele>268.6</ele><time>2026-05-04T07:17:31.162Z</time></trkpt><trkpt lat="45.721997" lon="8.6941015"><ele>269.20000000000005</ele><time>2026-05-04T07:17:33.163Z</time></trkpt><trkpt lat="45.7220877" lon="8.6941136"><ele>269.8</ele><time>2026-05-04T07:17:35.162Z</time></trkpt><trkpt lat="45.7221773" lon="8.694123"><ele>270.40000000000003</ele><time>2026-05-04T07:17:37.162Z</time></trkpt><trkpt lat="45.722274" lon="8.6941233"><ele>271.0</ele><time>2026-05-04T07:17:39.161Z</time></trkpt><trkpt lat="45.7223635" lon="8.6941128"><ele>271.0</ele><time>2026-05-04T07:17:41.163Z</time></trkpt><trkpt lat="45.7224629" lon="8.6941148"><ele>271.0</ele><time>2026-05-04T07:17:43.162Z</time></trkpt><trkpt lat="45.7225548" lon="8.6941235"><ele>271.0</ele><time>2026-05-04T07:17:45.163Z</time></trkpt><trkpt lat="45.7226454" lon="8.6941163"><ele>271.0</ele><time>2026-05-04T07:17:47.161Z</time></trkpt><trkpt lat="45.7227628" lon="8.6941487"><ele>271.0</ele><time>2026-05-04T07:17:49.164Z</time></trkpt><trkpt lat="45.7228399" lon="8.6941547"><ele>271.0</ele><time>2026-05-04T07:17:51.162Z</time></trkpt><trkpt lat="45.7229337" lon="8.6941606"><ele>271.0</ele><time>2026-05-04T07:17:53.163Z</time></trkpt><trkpt lat="45.7230326" lon="8.6941686"><ele>271.0</ele><time>2026-05-04T07:17:55.162Z</time></trkpt><trkpt lat="45.7231401" lon="8.6942137"><ele>271.0</ele><time>2026-05-04T07:17:57.163Z</time></trkpt><trkpt lat="45.7232397" lon="8.694297"><ele>271.0</ele><time>2026-05-04T07:17:59.163Z</time></trkpt><trkpt lat="45.7233108" lon="8.6943916"><ele>271.0</ele><time>2026-05-04T07:18:01.162Z</time></trkpt><trkpt lat="45.7233656" lon="8.694495"><ele>271.0</ele><time>2026-05-04T07:18:03.162Z</time></trkpt><trkpt lat="45.7234399" lon="8.6946049"><ele>271.0</ele><time>2026-05-04T07:18:05.163Z</time></trkpt><trkpt lat="45.723499" lon="8.6947112"><ele>271.0</ele><time>2026-05-04T07:18:07.161Z</time></trkpt><trkpt lat="45.7235746" lon="8.6948214"><ele>271.0</ele><time>2026-05-04T07:18:09.163Z</time></trkpt><trkpt lat="45.7236361" lon="8.6949298"><ele>271.8</ele><time>2026-05-04T07:18:11.163Z</time></trkpt><trkpt lat="45.7236948" lon="8.6950518"><ele>272.6</ele><time>2026-05-04T07:18:13.162Z</time></trkpt><trkpt lat="45.7237423" lon="8.6951331"><ele>273.4</ele><time>2026-05-04T07:18:15.162Z</time></trkpt><trkpt lat="45.7238253" lon="8.6952077"><ele>274.2</ele><time>2026-05-04T07:18:17.162Z</time></trkpt><trkpt lat="45.72391" lon="8.6952731"><ele>275.0</ele><time>2026-05-04T07:18:19.163Z</time></trkpt><trkpt lat="45.723987" lon="8.6953373"><ele>276.0</ele><time>2026-05-04T07:18:21.162Z</time></trkpt><trkpt lat="45.7240594" lon="8.6953851"><ele>277.0</ele><time>2026-05-04T07:18:23.162Z</time></trkpt><trkpt lat="45.7241236" lon="8.6954234"><ele>278.0</ele><time>2026-05-04T07:18:25.162Z</time></trkpt><trkpt lat="45.7242052" lon="8.6954539"><ele>279.0</ele><time>2026-05-04T07:18:27.162Z</time></trkpt><trkpt lat="45.7242795" lon="8.695461"><ele>280.0</ele><time>2026-05-04T07:18:29.161Z</time></trkpt><trkpt lat="45.724354" lon="8.6954321"><ele>281.0</ele><time>2026-05-04T07:18:31.163Z</time></trkpt><trkpt lat="45.7244216" lon="8.6953728"><ele>281.6666666666667</ele><time>2026-05-04T07:18:33.163Z</time></trkpt><trkpt lat="45.7244818" lon="8.695312"><ele>282.33333333333337</ele><time>2026-05-04T07:18:35.162Z</time></trkpt><trkpt lat="45.724544" lon="8.695245"><ele>283.0</ele><time>2026-05-04T07:18:37.163Z</time></trkpt><trkpt lat="45.7246061" lon="8.695175"><ele>283.6666666666667</ele><time>2026-05-04T07:18:39.163Z</time></trkpt><trkpt lat="45.7246697" lon="8.6951074"><ele>284.3333333333333</ele><time>2026-05-04T07:18:41.162Z</time></trkpt><trkpt lat="45.7247311" lon="8.6950609"><ele>285.0</ele><time>2026-05-04T07:18:43.162Z</time></trkpt><trkpt lat="45.7248043" lon="8.6950496"><ele>285.0</ele><time>2026-05-04T07:18:45.163Z</time></trkpt><trkpt lat="45.7248751" lon="8.6950483"><ele>285.0</ele><time>2026-05-04T07:18:47.162Z</time></trkpt><trkpt lat="45.7249669" lon="8.6950524"><ele>285.0</ele><time>2026-05-04T07:18:50.163Z</time></trkpt><trkpt lat="45.7250583" lon="8.6950469"><ele>285.0</ele><time>2026-05-04T07:18:53.162Z</time></trkpt><trkpt lat="45.725125" lon="8.6950396"><ele>285.0</ele><time>2026-05-04T07:18:55.162Z</time></trkpt><trkpt lat="45.7252065" lon="8.6950514"><ele>285.0</ele><time>2026-05-04T07:18:58.162Z</time></trkpt><trkpt lat="45.7252783" lon="8.6950571"><ele>286.2</ele><time>2026-05-04T07:19:13.162Z</time></trkpt><trkpt lat="45.7254235" lon="8.6950445"><ele>287.4</ele><time>2026-05-04T07:19:15.939Z</time></trkpt><trkpt lat="45.7254935" lon="8.6950959"><ele>288.6</ele><time>2026-05-04T07:19:18.162Z</time></trkpt><trkpt lat="45.725588" lon="8.6951404"><ele>289.8</ele><time>2026-05-04T07:19:20.163Z</time></trkpt><trkpt lat="45.7256757" lon="8.6951866"><ele>291.0</ele><time>2026-05-04T07:19:22.162Z</time></trkpt><trkpt lat="45.7257615" lon="8.6952167"><ele>291.0</ele><time>2026-05-04T07:19:24.162Z</time></trkpt><trkpt lat="45.7258539" lon="8.6952129"><ele>291.0</ele><time>2026-05-04T07:19:26.163Z</time></trkpt><trkpt lat="45.7259434" lon="8.6952136"><ele>291.0</ele><time>2026-05-04T07:19:28.162Z</time></trkpt><trkpt lat="45.7260327" lon="8.6952324"><ele>291.0</ele><time>2026-05-04T07:19:30.162Z</time></trkpt><trkpt lat="45.7261233" lon="8.6952576"><ele>291.0</ele><time>2026-05-04T07:19:32.162Z</time></trkpt><trkpt lat="45.7262152" lon="8.6952753"><ele>291.8333333333333</ele><time>2026-05-04T07:19:34.162Z</time></trkpt><trkpt lat="45.72628" lon="8.6952734"><ele>292.6666666666667</ele><time>2026-05-04T07:19:35.162Z</time></trkpt><trkpt lat="45.7263632" lon="8.6952804"><ele>293.5</ele><time>2026-05-04T07:19:37.162Z</time></trkpt><trkpt lat="45.7264425" lon="8.6952718"><ele>294.33333333333337</ele><time>2026-05-04T07:19:39.162Z</time></trkpt><trkpt lat="45.7265348" lon="8.6952708"><ele>295.1666666666667</ele><time>2026-05-04T07:19:41.163Z</time></trkpt><trkpt lat="45.7266323" lon="8.6952578"><ele>296.0</ele><time>2026-05-04T07:19:43.162Z</time></trkpt><trkpt lat="45.7267252" lon="8.695265"><ele>296.0</ele><time>2026-05-04T07:19:45.162Z</time></trkpt><trkpt lat="45.7268071" lon="8.6952222"><ele>296.0</ele><time>2026-05-04T07:19:47.162Z</time></trkpt><trkpt lat="45.726899" lon="8.6951989"><ele>296.0</ele><time>2026-05-04T07:19:49.162Z</time></trkpt><trkpt lat="45.7270003" lon="8.6951817"><ele>296.0</ele><time>2026-05-04T07:19:51.162Z</time></trkpt><trkpt lat="45.7270885" lon="8.6951787"><ele>296.0</ele><time>2026-05-04T07:19:53.163Z</time></trkpt><trkpt lat="45.727177" lon="8.6951559"><ele>296.0</ele><time>2026-05-04T07:19:55.162Z</time></trkpt><trkpt lat="45.7272633" lon="8.6951455"><ele>296.0</ele><time>2026-05-04T07:19:57.162Z</time></trkpt><trkpt lat="45.727358" lon="8.6951295"><ele>296.0</ele><time>2026-05-04T07:19:59.163Z</time></trkpt><trkpt lat="45.7274482" lon="8.6951007"><ele>296.0</ele><time>2026-05-04T07:20:01.163Z</time></trkpt><trkpt lat="45.7275507" lon="8.6951006"><ele>296.0</ele><time>2026-05-04T07:20:03.163Z</time></trkpt><trkpt lat="45.7276536" lon="8.69511"><ele>297.0</ele><time>2026-05-04T07:20:05.163Z</time></trkpt><trkpt lat="45.727755" lon="8.695096"><ele>298.0</ele><time>2026-05-04T07:20:07.162Z</time></trkpt><trkpt lat="45.7278448" lon="8.6950577"><ele>299.0</ele><time>2026-05-04T07:20:09.162Z</time></trkpt><trkpt lat="45.7279223" lon="8.6950085"><ele>300.0</ele><time>2026-05-04T07:20:11.162Z</time></trkpt><trkpt lat="45.7280119" lon="8.6949454"><ele>301.0</ele><time>2026-05-04T07:20:13.162Z</time></trkpt><trkpt lat="45.728099" lon="8.6948703"><ele>301.0</ele><time>2026-05-04T07:20:15.163Z</time></trkpt><trkpt lat="45.7281784" lon="8.6948123"><ele>301.0</ele><time>2026-05-04T07:20:17.163Z</time></trkpt><trkpt lat="45.7282486" lon="8.6947543"><ele>301.0</ele><time>2026-05-04T07:20:19.162Z</time></trkpt><trkpt lat="45.7283236" lon="8.6946697"><ele>301.0</ele><time>2026-05-04T07:20:21.163Z</time></trkpt><trkpt lat="45.7283933" lon="8.6946043"><ele>301.0</ele><time>2026-05-04T07:20:23.163Z</time></trkpt><trkpt lat="45.7284796" lon="8.6945557"><ele>301.0</ele><time>2026-05-04T07:20:25.163Z</time></trkpt><trkpt lat="45.7285582" lon="8.6944882"><ele>302.0</ele><time>2026-05-04T07:20:27.163Z</time></trkpt><trkpt lat="45.728638" lon="8.6944122"><ele>303.0</ele><time>2026-05-04T07:20:29.162Z</time></trkpt><trkpt lat="45.7287099" lon="8.6943359"><ele>304.0</ele><time>2026-05-04T07:20:31.162Z</time></trkpt><trkpt lat="45.7287816" lon="8.6942709"><ele>305.0</ele><time>2026-05-04T07:20:33.163Z</time></trkpt><trkpt lat="45.7288383" lon="8.6941781"><ele>306.0</ele><time>2026-05-04T07:20:35.162Z</time></trkpt><trkpt lat="45.728898" lon="8.6940811"><ele>307.0</ele><time>2026-05-04T07:20:37.162Z</time></trkpt><trkpt lat="45.7289817" lon="8.6940096"><ele>307.0</ele><time>2026-05-04T07:20:39.163Z</time></trkpt><trkpt lat="45.7290449" lon="8.693902"><ele>307.0</ele><time>2026-05-04T07:20:41.163Z</time></trkpt><trkpt lat="45.7291052" lon="8.6937953"><ele>307.0</ele><time>2026-05-04T07:20:43.162Z</time></trkpt><trkpt lat="45.7291547" lon="8.6936769"><ele>307.0</ele><time>2026-05-04T07:20:45.162Z</time></trkpt><trkpt lat="45.729209" lon="8.6935491"><ele>307.0</ele><time>2026-05-04T07:20:47.163Z</time></trkpt><trkpt lat="45.7292506" lon="8.6934106"><ele>306.4</ele><time>2026-05-04T07:20:49.162Z</time></trkpt><trkpt lat="45.7293057" lon="8.6932879"><ele>305.79999999999995</ele><time>2026-05-04T07:20:51.162Z</time></trkpt><trkpt lat="45.7293445" lon="8.6931523"><ele>305.2</ele><time>2026-05-04T07:20:53.163Z</time></trkpt><trkpt lat="45.7293977" lon="8.6930238"><ele>304.59999999999997</ele><time>2026-05-04T07:20:55.162Z</time></trkpt><trkpt lat="45.7294524" lon="8.6928928"><ele>304.0</ele><time>2026-05-04T07:20:57.163Z</time></trkpt><trkpt lat="45.7294985" lon="8.692756"><ele>305.4</ele><time>2026-05-04T07:20:59.162Z</time></trkpt><trkpt lat="45.7295482" lon="8.6926281"><ele>306.79999999999995</ele><time>2026-05-04T07:21:01.163Z</time></trkpt><trkpt lat="45.7295952" lon="8.6925065"><ele>308.20000000000005</ele><time>2026-05-04T07:21:03.162Z</time></trkpt><trkpt lat="45.7296253" lon="8.6923677"><ele>309.6</ele><time>2026-05-04T07:21:05.162Z</time></trkpt><trkpt lat="45.7296644" lon="8.6922483"><ele>311.0</ele><time>2026-05-04T07:21:07.162Z</time></trkpt><trkpt lat="45.7297097" lon="8.6921227"><ele>311.0</ele><time>2026-05-04T07:21:09.162Z</time></trkpt><trkpt lat="45.7297529" lon="8.6919824"><ele>311.0</ele><time>2026-05-04T07:21:11.162Z</time></trkpt><trkpt lat="45.7297989" lon="8.6918397"><ele>311.0</ele><time>2026-05-04T07:21:13.162Z</time></trkpt><trkpt lat="45.7298465" lon="8.6917291"><ele>311.0</ele><time>2026-05-04T07:21:15.162Z</time></trkpt><trkpt lat="45.7299061" lon="8.6916023"><ele>311.0</ele><time>2026-05-04T07:21:17.162Z</time></trkpt><trkpt lat="45.7299863" lon="8.6914893"><ele>311.0</ele><time>2026-05-04T07:21:19.162Z</time></trkpt><trkpt lat="45.7300529" lon="8.6913768"><ele>311.0</ele><time>2026-05-04T07:21:21.163Z</time></trkpt><trkpt lat="45.7301189" lon="8.69127"><ele>311.0</ele><time>2026-05-04T07:21:23.162Z</time></trkpt><trkpt lat="45.7301954" lon="8.691175"><ele>311.0</ele><time>2026-05-04T07:21:25.162Z</time></trkpt><trkpt lat="45.730245" lon="8.6910774"><ele>311.0</ele><time>2026-05-04T07:21:27.162Z</time></trkpt><trkpt lat="45.7302992" lon="8.6909819"><ele>311.0</ele><time>2026-05-04T07:21:29.163Z</time></trkpt><trkpt lat="45.7303622" lon="8.6908798"><ele>311.0</ele><time>2026-05-04T07:21:31.162Z</time></trkpt><trkpt lat="45.7304288" lon="8.6908683"><ele>311.0</ele><time>2026-05-04T07:21:33.162Z</time></trkpt><trkpt lat="45.7304809" lon="8.6909406"><ele>311.0</ele><time>2026-05-04T07:21:35.163Z</time></trkpt><trkpt lat="45.730522" lon="8.6910199"><ele>311.0</ele><time>2026-05-04T07:21:37.162Z</time></trkpt><trkpt lat="45.7305705" lon="8.6910887"><ele>311.0</ele><time>2026-05-04T07:21:39.163Z</time></trkpt><trkpt lat="45.7306276" lon="8.6911696"><ele>312.0</ele><time>2026-05-04T07:21:41.163Z</time></trkpt><trkpt lat="45.7306748" lon="8.6912492"><ele>313.0</ele><time>2026-05-04T07:21:43.163Z</time></trkpt><trkpt lat="45.7307151" lon="8.6913406"><ele>314.0</ele><time>2026-05-04T07:21:45.162Z</time></trkpt><trkpt lat="45.7307553" lon="8.6914294"><ele>315.0</ele><time>2026-05-04T07:21:47.163Z</time></trkpt><trkpt lat="45.7307905" lon="8.6915088"><ele>316.0</ele><time>2026-05-04T07:21:49.162Z</time></trkpt><trkpt lat="45.7308253" lon="8.6915874"><ele>317.0</ele><time>2026-05-04T07:21:51.162Z</time></trkpt><trkpt lat="45.730861" lon="8.6916703"><ele>318.0</ele><time>2026-05-04T07:21:53.163Z</time></trkpt><trkpt lat="45.7309014" lon="8.6917831"><ele>318.0</ele><time>2026-05-04T07:21:56.163Z</time></trkpt><trkpt lat="45.7309507" lon="8.6918524"><ele>318.0</ele><time>2026-05-04T07:22:00.163Z</time></trkpt><trkpt lat="45.7310173" lon="8.6918978"><ele>318.0</ele><time>2026-05-04T07:22:04.162Z</time></trkpt><trkpt lat="45.7310769" lon="8.6919433"><ele>318.0</ele><time>2026-05-04T07:22:07.163Z</time></trkpt><trkpt lat="45.7311475" lon="8.6919798"><ele>318.0</ele><time>2026-05-04T07:22:10.164Z</time></trkpt><trkpt lat="45.7312033" lon="8.6920272"><ele>318.0</ele><time>2026-05-04T07:22:12.163Z</time></trkpt><trkpt lat="45.7312585" lon="8.6920831"><ele>318.0</ele><time>2026-05-04T07:22:14.163Z</time></trkpt><trkpt lat="45.7313212" lon="8.6921235"><ele>320.85714285714283</ele><time>2026-05-04T07:22:18.162Z</time></trkpt><trkpt lat="45.7313174" lon="8.6922151"><ele>323.7142857142857</ele><time>2026-05-04T07:22:22.163Z</time></trkpt><trkpt lat="45.7312764" lon="8.6923217"><ele>326.57142857142856</ele><time>2026-05-04T07:22:26.163Z</time></trkpt><trkpt lat="45.7312391" lon="8.6923966"><ele>329.42857142857144</ele><time>2026-05-04T07:22:29.162Z</time></trkpt><trkpt lat="45.7311966" lon="8.6924728"><ele>332.2857142857143</ele><time>2026-05-04T07:22:32.163Z</time></trkpt><trkpt lat="45.7311599" lon="8.6925693"><ele>335.14285714285717</ele><time>2026-05-04T07:22:36.162Z</time></trkpt><trkpt lat="45.7311388" lon="8.6926708"><ele>338.0</ele><time>2026-05-04T07:22:39.162Z</time></trkpt><trkpt lat="45.7311474" lon="8.692772"><ele>339.83333333333337</ele><time>2026-05-04T07:22:42.162Z</time></trkpt><trkpt lat="45.7311868" lon="8.6928724"><ele>341.6666666666667</ele><time>2026-05-04T07:22:45.163Z</time></trkpt><trkpt lat="45.7312496" lon="8.6929226"><ele>343.5</ele><time>2026-05-04T07:22:48.163Z</time></trkpt><trkpt lat="45.7313185" lon="8.6929758"><ele>345.3333333333333</ele><time>2026-05-04T07:22:51.162Z</time></trkpt><trkpt lat="45.7314094" lon="8.6930078"><ele>347.16666666666663</ele><time>2026-05-04T07:22:54.163Z</time></trkpt><trkpt lat="45.7314858" lon="8.6929661"><ele>349.0</ele><time>2026-05-04T07:22:56.162Z</time></trkpt><trkpt lat="45.7315587" lon="8.6929446"><ele>348.99999999999994</ele><time>2026-05-04T07:23:01.163Z</time></trkpt><trkpt lat="45.7316198" lon="8.6929733"><ele>349.0</ele><time>2026-05-04T07:23:03.162Z</time></trkpt><trkpt lat="45.7316644" lon="8.6930445"><ele>349.0</ele><time>2026-05-04T07:23:07.162Z</time></trkpt><trkpt lat="45.7317352" lon="8.6930768"><ele>349.0</ele><time>2026-05-04T07:23:11.162Z</time></trkpt><trkpt lat="45.7318012" lon="8.69315"><ele>349.0</ele><time>2026-05-04T07:23:14.163Z</time></trkpt><trkpt lat="45.7318569" lon="8.6932156"><ele>348.99999999999994</ele><time>2026-05-04T07:23:17.161Z</time></trkpt><trkpt lat="45.7319125" lon="8.693259"><ele>349.0</ele><time>2026-05-04T07:23:20.163Z</time></trkpt><trkpt lat="45.731974" lon="8.6933398"><ele>350.3333333333333</ele><time>2026-05-04T07:23:23.164Z</time></trkpt><trkpt lat="45.7320367" lon="8.6934186"><ele>351.66666666666663</ele><time>2026-05-04T07:23:26.163Z</time></trkpt><trkpt lat="45.7321122" lon="8.6934844"><ele>353.0</ele><time>2026-05-04T07:23:30.162Z</time></trkpt><trkpt lat="45.7321662" lon="8.6935368"><ele>354.3333333333333</ele><time>2026-05-04T07:23:34.163Z</time></trkpt><trkpt lat="45.7322372" lon="8.6935584"><ele>355.6666666666667</ele><time>2026-05-04T07:23:37.162Z</time></trkpt><trkpt lat="45.7322999" lon="8.6935906"><ele>357.0</ele><time>2026-05-04T07:23:40.163Z</time></trkpt><trkpt lat="45.732365" lon="8.6936441"><ele>357.7142857142857</ele><time>2026-05-04T07:23:43.163Z</time></trkpt><trkpt lat="45.7324337" lon="8.6936851"><ele>358.42857142857144</ele><time>2026-05-04T07:23:45.161Z</time></trkpt><trkpt lat="45.7325145" lon="8.6937203"><ele>359.1428571428571</ele><time>2026-05-04T07:23:49.163Z</time></trkpt><trkpt lat="45.7325708" lon="8.6937618"><ele>359.8571428571429</ele><time>2026-05-04T07:23:52.163Z</time></trkpt><trkpt lat="45.732632" lon="8.6938011"><ele>360.57142857142856</ele><time>2026-05-04T07:23:55.162Z</time></trkpt><trkpt lat="45.7326829" lon="8.6938629"><ele>361.2857142857143</ele><time>2026-05-04T07:23:58.163Z</time></trkpt><trkpt lat="45.732742" lon="8.6939035"><ele>362.0</ele><time>2026-05-04T07:24:01.164Z</time></trkpt><trkpt lat="45.7328056" lon="8.6939385"><ele>363.0</ele><time>2026-05-04T07:24:03.164Z</time></trkpt><trkpt lat="45.7328685" lon="8.6939859"><ele>364.0</ele><time>2026-05-04T07:24:05.163Z</time></trkpt><trkpt lat="45.7329424" lon="8.6940537"><ele>365.0</ele><time>2026-05-04T07:24:09.164Z</time></trkpt><trkpt lat="45.7330004" lon="8.6941113"><ele>366.0</ele><time>2026-05-04T07:24:12.163Z</time></trkpt><trkpt lat="45.73307" lon="8.6941487"><ele>367.0</ele><time>2026-05-04T07:24:15.163Z</time></trkpt><trkpt lat="45.7331298" lon="8.6941955"><ele>368.0</ele><time>2026-05-04T07:24:18.164Z</time></trkpt><trkpt lat="45.7331925" lon="8.6942384"><ele>369.0</ele><time>2026-05-04T07:24:21.163Z</time></trkpt><trkpt lat="45.7332735" lon="8.6942886"><ele>369.0</ele><time>2026-05-04T07:24:24.163Z</time></trkpt><trkpt lat="45.7333509" lon="8.6943268"><ele>369.0</ele><time>2026-05-04T07:24:27.164Z</time></trkpt><trkpt lat="45.733475" lon="8.6943059"><ele>369.0</ele><time>2026-05-04T07:24:33.163Z</time></trkpt><trkpt lat="45.7335508" lon="8.6942595"><ele>369.0</ele><time>2026-05-04T07:24:36.164Z</time></trkpt><trkpt lat="45.7336305" lon="8.6942194"><ele>369.0</ele><time>2026-05-04T07:24:39.163Z</time></trkpt><trkpt lat="45.7337022" lon="8.6941902"><ele>369.0</ele><time>2026-05-04T07:24:41.163Z</time></trkpt><trkpt lat="45.7337687" lon="8.6941544"><ele>370.0</ele><time>2026-05-04T07:24:44.164Z</time></trkpt><trkpt lat="45.7338368" lon="8.6941066"><ele>371.0</ele><time>2026-05-04T07:24:47.164Z</time></trkpt><trkpt lat="45.7339156" lon="8.6940553"><ele>372.0</ele><time>2026-05-04T07:24:50.163Z</time></trkpt><trkpt lat="45.7339732" lon="8.6940114"><ele>373.0</ele><time>2026-05-04T07:24:52.164Z</time></trkpt><trkpt lat="45.7340526" lon="8.6939528"><ele>374.0</ele><time>2026-05-04T07:24:54.163Z</time></trkpt><trkpt lat="45.7341223" lon="8.6939208"><ele>375.0</ele><time>2026-05-04T07:24:56.164Z</time></trkpt><trkpt lat="45.7341869" lon="8.6938909"><ele>375.0</ele><time>2026-05-04T07:24:58.163Z</time></trkpt><trkpt lat="45.734256" lon="8.6938447"><ele>375.0</ele><time>2026-05-04T07:25:00.164Z</time></trkpt><trkpt lat="45.7343184" lon="8.6938039"><ele>375.0</ele><time>2026-05-04T07:25:02.164Z</time></trkpt><trkpt lat="45.7343824" lon="8.6937706"><ele>375.0</ele><time>2026-05-04T07:25:04.164Z</time></trkpt><trkpt lat="45.7344538" lon="8.693723"><ele>375.0</ele><time>2026-05-04T07:25:06.163Z</time></trkpt><trkpt lat="45.7345171" lon="8.6936723"><ele>375.0</ele><time>2026-05-04T07:25:08.162Z</time></trkpt><trkpt lat="45.7345781" lon="8.6936207"><ele>375.0</ele><time>2026-05-04T07:25:10.164Z</time></trkpt><trkpt lat="45.7346473" lon="8.6935685"><ele>375.8</ele><time>2026-05-04T07:25:12.162Z</time></trkpt><trkpt lat="45.7347231" lon="8.6935184"><ele>376.6</ele><time>2026-05-04T07:25:14.164Z</time></trkpt><trkpt lat="45.7348081" lon="8.693476"><ele>377.4</ele><time>2026-05-04T07:25:16.162Z</time></trkpt><trkpt lat="45.7348958" lon="8.693453"><ele>378.2</ele><time>2026-05-04T07:25:18.163Z</time></trkpt><trkpt lat="45.7349934" lon="8.6934426"><ele>379.0</ele><time>2026-05-04T07:25:20.163Z</time></trkpt><trkpt lat="45.7350825" lon="8.693423"><ele>379.0</ele><time>2026-05-04T07:25:22.163Z</time></trkpt><trkpt lat="45.7351774" lon="8.6933894"><ele>379.0</ele><time>2026-05-04T07:25:24.163Z</time></trkpt><trkpt lat="45.7352607" lon="8.6933595"><ele>379.0</ele><time>2026-05-04T07:25:26.164Z</time></trkpt><trkpt lat="45.7353364" lon="8.693332"><ele>379.0</ele><time>2026-05-04T07:25:28.164Z</time></trkpt><trkpt lat="45.7354251" lon="8.6933146"><ele>379.0</ele><time>2026-05-04T07:25:30.164Z</time></trkpt><trkpt lat="45.7355167" lon="8.6933092"><ele>379.0</ele><time>2026-05-04T07:25:32.162Z</time></trkpt><trkpt lat="45.7356038" lon="8.693307"><ele>379.4</ele><time>2026-05-04T07:25:34.163Z</time></trkpt><trkpt lat="45.7356879" lon="8.6932833"><ele>379.79999999999995</ele><time>2026-05-04T07:25:36.164Z</time></trkpt><trkpt lat="45.7357702" lon="8.6932537"><ele>380.20000000000005</ele><time>2026-05-04T07:25:38.164Z</time></trkpt><trkpt lat="45.7359046" lon="8.69326"><ele>380.6</ele><time>2026-05-04T07:25:39.163Z</time></trkpt><trkpt lat="45.7360038" lon="8.6932554"><ele>381.0</ele><time>2026-05-04T07:25:41.163Z</time></trkpt><trkpt lat="45.7361153" lon="8.693281"><ele>381.8</ele><time>2026-05-04T07:25:43.163Z</time></trkpt><trkpt lat="45.7362081" lon="8.6932757"><ele>382.6</ele><time>2026-05-04T07:25:45.164Z</time></trkpt><trkpt lat="45.7363358" lon="8.6932512"><ele>383.4</ele><time>2026-05-04T07:25:47.164Z</time></trkpt><trkpt lat="45.7364088" lon="8.6932343"><ele>384.2</ele><time>2026-05-04T07:25:49.163Z</time></trkpt><trkpt lat="45.7364933" lon="8.6932071"><ele>385.0</ele><time>2026-05-04T07:25:51.163Z</time></trkpt><trkpt lat="45.7365623" lon="8.6931832"><ele>385.0</ele><time>2026-05-04T07:25:53.163Z</time></trkpt><trkpt lat="45.7366945" lon="8.693161"><ele>385.0</ele><time>2026-05-04T07:25:55.164Z</time></trkpt><trkpt lat="45.7367543" lon="8.6931962"><ele>385.0</ele><time>2026-05-04T07:25:56.164Z</time></trkpt><trkpt lat="45.7368201" lon="8.6932215"><ele>385.0</ele><time>2026-05-04T07:25:57.163Z</time></trkpt><trkpt lat="45.7369326" lon="8.6932572"><ele>385.0</ele><time>2026-05-04T07:25:59.163Z</time></trkpt><trkpt lat="45.7370128" lon="8.6932399"><ele>385.00000000000006</ele><time>2026-05-04T07:26:02.164Z</time></trkpt><trkpt lat="45.7371121" lon="8.6932245"><ele>385.0</ele><time>2026-05-04T07:26:04.163Z</time></trkpt><trkpt lat="45.7371903" lon="8.6932191"><ele>385.0</ele><time>2026-05-04T07:26:06.163Z</time></trkpt><trkpt lat="45.7372584" lon="8.6932211"><ele>385.0</ele><time>2026-05-04T07:26:08.163Z</time></trkpt><trkpt lat="45.7373403" lon="8.6932359"><ele>385.00000000000006</ele><time>2026-05-04T07:26:10.163Z</time></trkpt><trkpt lat="45.7374265" lon="8.6932551"><ele>385.0</ele><time>2026-05-04T07:26:12.164Z</time></trkpt><trkpt lat="45.7375194" lon="8.6932668"><ele>385.0</ele><time>2026-05-04T07:26:14.164Z</time></trkpt><trkpt lat="45.7376198" lon="8.6932748"><ele>385.0</ele><time>2026-05-04T07:26:16.163Z</time></trkpt><trkpt lat="45.7377095" lon="8.6933007"><ele>385.0</ele><time>2026-05-04T07:26:18.164Z</time></trkpt><trkpt lat="45.7378028" lon="8.6933652"><ele>385.0</ele><time>2026-05-04T07:26:20.163Z</time></trkpt><trkpt lat="45.7379074" lon="8.6934377"><ele>385.0</ele><time>2026-05-04T07:26:22.163Z</time></trkpt><trkpt lat="45.7379878" lon="8.6934773"><ele>384.0</ele><time>2026-05-04T07:26:24.164Z</time></trkpt><trkpt lat="45.7381261" lon="8.6935653"><ele>383.0</ele><time>2026-05-04T07:26:25.163Z</time></trkpt><trkpt lat="45.7381814" lon="8.6936187"><ele>382.0</ele><time>2026-05-04T07:26:26.164Z</time></trkpt><trkpt lat="45.7382646" lon="8.6937045"><ele>381.0</ele><time>2026-05-04T07:26:28.164Z</time></trkpt><trkpt lat="45.7383571" lon="8.6938066"><ele>380.0</ele><time>2026-05-04T07:26:30.163Z</time></trkpt><trkpt lat="45.7384134" lon="8.6938684"><ele>381.5</ele><time>2026-05-04T07:26:31.163Z</time></trkpt><trkpt lat="45.7385169" lon="8.6939396"><ele>383.0</ele><time>2026-05-04T07:26:33.163Z</time></trkpt><trkpt lat="45.738585" lon="8.6939824"><ele>384.5</ele><time>2026-05-04T07:26:35.164Z</time></trkpt><trkpt lat="45.7386596" lon="8.6940382"><ele>386.0</ele><time>2026-05-04T07:26:37.164Z</time></trkpt><trkpt lat="45.73872" lon="8.6940788"><ele>387.49999999999994</ele><time>2026-05-04T07:26:39.163Z</time></trkpt><trkpt lat="45.7387934" lon="8.6941334"><ele>389.0</ele><time>2026-05-04T07:26:41.164Z</time></trkpt><trkpt lat="45.7388616" lon="8.6941803"><ele>389.0</ele><time>2026-05-04T07:26:43.164Z</time></trkpt><trkpt lat="45.7389218" lon="8.6942276"><ele>389.0</ele><time>2026-05-04T07:26:45.164Z</time></trkpt><trkpt lat="45.7389983" lon="8.6942763"><ele>389.0</ele><time>2026-05-04T07:26:46.163Z</time></trkpt><trkpt lat="45.7390878" lon="8.6943413"><ele>389.0</ele><time>2026-05-04T07:26:48.164Z</time></trkpt><trkpt lat="45.7391912" lon="8.6944536"><ele>389.0</ele><time>2026-05-04T07:26:50.163Z</time></trkpt><trkpt lat="45.7392718" lon="8.6945193"><ele>390.66666666666663</ele><time>2026-05-04T07:26:52.163Z</time></trkpt><trkpt lat="45.739354" lon="8.6945889"><ele>392.3333333333333</ele><time>2026-05-04T07:26:54.163Z</time></trkpt><trkpt lat="45.7394393" lon="8.6946328"><ele>394.0</ele><time>2026-05-04T07:26:56.163Z</time></trkpt><trkpt lat="45.739518" lon="8.6946833"><ele>395.66666666666663</ele><time>2026-05-04T07:26:58.163Z</time></trkpt><trkpt lat="45.7395908" lon="8.694742"><ele>397.3333333333333</ele><time>2026-05-04T07:27:01.165Z</time></trkpt><trkpt lat="45.7396536" lon="8.6947993"><ele>399.0</ele><time>2026-05-04T07:27:03.163Z</time></trkpt><trkpt lat="45.7397189" lon="8.6948161"><ele>399.0</ele><time>2026-05-04T07:27:05.163Z</time></trkpt><trkpt lat="45.7397767" lon="8.6948522"><ele>399.0</ele><time>2026-05-04T07:27:07.162Z</time></trkpt><trkpt lat="45.7398496" lon="8.6948978"><ele>399.0</ele><time>2026-05-04T07:27:10.163Z</time></trkpt><trkpt lat="45.7399217" lon="8.6949585"><ele>399.0</ele><time>2026-05-04T07:27:12.163Z</time></trkpt><trkpt lat="45.7400147" lon="8.6950118"><ele>399.0</ele><time>2026-05-04T07:27:14.162Z</time></trkpt><trkpt lat="45.740096" lon="8.6950586"><ele>399.0</ele><time>2026-05-04T07:27:16.162Z</time></trkpt><trkpt lat="45.7401651" lon="8.6951209"><ele>398.8333333333333</ele><time>2026-05-04T07:27:18.163Z</time></trkpt><trkpt lat="45.7402328" lon="8.6952036"><ele>398.66666666666663</ele><time>2026-05-04T07:27:20.163Z</time></trkpt><trkpt lat="45.7403077" lon="8.6952519"><ele>398.5</ele><time>2026-05-04T07:27:22.164Z</time></trkpt><trkpt lat="45.7403751" lon="8.6953028"><ele>398.3333333333333</ele><time>2026-05-04T07:27:25.164Z</time></trkpt><trkpt lat="45.7404475" lon="8.6953471"><ele>398.16666666666663</ele><time>2026-05-04T07:27:28.162Z</time></trkpt><trkpt lat="45.7405122" lon="8.6954002"><ele>398.0</ele><time>2026-05-04T07:27:30.163Z</time></trkpt><trkpt lat="45.7405759" lon="8.6954618"><ele>400.2</ele><time>2026-05-04T07:27:32.163Z</time></trkpt><trkpt lat="45.7406368" lon="8.695522"><ele>402.4</ele><time>2026-05-04T07:27:34.163Z</time></trkpt><trkpt lat="45.7407283" lon="8.6956153"><ele>404.59999999999997</ele><time>2026-05-04T07:27:35.163Z</time></trkpt><trkpt lat="45.7408355" lon="8.6956584"><ele>406.79999999999995</ele><time>2026-05-04T07:27:38.164Z</time></trkpt><trkpt lat="45.740952" lon="8.6956673"><ele>409.0</ele><time>2026-05-04T07:27:41.164Z</time></trkpt><trkpt lat="45.741015" lon="8.6956819"><ele>408.1666666666667</ele><time>2026-05-04T07:27:42.164Z</time></trkpt><trkpt lat="45.7410874" lon="8.6956778"><ele>407.33333333333337</ele><time>2026-05-04T07:27:43.163Z</time></trkpt><trkpt lat="45.7411489" lon="8.6957075"><ele>406.5</ele><time>2026-05-04T07:27:44.163Z</time></trkpt><trkpt lat="45.7412244" lon="8.6956998"><ele>405.66666666666663</ele><time>2026-05-04T07:27:45.163Z</time></trkpt><trkpt lat="45.7412863" lon="8.6957282"><ele>404.8333333333333</ele><time>2026-05-04T07:27:46.163Z</time></trkpt><trkpt lat="45.741397" lon="8.6957842"><ele>404.0</ele><time>2026-05-04T07:27:48.164Z</time></trkpt><trkpt lat="45.7414878" lon="8.6958672"><ele>404.0</ele><time>2026-05-04T07:27:50.163Z</time></trkpt><trkpt lat="45.7415499" lon="8.6959455"><ele>404.0</ele><time>2026-05-04T07:27:52.163Z</time></trkpt><trkpt lat="45.741617" lon="8.6959942"><ele>404.0</ele><time>2026-05-04T07:27:54.163Z</time></trkpt><trkpt lat="45.7417117" lon="8.6960421"><ele>404.0</ele><time>2026-05-04T07:27:56.163Z</time></trkpt><trkpt lat="45.7418497" lon="8.6960521"><ele>404.0</ele><time>2026-05-04T07:27:58.163Z</time></trkpt><trkpt lat="45.7419574" lon="8.6960711"><ele>404.79999999999995</ele><time>2026-05-04T07:28:00.163Z</time></trkpt><trkpt lat="45.7420419" lon="8.6961484"><ele>405.59999999999997</ele><time>2026-05-04T07:28:03.163Z</time></trkpt><trkpt lat="45.742143" lon="8.6961983"><ele>406.4</ele><time>2026-05-04T07:28:04.163Z</time></trkpt><trkpt lat="45.7422125" lon="8.6962739"><ele>407.2</ele><time>2026-05-04T07:28:06.165Z</time></trkpt><trkpt lat="45.7422611" lon="8.6963745"><ele>408.0</ele><time>2026-05-04T07:28:07.161Z</time></trkpt><trkpt lat="45.7424443" lon="8.6964255"><ele>408.0</ele><time>2026-05-04T07:28:10.163Z</time></trkpt><trkpt lat="45.7424953" lon="8.6964871"><ele>408.0</ele><time>2026-05-04T07:28:11.162Z</time></trkpt><trkpt lat="45.7425739" lon="8.6965592"><ele>408.0</ele><time>2026-05-04T07:28:13.162Z</time></trkpt><trkpt lat="45.742662" lon="8.6966035"><ele>408.0</ele><time>2026-05-04T07:28:15.163Z</time></trkpt><trkpt lat="45.7427561" lon="8.6966455"><ele>408.0</ele><time>2026-05-04T07:28:17.162Z</time></trkpt><trkpt lat="45.7428676" lon="8.6966929"><ele>407.4</ele><time>2026-05-04T07:28:19.162Z</time></trkpt><trkpt lat="45.742923" lon="8.6967529"><ele>406.79999999999995</ele><time>2026-05-04T07:28:20.162Z</time></trkpt><trkpt lat="45.743023" lon="8.6968441"><ele>406.2</ele><time>2026-05-04T07:28:22.162Z</time></trkpt><trkpt lat="45.7431077" lon="8.6969262"><ele>405.6</ele><time>2026-05-04T07:28:24.162Z</time></trkpt><trkpt lat="45.7432027" lon="8.6969822"><ele>405.0</ele><time>2026-05-04T07:28:26.163Z</time></trkpt><trkpt lat="45.7432585" lon="8.6970262"><ele>405.0</ele><time>2026-05-04T07:28:27.162Z</time></trkpt><trkpt lat="45.7433472" lon="8.6970729"><ele>405.0</ele><time>2026-05-04T07:28:29.162Z</time></trkpt><trkpt lat="45.7434388" lon="8.6971167"><ele>405.0</ele><time>2026-05-04T07:28:31.163Z</time></trkpt><trkpt lat="45.7435129" lon="8.6971707"><ele>405.0</ele><time>2026-05-04T07:28:33.163Z</time></trkpt><trkpt lat="45.743591" lon="8.6972008"><ele>405.0</ele><time>2026-05-04T07:28:36.163Z</time></trkpt><trkpt lat="45.7436738" lon="8.6972209"><ele>405.0</ele><time>2026-05-04T07:28:38.163Z</time></trkpt><trkpt lat="45.7437623" lon="8.6972473"><ele>404.5</ele><time>2026-05-04T07:28:40.163Z</time></trkpt><trkpt lat="45.7438649" lon="8.697246"><ele>404.0</ele><time>2026-05-04T07:28:42.164Z</time></trkpt><trkpt lat="45.7439391" lon="8.6972455"><ele>403.5</ele><time>2026-05-04T07:28:44.163Z</time></trkpt><trkpt lat="45.7440131" lon="8.6972565"><ele>403.0</ele><time>2026-05-04T07:28:46.163Z</time></trkpt><trkpt lat="45.7440995" lon="8.697277"><ele>402.5</ele><time>2026-05-04T07:28:48.164Z</time></trkpt><trkpt lat="45.7441837" lon="8.6972899"><ele>402.0</ele><time>2026-05-04T07:28:50.163Z</time></trkpt><trkpt lat="45.7442573" lon="8.6973045"><ele>402.0</ele><time>2026-05-04T07:28:52.163Z</time></trkpt><trkpt lat="45.744333" lon="8.6973384"><ele>402.0</ele><time>2026-05-04T07:28:55.163Z</time></trkpt><trkpt lat="45.7444142" lon="8.6973681"><ele>402.0</ele><time>2026-05-04T07:28:58.164Z</time></trkpt><trkpt lat="45.7445017" lon="8.6974017"><ele>402.0</ele><time>2026-05-04T07:29:01.163Z</time></trkpt><trkpt lat="45.7445673" lon="8.697451"><ele>402.0</ele><time>2026-05-04T07:29:06.009Z</time></trkpt><trkpt lat="45.7446412" lon="8.6974729"><ele>402.0</ele><time>2026-05-04T07:29:08.164Z</time></trkpt><trkpt lat="45.7447126" lon="8.697533"><ele>403.20000000000005</ele><time>2026-05-04T07:29:11.164Z</time></trkpt><trkpt lat="45.7448055" lon="8.6975694"><ele>404.4</ele><time>2026-05-04T07:29:14.163Z</time></trkpt><trkpt lat="45.7449124" lon="8.6975738"><ele>405.6</ele><time>2026-05-04T07:29:17.17Z</time></trkpt><trkpt lat="45.7449856" lon="8.6975872"><ele>406.79999999999995</ele><time>2026-05-04T07:29:19.163Z</time></trkpt><trkpt lat="45.7450608" lon="8.6975682"><ele>408.0</ele><time>2026-05-04T07:29:22.164Z</time></trkpt><trkpt lat="45.7455342" lon="8.6978213"><ele>408.5</ele><time>2026-05-04T07:29:25.163Z</time></trkpt><trkpt lat="45.7456334" lon="8.6978353"><ele>409.0</ele><time>2026-05-04T07:29:27.163Z</time></trkpt><trkpt lat="45.7457032" lon="8.6978936"><ele>409.5</ele><time>2026-05-04T07:29:29.163Z</time></trkpt><trkpt lat="45.7457719" lon="8.6979367"><ele>410.0</ele><time>2026-05-04T07:29:31.164Z</time></trkpt><trkpt lat="45.7458397" lon="8.6979817"><ele>410.5</ele><time>2026-05-04T07:29:33.163Z</time></trkpt><trkpt lat="45.7459101" lon="8.6980268"><ele>411.0</ele><time>2026-05-04T07:29:36.164Z</time></trkpt><trkpt lat="45.7459874" lon="8.6980791"><ele>411.0</ele><time>2026-05-04T07:29:39.163Z</time></trkpt><trkpt lat="45.7460444" lon="8.6981464"><ele>411.0</ele><time>2026-05-04T07:29:41.164Z</time></trkpt><trkpt lat="45.746102" lon="8.6982122"><ele>411.0</ele><time>2026-05-04T07:29:43.164Z</time></trkpt><trkpt lat="45.7461799" lon="8.6982703"><ele>411.0</ele><time>2026-05-04T07:29:46.164Z</time></trkpt><trkpt lat="45.7462508" lon="8.6983162"><ele>411.0</ele><time>2026-05-04T07:29:49.164Z</time></trkpt><trkpt lat="45.7462984" lon="8.6984056"><ele>411.0</ele><time>2026-05-04T07:29:52.163Z</time></trkpt><trkpt lat="45.7463399" lon="8.6984928"><ele>411.5</ele><time>2026-05-04T07:29:55.164Z</time></trkpt><trkpt lat="45.7463636" lon="8.6985786"><ele>412.0</ele><time>2026-05-04T07:29:58.163Z</time></trkpt><trkpt lat="45.7464064" lon="8.6986723"><ele>412.5</ele><time>2026-05-04T07:30:02.164Z</time></trkpt><trkpt lat="45.7464577" lon="8.6987382"><ele>413.0</ele><time>2026-05-04T07:30:05.164Z</time></trkpt><trkpt lat="45.7465081" lon="8.6988538"><ele>413.5</ele><time>2026-05-04T07:30:08.163Z</time></trkpt><trkpt lat="45.7465592" lon="8.6989634"><ele>414.0</ele><time>2026-05-04T07:30:11.163Z</time></trkpt><trkpt lat="45.7465882" lon="8.6990447"><ele>415.42857142857144</ele><time>2026-05-04T07:30:13.164Z</time></trkpt><trkpt lat="45.7466196" lon="8.6991312"><ele>416.8571428571429</ele><time>2026-05-04T07:30:15.163Z</time></trkpt><trkpt lat="45.7466592" lon="8.6992338"><ele>418.28571428571433</ele><time>2026-05-04T07:30:18.163Z</time></trkpt><trkpt lat="45.746702" lon="8.6993065"><ele>419.7142857142857</ele><time>2026-05-04T07:30:20.163Z</time></trkpt><trkpt lat="45.7467614" lon="8.6993752"><ele>421.1428571428571</ele><time>2026-05-04T07:30:23.163Z</time></trkpt><trkpt lat="45.7468091" lon="8.6994628"><ele>422.5714285714286</ele><time>2026-05-04T07:30:26.164Z</time></trkpt><trkpt lat="45.7468566" lon="8.6995276"><ele>424.0</ele><time>2026-05-04T07:30:28.164Z</time></trkpt><trkpt lat="45.7469224" lon="8.6995605"><ele>425.1666666666667</ele><time>2026-05-04T07:30:30.163Z</time></trkpt><trkpt lat="45.747" lon="8.6995665"><ele>426.33333333333337</ele><time>2026-05-04T07:30:32.163Z</time></trkpt><trkpt lat="45.7470833" lon="8.6996022"><ele>427.5</ele><time>2026-05-04T07:30:46.163Z</time></trkpt><trkpt lat="45.7471732" lon="8.6996039"><ele>428.66666666666663</ele><time>2026-05-04T07:30:56.163Z</time></trkpt><trkpt lat="45.7472828" lon="8.6996454"><ele>429.8333333333333</ele><time>2026-05-04T07:30:58.163Z</time></trkpt><trkpt lat="45.7473311" lon="8.6997213"><ele>431.0</ele><time>2026-05-04T07:31:01.163Z</time></trkpt><trkpt lat="45.7473866" lon="8.6997879"><ele>431.0</ele><time>2026-05-04T07:31:02.163Z</time></trkpt><trkpt lat="45.7474499" lon="8.6998509"><ele>431.0</ele><time>2026-05-04T07:31:05.163Z</time></trkpt><trkpt lat="45.7475126" lon="8.6998779"><ele>431.0</ele><time>2026-05-04T07:31:07.163Z</time></trkpt><trkpt lat="45.7475563" lon="8.6999642"><ele>431.0</ele><time>2026-05-04T07:31:10.164Z</time></trkpt><trkpt lat="45.7476102" lon="8.7000422"><ele>431.0</ele><time>2026-05-04T07:31:13.163Z</time></trkpt><trkpt lat="45.7476718" lon="8.7000881"><ele>431.0</ele><time>2026-05-04T07:32:43.163Z</time></trkpt><trkpt lat="45.7477136" lon="8.7001646"><ele>431.0</ele><time>2026-05-04T07:32:47.164Z</time></trkpt><trkpt lat="45.7477504" lon="8.7002736"><ele>431.16666666666663</ele><time>2026-05-04T07:32:50.163Z</time></trkpt><trkpt lat="45.7477692" lon="8.7003657"><ele>431.3333333333333</ele><time>2026-05-04T07:33:00.163Z</time></trkpt><trkpt lat="45.7477496" lon="8.7004849"><ele>431.5</ele><time>2026-05-04T07:33:04.164Z</time></trkpt><trkpt lat="45.7477516" lon="8.7005966"><ele>431.66666666666663</ele><time>2026-05-04T07:33:07.162Z</time></trkpt><trkpt lat="45.7477185" lon="8.7007163"><ele>431.8333333333333</ele><time>2026-05-04T07:33:10.164Z</time></trkpt><trkpt lat="45.7476709" lon="8.7008184"><ele>432.0</ele><time>2026-05-04T07:33:13.164Z</time></trkpt><trkpt lat="45.7476626" lon="8.7009089"><ele>432.0</ele><time>2026-05-04T07:33:16.163Z</time></trkpt><trkpt lat="45.747684" lon="8.7009953"><ele>432.0</ele><time>2026-05-04T07:33:19.164Z</time></trkpt><trkpt lat="45.7477086" lon="8.7010883"><ele>432.0</ele><time>2026-05-04T07:33:22.163Z</time></trkpt><trkpt lat="45.7477375" lon="8.7011809"><ele>432.0</ele><time>2026-05-04T07:33:25.163Z</time></trkpt><trkpt lat="45.7477225" lon="8.7012927"><ele>432.0</ele><time>2026-05-04T07:33:28.164Z</time></trkpt><trkpt lat="45.7477686" lon="8.7013619"><ele>432.0</ele><time>2026-05-04T07:33:29.163Z</time></trkpt><trkpt lat="45.7477453" lon="8.7014664"><ele>432.0</ele><time>2026-05-04T07:33:32.164Z</time></trkpt><trkpt lat="45.7477165" lon="8.7016119"><ele>431.8333333333333</ele><time>2026-05-04T07:33:34.163Z</time></trkpt><trkpt lat="45.7477122" lon="8.7017047"><ele>431.66666666666663</ele><time>2026-05-04T07:33:37.163Z</time></trkpt><trkpt lat="45.7476756" lon="8.7018109"><ele>431.5</ele><time>2026-05-04T07:33:40.164Z</time></trkpt><trkpt lat="45.7476138" lon="8.7018652"><ele>431.3333333333333</ele><time>2026-05-04T07:33:43.164Z</time></trkpt><trkpt lat="45.7475423" lon="8.7019282"><ele>431.16666666666663</ele><time>2026-05-04T07:33:46.163Z</time></trkpt><trkpt lat="45.7474884" lon="8.7020193"><ele>431.0</ele><time>2026-05-04T07:33:49.163Z</time></trkpt><trkpt lat="45.7474468" lon="8.7020957"><ele>429.2857142857143</ele><time>2026-05-04T07:33:51.163Z</time></trkpt><trkpt lat="45.7474047" lon="8.7021642"><ele>427.57142857142856</ele><time>2026-05-04T07:33:53.163Z</time></trkpt><trkpt lat="45.7473366" lon="8.7022134"><ele>425.85714285714283</ele><time>2026-05-04T07:33:56.164Z</time></trkpt><trkpt lat="45.7472713" lon="8.7022228"><ele>424.1428571428571</ele><time>2026-05-04T07:33:58.164Z</time></trkpt><trkpt lat="45.7472054" lon="8.7022342"><ele>422.42857142857144</ele><time>2026-05-04T07:34:00.163Z</time></trkpt><trkpt lat="45.7471317" lon="8.7021652"><ele>420.71428571428567</ele><time>2026-05-04T07:34:03.163Z</time></trkpt><trkpt lat="45.7471131" lon="8.7020509"><ele>419.0</ele><time>2026-05-04T07:34:06.162Z</time></trkpt><trkpt lat="45.7470981" lon="8.7019388"><ele>420.99999999999994</ele><time>2026-05-04T07:34:10.164Z</time></trkpt><trkpt lat="45.747074" lon="8.7018334"><ele>423.0</ele><time>2026-05-04T07:34:13.163Z</time></trkpt><trkpt lat="45.7470585" lon="8.7017162"><ele>425.0</ele><time>2026-05-04T07:34:17.163Z</time></trkpt><trkpt lat="45.7470289" lon="8.701633"><ele>427.0</ele><time>2026-05-04T07:34:21.163Z</time></trkpt><trkpt lat="45.7470493" lon="8.7014741"><ele>428.99999999999994</ele><time>2026-05-04T07:34:48.165Z</time></trkpt><trkpt lat="45.7470814" lon="8.7013743"><ele>431.0</ele><time>2026-05-04T07:35:00.163Z</time></trkpt><trkpt lat="45.7471367" lon="8.701322"><ele>431.0</ele><time>2026-05-04T07:35:06.163Z</time></trkpt><trkpt lat="45.7472022" lon="8.7011021"><ele>431.0</ele><time>2026-05-04T07:37:42.163Z</time></trkpt><trkpt lat="45.7472477" lon="8.7010247"><ele>431.0</ele><time>2026-05-04T07:37:44.163Z</time></trkpt><trkpt lat="45.7472914" lon="8.7009384"><ele>431.0</ele><time>2026-05-04T07:37:46.164Z</time></trkpt><trkpt lat="45.7472999" lon="8.7007777"><ele>431.0</ele><time>2026-05-04T07:37:59.164Z</time></trkpt><trkpt lat="45.7473085" lon="8.7006684"><ele>431.0</ele><time>2026-05-04T07:38:01.164Z</time></trkpt><trkpt lat="45.7473144" lon="8.7005288"><ele>431.0</ele><time>2026-05-04T07:38:05.164Z</time></trkpt><trkpt lat="45.7472853" lon="8.7004196"><ele>431.0</ele><time>2026-05-04T07:38:07.163Z</time></trkpt><trkpt lat="45.7472456" lon="8.7003083"><ele>431.0</ele><time>2026-05-04T07:38:09.163Z</time></trkpt><trkpt lat="45.7471638" lon="8.7001973"><ele>431.0</ele><time>2026-05-04T07:38:10.166Z</time></trkpt><trkpt lat="45.7471579" lon="8.7000733"><ele>430.99999999999994</ele><time>2026-05-04T07:38:11.164Z</time></trkpt><trkpt lat="45.7471459" lon="8.6999349"><ele>431.0</ele><time>2026-05-04T07:38:13.163Z</time></trkpt><trkpt lat="45.7470895" lon="8.6998434"><ele>431.0</ele><time>2026-05-04T07:38:22.164Z</time></trkpt><trkpt lat="45.7470388" lon="8.699782"><ele>431.0</ele><time>2026-05-04T07:38:25.163Z</time></trkpt><trkpt lat="45.7469526" lon="8.6997627"><ele>430.99999999999994</ele><time>2026-05-04T07:38:28.164Z</time></trkpt><trkpt lat="45.7468928" lon="8.6996907"><ele>431.0</ele><time>2026-05-04T07:38:30.163Z</time></trkpt><trkpt lat="45.746769" lon="8.6995113"><ele>429.8</ele><time>2026-05-04T07:38:32.164Z</time></trkpt><trkpt lat="45.7467015" lon="8.6993492"><ele>428.6</ele><time>2026-05-04T07:38:34.162Z</time></trkpt><trkpt lat="45.7466787" lon="8.6992525"><ele>427.4</ele><time>2026-05-04T07:38:35.164Z</time></trkpt><trkpt lat="45.746601" lon="8.6991086"><ele>426.2</ele><time>2026-05-04T07:38:37.163Z</time></trkpt><trkpt lat="45.7465654" lon="8.6990003"><ele>425.0</ele><time>2026-05-04T07:38:38.163Z</time></trkpt><trkpt lat="45.7465265" lon="8.6989162"><ele>425.0</ele><time>2026-05-04T07:38:39.163Z</time></trkpt><trkpt lat="45.7464588" lon="8.6988793"><ele>425.0</ele><time>2026-05-04T07:38:41.163Z</time></trkpt><trkpt lat="45.7463721" lon="8.698709"><ele>425.0</ele><time>2026-05-04T07:38:43.163Z</time></trkpt><trkpt lat="45.7463239" lon="8.6985847"><ele>425.0</ele><time>2026-05-04T07:38:45.163Z</time></trkpt><trkpt lat="45.7462558" lon="8.6984858"><ele>425.0</ele><time>2026-05-04T07:38:47.164Z</time></trkpt><trkpt lat="45.7461896" lon="8.6984153"><ele>423.16666666666663</ele><time>2026-05-04T07:38:49.164Z</time></trkpt><trkpt lat="45.7460845" lon="8.6983164"><ele>421.3333333333333</ele><time>2026-05-04T07:38:50.165Z</time></trkpt><trkpt lat="45.7460042" lon="8.6982479"><ele>419.5</ele><time>2026-05-04T07:38:51.164Z</time></trkpt><trkpt lat="45.7459418" lon="8.698192"><ele>417.66666666666663</ele><time>2026-05-04T07:38:52.164Z</time></trkpt><trkpt lat="45.7458639" lon="8.6981752"><ele>415.8333333333333</ele><time>2026-05-04T07:38:53.165Z</time></trkpt><trkpt lat="45.7458057" lon="8.6981401"><ele>414.0</ele><time>2026-05-04T07:38:54.164Z</time></trkpt><trkpt lat="45.7457648" lon="8.6980647"><ele>413.4</ele><time>2026-05-04T07:38:55.165Z</time></trkpt><trkpt lat="45.7457039" lon="8.6980188"><ele>412.79999999999995</ele><time>2026-05-04T07:38:56.163Z</time></trkpt><trkpt lat="45.7455804" lon="8.697967"><ele>412.20000000000005</ele><time>2026-05-04T07:38:58.164Z</time></trkpt><trkpt lat="45.7454302" lon="8.6979596"><ele>411.6</ele><time>2026-05-04T07:39:00.165Z</time></trkpt><trkpt lat="45.7453554" lon="8.697951"><ele>411.0</ele><time>2026-05-04T07:39:02.165Z</time></trkpt><trkpt lat="45.7452296" lon="8.6978936"><ele>410.4</ele><time>2026-05-04T07:39:04.163Z</time></trkpt><trkpt lat="45.7451161" lon="8.6978577"><ele>409.8</ele><time>2026-05-04T07:39:06.163Z</time></trkpt><trkpt lat="45.7450033" lon="8.6978396"><ele>409.2</ele><time>2026-05-04T07:39:08.164Z</time></trkpt><trkpt lat="45.7449307" lon="8.6978033"><ele>408.59999999999997</ele><time>2026-05-04T07:39:10.163Z</time></trkpt><trkpt lat="45.744863" lon="8.6977324"><ele>408.0</ele><time>2026-05-04T07:39:12.163Z</time></trkpt><trkpt lat="45.7447557" lon="8.6976626"><ele>408.0</ele><time>2026-05-04T07:39:14.163Z</time></trkpt><trkpt lat="45.744692" lon="8.6976372"><ele>408.0</ele><time>2026-05-04T07:39:15.164Z</time></trkpt><trkpt lat="45.7445611" lon="8.6976012"><ele>408.0</ele><time>2026-05-04T07:39:17.164Z</time></trkpt><trkpt lat="45.7444907" lon="8.697575"><ele>408.0</ele><time>2026-05-04T07:39:18.163Z</time></trkpt><trkpt lat="45.7443972" lon="8.6975509"><ele>408.0</ele><time>2026-05-04T07:39:19.164Z</time></trkpt><trkpt lat="45.7443196" lon="8.6975162"><ele>408.0</ele><time>2026-05-04T07:39:20.164Z</time></trkpt><trkpt lat="45.7442458" lon="8.6975005"><ele>407.0</ele><time>2026-05-04T07:39:21.164Z</time></trkpt><trkpt lat="45.7441642" lon="8.6974826"><ele>406.0</ele><time>2026-05-04T07:39:22.163Z</time></trkpt><trkpt lat="45.7440774" lon="8.6974946"><ele>405.0</ele><time>2026-05-04T07:39:23.163Z</time></trkpt><trkpt lat="45.7439811" lon="8.6974904"><ele>404.0</ele><time>2026-05-04T07:39:25.163Z</time></trkpt><trkpt lat="45.743907" lon="8.6974523"><ele>403.0</ele><time>2026-05-04T07:39:27.163Z</time></trkpt><trkpt lat="45.7438374" lon="8.6974446"><ele>402.0</ele><time>2026-05-04T07:39:29.163Z</time></trkpt><trkpt lat="45.7437719" lon="8.6974014"><ele>402.0</ele><time>2026-05-04T07:39:31.164Z</time></trkpt><trkpt lat="45.7436952" lon="8.6973704"><ele>402.0</ele><time>2026-05-04T07:39:33.163Z</time></trkpt><trkpt lat="45.7436278" lon="8.6973351"><ele>402.0</ele><time>2026-05-04T07:39:35.163Z</time></trkpt><trkpt lat="45.7435515" lon="8.6973091"><ele>402.0</ele><time>2026-05-04T07:39:37.163Z</time></trkpt><trkpt lat="45.7433875" lon="8.6972666"><ele>402.0</ele><time>2026-05-04T07:39:39.162Z</time></trkpt><trkpt lat="45.7432991" lon="8.6972052"><ele>402.5</ele><time>2026-05-04T07:39:41.163Z</time></trkpt><trkpt lat="45.7432265" lon="8.6971529"><ele>403.0</ele><time>2026-05-04T07:39:43.163Z</time></trkpt><trkpt lat="45.7431604" lon="8.697093"><ele>403.5</ele><time>2026-05-04T07:39:45.164Z</time></trkpt><trkpt lat="45.7430888" lon="8.6970282"><ele>404.0</ele><time>2026-05-04T07:39:47.164Z</time></trkpt><trkpt lat="45.7430295" lon="8.6969564"><ele>404.5</ele><time>2026-05-04T07:39:49.164Z</time></trkpt><trkpt lat="45.7429752" lon="8.6969068"><ele>405.0</ele><time>2026-05-04T07:39:51.164Z</time></trkpt><trkpt lat="45.7429126" lon="8.6968802"><ele>405.5</ele><time>2026-05-04T07:39:53.163Z</time></trkpt><trkpt lat="45.7428482" lon="8.6968441"><ele>406.0</ele><time>2026-05-04T07:39:55.164Z</time></trkpt><trkpt lat="45.7427578" lon="8.6967793"><ele>406.5</ele><time>2026-05-04T07:39:57.163Z</time></trkpt><trkpt lat="45.7426819" lon="8.6967216"><ele>407.0</ele><time>2026-05-04T07:39:59.163Z</time></trkpt><trkpt lat="45.7426176" lon="8.6966701"><ele>407.5</ele><time>2026-05-04T07:40:01.163Z</time></trkpt><trkpt lat="45.7425292" lon="8.6966151"><ele>408.0</ele><time>2026-05-04T07:40:04.163Z</time></trkpt><trkpt lat="45.7424654" lon="8.6965847"><ele>408.0</ele><time>2026-05-04T07:40:06.164Z</time></trkpt><trkpt lat="45.7423823" lon="8.6965258"><ele>408.0</ele><time>2026-05-04T07:40:09.163Z</time></trkpt><trkpt lat="45.7423056" lon="8.6964618"><ele>408.0</ele><time>2026-05-04T07:40:12.164Z</time></trkpt><trkpt lat="45.7423768" lon="8.6964361"><ele>408.0</ele><time>2026-05-04T07:40:46.164Z</time></trkpt><trkpt lat="45.7425231" lon="8.6965061"><ele>408.0</ele><time>2026-05-04T07:40:47.166Z</time></trkpt><trkpt lat="45.7426151" lon="8.6965385"><ele>407.5</ele><time>2026-05-04T07:40:49.165Z</time></trkpt><trkpt lat="45.7427284" lon="8.6966242"><ele>407.0</ele><time>2026-05-04T07:40:51.165Z</time></trkpt><trkpt lat="45.742794" lon="8.6966586"><ele>406.5</ele><time>2026-05-04T07:40:52.165Z</time></trkpt><trkpt lat="45.7428519" lon="8.6967028"><ele>406.0</ele><time>2026-05-04T07:40:54.164Z</time></trkpt><trkpt lat="45.7429317" lon="8.6967845"><ele>405.5</ele><time>2026-05-04T07:40:55.163Z</time></trkpt><trkpt lat="45.7429947" lon="8.6968696"><ele>405.0</ele><time>2026-05-04T07:40:57.166Z</time></trkpt><trkpt lat="45.7430789" lon="8.6969852"><ele>405.0</ele><time>2026-05-04T07:40:59.163Z</time></trkpt><trkpt lat="45.7431575" lon="8.6970848"><ele>405.0</ele><time>2026-05-04T07:41:01.164Z</time></trkpt><trkpt lat="45.7433229" lon="8.6972168"><ele>405.0</ele><time>2026-05-04T07:41:06.164Z</time></trkpt><trkpt lat="45.74344" lon="8.6973035"><ele>405.0</ele><time>2026-05-04T07:41:08.165Z</time></trkpt><trkpt lat="45.7436079" lon="8.6973263"><ele>404.4</ele><time>2026-05-04T07:41:10.165Z</time></trkpt><trkpt lat="45.7436928" lon="8.6973458"><ele>403.8</ele><time>2026-05-04T07:41:11.164Z</time></trkpt><trkpt lat="45.7438159" lon="8.6973378"><ele>403.20000000000005</ele><time>2026-05-04T07:41:13.164Z</time></trkpt><trkpt lat="45.743904" lon="8.6973236"><ele>402.6</ele><time>2026-05-04T07:41:14.164Z</time></trkpt><trkpt lat="45.743989" lon="8.6973174"><ele>402.0</ele><time>2026-05-04T07:41:15.165Z</time></trkpt><trkpt lat="45.7440606" lon="8.6973195"><ele>402.0</ele><time>2026-05-04T07:41:17.164Z</time></trkpt><trkpt lat="45.7442387" lon="8.6973526"><ele>402.0</ele><time>2026-05-04T07:41:23.165Z</time></trkpt><trkpt lat="45.7443057" lon="8.6973897"><ele>402.0</ele><time>2026-05-04T07:41:27.165Z</time></trkpt><trkpt lat="45.7443887" lon="8.6973928"><ele>402.0</ele><time>2026-05-04T07:41:31.165Z</time></trkpt><trkpt lat="45.7444692" lon="8.6974211"><ele>402.0</ele><time>2026-05-04T07:41:33.165Z</time></trkpt><trkpt lat="45.7445406" lon="8.6974585"><ele>402.8333333333333</ele><time>2026-05-04T07:41:35.164Z</time></trkpt><trkpt lat="45.744602" lon="8.697484"><ele>403.66666666666663</ele><time>2026-05-04T07:41:37.165Z</time></trkpt><trkpt lat="45.7446892" lon="8.6975103"><ele>404.5</ele><time>2026-05-04T07:41:40.164Z</time></trkpt><trkpt lat="45.7447713" lon="8.6975555"><ele>405.3333333333333</ele><time>2026-05-04T07:41:43.164Z</time></trkpt><trkpt lat="45.7448516" lon="8.697611"><ele>406.16666666666663</ele><time>2026-05-04T07:41:46.165Z</time></trkpt><trkpt lat="45.7449374" lon="8.6976297"><ele>407.0</ele><time>2026-05-04T07:41:48.164Z</time></trkpt><trkpt lat="45.7450723" lon="8.6977563"><ele>406.99999999999994</ele><time>2026-05-04T07:41:49.165Z</time></trkpt><trkpt lat="45.7451734" lon="8.6978205"><ele>407.0</ele><time>2026-05-04T07:41:51.164Z</time></trkpt><trkpt lat="45.7452609" lon="8.6978325"><ele>407.0</ele><time>2026-05-04T07:41:52.164Z</time></trkpt><trkpt lat="45.7453235" lon="8.6978435"><ele>407.0</ele><time>2026-05-04T07:41:53.165Z</time></trkpt><trkpt lat="45.7454332" lon="8.6978688"><ele>406.99999999999994</ele><time>2026-05-04T07:41:54.165Z</time></trkpt><trkpt lat="45.7455016" lon="8.6978358"><ele>407.0</ele><time>2026-05-04T07:41:55.163Z</time></trkpt><trkpt lat="45.7455711" lon="8.6978389"><ele>408.0</ele><time>2026-05-04T07:41:56.164Z</time></trkpt><trkpt lat="45.7456438" lon="8.6978963"><ele>409.0</ele><time>2026-05-04T07:41:57.164Z</time></trkpt><trkpt lat="45.7458033" lon="8.6979621"><ele>410.0</ele><time>2026-05-04T07:41:59.163Z</time></trkpt><trkpt lat="45.7458689" lon="8.6979965"><ele>411.0</ele><time>2026-05-04T07:42:00.165Z</time></trkpt><trkpt lat="45.7460305" lon="8.6981545"><ele>411.5</ele><time>2026-05-04T07:42:02.165Z</time></trkpt><trkpt lat="45.7460846" lon="8.6982513"><ele>412.0</ele><time>2026-05-04T07:42:04.163Z</time></trkpt><trkpt lat="45.7461789" lon="8.6983376"><ele>412.5</ele><time>2026-05-04T07:42:07.163Z</time></trkpt><trkpt lat="45.746251" lon="8.6984143"><ele>413.0</ele><time>2026-05-04T07:42:13.163Z</time></trkpt><trkpt lat="45.7463017" lon="8.6984852"><ele>413.5</ele><time>2026-05-04T07:42:15.164Z</time></trkpt><trkpt lat="45.7463391" lon="8.6985718"><ele>414.0</ele><time>2026-05-04T07:42:17.163Z</time></trkpt><trkpt lat="45.7463941" lon="8.6986547"><ele>415.8333333333333</ele><time>2026-05-04T07:42:20.164Z</time></trkpt><trkpt lat="45.7464498" lon="8.6987177"><ele>417.66666666666663</ele><time>2026-05-04T07:42:24.163Z</time></trkpt><trkpt lat="45.7465164" lon="8.6988044"><ele>419.5</ele><time>2026-05-04T07:42:27.164Z</time></trkpt><trkpt lat="45.7465631" lon="8.6989159"><ele>421.3333333333333</ele><time>2026-05-04T07:42:30.164Z</time></trkpt><trkpt lat="45.7465881" lon="8.6990404"><ele>423.16666666666663</ele><time>2026-05-04T07:42:33.164Z</time></trkpt><trkpt lat="45.7465909" lon="8.6991559"><ele>425.0</ele><time>2026-05-04T07:42:35.163Z</time></trkpt><trkpt lat="45.7466019" lon="8.6992954"><ele>424.99999999999994</ele><time>2026-05-04T07:42:37.163Z</time></trkpt><trkpt lat="45.746698" lon="8.6993701"><ele>425.0</ele><time>2026-05-04T07:42:38.164Z</time></trkpt><trkpt lat="45.7467969" lon="8.6994388"><ele>425.0</ele><time>2026-05-04T07:42:41.166Z</time></trkpt><trkpt lat="45.7468479" lon="8.6995072"><ele>425.0</ele><time>2026-05-04T07:42:43.165Z</time></trkpt><trkpt lat="45.7469225" lon="8.6995818"><ele>424.99999999999994</ele><time>2026-05-04T07:42:46.164Z</time></trkpt><trkpt lat="45.7469588" lon="8.6996557"><ele>425.0</ele><time>2026-05-04T07:42:48.163Z</time></trkpt><trkpt lat="45.7470231" lon="8.6996515"><ele>425.99999999999994</ele><time>2026-05-04T07:42:51.164Z</time></trkpt><trkpt lat="45.7471182" lon="8.6996694"><ele>427.0</ele><time>2026-05-04T07:42:54.165Z</time></trkpt><trkpt lat="45.7472055" lon="8.6996631"><ele>428.0</ele><time>2026-05-04T07:42:56.165Z</time></trkpt><trkpt lat="45.74726" lon="8.6997383"><ele>429.0</ele><time>2026-05-04T07:42:58.165Z</time></trkpt><trkpt lat="45.7473205" lon="8.6997781"><ele>429.99999999999994</ele><time>2026-05-04T07:43:00.164Z</time></trkpt><trkpt lat="45.7474045" lon="8.6998313"><ele>431.0</ele><time>2026-05-04T07:43:44.166Z</time></trkpt><trkpt lat="45.7474832" lon="8.6998736"><ele>430.99999999999994</ele><time>2026-05-04T07:43:49.164Z</time></trkpt><trkpt lat="45.7475358" lon="8.6999254"><ele>431.0</ele><time>2026-05-04T07:43:51.164Z</time></trkpt><trkpt lat="45.7475984" lon="8.6999829"><ele>431.0</ele><time>2026-05-04T07:43:54.164Z</time></trkpt><trkpt lat="45.7476635" lon="8.7000626"><ele>431.0</ele><time>2026-05-04T07:43:57.164Z</time></trkpt><trkpt lat="45.7477357" lon="8.7000456"><ele>430.99999999999994</ele><time>2026-05-04T07:44:01.164Z</time></trkpt><trkpt lat="45.7478365" lon="8.7000395"><ele>431.0</ele><time>2026-05-04T07:44:04.164Z</time></trkpt><trkpt lat="45.7479217" lon="8.7000853"><ele>429.4</ele><time>2026-05-04T07:44:06.164Z</time></trkpt><trkpt lat="45.7479798" lon="8.700129"><ele>427.8</ele><time>2026-05-04T07:44:08.165Z</time></trkpt><trkpt lat="45.7481659" lon="8.7002295"><ele>426.2</ele><time>2026-05-04T07:44:12.164Z</time></trkpt><trkpt lat="45.7482526" lon="8.7003021"><ele>424.59999999999997</ele><time>2026-05-04T07:44:14.166Z</time></trkpt><trkpt lat="45.7483007" lon="8.7002143"><ele>423.0</ele><time>2026-05-04T07:44:18.163Z</time></trkpt><trkpt lat="45.7483733" lon="8.7001898"><ele>422.59999999999997</ele><time>2026-05-04T07:44:22.164Z</time></trkpt><trkpt lat="45.7484135" lon="8.7001049"><ele>422.2</ele><time>2026-05-04T07:44:28.165Z</time></trkpt><trkpt lat="45.7484939" lon="8.7000896"><ele>421.8</ele><time>2026-05-04T07:44:32.164Z</time></trkpt><trkpt lat="45.7485569" lon="8.7001184"><ele>421.4</ele><time>2026-05-04T07:44:34.165Z</time></trkpt><trkpt lat="45.7486255" lon="8.7001747"><ele>421.0</ele><time>2026-05-04T07:44:36.165Z</time></trkpt><trkpt lat="45.7487843" lon="8.700196"><ele>419.1666666666667</ele><time>2026-05-04T07:44:38.165Z</time></trkpt><trkpt lat="45.7488825" lon="8.7001736"><ele>417.33333333333337</ele><time>2026-05-04T07:44:40.164Z</time></trkpt><trkpt lat="45.7489609" lon="8.7001955"><ele>415.5</ele><time>2026-05-04T07:44:41.164Z</time></trkpt><trkpt lat="45.7490285" lon="8.7002242"><ele>413.66666666666663</ele><time>2026-05-04T07:44:42.165Z</time></trkpt><trkpt lat="45.7491417" lon="8.7002466"><ele>411.8333333333333</ele><time>2026-05-04T07:44:44.166Z</time></trkpt><trkpt lat="45.7492145" lon="8.7002444"><ele>410.0</ele><time>2026-05-04T07:44:49.164Z</time></trkpt><trkpt lat="45.749341" lon="8.7002373"><ele>409.3333333333333</ele><time>2026-05-04T07:44:56.164Z</time></trkpt><trkpt lat="45.7493963" lon="8.7002997"><ele>408.66666666666663</ele><time>2026-05-04T07:44:58.165Z</time></trkpt><trkpt lat="45.7494732" lon="8.7003802"><ele>408.0</ele><time>2026-05-04T07:45:00.165Z</time></trkpt><trkpt lat="45.7495733" lon="8.7004046"><ele>407.33333333333337</ele><time>2026-05-04T07:45:02.165Z</time></trkpt><trkpt lat="45.7496276" lon="8.7004639"><ele>406.6666666666667</ele><time>2026-05-04T07:45:03.163Z</time></trkpt><trkpt lat="45.7497097" lon="8.7004617"><ele>406.0</ele><time>2026-05-04T07:45:05.164Z</time></trkpt><trkpt lat="45.7497785" lon="8.7004398"><ele>406.00000000000006</ele><time>2026-05-04T07:45:07.164Z</time></trkpt><trkpt lat="45.7498414" lon="8.7004911"><ele>406.0</ele><time>2026-05-04T07:45:08.163Z</time></trkpt><trkpt lat="45.7498942" lon="8.7005847"><ele>406.0</ele><time>2026-05-04T07:45:09.164Z</time></trkpt><trkpt lat="45.749966" lon="8.7005749"><ele>406.0</ele><time>2026-05-04T07:45:20.165Z</time></trkpt><trkpt lat="45.7500206" lon="8.7004819"><ele>406.00000000000006</ele><time>2026-05-04T07:45:25.164Z</time></trkpt><trkpt lat="45.7499967" lon="8.7003785"><ele>406.0</ele><time>2026-05-04T07:45:27.165Z</time></trkpt><trkpt lat="45.7499609" lon="8.7002785"><ele>404.83333333333337</ele><time>2026-05-04T07:45:29.165Z</time></trkpt><trkpt lat="45.7499442" lon="8.7001707"><ele>403.6666666666667</ele><time>2026-05-04T07:45:30.165Z</time></trkpt><trkpt lat="45.7499382" lon="8.7000418"><ele>402.5</ele><time>2026-05-04T07:45:31.164Z</time></trkpt><trkpt lat="45.7498836" lon="8.6999377"><ele>401.33333333333337</ele><time>2026-05-04T07:45:32.165Z</time></trkpt><trkpt lat="45.7498558" lon="8.6998154"><ele>400.1666666666667</ele><time>2026-05-04T07:45:33.165Z</time></trkpt><trkpt lat="45.7498551" lon="8.6997107"><ele>399.0</ele><time>2026-05-04T07:45:34.165Z</time></trkpt><trkpt lat="45.7498337" lon="8.6996129"><ele>399.0</ele><time>2026-05-04T07:45:35.165Z</time></trkpt><trkpt lat="45.7498228" lon="8.6995014"><ele>399.0</ele><time>2026-05-04T07:45:36.164Z</time></trkpt><trkpt lat="45.7497776" lon="8.6993448"><ele>399.0</ele><time>2026-05-04T07:45:38.164Z</time></trkpt><trkpt lat="45.7497425" lon="8.6992523"><ele>399.0</ele><time>2026-05-04T07:45:39.164Z</time></trkpt><trkpt lat="45.7497109" lon="8.6991628"><ele>399.0</ele><time>2026-05-04T07:45:40.165Z</time></trkpt><trkpt lat="45.7496588" lon="8.6990612"><ele>399.0</ele><time>2026-05-04T07:45:41.164Z</time></trkpt><trkpt lat="45.7496094" lon="8.698958"><ele>397.0</ele><time>2026-05-04T07:45:42.164Z</time></trkpt><trkpt lat="45.7495907" lon="8.6987935"><ele>395.0</ele><time>2026-05-04T07:45:43.164Z</time></trkpt><trkpt lat="45.7495393" lon="8.6987039"><ele>393.0</ele><time>2026-05-04T07:45:44.164Z</time></trkpt><trkpt lat="45.7494823" lon="8.698595"><ele>391.0</ele><time>2026-05-04T07:45:45.165Z</time></trkpt><trkpt lat="45.749416" lon="8.6985201"><ele>389.0</ele><time>2026-05-04T07:45:46.165Z</time></trkpt><trkpt lat="45.7493705" lon="8.6984502"><ele>387.0</ele><time>2026-05-04T07:45:47.165Z</time></trkpt><trkpt lat="45.7493254" lon="8.6983625"><ele>387.0</ele><time>2026-05-04T07:45:48.165Z</time></trkpt><trkpt lat="45.7492653" lon="8.6982512"><ele>387.0</ele><time>2026-05-04T07:45:49.164Z</time></trkpt><trkpt lat="45.749202" lon="8.6981688"><ele>387.0</ele><time>2026-05-04T07:45:50.165Z</time></trkpt><trkpt lat="45.7491415" lon="8.6980889"><ele>387.0</ele><time>2026-05-04T07:45:51.164Z</time></trkpt><trkpt lat="45.7490788" lon="8.6980267"><ele>387.0</ele><time>2026-05-04T07:45:52.164Z</time></trkpt><trkpt lat="45.7490206" lon="8.6979793"><ele>387.0</ele><time>2026-05-04T07:45:53.164Z</time></trkpt><trkpt lat="45.7489604" lon="8.6979348"><ele>387.0</ele><time>2026-05-04T07:45:54.164Z</time></trkpt><trkpt lat="45.7488842" lon="8.6978789"><ele>387.0</ele><time>2026-05-04T07:45:55.164Z</time></trkpt><trkpt lat="45.7488301" lon="8.6977842"><ele>387.0</ele><time>2026-05-04T07:45:56.164Z</time></trkpt><trkpt lat="45.7487662" lon="8.6976864"><ele>387.0</ele><time>2026-05-04T07:45:57.164Z</time></trkpt><trkpt lat="45.7487119" lon="8.6975874"><ele>387.0</ele><time>2026-05-04T07:45:58.164Z</time></trkpt><trkpt lat="45.7486564" lon="8.6974937"><ele>387.0</ele><time>2026-05-04T07:45:59.164Z</time></trkpt><trkpt lat="45.7485826" lon="8.6974183"><ele>386.3333333333333</ele><time>2026-05-04T07:46:00.164Z</time></trkpt><trkpt lat="45.748521" lon="8.6973477"><ele>385.6666666666667</ele><time>2026-05-04T07:46:01.165Z</time></trkpt><trkpt lat="45.7484485" lon="8.6972721"><ele>385.0</ele><time>2026-05-04T07:46:02.164Z</time></trkpt><trkpt lat="45.7483823" lon="8.6971877"><ele>384.33333333333337</ele><time>2026-05-04T07:46:03.165Z</time></trkpt><trkpt lat="45.748321" lon="8.6971337"><ele>383.6666666666667</ele><time>2026-05-04T07:46:04.164Z</time></trkpt><trkpt lat="45.7482607" lon="8.6970626"><ele>383.0</ele><time>2026-05-04T07:46:05.164Z</time></trkpt><trkpt lat="45.7481914" lon="8.6969949"><ele>380.57142857142856</ele><time>2026-05-04T07:46:06.165Z</time></trkpt><trkpt lat="45.7481368" lon="8.6968965"><ele>378.1428571428571</ele><time>2026-05-04T07:46:07.164Z</time></trkpt><trkpt lat="45.7480778" lon="8.6968154"><ele>375.7142857142857</ele><time>2026-05-04T07:46:08.165Z</time></trkpt><trkpt lat="45.7480195" lon="8.6967549"><ele>373.2857142857143</ele><time>2026-05-04T07:46:09.164Z</time></trkpt><trkpt lat="45.7479631" lon="8.6967021"><ele>370.8571428571429</ele><time>2026-05-04T07:46:10.164Z</time></trkpt><trkpt lat="45.7479131" lon="8.6966405"><ele>368.42857142857144</ele><time>2026-05-04T07:46:11.164Z</time></trkpt><trkpt lat="45.7478522" lon="8.6965837"><ele>366.0</ele><time>2026-05-04T07:46:12.164Z</time></trkpt><trkpt lat="45.7477803" lon="8.6964733"><ele>365.4</ele><time>2026-05-04T07:46:14.165Z</time></trkpt><trkpt lat="45.7476824" lon="8.6963401"><ele>364.8</ele><time>2026-05-04T07:46:16.164Z</time></trkpt><trkpt lat="45.7475866" lon="8.6962421"><ele>364.2</ele><time>2026-05-04T07:46:18.164Z</time></trkpt><trkpt lat="45.7475115" lon="8.6961325"><ele>363.59999999999997</ele><time>2026-05-04T07:46:20.165Z</time></trkpt><trkpt lat="45.7474486" lon="8.6960856"><ele>363.0</ele><time>2026-05-04T07:46:22.165Z</time></trkpt><trkpt lat="45.7473515" lon="8.6960261"><ele>363.0</ele><time>2026-05-04T07:46:24.165Z</time></trkpt><trkpt lat="45.747273" lon="8.6959828"><ele>363.0</ele><time>2026-05-04T07:46:26.165Z</time></trkpt><trkpt lat="45.747167" lon="8.6959766"><ele>363.0</ele><time>2026-05-04T07:46:28.164Z</time></trkpt><trkpt lat="45.747103" lon="8.6958877"><ele>363.0</ele><time>2026-05-04T07:46:30.165Z</time></trkpt><trkpt lat="45.7470428" lon="8.6958361"><ele>363.0</ele><time>2026-05-04T07:46:31.164Z</time></trkpt><trkpt lat="45.747" lon="8.6957273"><ele>363.0</ele><time>2026-05-04T07:46:33.165Z</time></trkpt><trkpt lat="45.7469521" lon="8.6956609"><ele>361.5</ele><time>2026-05-04T07:46:34.164Z</time></trkpt><trkpt lat="45.7468552" lon="8.6954847"><ele>360.0</ele><time>2026-05-04T07:46:36.163Z</time></trkpt><trkpt lat="45.7467668" lon="8.6953958"><ele>358.5</ele><time>2026-05-04T07:46:37.164Z</time></trkpt><trkpt lat="45.7466936" lon="8.6952563"><ele>357.0</ele><time>2026-05-04T07:46:39.165Z</time></trkpt><trkpt lat="45.7466051" lon="8.6952131"><ele>357.0</ele><time>2026-05-04T07:46:40.165Z</time></trkpt><trkpt lat="45.746512" lon="8.6951224"><ele>357.0</ele><time>2026-05-04T07:46:42.165Z</time></trkpt><trkpt lat="45.7464178" lon="8.6951519"><ele>357.0</ele><time>2026-05-04T07:46:43.165Z</time></trkpt><trkpt lat="45.7463615" lon="8.6950983"><ele>357.0</ele><time>2026-05-04T07:46:44.164Z</time></trkpt><trkpt lat="45.7462713" lon="8.6949922"><ele>357.0</ele><time>2026-05-04T07:46:46.165Z</time></trkpt><trkpt lat="45.7461883" lon="8.6949396"><ele>357.0</ele><time>2026-05-04T07:46:48.164Z</time></trkpt><trkpt lat="45.7461343" lon="8.6948909"><ele>357.0</ele><time>2026-05-04T07:46:49.165Z</time></trkpt><trkpt lat="45.7460198" lon="8.6948306"><ele>357.0</ele><time>2026-05-04T07:46:51.163Z</time></trkpt><trkpt lat="45.745898" lon="8.6947961"><ele>357.0</ele><time>2026-05-04T07:46:53.164Z</time></trkpt><trkpt lat="45.7458443" lon="8.6947348"><ele>357.0</ele><time>2026-05-04T07:46:54.164Z</time></trkpt><trkpt lat="45.7457433" lon="8.6946503"><ele>355.6</ele><time>2026-05-04T07:46:56.165Z</time></trkpt><trkpt lat="45.745637" lon="8.6945432"><ele>354.20000000000005</ele><time>2026-05-04T07:46:58.164Z</time></trkpt><trkpt lat="45.7455445" lon="8.6945151"><ele>352.8</ele><time>2026-05-04T07:47:00.164Z</time></trkpt><trkpt lat="45.7454825" lon="8.6944647"><ele>351.4</ele><time>2026-05-04T07:47:01.164Z</time></trkpt><trkpt lat="45.7453987" lon="8.6943607"><ele>350.0</ele><time>2026-05-04T07:47:03.164Z</time></trkpt><trkpt lat="45.7453385" lon="8.6942922"><ele>350.0</ele><time>2026-05-04T07:47:04.165Z</time></trkpt><trkpt lat="45.7452727" lon="8.6942425"><ele>350.0</ele><time>2026-05-04T07:47:05.165Z</time></trkpt><trkpt lat="45.7452082" lon="8.6941861"><ele>350.0</ele><time>2026-05-04T07:47:06.164Z</time></trkpt><trkpt lat="45.7451486" lon="8.6941047"><ele>350.0</ele><time>2026-05-04T07:47:07.164Z</time></trkpt><trkpt lat="45.745092" lon="8.6940142"><ele>350.0</ele><time>2026-05-04T07:47:08.164Z</time></trkpt><trkpt lat="45.7450452" lon="8.6939463"><ele>350.0</ele><time>2026-05-04T07:47:09.165Z</time></trkpt><trkpt lat="45.7450044" lon="8.6938582"><ele>351.0</ele><time>2026-05-04T07:47:10.164Z</time></trkpt><trkpt lat="45.7449577" lon="8.693786"><ele>352.0</ele><time>2026-05-04T07:47:11.165Z</time></trkpt><trkpt lat="45.7448995" lon="8.6937247"><ele>353.0</ele><time>2026-05-04T07:47:12.165Z</time></trkpt><trkpt lat="45.7448478" lon="8.6936599"><ele>354.0</ele><time>2026-05-04T07:47:13.165Z</time></trkpt><trkpt lat="45.7448062" lon="8.6935905"><ele>355.0</ele><time>2026-05-04T07:47:14.165Z</time></trkpt><trkpt lat="45.7447527" lon="8.6935076"><ele>356.0</ele><time>2026-05-04T07:47:15.164Z</time></trkpt><trkpt lat="45.7446677" lon="8.6934013"><ele>354.6</ele><time>2026-05-04T07:47:17.164Z</time></trkpt><trkpt lat="45.7446039" lon="8.6933507"><ele>353.20000000000005</ele><time>2026-05-04T07:47:18.164Z</time></trkpt><trkpt lat="45.7445315" lon="8.693284"><ele>351.79999999999995</ele><time>2026-05-04T07:47:19.165Z</time></trkpt><trkpt lat="45.7444072" lon="8.6932192"><ele>350.4</ele><time>2026-05-04T07:47:21.165Z</time></trkpt><trkpt lat="45.7443017" lon="8.6931683"><ele>349.0</ele><time>2026-05-04T07:47:23.165Z</time></trkpt><trkpt lat="45.7441976" lon="8.6930744"><ele>349.0</ele><time>2026-05-04T07:47:25.165Z</time></trkpt><trkpt lat="45.7440907" lon="8.6930007"><ele>349.0</ele><time>2026-05-04T07:47:27.165Z</time></trkpt><trkpt lat="45.7440347" lon="8.6929565"><ele>349.0</ele><time>2026-05-04T07:47:28.164Z</time></trkpt><trkpt lat="45.7439561" lon="8.6928937"><ele>349.0</ele><time>2026-05-04T07:47:29.165Z</time></trkpt><trkpt lat="45.74389" lon="8.6928417"><ele>349.0</ele><time>2026-05-04T07:47:30.164Z</time></trkpt><trkpt lat="45.7437844" lon="8.6927683"><ele>347.6</ele><time>2026-05-04T07:47:32.164Z</time></trkpt><trkpt lat="45.7436596" lon="8.692677"><ele>346.2</ele><time>2026-05-04T07:47:34.165Z</time></trkpt><trkpt lat="45.7436081" lon="8.6926194"><ele>344.8</ele><time>2026-05-04T07:47:35.164Z</time></trkpt><trkpt lat="45.7435282" lon="8.6925075"><ele>343.40000000000003</ele><time>2026-05-04T07:47:36.165Z</time></trkpt><trkpt lat="45.7434751" lon="8.6924091"><ele>342.0</ele><time>2026-05-04T07:47:37.165Z</time></trkpt><trkpt lat="45.7434214" lon="8.6923451"><ele>342.0</ele><time>2026-05-04T07:47:38.165Z</time></trkpt><trkpt lat="45.743383" lon="8.6922602"><ele>342.0</ele><time>2026-05-04T07:47:39.163Z</time></trkpt><trkpt lat="45.7433337" lon="8.6921804"><ele>342.0</ele><time>2026-05-04T07:47:40.165Z</time></trkpt><trkpt lat="45.7433043" lon="8.6920326"><ele>342.0</ele><time>2026-05-04T07:47:42.164Z</time></trkpt><trkpt lat="45.7432746" lon="8.6919203"><ele>342.0</ele><time>2026-05-04T07:47:43.164Z</time></trkpt><trkpt lat="45.7431516" lon="8.6918427"><ele>340.3333333333333</ele><time>2026-05-04T07:47:45.163Z</time></trkpt><trkpt lat="45.7430937" lon="8.6917864"><ele>338.6666666666667</ele><time>2026-05-04T07:47:46.164Z</time></trkpt><trkpt lat="45.743014" lon="8.6917432"><ele>337.0</ele><time>2026-05-04T07:47:48.164Z</time></trkpt><trkpt lat="45.7429543" lon="8.6916255"><ele>335.33333333333337</ele><time>2026-05-04T07:47:50.164Z</time></trkpt><trkpt lat="45.7429071" lon="8.6915231"><ele>333.6666666666667</ele><time>2026-05-04T07:47:52.164Z</time></trkpt><trkpt lat="45.7428762" lon="8.691405"><ele>332.0</ele><time>2026-05-04T07:47:54.164Z</time></trkpt><trkpt lat="45.742791" lon="8.6912627"><ele>332.0</ele><time>2026-05-04T07:47:56.163Z</time></trkpt><trkpt lat="45.7427436" lon="8.6911508"><ele>332.0</ele><time>2026-05-04T07:47:58.165Z</time></trkpt><trkpt lat="45.7426796" lon="8.6911166"><ele>332.0</ele><time>2026-05-04T07:48:19.164Z</time></trkpt><trkpt lat="45.7426052" lon="8.6910477"><ele>332.0</ele><time>2026-05-04T07:48:24.165Z</time></trkpt><trkpt lat="45.7425332" lon="8.6909803"><ele>332.0</ele><time>2026-05-04T07:48:26.165Z</time></trkpt><trkpt lat="45.7424805" lon="8.6908982"><ele>332.0</ele><time>2026-05-04T07:48:28.165Z</time></trkpt><trkpt lat="45.7424467" lon="8.6907877"><ele>330.6666666666667</ele><time>2026-05-04T07:48:30.164Z</time></trkpt><trkpt lat="45.7423931" lon="8.6906894"><ele>329.33333333333337</ele><time>2026-05-04T07:48:32.164Z</time></trkpt><trkpt lat="45.7423117" lon="8.6906316"><ele>328.0</ele><time>2026-05-04T07:48:34.165Z</time></trkpt><trkpt lat="45.7422392" lon="8.6906062"><ele>326.6666666666667</ele><time>2026-05-04T07:48:37.164Z</time></trkpt><trkpt lat="45.7421878" lon="8.6905432"><ele>325.3333333333333</ele><time>2026-05-04T07:48:39.163Z</time></trkpt><trkpt lat="45.7421106" lon="8.6905077"><ele>324.0</ele><time>2026-05-04T07:48:42.165Z</time></trkpt><trkpt lat="45.7420272" lon="8.6904973"><ele>324.0</ele><time>2026-05-04T08:01:26.165Z</time></trkpt><trkpt lat="45.7419658" lon="8.6905416"><ele>324.0</ele><time>2026-05-04T08:01:36.165Z</time></trkpt><trkpt lat="45.7419077" lon="8.6904999"><ele>324.0</ele><time>2026-05-04T08:01:40.165Z</time></trkpt><trkpt lat="45.7418259" lon="8.6904632"><ele>324.0</ele><time>2026-05-04T08:01:43.165Z</time></trkpt><trkpt lat="45.7417473" lon="8.6904335"><ele>324.0</ele><time>2026-05-04T08:01:46.166Z</time></trkpt><trkpt lat="45.7416795" lon="8.6904082"><ele>324.0</ele><time>2026-05-04T08:01:49.166Z</time></trkpt><trkpt lat="45.7416014" lon="8.6903886"><ele>324.79999999999995</ele><time>2026-05-04T08:01:52.166Z</time></trkpt><trkpt lat="45.7415345" lon="8.6903603"><ele>325.59999999999997</ele><time>2026-05-04T08:01:54.165Z</time></trkpt><trkpt lat="45.7414572" lon="8.6902984"><ele>326.4</ele><time>2026-05-04T08:01:56.166Z</time></trkpt><trkpt lat="45.7413771" lon="8.6901773"><ele>327.2</ele><time>2026-05-04T08:01:57.165Z</time></trkpt><trkpt lat="45.7413026" lon="8.6900632"><ele>328.0</ele><time>2026-05-04T08:01:59.165Z</time></trkpt><trkpt lat="45.7412201" lon="8.6899444"><ele>327.66666666666663</ele><time>2026-05-04T08:02:01.165Z</time></trkpt><trkpt lat="45.7411673" lon="8.6897892"><ele>327.3333333333333</ele><time>2026-05-04T08:02:03.165Z</time></trkpt><trkpt lat="45.7411238" lon="8.6897036"><ele>327.0</ele><time>2026-05-04T08:02:04.166Z</time></trkpt><trkpt lat="45.7410817" lon="8.6896238"><ele>326.6666666666667</ele><time>2026-05-04T08:02:05.166Z</time></trkpt><trkpt lat="45.7410444" lon="8.6895189"><ele>326.33333333333337</ele><time>2026-05-04T08:02:06.165Z</time></trkpt><trkpt lat="45.7410156" lon="8.6894338"><ele>326.0</ele><time>2026-05-04T08:02:07.165Z</time></trkpt><trkpt lat="45.7409352" lon="8.689313"><ele>323.6666666666667</ele><time>2026-05-04T08:02:08.165Z</time></trkpt><trkpt lat="45.7408893" lon="8.6892151"><ele>321.33333333333337</ele><time>2026-05-04T08:02:09.165Z</time></trkpt><trkpt lat="45.7408539" lon="8.6891237"><ele>319.0</ele><time>2026-05-04T08:02:10.165Z</time></trkpt><trkpt lat="45.7408247" lon="8.6890247"><ele>316.6666666666667</ele><time>2026-05-04T08:02:11.166Z</time></trkpt><trkpt lat="45.7407416" lon="8.6889783"><ele>314.3333333333333</ele><time>2026-05-04T08:02:13.166Z</time></trkpt><trkpt lat="45.7407047" lon="8.6888998"><ele>312.0</ele><time>2026-05-04T08:02:15.165Z</time></trkpt><trkpt lat="45.7406379" lon="8.6890966"><ele>312.0</ele><time>2026-05-04T08:02:28.166Z</time></trkpt><trkpt lat="45.7405869" lon="8.6891793"><ele>312.0</ele><time>2026-05-04T08:02:32.165Z</time></trkpt><trkpt lat="45.7405294" lon="8.6892165"><ele>312.0</ele><time>2026-05-04T08:02:35.166Z</time></trkpt><trkpt lat="45.7404474" lon="8.6892169"><ele>312.0</ele><time>2026-05-04T08:02:38.165Z</time></trkpt><trkpt lat="45.740368" lon="8.6891906"><ele>312.0</ele><time>2026-05-04T08:02:41.165Z</time></trkpt><trkpt lat="45.7402957" lon="8.6891592"><ele>312.0</ele><time>2026-05-04T08:02:43.164Z</time></trkpt><trkpt lat="45.7402209" lon="8.6891249"><ele>313.1666666666667</ele><time>2026-05-04T08:02:45.166Z</time></trkpt><trkpt lat="45.7401431" lon="8.6891139"><ele>314.3333333333333</ele><time>2026-05-04T08:02:47.164Z</time></trkpt><trkpt lat="45.7400722" lon="8.6891116"><ele>315.5</ele><time>2026-05-04T08:02:51.166Z</time></trkpt><trkpt lat="45.7399958" lon="8.6890866"><ele>316.66666666666663</ele><time>2026-05-04T08:02:55.165Z</time></trkpt><trkpt lat="45.7399309" lon="8.6890881"><ele>317.8333333333333</ele><time>2026-05-04T08:02:58.165Z</time></trkpt><trkpt lat="45.7398485" lon="8.6890991"><ele>319.0</ele><time>2026-05-04T08:03:02.165Z</time></trkpt><trkpt lat="45.7397642" lon="8.6890993"><ele>319.0</ele><time>2026-05-04T08:03:05.166Z</time></trkpt><trkpt lat="45.7396934" lon="8.6890758"><ele>319.0</ele><time>2026-05-04T08:03:08.165Z</time></trkpt><trkpt lat="45.7396326" lon="8.6890501"><ele>319.0</ele><time>2026-05-04T08:03:11.166Z</time></trkpt><trkpt lat="45.7395581" lon="8.6889828"><ele>319.0</ele><time>2026-05-04T08:03:14.165Z</time></trkpt><trkpt lat="45.7395059" lon="8.6889265"><ele>319.0</ele><time>2026-05-04T08:03:16.166Z</time></trkpt><trkpt lat="45.7394237" lon="8.6888566"><ele>319.0</ele><time>2026-05-04T08:03:19.165Z</time></trkpt><trkpt lat="45.7393661" lon="8.6888103"><ele>320.42857142857144</ele><time>2026-05-04T08:03:21.165Z</time></trkpt><trkpt lat="45.7393071" lon="8.6887638"><ele>321.85714285714283</ele><time>2026-05-04T08:03:23.166Z</time></trkpt><trkpt lat="45.7392448" lon="8.6887215"><ele>323.2857142857143</ele><time>2026-05-04T08:03:25.166Z</time></trkpt><trkpt lat="45.7391795" lon="8.688693"><ele>324.7142857142857</ele><time>2026-05-04T08:03:27.166Z</time></trkpt><trkpt lat="45.7391165" lon="8.6886779"><ele>326.1428571428571</ele><time>2026-05-04T08:03:29.165Z</time></trkpt><trkpt lat="45.739025" lon="8.6886656"><ele>327.57142857142856</ele><time>2026-05-04T08:03:32.165Z</time></trkpt><trkpt lat="45.7389548" lon="8.688672"><ele>329.0</ele><time>2026-05-04T08:03:34.165Z</time></trkpt><trkpt lat="45.7388839" lon="8.6886858"><ele>329.0</ele><time>2026-05-04T08:03:36.166Z</time></trkpt><trkpt lat="45.7388192" lon="8.6886955"><ele>329.0</ele><time>2026-05-04T08:03:38.166Z</time></trkpt><trkpt lat="45.7387544" lon="8.6886924"><ele>329.0</ele><time>2026-05-04T08:03:40.165Z</time></trkpt><trkpt lat="45.7386812" lon="8.6886899"><ele>329.0</ele><time>2026-05-04T08:03:42.165Z</time></trkpt><trkpt lat="45.7386109" lon="8.6887052"><ele>329.0</ele><time>2026-05-04T08:03:44.165Z</time></trkpt><trkpt lat="45.7386652" lon="8.6887711"><ele>329.0</ele><time>2026-05-04T08:03:55.166Z</time></trkpt><trkpt lat="45.738741" lon="8.6888179"><ele>329.0</ele><time>2026-05-04T08:03:59.165Z</time></trkpt><trkpt lat="45.738804" lon="8.6888954"><ele>329.0</ele><time>2026-05-04T08:04:02.165Z</time></trkpt><trkpt lat="45.7388692" lon="8.6889872"><ele>329.0</ele><time>2026-05-04T08:04:05.165Z</time></trkpt><trkpt lat="45.7388991" lon="8.6890952"><ele>329.0</ele><time>2026-05-04T08:04:08.165Z</time></trkpt><trkpt lat="45.7389256" lon="8.6892222"><ele>329.0</ele><time>2026-05-04T08:04:10.165Z</time></trkpt><trkpt lat="45.7389616" lon="8.6893126"><ele>329.0</ele><time>2026-05-04T08:04:13.165Z</time></trkpt><trkpt lat="45.7389765" lon="8.6894214"><ele>329.0</ele><time>2026-05-04T08:04:16.166Z</time></trkpt><trkpt lat="45.7389633" lon="8.6895388"><ele>330.6666666666667</ele><time>2026-05-04T08:04:19.165Z</time></trkpt><trkpt lat="45.7389461" lon="8.689642"><ele>332.33333333333337</ele><time>2026-05-04T08:04:22.166Z</time></trkpt><trkpt lat="45.7389331" lon="8.6897318"><ele>334.0</ele><time>2026-05-04T08:04:24.165Z</time></trkpt><trkpt lat="45.7389345" lon="8.6898608"><ele>335.6666666666667</ele><time>2026-05-04T08:04:27.165Z</time></trkpt><trkpt lat="45.7389322" lon="8.6899762"><ele>337.3333333333333</ele><time>2026-05-04T08:04:28.165Z</time></trkpt><trkpt lat="45.7389579" lon="8.6900775"><ele>339.0</ele><time>2026-05-04T08:04:30.166Z</time></trkpt><trkpt lat="45.7389782" lon="8.6901757"><ele>340.2</ele><time>2026-05-04T08:04:32.165Z</time></trkpt><trkpt lat="45.7389823" lon="8.690306"><ele>341.4</ele><time>2026-05-04T08:04:35.166Z</time></trkpt><trkpt lat="45.7390062" lon="8.6904285"><ele>342.6</ele><time>2026-05-04T08:04:38.166Z</time></trkpt><trkpt lat="45.7390652" lon="8.6904941"><ele>343.8</ele><time>2026-05-04T08:04:40.165Z</time></trkpt><trkpt lat="45.7391501" lon="8.6906131"><ele>345.0</ele><time>2026-05-04T08:04:42.165Z</time></trkpt><trkpt lat="45.739213" lon="8.6906755"><ele>345.0</ele><time>2026-05-04T08:04:45.166Z</time></trkpt><trkpt lat="45.7392777" lon="8.6907098"><ele>345.0</ele><time>2026-05-04T08:04:48.166Z</time></trkpt><trkpt lat="45.7393562" lon="8.6907574"><ele>345.0</ele><time>2026-05-04T08:04:52.165Z</time></trkpt><trkpt lat="45.7394223" lon="8.6908051"><ele>345.0</ele><time>2026-05-04T08:04:55.165Z</time></trkpt><trkpt lat="45.7394909" lon="8.6908575"><ele>345.0</ele><time>2026-05-04T08:04:59.166Z</time></trkpt><trkpt lat="45.7395672" lon="8.6908965"><ele>345.0</ele><time>2026-05-04T08:05:02.164Z</time></trkpt><trkpt lat="45.7396422" lon="8.6909648"><ele>344.5</ele><time>2026-05-04T08:05:05.165Z</time></trkpt><trkpt lat="45.739715" lon="8.6909996"><ele>344.0</ele><time>2026-05-04T08:05:08.165Z</time></trkpt><trkpt lat="45.7397906" lon="8.6910219"><ele>343.5</ele><time>2026-05-04T08:05:10.165Z</time></trkpt><trkpt lat="45.7398612" lon="8.6910727"><ele>343.0</ele><time>2026-05-04T08:05:12.166Z</time></trkpt><trkpt lat="45.7399049" lon="8.6911945"><ele>342.5</ele><time>2026-05-04T08:05:15.165Z</time></trkpt><trkpt lat="45.7399387" lon="8.6913162"><ele>342.0</ele><time>2026-05-04T08:05:18.165Z</time></trkpt><trkpt lat="45.7399688" lon="8.6913956"><ele>342.8333333333333</ele><time>2026-05-04T08:05:20.165Z</time></trkpt><trkpt lat="45.7400053" lon="8.6914804"><ele>343.6666666666667</ele><time>2026-05-04T08:05:22.166Z</time></trkpt><trkpt lat="45.7400464" lon="8.6915557"><ele>344.5</ele><time>2026-05-04T08:05:24.165Z</time></trkpt><trkpt lat="45.7400841" lon="8.6916293"><ele>345.33333333333337</ele><time>2026-05-04T08:05:26.166Z</time></trkpt><trkpt lat="45.7401457" lon="8.6917372"><ele>346.1666666666667</ele><time>2026-05-04T08:05:29.165Z</time></trkpt><trkpt lat="45.7401904" lon="8.6918073"><ele>347.0</ele><time>2026-05-04T08:05:31.165Z</time></trkpt><trkpt lat="45.7402402" lon="8.6919171"><ele>348.14285714285717</ele><time>2026-05-04T08:05:34.164Z</time></trkpt><trkpt lat="45.7402766" lon="8.691993"><ele>349.2857142857143</ele><time>2026-05-04T08:05:36.165Z</time></trkpt><trkpt lat="45.7403088" lon="8.6920825"><ele>350.42857142857144</ele><time>2026-05-04T08:05:38.166Z</time></trkpt><trkpt lat="45.7403388" lon="8.6921914"><ele>351.57142857142856</ele><time>2026-05-04T08:05:41.166Z</time></trkpt><trkpt lat="45.7403922" lon="8.6922796"><ele>352.7142857142857</ele><time>2026-05-04T08:05:44.166Z</time></trkpt><trkpt lat="45.7404513" lon="8.6923156"><ele>353.85714285714283</ele><time>2026-05-04T08:05:47.166Z</time></trkpt><trkpt lat="45.740512" lon="8.6923503"><ele>355.0</ele><time>2026-05-04T08:05:49.165Z</time></trkpt><trkpt lat="45.740578" lon="8.6924235"><ele>355.0</ele><time>2026-05-04T08:05:53.166Z</time></trkpt><trkpt lat="45.7406408" lon="8.692452"><ele>355.0</ele><time>2026-05-04T08:05:55.165Z</time></trkpt><trkpt lat="45.7407018" lon="8.6924818"><ele>355.0</ele><time>2026-05-04T08:05:57.166Z</time></trkpt><trkpt lat="45.7407811" lon="8.692556"><ele>355.0</ele><time>2026-05-04T08:06:00.165Z</time></trkpt><trkpt lat="45.740842" lon="8.6926276"><ele>355.0</ele><time>2026-05-04T08:06:03.165Z</time></trkpt><trkpt lat="45.7408835" lon="8.6927145"><ele>355.0</ele><time>2026-05-04T08:06:05.166Z</time></trkpt><trkpt lat="45.7409446" lon="8.6928148"><ele>356.2</ele><time>2026-05-04T08:06:07.165Z</time></trkpt><trkpt lat="45.741009" lon="8.6928856"><ele>357.4</ele><time>2026-05-04T08:06:09.165Z</time></trkpt><trkpt lat="45.7411868" lon="8.6929409"><ele>358.6</ele><time>2026-05-04T08:06:14.165Z</time></trkpt><trkpt lat="45.7412516" lon="8.6929696"><ele>359.8</ele><time>2026-05-04T08:06:16.165Z</time></trkpt><trkpt lat="45.7413396" lon="8.6930266"><ele>361.0</ele><time>2026-05-04T08:06:19.166Z</time></trkpt><trkpt lat="45.741461" lon="8.6930841"><ele>361.0</ele><time>2026-05-04T08:06:21.165Z</time></trkpt><trkpt lat="45.7415275" lon="8.6931599"><ele>361.0</ele><time>2026-05-04T08:06:23.166Z</time></trkpt><trkpt lat="45.7415957" lon="8.6932324"><ele>361.0</ele><time>2026-05-04T08:06:25.166Z</time></trkpt><trkpt lat="45.7416473" lon="8.6933432"><ele>361.0</ele><time>2026-05-04T08:06:29.166Z</time></trkpt><trkpt lat="45.7416255" lon="8.693447"><ele>361.0</ele><time>2026-05-04T08:06:31.166Z</time></trkpt><trkpt lat="45.741608" lon="8.6935666"><ele>361.0</ele><time>2026-05-04T08:06:35.167Z</time></trkpt><trkpt lat="45.7416035" lon="8.6936836"><ele>362.8571428571429</ele><time>2026-05-04T08:06:40.165Z</time></trkpt><trkpt lat="45.7415744" lon="8.6937698"><ele>364.71428571428567</ele><time>2026-05-04T08:06:44.166Z</time></trkpt><trkpt lat="45.7415507" lon="8.6938948"><ele>366.57142857142856</ele><time>2026-05-04T08:07:23.166Z</time></trkpt><trkpt lat="45.7415084" lon="8.6939646"><ele>368.42857142857144</ele><time>2026-05-04T08:07:30.165Z</time></trkpt><trkpt lat="45.7414839" lon="8.6940519"><ele>370.28571428571433</ele><time>2026-05-04T08:07:34.166Z</time></trkpt><trkpt lat="45.7414157" lon="8.6940964"><ele>372.1428571428571</ele><time>2026-05-04T08:07:38.166Z</time></trkpt><trkpt lat="45.7413406" lon="8.6940708"><ele>374.0</ele><time>2026-05-04T08:07:41.166Z</time></trkpt><trkpt lat="45.7412606" lon="8.6940557"><ele>374.0</ele><time>2026-05-04T08:07:45.165Z</time></trkpt><trkpt lat="45.7411847" lon="8.6940391"><ele>374.0</ele><time>2026-05-04T08:07:49.165Z</time></trkpt><trkpt lat="45.7411149" lon="8.6940196"><ele>374.0</ele><time>2026-05-04T08:07:52.166Z</time></trkpt><trkpt lat="45.7410368" lon="8.6939614"><ele>374.0</ele><time>2026-05-04T08:07:55.166Z</time></trkpt><trkpt lat="45.7409847" lon="8.6938982"><ele>374.0</ele><time>2026-05-04T08:07:57.165Z</time></trkpt><trkpt lat="45.7409582" lon="8.6938054"><ele>374.0</ele><time>2026-05-04T08:07:59.166Z</time></trkpt><trkpt lat="45.7409452" lon="8.6936921"><ele>372.83333333333337</ele><time>2026-05-04T08:08:02.165Z</time></trkpt><trkpt lat="45.7409009" lon="8.6935983"><ele>371.6666666666667</ele><time>2026-05-04T08:08:06.166Z</time></trkpt><trkpt lat="45.7408363" lon="8.69359"><ele>370.5</ele><time>2026-05-04T08:08:10.165Z</time></trkpt><trkpt lat="45.7407595" lon="8.6935536"><ele>369.3333333333333</ele><time>2026-05-04T08:08:15.166Z</time></trkpt><trkpt lat="45.7406899" lon="8.6935284"><ele>368.16666666666663</ele><time>2026-05-04T08:08:17.166Z</time></trkpt><trkpt lat="45.740595" lon="8.6935059"><ele>367.0</ele><time>2026-05-04T08:08:19.166Z</time></trkpt><trkpt lat="45.7405254" lon="8.6935008"><ele>367.0</ele><time>2026-05-04T08:08:21.165Z</time></trkpt><trkpt lat="45.7404441" lon="8.6934692"><ele>367.0</ele><time>2026-05-04T08:08:24.166Z</time></trkpt><trkpt lat="45.7403856" lon="8.6934221"><ele>367.0</ele><time>2026-05-04T08:08:26.165Z</time></trkpt><trkpt lat="45.7402131" lon="8.693171"><ele>367.0</ele><time>2026-05-04T08:08:28.166Z</time></trkpt><trkpt lat="45.7401676" lon="8.6931071"><ele>367.66666666666663</ele><time>2026-05-04T08:08:29.165Z</time></trkpt><trkpt lat="45.7400903" lon="8.6931211"><ele>368.3333333333333</ele><time>2026-05-04T08:08:31.167Z</time></trkpt><trkpt lat="45.7399998" lon="8.6930427"><ele>369.0</ele><time>2026-05-04T08:08:33.166Z</time></trkpt><trkpt lat="45.7399273" lon="8.6929872"><ele>369.6666666666667</ele><time>2026-05-04T08:08:34.165Z</time></trkpt><trkpt lat="45.7398624" lon="8.6929393"><ele>370.33333333333337</ele><time>2026-05-04T08:08:35.166Z</time></trkpt><trkpt lat="45.7397949" lon="8.692904"><ele>371.0</ele><time>2026-05-04T08:08:36.165Z</time></trkpt><trkpt lat="45.7397377" lon="8.6928537"><ele>371.0</ele><time>2026-05-04T08:08:38.166Z</time></trkpt><trkpt lat="45.7396688" lon="8.6928098"><ele>371.0</ele><time>2026-05-04T08:09:11.166Z</time></trkpt><trkpt lat="45.7396322" lon="8.6928957"><ele>371.0</ele><time>2026-05-04T08:09:14.166Z</time></trkpt><trkpt lat="45.73957" lon="8.6929582"><ele>371.0</ele><time>2026-05-04T08:09:18.166Z</time></trkpt><trkpt lat="45.739507" lon="8.6929666"><ele>371.0</ele><time>2026-05-04T08:09:21.166Z</time></trkpt><trkpt lat="45.7394369" lon="8.6929756"><ele>371.0</ele><time>2026-05-04T08:09:25.164Z</time></trkpt><trkpt lat="45.7393577" lon="8.6929555"><ele>371.0</ele><time>2026-05-04T08:09:30.166Z</time></trkpt><trkpt lat="45.7392629" lon="8.6929464"><ele>371.57142857142856</ele><time>2026-05-04T08:09:33.166Z</time></trkpt><trkpt lat="45.7391837" lon="8.6929335"><ele>372.1428571428571</ele><time>2026-05-04T08:09:36.167Z</time></trkpt><trkpt lat="45.7390937" lon="8.6929214"><ele>372.7142857142857</ele><time>2026-05-04T08:09:39.165Z</time></trkpt><trkpt lat="45.7390288" lon="8.6929507"><ele>373.2857142857143</ele><time>2026-05-04T08:09:43.165Z</time></trkpt><trkpt lat="45.7390397" lon="8.6930592"><ele>373.85714285714283</ele><time>2026-05-04T08:09:48.165Z</time></trkpt><trkpt lat="45.7390543" lon="8.6931525"><ele>374.42857142857144</ele><time>2026-05-04T08:09:52.166Z</time></trkpt><trkpt lat="45.7390633" lon="8.6932418"><ele>375.0</ele><time>2026-05-04T08:10:34.164Z</time></trkpt><trkpt lat="45.7391319" lon="8.6933069"><ele>375.0</ele><time>2026-05-04T08:10:37.166Z</time></trkpt><trkpt lat="45.7392098" lon="8.6933298"><ele>375.0</ele><time>2026-05-04T08:10:41.166Z</time></trkpt><trkpt lat="45.7392631" lon="8.693384"><ele>375.0</ele><time>2026-05-04T08:10:44.165Z</time></trkpt><trkpt lat="45.7392751" lon="8.6934775"><ele>375.0</ele><time>2026-05-04T08:10:47.165Z</time></trkpt><trkpt lat="45.7392368" lon="8.6935498"><ele>375.0</ele><time>2026-05-04T08:10:56.165Z</time></trkpt><trkpt lat="45.7393807" lon="8.693487"><ele>375.0</ele><time>2026-05-04T08:11:05.488Z</time></trkpt><trkpt lat="45.7392245" lon="8.6935209"><ele>375.0</ele><time>2026-05-04T08:11:07.487Z</time></trkpt><trkpt lat="45.7391301" lon="8.6935874"><ele>375.0</ele><time>2026-05-04T08:11:09.487Z</time></trkpt><trkpt lat="45.7390575" lon="8.6936444"><ele>375.0</ele><time>2026-05-04T08:11:11.487Z</time></trkpt><trkpt lat="45.7389789" lon="8.6936586"><ele>375.0</ele><time>2026-05-04T08:11:20.165Z</time></trkpt><trkpt lat="45.7389145" lon="8.6936655"><ele>375.0</ele><time>2026-05-04T08:11:23.165Z</time></trkpt><trkpt lat="45.7388511" lon="8.6937081"><ele>375.0</ele><time>2026-05-04T08:11:28.138Z</time></trkpt><trkpt lat="45.7387787" lon="8.6937595"><ele>377.0</ele><time>2026-05-04T08:11:32.167Z</time></trkpt><trkpt lat="45.7387264" lon="8.6938146"><ele>379.0</ele><time>2026-05-04T08:11:36.165Z</time></trkpt><trkpt lat="45.7387227" lon="8.6939183"><ele>381.0</ele><time>2026-05-04T08:11:39.166Z</time></trkpt><trkpt lat="45.738774" lon="8.6939897"><ele>383.0</ele><time>2026-05-04T08:11:42.166Z</time></trkpt><trkpt lat="45.7388241" lon="8.6940445"><ele>385.0</ele><time>2026-05-04T08:11:45.166Z</time></trkpt><trkpt lat="45.7387704" lon="8.6940958"><ele>387.0</ele><time>2026-05-04T08:11:51.167Z</time></trkpt><trkpt lat="45.7387318" lon="8.6941714"><ele>389.0</ele><time>2026-05-04T08:11:57.165Z</time></trkpt><trkpt lat="45.7387889" lon="8.6942247"><ele>388.99999999999994</ele><time>2026-05-04T08:12:03.166Z</time></trkpt><trkpt lat="45.7388473" lon="8.6942847"><ele>389.0</ele><time>2026-05-04T08:12:07.165Z</time></trkpt><trkpt lat="45.7389205" lon="8.6943208"><ele>389.0</ele><time>2026-05-04T08:12:11.165Z</time></trkpt><trkpt lat="45.7389784" lon="8.6943619"><ele>389.0</ele><time>2026-05-04T08:12:15.165Z</time></trkpt><trkpt lat="45.7390665" lon="8.6943987"><ele>388.99999999999994</ele><time>2026-05-04T08:12:35.166Z</time></trkpt><trkpt lat="45.7391413" lon="8.6944461"><ele>389.0</ele><time>2026-05-04T08:12:38.166Z</time></trkpt><trkpt lat="45.7392118" lon="8.694498"><ele>390.66666666666663</ele><time>2026-05-04T08:12:41.166Z</time></trkpt><trkpt lat="45.7392873" lon="8.6945549"><ele>392.3333333333333</ele><time>2026-05-04T08:12:44.166Z</time></trkpt><trkpt lat="45.7393514" lon="8.6946024"><ele>394.0</ele><time>2026-05-04T08:12:47.166Z</time></trkpt><trkpt lat="45.7394287" lon="8.6946452"><ele>395.66666666666663</ele><time>2026-05-04T08:12:50.166Z</time></trkpt><trkpt lat="45.7395114" lon="8.694678"><ele>397.3333333333333</ele><time>2026-05-04T08:12:53.166Z</time></trkpt><trkpt lat="45.7395866" lon="8.6947287"><ele>399.0</ele><time>2026-05-04T08:12:56.166Z</time></trkpt><trkpt lat="45.7396492" lon="8.6947893"><ele>399.0</ele><time>2026-05-04T08:12:59.166Z</time></trkpt><trkpt lat="45.7397049" lon="8.6948471"><ele>399.0</ele><time>2026-05-04T08:13:02.166Z</time></trkpt><trkpt lat="45.7397659" lon="8.6948847"><ele>399.0</ele><time>2026-05-04T08:13:06.166Z</time></trkpt><trkpt lat="45.7398493" lon="8.6949443"><ele>399.0</ele><time>2026-05-04T08:13:09.166Z</time></trkpt><trkpt lat="45.7398949" lon="8.6950365"><ele>399.0</ele><time>2026-05-04T08:13:11.166Z</time></trkpt><trkpt lat="45.739937" lon="8.6951188"><ele>399.0</ele><time>2026-05-04T08:13:13.166Z</time></trkpt><trkpt lat="45.740016" lon="8.6951705"><ele>399.0</ele><time>2026-05-04T08:13:15.165Z</time></trkpt><trkpt lat="45.7400887" lon="8.695207"><ele>399.0</ele><time>2026-05-04T08:13:17.165Z</time></trkpt><trkpt lat="45.7401621" lon="8.6952675"><ele>399.0</ele><time>2026-05-04T08:13:19.166Z</time></trkpt><trkpt lat="45.7402511" lon="8.6953419"><ele>399.0</ele><time>2026-05-04T08:13:21.166Z</time></trkpt><trkpt lat="45.7403272" lon="8.6953995"><ele>399.0</ele><time>2026-05-04T08:13:23.165Z</time></trkpt><trkpt lat="45.74054" lon="8.6954833"><ele>400.6666666666667</ele><time>2026-05-04T08:13:26.167Z</time></trkpt><trkpt lat="45.7405849" lon="8.6955551"><ele>402.33333333333337</ele><time>2026-05-04T08:13:30.166Z</time></trkpt><trkpt lat="45.7406741" lon="8.6955793"><ele>404.0</ele><time>2026-05-04T08:13:33.167Z</time></trkpt><trkpt lat="45.7407376" lon="8.6956209"><ele>405.6666666666667</ele><time>2026-05-04T08:13:35.166Z</time></trkpt><trkpt lat="45.7408208" lon="8.695736"><ele>407.33333333333337</ele><time>2026-05-04T08:13:37.165Z</time></trkpt><trkpt lat="45.740907" lon="8.6957697"><ele>409.0</ele><time>2026-05-04T08:13:39.165Z</time></trkpt><trkpt lat="45.7409719" lon="8.6958188"><ele>408.1666666666667</ele><time>2026-05-04T08:13:41.167Z</time></trkpt><trkpt lat="45.7410632" lon="8.6958585"><ele>407.33333333333337</ele><time>2026-05-04T08:13:43.165Z</time></trkpt><trkpt lat="45.7411437" lon="8.6958989"><ele>406.5</ele><time>2026-05-04T08:13:45.166Z</time></trkpt><trkpt lat="45.7412233" lon="8.6959004"><ele>405.66666666666663</ele><time>2026-05-04T08:13:47.165Z</time></trkpt><trkpt lat="45.7413167" lon="8.6959272"><ele>404.8333333333333</ele><time>2026-05-04T08:13:49.167Z</time></trkpt><trkpt lat="45.7414016" lon="8.6959664"><ele>404.0</ele><time>2026-05-04T08:13:51.167Z</time></trkpt><trkpt lat="45.7414777" lon="8.6960262"><ele>403.99999999999994</ele><time>2026-05-04T08:13:53.167Z</time></trkpt><trkpt lat="45.7415512" lon="8.6960722"><ele>404.0</ele><time>2026-05-04T08:13:55.165Z</time></trkpt><trkpt lat="45.7416275" lon="8.6960776"><ele>404.0</ele><time>2026-05-04T08:13:57.167Z</time></trkpt><trkpt lat="45.7417095" lon="8.6961082"><ele>404.0</ele><time>2026-05-04T08:13:59.166Z</time></trkpt><trkpt lat="45.7418069" lon="8.6961553"><ele>403.99999999999994</ele><time>2026-05-04T08:14:01.165Z</time></trkpt><trkpt lat="45.7419087" lon="8.6961621"><ele>404.0</ele><time>2026-05-04T08:14:03.165Z</time></trkpt><trkpt lat="45.7420705" lon="8.6962387"><ele>404.79999999999995</ele><time>2026-05-04T08:14:05.165Z</time></trkpt><trkpt lat="45.7422169" lon="8.6962692"><ele>405.59999999999997</ele><time>2026-05-04T08:14:07.166Z</time></trkpt><trkpt lat="45.7423169" lon="8.6962789"><ele>406.4</ele><time>2026-05-04T08:14:08.166Z</time></trkpt><trkpt lat="45.7423889" lon="8.6963708"><ele>407.2</ele><time>2026-05-04T08:14:12.165Z</time></trkpt><trkpt lat="45.7424453" lon="8.6964285"><ele>408.0</ele><time>2026-05-04T08:14:13.166Z</time></trkpt><trkpt lat="45.7425149" lon="8.6964896"><ele>408.0</ele><time>2026-05-04T08:14:14.166Z</time></trkpt><trkpt lat="45.7425074" lon="8.6966024"><ele>408.0</ele><time>2026-05-04T08:14:17.165Z</time></trkpt><trkpt lat="45.7426247" lon="8.696677"><ele>408.0</ele><time>2026-05-04T08:14:19.166Z</time></trkpt><trkpt lat="45.7426885" lon="8.6967056"><ele>408.0</ele><time>2026-05-04T08:14:20.165Z</time></trkpt><trkpt lat="45.7427914" lon="8.6967347"><ele>408.0</ele><time>2026-05-04T08:14:22.167Z</time></trkpt><trkpt lat="45.7429305" lon="8.696908"><ele>407.4</ele><time>2026-05-04T08:14:23.168Z</time></trkpt><trkpt lat="45.7430116" lon="8.69696"><ele>406.79999999999995</ele><time>2026-05-04T08:14:24.166Z</time></trkpt><trkpt lat="45.7431115" lon="8.6970454"><ele>406.2</ele><time>2026-05-04T08:14:26.167Z</time></trkpt><trkpt lat="45.7431692" lon="8.6970837"><ele>405.6</ele><time>2026-05-04T08:14:27.167Z</time></trkpt><trkpt lat="45.7432657" lon="8.6971595"><ele>405.0</ele><time>2026-05-04T08:14:29.167Z</time></trkpt><trkpt lat="45.7433607" lon="8.697207"><ele>405.0</ele><time>2026-05-04T08:14:31.166Z</time></trkpt><trkpt lat="45.7434887" lon="8.6972506"><ele>405.0</ele><time>2026-05-04T08:14:33.165Z</time></trkpt><trkpt lat="45.7436058" lon="8.6972758"><ele>405.0</ele><time>2026-05-04T08:14:35.167Z</time></trkpt><trkpt lat="45.7437137" lon="8.6973148"><ele>405.0</ele><time>2026-05-04T08:14:37.165Z</time></trkpt><trkpt lat="45.7437895" lon="8.6972724"><ele>405.0</ele><time>2026-05-04T08:14:39.167Z</time></trkpt><trkpt lat="45.7439108" lon="8.6972859"><ele>404.4</ele><time>2026-05-04T08:14:41.165Z</time></trkpt><trkpt lat="45.7440258" lon="8.6972818"><ele>403.8</ele><time>2026-05-04T08:14:43.167Z</time></trkpt><trkpt lat="45.7440938" lon="8.6973243"><ele>403.20000000000005</ele><time>2026-05-04T08:14:44.167Z</time></trkpt><trkpt lat="45.7442118" lon="8.6973924"><ele>402.6</ele><time>2026-05-04T08:14:46.166Z</time></trkpt><trkpt lat="45.7443203" lon="8.6974251"><ele>402.0</ele><time>2026-05-04T08:14:48.167Z</time></trkpt><trkpt lat="45.7443908" lon="8.6974627"><ele>403.0</ele><time>2026-05-04T08:14:51.165Z</time></trkpt><trkpt lat="45.7444768" lon="8.6975116"><ele>404.0</ele><time>2026-05-04T08:14:54.165Z</time></trkpt><trkpt lat="45.7445565" lon="8.6975345"><ele>405.0</ele><time>2026-05-04T08:14:56.167Z</time></trkpt><trkpt lat="45.7446246" lon="8.6975494"><ele>406.0</ele><time>2026-05-04T08:14:59.165Z</time></trkpt><trkpt lat="45.7446979" lon="8.6975805"><ele>407.0</ele><time>2026-05-04T08:15:03.165Z</time></trkpt><trkpt lat="45.7447588" lon="8.6976281"><ele>408.0</ele><time>2026-05-04T08:15:05.165Z</time></trkpt><trkpt lat="45.7449131" lon="8.6976553"><ele>408.0</ele><time>2026-05-04T08:15:07.165Z</time></trkpt><trkpt lat="45.7450116" lon="8.6977044"><ele>408.0</ele><time>2026-05-04T08:15:09.165Z</time></trkpt><trkpt lat="45.7451169" lon="8.6977771"><ele>408.0</ele><time>2026-05-04T08:15:11.165Z</time></trkpt><trkpt lat="45.745209" lon="8.6977939"><ele>408.0</ele><time>2026-05-04T08:15:13.165Z</time></trkpt><trkpt lat="45.7453141" lon="8.6978027"><ele>408.0</ele><time>2026-05-04T08:15:15.166Z</time></trkpt><trkpt lat="45.7454088" lon="8.6978284"><ele>408.5</ele><time>2026-05-04T08:15:17.165Z</time></trkpt><trkpt lat="45.7455209" lon="8.6978786"><ele>409.0</ele><time>2026-05-04T08:15:19.165Z</time></trkpt><trkpt lat="45.7455872" lon="8.6979097"><ele>409.5</ele><time>2026-05-04T08:15:20.165Z</time></trkpt><trkpt lat="45.7456477" lon="8.6979364"><ele>410.0</ele><time>2026-05-04T08:15:21.165Z</time></trkpt><trkpt lat="45.7457404" lon="8.6980096"><ele>410.5</ele><time>2026-05-04T08:15:23.164Z</time></trkpt><trkpt lat="45.7458193" lon="8.6980713"><ele>411.0</ele><time>2026-05-04T08:15:25.166Z</time></trkpt><trkpt lat="45.745882" lon="8.6980981"><ele>411.0</ele><time>2026-05-04T08:15:27.165Z</time></trkpt><trkpt lat="45.7459503" lon="8.6981538"><ele>411.0</ele><time>2026-05-04T08:15:30.165Z</time></trkpt><trkpt lat="45.7460642" lon="8.6982442"><ele>411.0</ele><time>2026-05-04T08:15:33.165Z</time></trkpt><trkpt lat="45.7461246" lon="8.6983119"><ele>411.0</ele><time>2026-05-04T08:15:35.165Z</time></trkpt><trkpt lat="45.7461918" lon="8.6984027"><ele>411.0</ele><time>2026-05-04T08:15:38.166Z</time></trkpt><trkpt lat="45.7462469" lon="8.698506"><ele>413.3333333333333</ele><time>2026-05-04T08:15:41.165Z</time></trkpt><trkpt lat="45.7462937" lon="8.6985985"><ele>415.66666666666663</ele><time>2026-05-04T08:15:44.165Z</time></trkpt><trkpt lat="45.7463767" lon="8.6986772"><ele>418.0</ele><time>2026-05-04T08:15:47.165Z</time></trkpt><trkpt lat="45.7464345" lon="8.6987606"><ele>420.3333333333333</ele><time>2026-05-04T08:15:49.165Z</time></trkpt><trkpt lat="45.7464774" lon="8.6988352"><ele>422.66666666666663</ele><time>2026-05-04T08:15:51.166Z</time></trkpt><trkpt lat="45.7465327" lon="8.698919"><ele>425.0</ele><time>2026-05-04T08:15:53.165Z</time></trkpt><trkpt lat="45.7465731" lon="8.6990254"><ele>424.99999999999994</ele><time>2026-05-04T08:15:55.165Z</time></trkpt><trkpt lat="45.7466237" lon="8.6991504"><ele>425.0</ele><time>2026-05-04T08:15:57.166Z</time></trkpt><trkpt lat="45.7466554" lon="8.6992317"><ele>425.0</ele><time>2026-05-04T08:15:59.165Z</time></trkpt><trkpt lat="45.7467182" lon="8.6993287"><ele>425.0</ele><time>2026-05-04T08:16:02.166Z</time></trkpt><trkpt lat="45.7467625" lon="8.6993932"><ele>424.99999999999994</ele><time>2026-05-04T08:16:04.166Z</time></trkpt><trkpt lat="45.7468058" lon="8.6994785"><ele>425.0</ele><time>2026-05-04T08:16:06.165Z</time></trkpt><trkpt lat="45.7468503" lon="8.6995561"><ele>425.99999999999994</ele><time>2026-05-04T08:16:08.166Z</time></trkpt><trkpt lat="45.7469069" lon="8.699616"><ele>427.0</ele><time>2026-05-04T08:16:10.165Z</time></trkpt><trkpt lat="45.746965" lon="8.6996551"><ele>428.0</ele><time>2026-05-04T08:16:12.166Z</time></trkpt><trkpt lat="45.7470407" lon="8.6996842"><ele>429.0</ele><time>2026-05-04T08:16:16.166Z</time></trkpt><trkpt lat="45.7471042" lon="8.6997587"><ele>429.99999999999994</ele><time>2026-05-04T08:16:19.166Z</time></trkpt><trkpt lat="45.747132" lon="8.6998683"><ele>431.0</ele><time>2026-05-04T08:16:22.165Z</time></trkpt><trkpt lat="45.7471596" lon="8.6999722"><ele>430.99999999999994</ele><time>2026-05-04T08:16:25.165Z</time></trkpt><trkpt lat="45.7471874" lon="8.7000612"><ele>431.0</ele><time>2026-05-04T08:16:27.166Z</time></trkpt><trkpt lat="45.7472107" lon="8.7001726"><ele>431.0</ele><time>2026-05-04T08:16:29.166Z</time></trkpt><trkpt lat="45.7472523" lon="8.7003062"><ele>431.0</ele><time>2026-05-04T08:16:32.165Z</time></trkpt><trkpt lat="45.7472938" lon="8.7003964"><ele>430.99999999999994</ele><time>2026-05-04T08:16:34.167Z</time></trkpt><trkpt lat="45.7472998" lon="8.7004983"><ele>431.0</ele><time>2026-05-04T08:16:37.167Z</time></trkpt><trkpt lat="45.7473045" lon="8.7005916"><ele>431.0</ele><time>2026-05-04T08:16:39.166Z</time></trkpt><trkpt lat="45.7473087" lon="8.7006823"><ele>431.0</ele><time>2026-05-04T08:16:41.168Z</time></trkpt><trkpt lat="45.7473356" lon="8.7007788"><ele>431.0</ele><time>2026-05-04T08:16:44.167Z</time></trkpt><trkpt lat="45.7473409" lon="8.7008787"><ele>431.0</ele><time>2026-05-04T08:16:47.165Z</time></trkpt><trkpt lat="45.7472958" lon="8.7009751"><ele>431.0</ele><time>2026-05-04T08:17:29.168Z</time></trkpt><trkpt lat="45.7472318" lon="8.7010566"><ele>431.0</ele><time>2026-05-04T08:17:40.166Z</time></trkpt><trkpt lat="45.7472297" lon="8.7011481"><ele>431.0</ele><time>2026-05-04T08:17:48.166Z</time></trkpt><trkpt lat="45.7472295" lon="8.7012464"><ele>431.0</ele><time>2026-05-04T08:17:55.166Z</time></trkpt><trkpt lat="45.7472251" lon="8.7013693"><ele>431.0</ele><time>2026-05-04T08:18:21.166Z</time></trkpt><trkpt lat="45.7471868" lon="8.7014546"><ele>431.0</ele><time>2026-05-04T08:20:12.166Z</time></trkpt><trkpt lat="45.7471979" lon="8.701551"><ele>431.0</ele><time>2026-05-04T08:20:15.167Z</time></trkpt><trkpt lat="45.7472411" lon="8.7017738"><ele>431.0</ele><time>2026-05-04T08:20:17.167Z</time></trkpt><trkpt lat="45.7472503" lon="8.7019068"><ele>430.99999999999994</ele><time>2026-05-04T08:20:19.166Z</time></trkpt><trkpt lat="45.747292" lon="8.7020237"><ele>431.0</ele><time>2026-05-04T08:20:21.167Z</time></trkpt><trkpt lat="45.7473122" lon="8.7021187"><ele>431.0</ele><time>2026-05-04T08:20:24.166Z</time></trkpt><trkpt lat="45.7473715" lon="8.7020442"><ele>431.0</ele><time>2026-05-04T08:20:31.166Z</time></trkpt><trkpt lat="45.7474096" lon="8.7019633"><ele>430.99999999999994</ele><time>2026-05-04T08:20:34.166Z</time></trkpt><trkpt lat="45.7474582" lon="8.7018615"><ele>431.0</ele><time>2026-05-04T08:20:37.167Z</time></trkpt><trkpt lat="45.7475039" lon="8.7017942"><ele>431.0</ele><time>2026-05-04T08:21:30.165Z</time></trkpt><trkpt lat="45.7475233" lon="8.701685"><ele>431.0</ele><time>2026-05-04T08:21:32.167Z</time></trkpt><trkpt lat="45.7475355" lon="8.7015427"><ele>431.0</ele><time>2026-05-04T08:21:34.167Z</time></trkpt><trkpt lat="45.7475995" lon="8.7013831"><ele>431.0</ele><time>2026-05-04T08:21:35.167Z</time></trkpt><trkpt lat="45.747596" lon="8.701282"><ele>431.0</ele><time>2026-05-04T08:21:36.166Z</time></trkpt><trkpt lat="45.7475833" lon="8.7011607"><ele>431.20000000000005</ele><time>2026-05-04T08:21:37.167Z</time></trkpt><trkpt lat="45.747612" lon="8.7010182"><ele>431.40000000000003</ele><time>2026-05-04T08:21:39.167Z</time></trkpt><trkpt lat="45.7475993" lon="8.7008719"><ele>431.6</ele><time>2026-05-04T08:21:41.166Z</time></trkpt><trkpt lat="45.7476366" lon="8.7007629"><ele>431.8</ele><time>2026-05-04T08:21:43.166Z</time></trkpt><trkpt lat="45.7477134" lon="8.7006843"><ele>432.0</ele><time>2026-05-04T08:21:45.166Z</time></trkpt><trkpt lat="45.7478063" lon="8.7004863"><ele>430.20000000000005</ele><time>2026-05-04T08:21:47.168Z</time></trkpt><trkpt lat="45.7479081" lon="8.7004155"><ele>428.40000000000003</ele><time>2026-05-04T08:21:49.167Z</time></trkpt><trkpt lat="45.7479921" lon="8.7005139"><ele>426.6</ele><time>2026-05-04T08:21:50.167Z</time></trkpt><trkpt lat="45.7480745" lon="8.7005896"><ele>424.79999999999995</ele><time>2026-05-04T08:21:51.167Z</time></trkpt><trkpt lat="45.7481351" lon="8.7006509"><ele>423.0</ele><time>2026-05-04T08:21:52.167Z</time></trkpt><trkpt lat="45.7482148" lon="8.7006938"><ele>423.0</ele><time>2026-05-04T08:21:53.166Z</time></trkpt><trkpt lat="45.7483107" lon="8.700699"><ele>423.0</ele><time>2026-05-04T08:21:55.165Z</time></trkpt><trkpt lat="45.7483794" lon="8.7007383"><ele>423.0</ele><time>2026-05-04T08:21:56.167Z</time></trkpt><trkpt lat="45.7484714" lon="8.700767"><ele>423.0</ele><time>2026-05-04T08:21:58.167Z</time></trkpt><trkpt lat="45.748547" lon="8.7007613"><ele>423.0</ele><time>2026-05-04T08:22:01.167Z</time></trkpt><trkpt lat="45.7486225" lon="8.7007573"><ele>423.0</ele><time>2026-05-04T08:22:04.166Z</time></trkpt><trkpt lat="45.748702" lon="8.70076"><ele>420.79999999999995</ele><time>2026-05-04T08:22:08.167Z</time></trkpt><trkpt lat="45.7487361" lon="8.7008616"><ele>418.6</ele><time>2026-05-04T08:22:10.167Z</time></trkpt><trkpt lat="45.7487187" lon="8.7010233"><ele>416.4</ele><time>2026-05-04T08:22:11.166Z</time></trkpt><trkpt lat="45.7487495" lon="8.7011681"><ele>414.20000000000005</ele><time>2026-05-04T08:22:13.166Z</time></trkpt><trkpt lat="45.7488159" lon="8.7013186"><ele>412.0</ele><time>2026-05-04T08:22:15.167Z</time></trkpt><trkpt lat="45.7488022" lon="8.7014377"><ele>411.6</ele><time>2026-05-04T08:22:18.166Z</time></trkpt><trkpt lat="45.748835" lon="8.7015258"><ele>411.20000000000005</ele><time>2026-05-04T08:22:20.167Z</time></trkpt><trkpt lat="45.7488909" lon="8.7016163"><ele>410.8</ele><time>2026-05-04T08:22:22.165Z</time></trkpt><trkpt lat="45.7489019" lon="8.701766"><ele>410.4</ele><time>2026-05-04T08:22:24.165Z</time></trkpt><trkpt lat="45.7489856" lon="8.7018092"><ele>410.0</ele><time>2026-05-04T08:22:26.166Z</time></trkpt><trkpt lat="45.7490728" lon="8.701887"><ele>408.49999999999994</ele><time>2026-05-04T08:22:28.166Z</time></trkpt><trkpt lat="45.7491379" lon="8.702023"><ele>407.0</ele><time>2026-05-04T08:22:30.166Z</time></trkpt><trkpt lat="45.7491884" lon="8.7021045"><ele>405.5</ele><time>2026-05-04T08:22:32.167Z</time></trkpt><trkpt lat="45.7491959" lon="8.7022039"><ele>404.0</ele><time>2026-05-04T08:22:34.166Z</time></trkpt><trkpt lat="45.749154" lon="8.7022715"><ele>402.49999999999994</ele><time>2026-05-04T08:22:36.167Z</time></trkpt><trkpt lat="45.7491124" lon="8.7023949"><ele>401.0</ele><time>2026-05-04T08:22:38.167Z</time></trkpt><trkpt lat="45.7491172" lon="8.7024982"><ele>400.99999999999994</ele><time>2026-05-04T08:22:41.167Z</time></trkpt><trkpt lat="45.7490652" lon="8.7025852"><ele>401.0</ele><time>2026-05-04T08:22:44.166Z</time></trkpt><trkpt lat="45.7490016" lon="8.7026257"><ele>401.0</ele><time>2026-05-04T08:22:46.167Z</time></trkpt><trkpt lat="45.7489555" lon="8.7027915"><ele>401.0</ele><time>2026-05-04T08:22:49.166Z</time></trkpt><trkpt lat="45.7489354" lon="8.702893"><ele>400.99999999999994</ele><time>2026-05-04T08:22:50.167Z</time></trkpt><trkpt lat="45.7488961" lon="8.7029788"><ele>401.0</ele><time>2026-05-04T08:22:53.167Z</time></trkpt><trkpt lat="45.7488801" lon="8.703068"><ele>399.0</ele><time>2026-05-04T08:24:10.167Z</time></trkpt><trkpt lat="45.7488647" lon="8.7031571"><ele>397.0</ele><time>2026-05-04T08:29:24.166Z</time></trkpt><trkpt lat="45.7489089" lon="8.7032667"><ele>395.0</ele><time>2026-05-04T08:31:10.166Z</time></trkpt><trkpt lat="45.7489355" lon="8.7033665"><ele>393.0</ele><time>2026-05-04T08:31:15.166Z</time></trkpt><trkpt lat="45.7489735" lon="8.703445"><ele>391.0</ele><time>2026-05-04T08:31:18.167Z</time></trkpt><trkpt lat="45.7490298" lon="8.7034891"><ele>389.0</ele><time>2026-05-04T08:31:21.166Z</time></trkpt><trkpt lat="45.7490373" lon="8.7036067"><ele>387.0</ele><time>2026-05-04T08:31:24.167Z</time></trkpt><trkpt lat="45.7490315" lon="8.7037108"><ele>385.0</ele><time>2026-05-04T08:31:26.166Z</time></trkpt><trkpt lat="45.749052" lon="8.7038214"><ele>383.0</ele><time>2026-05-04T08:31:27.166Z</time></trkpt><trkpt lat="45.7490691" lon="8.7039201"><ele>381.0</ele><time>2026-05-04T08:31:30.166Z</time></trkpt><trkpt lat="45.7491171" lon="8.7039921"><ele>379.0</ele><time>2026-05-04T08:31:33.166Z</time></trkpt><trkpt lat="45.7491436" lon="8.7040764"><ele>377.0</ele><time>2026-05-04T08:31:35.166Z</time></trkpt><trkpt lat="45.7491643" lon="8.7041737"><ele>375.0</ele><time>2026-05-04T08:31:37.167Z</time></trkpt><trkpt lat="45.7491707" lon="8.7042666"><ele>373.0</ele><time>2026-05-04T08:31:38.167Z</time></trkpt><trkpt lat="45.7491747" lon="8.7043787"><ele>371.14285714285717</ele><time>2026-05-04T08:31:41.167Z</time></trkpt><trkpt lat="45.7491663" lon="8.7044711"><ele>369.28571428571433</ele><time>2026-05-04T08:31:45.167Z</time></trkpt><trkpt lat="45.7491566" lon="8.7045611"><ele>367.42857142857144</ele><time>2026-05-04T08:31:51.166Z</time></trkpt><trkpt lat="45.7491347" lon="8.704693"><ele>365.57142857142856</ele><time>2026-05-04T08:33:13.166Z</time></trkpt><trkpt lat="45.7491432" lon="8.7047917"><ele>363.7142857142857</ele><time>2026-05-04T08:33:20.167Z</time></trkpt><trkpt lat="45.7491393" lon="8.7048825"><ele>361.85714285714283</ele><time>2026-05-04T08:33:23.167Z</time></trkpt><trkpt lat="45.7491041" lon="8.7049703"><ele>360.0</ele><time>2026-05-04T08:33:27.166Z</time></trkpt><trkpt lat="45.7490705" lon="8.7051389"><ele>356.4</ele><time>2026-05-04T08:33:30.167Z</time></trkpt><trkpt lat="45.7490511" lon="8.7052549"><ele>352.8</ele><time>2026-05-04T08:33:31.166Z</time></trkpt><trkpt lat="45.7490399" lon="8.7053761"><ele>349.20000000000005</ele><time>2026-05-04T08:33:32.167Z</time></trkpt><trkpt lat="45.7490351" lon="8.705509"><ele>345.6</ele><time>2026-05-04T08:33:33.166Z</time></trkpt><trkpt lat="45.749028" lon="8.7057041"><ele>342.0</ele><time>2026-05-04T08:33:34.167Z</time></trkpt><trkpt lat="45.7489879" lon="8.705808"><ele>342.0</ele><time>2026-05-04T08:33:36.166Z</time></trkpt><trkpt lat="45.7490269" lon="8.7058996"><ele>342.0</ele><time>2026-05-04T08:33:39.167Z</time></trkpt><trkpt lat="45.7491007" lon="8.7058934"><ele>342.0</ele><time>2026-05-04T08:33:41.167Z</time></trkpt><trkpt lat="45.7491807" lon="8.7059041"><ele>342.0</ele><time>2026-05-04T08:33:43.166Z</time></trkpt><trkpt lat="45.7492706" lon="8.7059283"><ele>342.0</ele><time>2026-05-04T08:33:45.166Z</time></trkpt><trkpt lat="45.7493601" lon="8.7059455"><ele>342.0</ele><time>2026-05-04T08:33:47.167Z</time></trkpt><trkpt lat="45.7494506" lon="8.7059562"><ele>342.8</ele><time>2026-05-04T08:33:49.166Z</time></trkpt><trkpt lat="45.7495476" lon="8.7059806"><ele>343.6</ele><time>2026-05-04T08:33:51.166Z</time></trkpt><trkpt lat="45.7496234" lon="8.7059824"><ele>344.40000000000003</ele><time>2026-05-04T08:33:53.167Z</time></trkpt><trkpt lat="45.7497186" lon="8.705993"><ele>345.20000000000005</ele><time>2026-05-04T08:33:55.167Z</time></trkpt><trkpt lat="45.7498058" lon="8.7059989"><ele>346.0</ele><time>2026-05-04T08:33:57.167Z</time></trkpt><trkpt lat="45.7499198" lon="8.7060238"><ele>346.0</ele><time>2026-05-04T08:33:59.168Z</time></trkpt><trkpt lat="45.7499975" lon="8.7060293"><ele>346.0</ele><time>2026-05-04T08:34:01.166Z</time></trkpt><trkpt lat="45.7500952" lon="8.7060407"><ele>346.0</ele><time>2026-05-04T08:34:03.167Z</time></trkpt><trkpt lat="45.7501952" lon="8.7060625"><ele>346.0</ele><time>2026-05-04T08:34:05.168Z</time></trkpt><trkpt lat="45.7502924" lon="8.706078"><ele>346.0</ele><time>2026-05-04T08:34:07.166Z</time></trkpt><trkpt lat="45.7503933" lon="8.7061059"><ele>344.3333333333333</ele><time>2026-05-04T08:34:09.166Z</time></trkpt><trkpt lat="45.7504951" lon="8.7061332"><ele>342.66666666666663</ele><time>2026-05-04T08:34:11.167Z</time></trkpt><trkpt lat="45.7505721" lon="8.7061843"><ele>341.0</ele><time>2026-05-04T08:34:13.166Z</time></trkpt><trkpt lat="45.7506511" lon="8.7062193"><ele>339.3333333333333</ele><time>2026-05-04T08:34:15.166Z</time></trkpt><trkpt lat="45.75072" lon="8.7062686"><ele>337.6666666666667</ele><time>2026-05-04T08:34:18.167Z</time></trkpt><trkpt lat="45.7506772" lon="8.7061803"><ele>336.0</ele><time>2026-05-04T08:34:19.488Z</time></trkpt><trkpt lat="45.7508102" lon="8.7061639"><ele>336.0</ele><time>2026-05-04T08:34:22.487Z</time></trkpt><trkpt lat="45.7507325" lon="8.7061842"><ele>336.0</ele><time>2026-05-04T08:34:24.488Z</time></trkpt><trkpt lat="45.7506574" lon="8.7061989"><ele>336.0</ele><time>2026-05-04T08:34:30.166Z</time></trkpt><trkpt lat="45.7505877" lon="8.7062389"><ele>336.0</ele><time>2026-05-04T08:34:33.166Z</time></trkpt><trkpt lat="45.750507" lon="8.7062348"><ele>336.0</ele><time>2026-05-04T08:34:36.165Z</time></trkpt><trkpt lat="45.7504517" lon="8.7062791"><ele>336.0</ele><time>2026-05-04T08:34:38.166Z</time></trkpt><trkpt lat="45.7503922" lon="8.7063432"><ele>336.0</ele><time>2026-05-04T08:34:39.165Z</time></trkpt><trkpt lat="45.7504085" lon="8.7064828"><ele>336.0</ele><time>2026-05-04T08:34:40.165Z</time></trkpt><trkpt lat="45.7504014" lon="8.7066039"><ele>336.0</ele><time>2026-05-04T08:34:42.165Z</time></trkpt><trkpt lat="45.7504152" lon="8.7067062"><ele>336.0</ele><time>2026-05-04T08:34:43.165Z</time></trkpt><trkpt lat="45.7504255" lon="8.7068305"><ele>336.0</ele><time>2026-05-04T08:34:45.165Z</time></trkpt><trkpt lat="45.7503928" lon="8.7069916"><ele>336.0</ele><time>2026-05-04T08:34:47.166Z</time></trkpt><trkpt lat="45.7503644" lon="8.707077"><ele>336.0</ele><time>2026-05-04T08:34:48.166Z</time></trkpt><trkpt lat="45.7503839" lon="8.7072271"><ele>335.3333333333333</ele><time>2026-05-04T08:34:50.167Z</time></trkpt><trkpt lat="45.750388" lon="8.7073253"><ele>334.6666666666667</ele><time>2026-05-04T08:34:52.167Z</time></trkpt><trkpt lat="45.750446" lon="8.7074645"><ele>334.0</ele><time>2026-05-04T08:34:54.166Z</time></trkpt><trkpt lat="45.750523" lon="8.7075616"><ele>333.33333333333337</ele><time>2026-05-04T08:34:56.167Z</time></trkpt><trkpt lat="45.7505766" lon="8.7076835"><ele>332.6666666666667</ele><time>2026-05-04T08:34:57.167Z</time></trkpt><trkpt lat="45.750597" lon="8.7077693"><ele>332.0</ele><time>2026-05-04T08:34:58.166Z</time></trkpt><trkpt lat="45.7506159" lon="8.7078873"><ele>332.0</ele><time>2026-05-04T08:35:00.166Z</time></trkpt><trkpt lat="45.7506431" lon="8.7080245"><ele>332.0</ele><time>2026-05-04T08:35:02.165Z</time></trkpt><trkpt lat="45.7506575" lon="8.7081322"><ele>332.0</ele><time>2026-05-04T08:35:04.166Z</time></trkpt><trkpt lat="45.7506778" lon="8.7082348"><ele>332.0</ele><time>2026-05-04T08:35:06.166Z</time></trkpt><trkpt lat="45.7507043" lon="8.7083579"><ele>332.0</ele><time>2026-05-04T08:35:08.165Z</time></trkpt><trkpt lat="45.7507126" lon="8.7084953"><ele>332.0</ele><time>2026-05-04T08:35:11.166Z</time></trkpt><trkpt lat="45.7507361" lon="8.708599"><ele>332.6</ele><time>2026-05-04T08:35:13.168Z</time></trkpt><trkpt lat="45.7507956" lon="8.7087783"><ele>333.20000000000005</ele><time>2026-05-04T08:35:15.166Z</time></trkpt><trkpt lat="45.7508347" lon="8.7089041"><ele>333.8</ele><time>2026-05-04T08:35:17.164Z</time></trkpt><trkpt lat="45.7508205" lon="8.7090392"><ele>334.4</ele><time>2026-05-04T08:35:20.167Z</time></trkpt><trkpt lat="45.7508158" lon="8.7091413"><ele>335.0</ele><time>2026-05-04T08:35:22.166Z</time></trkpt><trkpt lat="45.7508309" lon="8.7092658"><ele>335.0</ele><time>2026-05-04T08:35:25.167Z</time></trkpt><trkpt lat="45.7507996" lon="8.7093451"><ele>335.0</ele><time>2026-05-04T08:35:27.166Z</time></trkpt><trkpt lat="45.7507151" lon="8.7093571"><ele>335.0</ele><time>2026-05-04T08:35:31.166Z</time></trkpt><trkpt lat="45.7506362" lon="8.7094442"><ele>335.0</ele><time>2026-05-04T08:35:49.166Z</time></trkpt><trkpt lat="45.7505634" lon="8.7094346"><ele>335.0</ele><time>2026-05-04T08:35:51.166Z</time></trkpt><trkpt lat="45.750505" lon="8.7093906"><ele>335.0</ele><time>2026-05-04T08:35:53.167Z</time></trkpt><trkpt lat="45.7504306" lon="8.7093757"><ele>334.99999999999994</ele><time>2026-05-04T08:36:05.167Z</time></trkpt><trkpt lat="45.7503495" lon="8.7093799"><ele>335.0</ele><time>2026-05-04T08:36:50.166Z</time></trkpt><trkpt lat="45.7502915" lon="8.7093383"><ele>335.0</ele><time>2026-05-04T08:36:57.167Z</time></trkpt><trkpt lat="45.7502193" lon="8.7092915"><ele>335.0</ele><time>2026-05-04T08:37:01.167Z</time></trkpt><trkpt lat="45.7501421" lon="8.7092678"><ele>335.0</ele><time>2026-05-04T08:37:04.167Z</time></trkpt><trkpt lat="45.7500785" lon="8.7092425"><ele>334.99999999999994</ele><time>2026-05-04T08:37:06.167Z</time></trkpt><trkpt lat="45.7500058" lon="8.709232"><ele>335.0</ele><time>2026-05-04T08:37:09.168Z</time></trkpt><trkpt lat="45.7499291" lon="8.7092201"><ele>335.0</ele><time>2026-05-04T08:37:17.165Z</time></trkpt><trkpt lat="45.7498632" lon="8.7091682"><ele>335.0</ele><time>2026-05-04T08:37:20.166Z</time></trkpt><trkpt lat="45.7497896" lon="8.7091649"><ele>335.0</ele><time>2026-05-04T08:37:23.166Z</time></trkpt><trkpt lat="45.7497189" lon="8.709165"><ele>335.0</ele><time>2026-05-04T08:37:25.166Z</time></trkpt><trkpt lat="45.7496307" lon="8.7091586"><ele>335.0</ele><time>2026-05-04T08:37:29.167Z</time></trkpt><trkpt lat="45.7495504" lon="8.7091483"><ele>335.0</ele><time>2026-05-04T08:37:32.167Z</time></trkpt><trkpt lat="45.7494862" lon="8.7091394"><ele>335.0</ele><time>2026-05-04T08:37:34.167Z</time></trkpt><trkpt lat="45.7494118" lon="8.7091224"><ele>335.0</ele><time>2026-05-04T08:37:37.166Z</time></trkpt><trkpt lat="45.7493371" lon="8.7090848"><ele>335.0</ele><time>2026-05-04T08:37:40.166Z</time></trkpt><trkpt lat="45.7492652" lon="8.7090515"><ele>335.0</ele><time>2026-05-04T08:37:43.167Z</time></trkpt><trkpt lat="45.7491853" lon="8.7090425"><ele>335.0</ele><time>2026-05-04T08:37:46.167Z</time></trkpt><trkpt lat="45.7490928" lon="8.7091039"><ele>335.0</ele><time>2026-05-04T08:37:49.166Z</time></trkpt><trkpt lat="45.7490262" lon="8.7091581"><ele>335.0</ele><time>2026-05-04T08:37:51.166Z</time></trkpt><trkpt lat="45.7489686" lon="8.7092141"><ele>335.0</ele><time>2026-05-04T08:37:53.167Z</time></trkpt><trkpt lat="45.7489141" lon="8.7093128"><ele>335.0</ele><time>2026-05-04T08:37:56.167Z</time></trkpt><trkpt lat="45.7488563" lon="8.7093708"><ele>335.0</ele><time>2026-05-04T08:37:59.167Z</time></trkpt><trkpt lat="45.7487853" lon="8.7094111"><ele>335.0</ele><time>2026-05-04T08:38:03.167Z</time></trkpt><trkpt lat="45.748721" lon="8.7094211"><ele>335.0</ele><time>2026-05-04T08:38:05.166Z</time></trkpt><trkpt lat="45.7486311" lon="8.7094431"><ele>335.4285714285714</ele><time>2026-05-04T08:38:08.167Z</time></trkpt><trkpt lat="45.7485664" lon="8.7094607"><ele>335.85714285714283</ele><time>2026-05-04T08:38:10.167Z</time></trkpt><trkpt lat="45.7484768" lon="8.7094715"><ele>336.2857142857143</ele><time>2026-05-04T08:38:13.168Z</time></trkpt><trkpt lat="45.7484009" lon="8.7095252"><ele>336.71428571428567</ele><time>2026-05-04T08:38:16.165Z</time></trkpt><trkpt lat="45.7483629" lon="8.7096078"><ele>337.1428571428571</ele><time>2026-05-04T08:38:18.166Z</time></trkpt><trkpt lat="45.7483274" lon="8.7096929"><ele>337.57142857142856</ele><time>2026-05-04T08:38:20.166Z</time></trkpt><trkpt lat="45.7482975" lon="8.709779"><ele>338.0</ele><time>2026-05-04T08:38:22.166Z</time></trkpt><trkpt lat="45.7482688" lon="8.7098749"><ele>338.83333333333337</ele><time>2026-05-04T08:38:25.166Z</time></trkpt><trkpt lat="45.7482158" lon="8.7099669"><ele>339.6666666666667</ele><time>2026-05-04T08:38:28.167Z</time></trkpt><trkpt lat="45.7481462" lon="8.7100124"><ele>340.5</ele><time>2026-05-04T08:38:42.167Z</time></trkpt><trkpt lat="45.7480739" lon="8.7099879"><ele>341.3333333333333</ele><time>2026-05-04T08:38:46.167Z</time></trkpt><trkpt lat="45.7480075" lon="8.7100425"><ele>342.16666666666663</ele><time>2026-05-04T08:39:50.167Z</time></trkpt><trkpt lat="45.7480904" lon="8.7100838"><ele>343.0</ele><time>2026-05-04T08:39:54.167Z</time></trkpt><trkpt lat="45.7481669" lon="8.7100916"><ele>343.0</ele><time>2026-05-04T08:39:56.167Z</time></trkpt><trkpt lat="45.7482502" lon="8.7101008"><ele>343.0</ele><time>2026-05-04T08:39:58.165Z</time></trkpt><trkpt lat="45.748321" lon="8.7101203"><ele>343.0</ele><time>2026-05-04T08:40:00.166Z</time></trkpt><trkpt lat="45.7483976" lon="8.7101519"><ele>343.0</ele><time>2026-05-04T08:40:02.165Z</time></trkpt><trkpt lat="45.7484693" lon="8.7101738"><ele>343.0</ele><time>2026-05-04T08:40:04.167Z</time></trkpt><trkpt lat="45.7485437" lon="8.7101934"><ele>343.0</ele><time>2026-05-04T08:40:06.166Z</time></trkpt><trkpt lat="45.7486178" lon="8.7102423"><ele>342.2</ele><time>2026-05-04T08:40:08.166Z</time></trkpt><trkpt lat="45.7486728" lon="8.710328"><ele>341.4</ele><time>2026-05-04T08:40:10.167Z</time></trkpt><trkpt lat="45.7487108" lon="8.7105707"><ele>340.59999999999997</ele><time>2026-05-04T08:40:12.166Z</time></trkpt><trkpt lat="45.7487708" lon="8.7106346"><ele>339.79999999999995</ele><time>2026-05-04T08:40:13.167Z</time></trkpt><trkpt lat="45.7488241" lon="8.7107021"><ele>339.0</ele><time>2026-05-04T08:40:14.166Z</time></trkpt><trkpt lat="45.7488828" lon="8.7107696"><ele>339.0</ele><time>2026-05-04T08:40:16.166Z</time></trkpt><trkpt lat="45.7489398" lon="8.7108469"><ele>339.0</ele><time>2026-05-04T08:40:17.167Z</time></trkpt><trkpt lat="45.7490172" lon="8.7109118"><ele>339.0</ele><time>2026-05-04T08:40:18.167Z</time></trkpt><trkpt lat="45.749041" lon="8.7109954"><ele>339.0</ele><time>2026-05-04T08:40:19.167Z</time></trkpt><trkpt lat="45.7491076" lon="8.711007"><ele>339.0</ele><time>2026-05-04T08:40:20.167Z</time></trkpt><trkpt lat="45.749178" lon="8.711066"><ele>339.0</ele><time>2026-05-04T08:40:21.166Z</time></trkpt><trkpt lat="45.7492255" lon="8.71114"><ele>338.4</ele><time>2026-05-04T08:40:22.167Z</time></trkpt><trkpt lat="45.749305" lon="8.7112563"><ele>337.79999999999995</ele><time>2026-05-04T08:40:24.166Z</time></trkpt><trkpt lat="45.7493977" lon="8.7113955"><ele>337.20000000000005</ele><time>2026-05-04T08:40:26.167Z</time></trkpt><trkpt lat="45.7494484" lon="8.7114886"><ele>336.6</ele><time>2026-05-04T08:40:27.166Z</time></trkpt><trkpt lat="45.7494987" lon="8.7115762"><ele>336.0</ele><time>2026-05-04T08:40:28.166Z</time></trkpt><trkpt lat="45.749532" lon="8.7116711"><ele>335.4</ele><time>2026-05-04T08:40:29.167Z</time></trkpt><trkpt lat="45.7495528" lon="8.7117687"><ele>334.8</ele><time>2026-05-04T08:40:30.167Z</time></trkpt><trkpt lat="45.749582" lon="8.7118817"><ele>334.2</ele><time>2026-05-04T08:40:31.166Z</time></trkpt><trkpt lat="45.7496241" lon="8.711987"><ele>333.59999999999997</ele><time>2026-05-04T08:40:32.167Z</time></trkpt><trkpt lat="45.7497054" lon="8.7121492"><ele>333.0</ele><time>2026-05-04T08:40:34.166Z</time></trkpt><trkpt lat="45.7497632" lon="8.7122461"><ele>331.8333333333333</ele><time>2026-05-04T08:40:35.167Z</time></trkpt><trkpt lat="45.749809" lon="8.7123227"><ele>330.6666666666667</ele><time>2026-05-04T08:40:36.166Z</time></trkpt><trkpt lat="45.749866" lon="8.7124066"><ele>329.5</ele><time>2026-05-04T08:40:37.166Z</time></trkpt><trkpt lat="45.7499111" lon="8.7124993"><ele>328.33333333333337</ele><time>2026-05-04T08:40:38.166Z</time></trkpt><trkpt lat="45.7499978" lon="8.7125702"><ele>327.1666666666667</ele><time>2026-05-04T08:40:40.166Z</time></trkpt><trkpt lat="45.7500796" lon="8.712661"><ele>326.0</ele><time>2026-05-04T08:40:42.167Z</time></trkpt><trkpt lat="45.7501445" lon="8.7127942"><ele>325.5</ele><time>2026-05-04T08:40:44.167Z</time></trkpt><trkpt lat="45.7502043" lon="8.7129162"><ele>325.0</ele><time>2026-05-04T08:40:46.165Z</time></trkpt><trkpt lat="45.750265" lon="8.7130006"><ele>324.5</ele><time>2026-05-04T08:40:48.167Z</time></trkpt><trkpt lat="45.7504838" lon="8.712982"><ele>324.0</ele><time>2026-05-04T08:40:53.166Z</time></trkpt><trkpt lat="45.7505964" lon="8.7129555"><ele>325.75</ele><time>2026-05-04T08:40:55.167Z</time></trkpt><trkpt lat="45.7507182" lon="8.7129739"><ele>327.5</ele><time>2026-05-04T08:40:57.167Z</time></trkpt><trkpt lat="45.7508309" lon="8.7130346"><ele>329.25</ele><time>2026-05-04T08:40:59.167Z</time></trkpt><trkpt lat="45.7510118" lon="8.7130709"><ele>331.0</ele><time>2026-05-04T08:41:02.167Z</time></trkpt><trkpt lat="45.7511101" lon="8.7131515"><ele>331.0</ele><time>2026-05-04T08:41:04.166Z</time></trkpt><trkpt lat="45.7512074" lon="8.7132196"><ele>331.0</ele><time>2026-05-04T08:41:06.166Z</time></trkpt><trkpt lat="45.7513023" lon="8.7132364"><ele>331.0</ele><time>2026-05-04T08:41:08.167Z</time></trkpt><trkpt lat="45.7514076" lon="8.7132589"><ele>331.0</ele><time>2026-05-04T08:41:10.167Z</time></trkpt><trkpt lat="45.7515191" lon="8.713261"><ele>331.0</ele><time>2026-05-04T08:41:12.167Z</time></trkpt><trkpt lat="45.7515947" lon="8.7132486"><ele>331.0</ele><time>2026-05-04T08:41:13.166Z</time></trkpt><trkpt lat="45.7516887" lon="8.7132301"><ele>331.0</ele><time>2026-05-04T08:41:15.166Z</time></trkpt><trkpt lat="45.7518411" lon="8.7132082"><ele>331.0</ele><time>2026-05-04T08:41:18.167Z</time></trkpt><trkpt lat="45.7519637" lon="8.7131752"><ele>331.0</ele><time>2026-05-04T08:41:20.166Z</time></trkpt><trkpt lat="45.7520784" lon="8.7131236"><ele>331.20000000000005</ele><time>2026-05-04T08:41:22.166Z</time></trkpt><trkpt lat="45.7521433" lon="8.7131045"><ele>331.40000000000003</ele><time>2026-05-04T08:41:23.167Z</time></trkpt><trkpt lat="45.7522582" lon="8.7130818"><ele>331.6</ele><time>2026-05-04T08:41:25.166Z</time></trkpt><trkpt lat="45.7523777" lon="8.7130309"><ele>331.8</ele><time>2026-05-04T08:41:27.167Z</time></trkpt><trkpt lat="45.7524663" lon="8.713027"><ele>332.0</ele><time>2026-05-04T08:41:28.167Z</time></trkpt><trkpt lat="45.7525898" lon="8.7130161"><ele>332.0</ele><time>2026-05-04T08:41:30.166Z</time></trkpt><trkpt lat="45.7526652" lon="8.7130093"><ele>332.0</ele><time>2026-05-04T08:41:31.165Z</time></trkpt><trkpt lat="45.7527727" lon="8.7129684"><ele>332.0</ele><time>2026-05-04T08:41:33.166Z</time></trkpt><trkpt lat="45.7528105" lon="8.7128671"><ele>332.0</ele><time>2026-05-04T08:41:34.167Z</time></trkpt><trkpt lat="45.7528821" lon="8.7128773"><ele>332.0</ele><time>2026-05-04T08:41:37.167Z</time></trkpt><trkpt lat="45.7529564" lon="8.7128506"><ele>332.0</ele><time>2026-05-04T08:41:39.166Z</time></trkpt><trkpt lat="45.7530325" lon="8.7127976"><ele>332.1666666666667</ele><time>2026-05-04T08:41:41.166Z</time></trkpt><trkpt lat="45.7531029" lon="8.712773"><ele>332.33333333333337</ele><time>2026-05-04T08:41:43.167Z</time></trkpt><trkpt lat="45.7531607" lon="8.7127271"><ele>332.5</ele><time>2026-05-04T08:41:45.166Z</time></trkpt><trkpt lat="45.7532344" lon="8.7127152"><ele>332.6666666666667</ele><time>2026-05-04T08:41:47.166Z</time></trkpt><trkpt lat="45.7533231" lon="8.712698"><ele>332.8333333333333</ele><time>2026-05-04T08:41:49.165Z</time></trkpt><trkpt lat="45.7534036" lon="8.712694"><ele>333.0</ele><time>2026-05-04T08:41:51.166Z</time></trkpt><trkpt lat="45.7534928" lon="8.7126969"><ele>331.3333333333333</ele><time>2026-05-04T08:41:54.167Z</time></trkpt><trkpt lat="45.7535597" lon="8.7126905"><ele>329.6666666666667</ele><time>2026-05-04T08:41:56.167Z</time></trkpt><trkpt lat="45.7536168" lon="8.7126196"><ele>328.0</ele><time>2026-05-04T08:41:58.166Z</time></trkpt><trkpt lat="45.7536833" lon="8.7125366"><ele>326.33333333333337</ele><time>2026-05-04T08:42:00.166Z</time></trkpt><trkpt lat="45.7537527" lon="8.7124708"><ele>324.6666666666667</ele><time>2026-05-04T08:42:02.165Z</time></trkpt><trkpt lat="45.7538163" lon="8.7123833"><ele>323.0</ele><time>2026-05-04T08:42:04.167Z</time></trkpt><trkpt lat="45.7538774" lon="8.7123105"><ele>323.0</ele><time>2026-05-04T08:42:06.165Z</time></trkpt><trkpt lat="45.7539459" lon="8.712261"><ele>323.0</ele><time>2026-05-04T08:42:08.166Z</time></trkpt><trkpt lat="45.7540031" lon="8.7121681"><ele>323.0</ele><time>2026-05-04T08:42:11.167Z</time></trkpt><trkpt lat="45.754049" lon="8.7120816"><ele>323.0</ele><time>2026-05-04T08:42:14.166Z</time></trkpt><trkpt lat="45.7541095" lon="8.7120546"><ele>323.0</ele><time>2026-05-04T08:42:17.166Z</time></trkpt><trkpt lat="45.7541488" lon="8.7119693"><ele>323.0</ele><time>2026-05-04T08:42:20.167Z</time></trkpt><trkpt lat="45.7541782" lon="8.7118655"><ele>323.00000000000006</ele><time>2026-05-04T08:42:24.165Z</time></trkpt><trkpt lat="45.7541481" lon="8.7117826"><ele>323.0</ele><time>2026-05-04T08:42:28.167Z</time></trkpt><trkpt lat="45.7541343" lon="8.7118776"><ele>323.0</ele><time>2026-05-04T08:42:32.165Z</time></trkpt><trkpt lat="45.7541191" lon="8.7119775"><ele>323.0</ele><time>2026-05-04T08:53:31.166Z</time></trkpt><trkpt lat="45.7540757" lon="8.7120685"><ele>323.0</ele><time>2026-05-04T08:53:34.165Z</time></trkpt><trkpt lat="45.7540444" lon="8.7121562"><ele>323.00000000000006</ele><time>2026-05-04T08:53:37.166Z</time></trkpt><trkpt lat="45.7539933" lon="8.7122492"><ele>323.0</ele><time>2026-05-04T08:53:41.165Z</time></trkpt><trkpt lat="45.753939" lon="8.7123313"><ele>323.0</ele><time>2026-05-04T08:53:45.165Z</time></trkpt><trkpt lat="45.7538718" lon="8.7124052"><ele>323.0</ele><time>2026-05-04T08:53:48.165Z</time></trkpt><trkpt lat="45.7538056" lon="8.7124816"><ele>323.0</ele><time>2026-05-04T08:53:51.165Z</time></trkpt><trkpt lat="45.7537384" lon="8.71255"><ele>323.0</ele><time>2026-05-04T08:53:54.165Z</time></trkpt><trkpt lat="45.7536843" lon="8.7126173"><ele>323.0</ele><time>2026-05-04T08:53:57.165Z</time></trkpt><trkpt lat="45.7536321" lon="8.7126826"><ele>323.0</ele><time>2026-05-04T08:54:58.165Z</time></trkpt><trkpt lat="45.7536019" lon="8.7127723"><ele>322.83333333333337</ele><time>2026-05-04T08:55:03.164Z</time></trkpt><trkpt lat="45.7536112" lon="8.7128891"><ele>322.6666666666667</ele><time>2026-05-04T08:55:06.165Z</time></trkpt><trkpt lat="45.7536073" lon="8.7129913"><ele>322.5</ele><time>2026-05-04T08:55:08.166Z</time></trkpt><trkpt lat="45.7535901" lon="8.7130971"><ele>322.3333333333333</ele><time>2026-05-04T08:55:10.165Z</time></trkpt><trkpt lat="45.7535486" lon="8.7132536"><ele>322.16666666666663</ele><time>2026-05-04T08:55:11.164Z</time></trkpt><trkpt lat="45.7535693" lon="8.713346"><ele>322.0</ele><time>2026-05-04T08:55:13.165Z</time></trkpt><trkpt lat="45.7535684" lon="8.7134737"><ele>322.3333333333333</ele><time>2026-05-04T08:55:15.165Z</time></trkpt><trkpt lat="45.7535831" lon="8.7135881"><ele>322.66666666666663</ele><time>2026-05-04T08:55:17.165Z</time></trkpt><trkpt lat="45.7536101" lon="8.7136942"><ele>323.0</ele><time>2026-05-04T08:55:20.165Z</time></trkpt><trkpt lat="45.7536482" lon="8.7137911"><ele>323.3333333333333</ele><time>2026-05-04T08:55:22.165Z</time></trkpt><trkpt lat="45.7536486" lon="8.7138948"><ele>323.6666666666667</ele><time>2026-05-04T08:55:24.165Z</time></trkpt><trkpt lat="45.7536695" lon="8.7139856"><ele>324.0</ele><time>2026-05-04T08:55:26.165Z</time></trkpt><trkpt lat="45.7537012" lon="8.7140902"><ele>324.0</ele><time>2026-05-04T08:55:27.165Z</time></trkpt><trkpt lat="45.7537497" lon="8.7141892"><ele>324.0</ele><time>2026-05-04T08:55:29.166Z</time></trkpt><trkpt lat="45.7538325" lon="8.7143022"><ele>324.0</ele><time>2026-05-04T08:55:31.166Z</time></trkpt><trkpt lat="45.7539245" lon="8.7144188"><ele>324.0</ele><time>2026-05-04T08:55:33.166Z</time></trkpt><trkpt lat="45.7539831" lon="8.714482"><ele>324.0</ele><time>2026-05-04T08:55:36.166Z</time></trkpt><trkpt lat="45.7540486" lon="8.7145286"><ele>325.8333333333333</ele><time>2026-05-04T08:55:38.166Z</time></trkpt><trkpt lat="45.7541315" lon="8.7146014"><ele>327.6666666666667</ele><time>2026-05-04T08:55:40.166Z</time></trkpt><trkpt lat="45.7541987" lon="8.7145901"><ele>329.5</ele><time>2026-05-04T08:55:42.165Z</time></trkpt><trkpt lat="45.754249" lon="8.714648"><ele>331.33333333333337</ele><time>2026-05-04T08:55:43.166Z</time></trkpt><trkpt lat="45.7543083" lon="8.7147346"><ele>333.1666666666667</ele><time>2026-05-04T08:55:46.166Z</time></trkpt><trkpt lat="45.7543731" lon="8.7147859"><ele>335.0</ele><time>2026-05-04T08:55:48.166Z</time></trkpt><trkpt lat="45.7544253" lon="8.7148517"><ele>335.0</ele><time>2026-05-04T08:55:50.165Z</time></trkpt><trkpt lat="45.7544748" lon="8.7149212"><ele>335.0</ele><time>2026-05-04T08:55:52.166Z</time></trkpt><trkpt lat="45.7545574" lon="8.7150218"><ele>335.0</ele><time>2026-05-04T08:55:55.165Z</time></trkpt><trkpt lat="45.7547014" lon="8.7150881"><ele>335.0</ele><time>2026-05-04T08:55:57.166Z</time></trkpt><trkpt lat="45.7548095" lon="8.7151215"><ele>335.0</ele><time>2026-05-04T08:56:00.166Z</time></trkpt><trkpt lat="45.754878" lon="8.7151416"><ele>335.0</ele><time>2026-05-04T08:56:02.165Z</time></trkpt><trkpt lat="45.7549617" lon="8.7151857"><ele>335.0</ele><time>2026-05-04T08:56:04.165Z</time></trkpt><trkpt lat="45.7550395" lon="8.7152547"><ele>335.0</ele><time>2026-05-04T08:56:06.165Z</time></trkpt><trkpt lat="45.7551164" lon="8.7153031"><ele>335.0</ele><time>2026-05-04T08:56:08.165Z</time></trkpt><trkpt lat="45.7551776" lon="8.7153246"><ele>335.0</ele><time>2026-05-04T08:56:10.166Z</time></trkpt><trkpt lat="45.7552548" lon="8.7153691"><ele>335.0</ele><time>2026-05-04T08:56:13.165Z</time></trkpt><trkpt lat="45.7553184" lon="8.7154136"><ele>337.75</ele><time>2026-05-04T08:56:15.165Z</time></trkpt><trkpt lat="45.7554174" lon="8.7154596"><ele>340.5</ele><time>2026-05-04T08:56:18.165Z</time></trkpt><trkpt lat="45.7554814" lon="8.7154811"><ele>343.25</ele><time>2026-05-04T08:56:20.166Z</time></trkpt><trkpt lat="45.7556245" lon="8.7155999"><ele>346.0</ele><time>2026-05-04T08:56:22.165Z</time></trkpt><trkpt lat="45.7557725" lon="8.7156093"><ele>346.0</ele><time>2026-05-04T08:56:25.166Z</time></trkpt><trkpt lat="45.7558382" lon="8.7156485"><ele>346.0</ele><time>2026-05-04T08:56:27.165Z</time></trkpt><trkpt lat="45.75593" lon="8.7157158"><ele>346.0</ele><time>2026-05-04T08:56:29.165Z</time></trkpt><trkpt lat="45.755993" lon="8.7157519"><ele>346.0</ele><time>2026-05-04T08:56:31.166Z</time></trkpt><trkpt lat="45.756044" lon="8.7158382"><ele>346.0</ele><time>2026-05-04T08:56:33.165Z</time></trkpt><trkpt lat="45.7561019" lon="8.7159003"><ele>346.0</ele><time>2026-05-04T08:56:35.166Z</time></trkpt><trkpt lat="45.7562011" lon="8.7159411"><ele>346.5</ele><time>2026-05-04T08:56:38.165Z</time></trkpt><trkpt lat="45.7562835" lon="8.7159806"><ele>347.0</ele><time>2026-05-04T08:56:40.165Z</time></trkpt><trkpt lat="45.7563751" lon="8.7160565"><ele>347.5</ele><time>2026-05-04T08:56:42.165Z</time></trkpt><trkpt lat="45.7565027" lon="8.7162099"><ele>348.0</ele><time>2026-05-04T08:56:44.166Z</time></trkpt><trkpt lat="45.756577" lon="8.7163112"><ele>348.0</ele><time>2026-05-04T08:56:46.166Z</time></trkpt><trkpt lat="45.7566252" lon="8.7164216"><ele>348.0</ele><time>2026-05-04T08:56:48.166Z</time></trkpt><trkpt lat="45.7566804" lon="8.7164843"><ele>348.0</ele><time>2026-05-04T08:56:49.165Z</time></trkpt><trkpt lat="45.7567186" lon="8.7165614"><ele>348.0</ele><time>2026-05-04T08:56:50.165Z</time></trkpt><trkpt lat="45.7567797" lon="8.7167387"><ele>348.0</ele><time>2026-05-04T08:56:52.165Z</time></trkpt><trkpt lat="45.7568062" lon="8.7168433"><ele>348.0</ele><time>2026-05-04T08:56:53.166Z</time></trkpt><trkpt lat="45.7568713" lon="8.7169898"><ele>347.6666666666667</ele><time>2026-05-04T08:56:55.164Z</time></trkpt><trkpt lat="45.756926" lon="8.7170458"><ele>347.3333333333333</ele><time>2026-05-04T08:56:56.165Z</time></trkpt><trkpt lat="45.7570418" lon="8.7171185"><ele>347.0</ele><time>2026-05-04T08:56:59.03Z</time></trkpt><trkpt lat="45.7571312" lon="8.7171634"><ele>346.66666666666663</ele><time>2026-05-04T08:57:01.165Z</time></trkpt><trkpt lat="45.7571977" lon="8.717178"><ele>346.3333333333333</ele><time>2026-05-04T08:57:02.165Z</time></trkpt><trkpt lat="45.7572901" lon="8.7171769"><ele>346.0</ele><time>2026-05-04T08:57:04.166Z</time></trkpt><trkpt lat="45.7573911" lon="8.7171528"><ele>346.0</ele><time>2026-05-04T08:57:06.165Z</time></trkpt><trkpt lat="45.7574931" lon="8.7171835"><ele>346.0</ele><time>2026-05-04T08:57:08.166Z</time></trkpt><trkpt lat="45.7576074" lon="8.7172303"><ele>346.0</ele><time>2026-05-04T08:57:10.166Z</time></trkpt><trkpt lat="45.7577076" lon="8.7172551"><ele>346.0</ele><time>2026-05-04T08:57:12.166Z</time></trkpt><trkpt lat="45.7578178" lon="8.7172396"><ele>346.0</ele><time>2026-05-04T08:57:14.166Z</time></trkpt><trkpt lat="45.757882" lon="8.7172587"><ele>343.6</ele><time>2026-05-04T08:57:15.166Z</time></trkpt><trkpt lat="45.7580125" lon="8.7172786"><ele>341.20000000000005</ele><time>2026-05-04T08:57:17.165Z</time></trkpt><trkpt lat="45.7581502" lon="8.7172852"><ele>338.79999999999995</ele><time>2026-05-04T08:57:19.165Z</time></trkpt><trkpt lat="45.7582458" lon="8.7172448"><ele>336.4</ele><time>2026-05-04T08:57:21.165Z</time></trkpt><trkpt lat="45.7583088" lon="8.717255"><ele>334.0</ele><time>2026-05-04T08:57:22.166Z</time></trkpt><trkpt lat="45.7583906" lon="8.7173402"><ele>334.0</ele><time>2026-05-04T08:57:24.165Z</time></trkpt><trkpt lat="45.7584968" lon="8.7173741"><ele>334.0</ele><time>2026-05-04T08:57:26.166Z</time></trkpt><trkpt lat="45.7585626" lon="8.7174034"><ele>334.0</ele><time>2026-05-04T08:57:27.165Z</time></trkpt><trkpt lat="45.7586536" lon="8.717458"><ele>334.0</ele><time>2026-05-04T08:57:29.166Z</time></trkpt><trkpt lat="45.7587116" lon="8.7175029"><ele>334.0</ele><time>2026-05-04T08:57:31.166Z</time></trkpt><trkpt lat="45.7587759" lon="8.7175188"><ele>334.0</ele><time>2026-05-04T08:57:32.165Z</time></trkpt><trkpt lat="45.7588842" lon="8.7175436"><ele>331.79999999999995</ele><time>2026-05-04T08:57:34.166Z</time></trkpt><trkpt lat="45.7589954" lon="8.7175667"><ele>329.59999999999997</ele><time>2026-05-04T08:57:36.165Z</time></trkpt><trkpt lat="45.7590827" lon="8.7176183"><ele>327.4</ele><time>2026-05-04T08:57:38.166Z</time></trkpt><trkpt lat="45.7591514" lon="8.717638"><ele>325.2</ele><time>2026-05-04T08:57:41.166Z</time></trkpt><trkpt lat="45.7592639" lon="8.7176728"><ele>323.0</ele><time>2026-05-04T08:57:43.165Z</time></trkpt><trkpt lat="45.7593226" lon="8.7177221"><ele>321.79999999999995</ele><time>2026-05-04T08:57:44.165Z</time></trkpt><trkpt lat="45.7593994" lon="8.7177493"><ele>320.59999999999997</ele><time>2026-05-04T08:57:45.165Z</time></trkpt><trkpt lat="45.7595012" lon="8.7178691"><ele>319.4</ele><time>2026-05-04T08:57:47.165Z</time></trkpt><trkpt lat="45.75959" lon="8.7179441"><ele>318.2</ele><time>2026-05-04T08:57:48.168Z</time></trkpt><trkpt lat="45.75965" lon="8.7179926"><ele>317.0</ele><time>2026-05-04T08:57:49.166Z</time></trkpt><trkpt lat="45.7597288" lon="8.718042"><ele>317.0</ele><time>2026-05-04T08:57:50.167Z</time></trkpt><trkpt lat="45.759842" lon="8.7180917"><ele>317.0</ele><time>2026-05-04T08:57:52.166Z</time></trkpt><trkpt lat="45.7599087" lon="8.7181138"><ele>317.0</ele><time>2026-05-04T08:57:53.167Z</time></trkpt><trkpt lat="45.759979" lon="8.7181501"><ele>317.0</ele><time>2026-05-04T08:57:55.166Z</time></trkpt><trkpt lat="45.7600826" lon="8.718216"><ele>317.0</ele><time>2026-05-04T08:57:57.166Z</time></trkpt><trkpt lat="45.7601969" lon="8.7182786"><ele>316.1666666666667</ele><time>2026-05-04T08:57:59.166Z</time></trkpt><trkpt lat="45.760258" lon="8.7183116"><ele>315.33333333333337</ele><time>2026-05-04T08:58:00.166Z</time></trkpt><trkpt lat="45.7603178" lon="8.7183603"><ele>314.5</ele><time>2026-05-04T08:58:01.166Z</time></trkpt><trkpt lat="45.7603825" lon="8.7183945"><ele>313.6666666666667</ele><time>2026-05-04T08:58:02.166Z</time></trkpt><trkpt lat="45.7604645" lon="8.718431"><ele>312.8333333333333</ele><time>2026-05-04T08:58:04.166Z</time></trkpt><trkpt lat="45.7605456" lon="8.7184412"><ele>312.0</ele><time>2026-05-04T08:58:06.165Z</time></trkpt><trkpt lat="45.7606275" lon="8.7184859"><ele>312.0</ele><time>2026-05-04T08:58:08.166Z</time></trkpt><trkpt lat="45.7607072" lon="8.7184494"><ele>312.0</ele><time>2026-05-04T08:58:10.166Z</time></trkpt><trkpt lat="45.7607738" lon="8.7184019"><ele>312.0</ele><time>2026-05-04T08:58:12.166Z</time></trkpt><trkpt lat="45.7608568" lon="8.7183813"><ele>312.0</ele><time>2026-05-04T08:58:13.166Z</time></trkpt><trkpt lat="45.760951" lon="8.7182521"><ele>312.0</ele><time>2026-05-04T08:58:15.166Z</time></trkpt><trkpt lat="45.7610203" lon="8.7181528"><ele>311.0</ele><time>2026-05-04T08:58:16.166Z</time></trkpt><trkpt lat="45.7611" lon="8.7180742"><ele>310.0</ele><time>2026-05-04T08:58:18.167Z</time></trkpt><trkpt lat="45.7611965" lon="8.7180018"><ele>309.0</ele><time>2026-05-04T08:58:20.166Z</time></trkpt><trkpt lat="45.7612942" lon="8.7179714"><ele>308.0</ele><time>2026-05-04T08:58:22.167Z</time></trkpt><trkpt lat="45.761398" lon="8.7179369"><ele>307.0</ele><time>2026-05-04T08:58:24.167Z</time></trkpt><trkpt lat="45.7615102" lon="8.7179467"><ele>306.99999999999994</ele><time>2026-05-04T08:58:26.166Z</time></trkpt><trkpt lat="45.7615766" lon="8.717951"><ele>307.0</ele><time>2026-05-04T08:58:27.166Z</time></trkpt><trkpt lat="45.7616409" lon="8.7179553"><ele>307.0</ele><time>2026-05-04T08:58:28.166Z</time></trkpt><trkpt lat="45.7617258" lon="8.7179751"><ele>307.0</ele><time>2026-05-04T08:58:29.166Z</time></trkpt><trkpt lat="45.7618001" lon="8.7180045"><ele>307.0</ele><time>2026-05-04T08:58:30.166Z</time></trkpt><trkpt lat="45.7618621" lon="8.718058"><ele>306.99999999999994</ele><time>2026-05-04T08:58:31.167Z</time></trkpt><trkpt lat="45.7619413" lon="8.7180767"><ele>307.0</ele><time>2026-05-04T08:58:32.167Z</time></trkpt><trkpt lat="45.7620151" lon="8.7180966"><ele>305.4</ele><time>2026-05-04T08:58:33.166Z</time></trkpt><trkpt lat="45.7620929" lon="8.7181349"><ele>303.79999999999995</ele><time>2026-05-04T08:58:34.166Z</time></trkpt><trkpt lat="45.762225" lon="8.7181763"><ele>302.2</ele><time>2026-05-04T08:58:36.166Z</time></trkpt><trkpt lat="45.762292" lon="8.7182053"><ele>300.59999999999997</ele><time>2026-05-04T08:58:37.166Z</time></trkpt><trkpt lat="45.7623603" lon="8.7182386"><ele>299.0</ele><time>2026-05-04T08:58:39.166Z</time></trkpt><trkpt lat="45.7625735" lon="8.718183"><ele>299.0</ele><time>2026-05-04T08:58:43.167Z</time></trkpt><trkpt lat="45.7626609" lon="8.7181289"><ele>299.0</ele><time>2026-05-04T08:58:45.167Z</time></trkpt><trkpt lat="45.7627461" lon="8.7181"><ele>299.0</ele><time>2026-05-04T08:58:47.167Z</time></trkpt><trkpt lat="45.7628558" lon="8.718086"><ele>299.0</ele><time>2026-05-04T08:58:49.166Z</time></trkpt><trkpt lat="45.7630199" lon="8.7181253"><ele>295.83333333333337</ele><time>2026-05-04T08:58:52.166Z</time></trkpt><trkpt lat="45.7631442" lon="8.7182052"><ele>292.6666666666667</ele><time>2026-05-04T08:58:54.167Z</time></trkpt><trkpt lat="45.7632113" lon="8.718246"><ele>289.5</ele><time>2026-05-04T08:58:55.167Z</time></trkpt><trkpt lat="45.7632799" lon="8.7182917"><ele>286.3333333333333</ele><time>2026-05-04T08:58:56.167Z</time></trkpt><trkpt lat="45.7633424" lon="8.7183349"><ele>283.16666666666663</ele><time>2026-05-04T08:58:57.167Z</time></trkpt><trkpt lat="45.7634192" lon="8.7183764"><ele>280.0</ele><time>2026-05-04T08:58:58.166Z</time></trkpt><trkpt lat="45.7635251" lon="8.7184368"><ele>279.2</ele><time>2026-05-04T08:59:00.167Z</time></trkpt><trkpt lat="45.7636218" lon="8.7184325"><ele>278.4</ele><time>2026-05-04T08:59:02.166Z</time></trkpt><trkpt lat="45.7637329" lon="8.7184764"><ele>277.6</ele><time>2026-05-04T08:59:04.167Z</time></trkpt><trkpt lat="45.7638313" lon="8.7185435"><ele>276.8</ele><time>2026-05-04T08:59:06.166Z</time></trkpt><trkpt lat="45.7638934" lon="8.7185675"><ele>276.0</ele><time>2026-05-04T08:59:07.166Z</time></trkpt><trkpt lat="45.763883" lon="8.7186597"><ele>274.8333333333333</ele><time>2026-05-04T08:59:42.166Z</time></trkpt><trkpt lat="45.76385" lon="8.7187875"><ele>273.6666666666667</ele><time>2026-05-04T08:59:45.165Z</time></trkpt><trkpt lat="45.7638298" lon="8.7188812"><ele>272.5</ele><time>2026-05-04T08:59:47.166Z</time></trkpt><trkpt lat="45.7638121" lon="8.7189757"><ele>271.33333333333337</ele><time>2026-05-04T08:59:49.166Z</time></trkpt><trkpt lat="45.7637917" lon="8.7190784"><ele>270.1666666666667</ele><time>2026-05-04T08:59:51.165Z</time></trkpt><trkpt lat="45.7637689" lon="8.7191786"><ele>269.0</ele><time>2026-05-04T08:59:53.166Z</time></trkpt><trkpt lat="45.7637511" lon="8.7192834"><ele>269.0</ele><time>2026-05-04T08:59:55.165Z</time></trkpt><trkpt lat="45.7637274" lon="8.7193766"><ele>269.0</ele><time>2026-05-04T08:59:57.166Z</time></trkpt><trkpt lat="45.7637118" lon="8.719475"><ele>269.0</ele><time>2026-05-04T08:59:59.165Z</time></trkpt><trkpt lat="45.7637025" lon="8.719589"><ele>269.0</ele><time>2026-05-04T09:00:01.166Z</time></trkpt><trkpt lat="45.7636888" lon="8.7197011"><ele>269.0</ele><time>2026-05-04T09:00:03.165Z</time></trkpt><trkpt lat="45.7636781" lon="8.719814"><ele>269.0</ele><time>2026-05-04T09:00:05.165Z</time></trkpt><trkpt lat="45.7636647" lon="8.7199272"><ele>268.83333333333337</ele><time>2026-05-04T09:00:07.166Z</time></trkpt><trkpt lat="45.7636409" lon="8.7200354"><ele>268.6666666666667</ele><time>2026-05-04T09:00:09.166Z</time></trkpt><trkpt lat="45.7636304" lon="8.7201541"><ele>268.5</ele><time>2026-05-04T09:00:11.167Z</time></trkpt><trkpt lat="45.7636432" lon="8.7202631"><ele>268.3333333333333</ele><time>2026-05-04T09:00:14.165Z</time></trkpt><trkpt lat="45.7636927" lon="8.7203802"><ele>268.16666666666663</ele><time>2026-05-04T09:00:16.167Z</time></trkpt><trkpt lat="45.7637657" lon="8.7204997"><ele>268.0</ele><time>2026-05-04T09:00:18.165Z</time></trkpt><trkpt lat="45.763818" lon="8.7205596"><ele>270.75</ele><time>2026-05-04T09:00:19.166Z</time></trkpt><trkpt lat="45.7638565" lon="8.7206987"><ele>273.5</ele><time>2026-05-04T09:00:21.165Z</time></trkpt><trkpt lat="45.7639305" lon="8.7208075"><ele>276.25</ele><time>2026-05-04T09:00:23.166Z</time></trkpt><trkpt lat="45.7640279" lon="8.7208983"><ele>279.0</ele><time>2026-05-04T09:00:25.166Z</time></trkpt><trkpt lat="45.7641388" lon="8.7210069"><ele>280.0</ele><time>2026-05-04T09:00:27.166Z</time></trkpt><trkpt lat="45.7641879" lon="8.7210715"><ele>281.0</ele><time>2026-05-04T09:00:28.166Z</time></trkpt><trkpt lat="45.7642314" lon="8.7211643"><ele>282.0</ele><time>2026-05-04T09:00:30.166Z</time></trkpt><trkpt lat="45.7642947" lon="8.7212134"><ele>283.0</ele><time>2026-05-04T09:00:31.167Z</time></trkpt><trkpt lat="45.7643654" lon="8.7212672"><ele>284.0</ele><time>2026-05-04T09:00:32.166Z</time></trkpt><trkpt lat="45.7644521" lon="8.7213322"><ele>285.0</ele><time>2026-05-04T09:00:34.166Z</time></trkpt><trkpt lat="45.7645188" lon="8.7213378"><ele>282.8333333333333</ele><time>2026-05-04T09:00:37.166Z</time></trkpt><trkpt lat="45.7646024" lon="8.7214169"><ele>280.6666666666667</ele><time>2026-05-04T09:00:40.166Z</time></trkpt><trkpt lat="45.7646597" lon="8.7215097"><ele>278.5</ele><time>2026-05-04T09:00:43.165Z</time></trkpt><trkpt lat="45.7647506" lon="8.7215349"><ele>276.33333333333337</ele><time>2026-05-04T09:00:45.165Z</time></trkpt><trkpt lat="45.764827" lon="8.7215432"><ele>274.1666666666667</ele><time>2026-05-04T09:00:48.166Z</time></trkpt><trkpt lat="45.7648974" lon="8.7215146"><ele>272.0</ele><time>2026-05-04T09:00:53.165Z</time></trkpt><trkpt lat="45.7649849" lon="8.7214949"><ele>272.0</ele><time>2026-05-04T09:00:55.165Z</time></trkpt><trkpt lat="45.7650644" lon="8.7214229"><ele>272.0</ele><time>2026-05-04T09:00:57.165Z</time></trkpt><trkpt lat="45.7651535" lon="8.7213076"><ele>272.0</ele><time>2026-05-04T09:00:59.165Z</time></trkpt><trkpt lat="45.7652086" lon="8.7212458"><ele>272.0</ele><time>2026-05-04T09:01:01.166Z</time></trkpt><trkpt lat="45.7653027" lon="8.7211736"><ele>272.0</ele><time>2026-05-04T09:01:03.166Z</time></trkpt><trkpt lat="45.7653912" lon="8.7212018"><ele>271.83333333333337</ele><time>2026-05-04T09:01:05.166Z</time></trkpt><trkpt lat="45.7654574" lon="8.7212724"><ele>271.6666666666667</ele><time>2026-05-04T09:01:07.165Z</time></trkpt><trkpt lat="45.7655239" lon="8.7213124"><ele>271.5</ele><time>2026-05-04T09:01:09.165Z</time></trkpt><trkpt lat="45.7656078" lon="8.7212964"><ele>271.3333333333333</ele><time>2026-05-04T09:01:11.165Z</time></trkpt><trkpt lat="45.765698" lon="8.721312"><ele>271.16666666666663</ele><time>2026-05-04T09:01:13.165Z</time></trkpt><trkpt lat="45.7657843" lon="8.7213367"><ele>271.0</ele><time>2026-05-04T09:01:15.164Z</time></trkpt><trkpt lat="45.7658738" lon="8.7213671"><ele>271.0</ele><time>2026-05-04T09:01:17.166Z</time></trkpt><trkpt lat="45.7659594" lon="8.7214405"><ele>271.0</ele><time>2026-05-04T09:01:19.166Z</time></trkpt><trkpt lat="45.7660287" lon="8.7215195"><ele>271.0</ele><time>2026-05-04T09:01:21.165Z</time></trkpt><trkpt lat="45.7661002" lon="8.7216178"><ele>271.0</ele><time>2026-05-04T09:01:23.164Z</time></trkpt><trkpt lat="45.7661646" lon="8.7216814"><ele>271.0</ele><time>2026-05-04T09:01:25.165Z</time></trkpt><trkpt lat="45.7662299" lon="8.7217266"><ele>271.0</ele><time>2026-05-04T09:01:27.164Z</time></trkpt><trkpt lat="45.7663015" lon="8.7217792"><ele>273.0</ele><time>2026-05-04T09:01:29.164Z</time></trkpt><trkpt lat="45.7663669" lon="8.7218285"><ele>275.0</ele><time>2026-05-04T09:01:31.165Z</time></trkpt><trkpt lat="45.7664172" lon="8.7218848"><ele>277.0</ele><time>2026-05-04T09:01:33.165Z</time></trkpt><trkpt lat="45.7664677" lon="8.7219462"><ele>279.0</ele><time>2026-05-04T09:01:35.166Z</time></trkpt><trkpt lat="45.7665525" lon="8.721982"><ele>281.0</ele><time>2026-05-04T09:01:38.165Z</time></trkpt><trkpt lat="45.7666012" lon="8.7218865"><ele>283.0</ele><time>2026-05-04T09:01:41.166Z</time></trkpt><trkpt lat="45.7666245" lon="8.7217621"><ele>283.0</ele><time>2026-05-04T09:01:44.166Z</time></trkpt><trkpt lat="45.7666654" lon="8.7216852"><ele>283.0</ele><time>2026-05-04T09:01:47.165Z</time></trkpt><trkpt lat="45.7666645" lon="8.7218099"><ele>283.0</ele><time>2026-05-04T09:01:51.165Z</time></trkpt><trkpt lat="45.7666454" lon="8.7219141"><ele>283.0</ele><time>2026-05-04T09:01:53.166Z</time></trkpt><trkpt lat="45.7666344" lon="8.7220351"><ele>283.0</ele><time>2026-05-04T09:01:55.165Z</time></trkpt><trkpt lat="45.7666037" lon="8.7221676"><ele>283.0</ele><time>2026-05-04T09:01:57.165Z</time></trkpt><trkpt lat="45.7665842" lon="8.7222751"><ele>284.8571428571429</ele><time>2026-05-04T09:01:59.166Z</time></trkpt><trkpt lat="45.7665898" lon="8.7223702"><ele>286.7142857142857</ele><time>2026-05-04T09:02:01.167Z</time></trkpt><trkpt lat="45.7665892" lon="8.7224666"><ele>288.57142857142856</ele><time>2026-05-04T09:02:03.165Z</time></trkpt><trkpt lat="45.7665833" lon="8.7225654"><ele>290.42857142857144</ele><time>2026-05-04T09:02:05.166Z</time></trkpt><trkpt lat="45.7665747" lon="8.7226785"><ele>292.2857142857143</ele><time>2026-05-04T09:02:07.166Z</time></trkpt><trkpt lat="45.7665587" lon="8.7227811"><ele>294.14285714285717</ele><time>2026-05-04T09:02:09.165Z</time></trkpt><trkpt lat="45.7665422" lon="8.7228863"><ele>296.0</ele><time>2026-05-04T09:02:11.165Z</time></trkpt><trkpt lat="45.7665179" lon="8.7230018"><ele>297.6666666666667</ele><time>2026-05-04T09:02:13.165Z</time></trkpt><trkpt lat="45.766493" lon="8.7231241"><ele>299.33333333333337</ele><time>2026-05-04T09:02:15.166Z</time></trkpt><trkpt lat="45.766472" lon="8.7232302"><ele>301.0</ele><time>2026-05-04T09:02:17.166Z</time></trkpt><trkpt lat="45.7664483" lon="8.7233375"><ele>302.6666666666667</ele><time>2026-05-04T09:02:19.166Z</time></trkpt><trkpt lat="45.7664207" lon="8.7234311"><ele>304.3333333333333</ele><time>2026-05-04T09:02:21.165Z</time></trkpt><trkpt lat="45.7663981" lon="8.7235311"><ele>306.0</ele><time>2026-05-04T09:02:23.166Z</time></trkpt><trkpt lat="45.7663784" lon="8.7236283"><ele>306.8333333333333</ele><time>2026-05-04T09:02:25.166Z</time></trkpt><trkpt lat="45.7663648" lon="8.7237171"><ele>307.6666666666667</ele><time>2026-05-04T09:02:27.165Z</time></trkpt><trkpt lat="45.7663523" lon="8.7238107"><ele>308.5</ele><time>2026-05-04T09:02:29.166Z</time></trkpt><trkpt lat="45.7663461" lon="8.7239321"><ele>309.33333333333337</ele><time>2026-05-04T09:02:31.165Z</time></trkpt><trkpt lat="45.7663688" lon="8.7240177"><ele>310.1666666666667</ele><time>2026-05-04T09:02:32.166Z</time></trkpt><trkpt lat="45.7663824" lon="8.7241527"><ele>311.0</ele><time>2026-05-04T09:02:34.165Z</time></trkpt><trkpt lat="45.7663705" lon="8.7242782"><ele>310.5</ele><time>2026-05-04T09:02:36.165Z</time></trkpt><trkpt lat="45.7663721" lon="8.7243964"><ele>310.0</ele><time>2026-05-04T09:02:38.166Z</time></trkpt><trkpt lat="45.7663901" lon="8.7245245"><ele>309.5</ele><time>2026-05-04T09:02:40.166Z</time></trkpt><trkpt lat="45.7664085" lon="8.7246382"><ele>309.0</ele><time>2026-05-04T09:02:42.166Z</time></trkpt><trkpt lat="45.7664285" lon="8.7247415"><ele>308.5</ele><time>2026-05-04T09:02:44.165Z</time></trkpt><trkpt lat="45.7664411" lon="8.7248532"><ele>308.0</ele><time>2026-05-04T09:02:46.165Z</time></trkpt><trkpt lat="45.7664496" lon="8.724977"><ele>308.0</ele><time>2026-05-04T09:02:48.164Z</time></trkpt><trkpt lat="45.7664637" lon="8.725091"><ele>308.0</ele><time>2026-05-04T09:02:50.166Z</time></trkpt><trkpt lat="45.7664782" lon="8.7252039"><ele>308.0</ele><time>2026-05-04T09:02:52.166Z</time></trkpt><trkpt lat="45.7664927" lon="8.7253147"><ele>308.0</ele><time>2026-05-04T09:02:54.165Z</time></trkpt><trkpt lat="45.766501" lon="8.7254243"><ele>308.0</ele><time>2026-05-04T09:02:56.165Z</time></trkpt><trkpt lat="45.7665104" lon="8.7255366"><ele>308.0</ele><time>2026-05-04T09:02:58.165Z</time></trkpt><trkpt lat="45.7665206" lon="8.7256455"><ele>308.0</ele><time>2026-05-04T09:03:00.165Z</time></trkpt><trkpt lat="45.7665244" lon="8.7257562"><ele>308.0</ele><time>2026-05-04T09:03:02.166Z</time></trkpt><trkpt lat="45.7665241" lon="8.7258692"><ele>308.0</ele><time>2026-05-04T09:03:04.166Z</time></trkpt><trkpt lat="45.7665213" lon="8.7259853"><ele>308.0</ele><time>2026-05-04T09:03:06.166Z</time></trkpt><trkpt lat="45.7665114" lon="8.7261052"><ele>308.0</ele><time>2026-05-04T09:03:08.166Z</time></trkpt><trkpt lat="45.766495" lon="8.7262255"><ele>308.0</ele><time>2026-05-04T09:03:10.166Z</time></trkpt><trkpt lat="45.7664719" lon="8.7263296"><ele>309.2857142857143</ele><time>2026-05-04T09:03:12.166Z</time></trkpt><trkpt lat="45.7664419" lon="8.7264311"><ele>310.57142857142856</ele><time>2026-05-04T09:03:14.166Z</time></trkpt><trkpt lat="45.7664044" lon="8.7265249"><ele>311.8571428571429</ele><time>2026-05-04T09:03:16.165Z</time></trkpt><trkpt lat="45.7663646" lon="8.7266078"><ele>313.1428571428571</ele><time>2026-05-04T09:03:18.165Z</time></trkpt><trkpt lat="45.7663234" lon="8.7266899"><ele>314.42857142857144</ele><time>2026-05-04T09:03:20.166Z</time></trkpt><trkpt lat="45.7662715" lon="8.726775"><ele>315.7142857142857</ele><time>2026-05-04T09:03:22.165Z</time></trkpt><trkpt lat="45.7662306" lon="8.7268628"><ele>317.0</ele><time>2026-05-04T09:03:24.165Z</time></trkpt><trkpt lat="45.7661836" lon="8.7269481"><ele>318.57142857142856</ele><time>2026-05-04T09:03:26.164Z</time></trkpt><trkpt lat="45.7661349" lon="8.7270275"><ele>320.1428571428571</ele><time>2026-05-04T09:03:28.166Z</time></trkpt><trkpt lat="45.7660985" lon="8.727114"><ele>321.71428571428567</ele><time>2026-05-04T09:03:30.166Z</time></trkpt><trkpt lat="45.7660566" lon="8.7272077"><ele>323.2857142857143</ele><time>2026-05-04T09:03:32.166Z</time></trkpt><trkpt lat="45.7660109" lon="8.7272726"><ele>324.85714285714283</ele><time>2026-05-04T09:03:34.166Z</time></trkpt><trkpt lat="45.765959" lon="8.7273471"><ele>326.4285714285714</ele><time>2026-05-04T09:03:36.165Z</time></trkpt><trkpt lat="45.7659124" lon="8.7274299"><ele>328.0</ele><time>2026-05-04T09:03:38.165Z</time></trkpt><trkpt lat="45.7658686" lon="8.7275213"><ele>325.5</ele><time>2026-05-04T09:03:40.165Z</time></trkpt><trkpt lat="45.7658243" lon="8.7276143"><ele>323.0</ele><time>2026-05-04T09:03:42.165Z</time></trkpt><trkpt lat="45.7657747" lon="8.7277025"><ele>320.5</ele><time>2026-05-04T09:03:44.165Z</time></trkpt><trkpt lat="45.7657285" lon="8.727796"><ele>318.0</ele><time>2026-05-04T09:03:46.165Z</time></trkpt><trkpt lat="45.7656798" lon="8.7278913"><ele>315.5</ele><time>2026-05-04T09:03:48.165Z</time></trkpt><trkpt lat="45.7656329" lon="8.7279915"><ele>313.0</ele><time>2026-05-04T09:03:50.166Z</time></trkpt><trkpt lat="45.7655782" lon="8.7280865"><ele>313.0</ele><time>2026-05-04T09:03:52.166Z</time></trkpt><trkpt lat="45.7655294" lon="8.7281714"><ele>313.0</ele><time>2026-05-04T09:03:54.165Z</time></trkpt><trkpt lat="45.7654733" lon="8.7282657"><ele>313.0</ele><time>2026-05-04T09:03:56.165Z</time></trkpt><trkpt lat="45.7654156" lon="8.7283563"><ele>313.0</ele><time>2026-05-04T09:03:58.164Z</time></trkpt><trkpt lat="45.7653623" lon="8.7284437"><ele>313.0</ele><time>2026-05-04T09:04:00.166Z</time></trkpt><trkpt lat="45.7653142" lon="8.7285304"><ele>313.0</ele><time>2026-05-04T09:04:02.165Z</time></trkpt><trkpt lat="45.7652683" lon="8.7286206"><ele>312.0</ele><time>2026-05-04T09:04:04.166Z</time></trkpt><trkpt lat="45.7652287" lon="8.7287169"><ele>311.0</ele><time>2026-05-04T09:04:06.165Z</time></trkpt><trkpt lat="45.7651861" lon="8.7288185"><ele>310.0</ele><time>2026-05-04T09:04:08.165Z</time></trkpt><trkpt lat="45.7651443" lon="8.7289231"><ele>309.0</ele><time>2026-05-04T09:04:10.167Z</time></trkpt><trkpt lat="45.7651097" lon="8.7290298"><ele>308.0</ele><time>2026-05-04T09:04:12.165Z</time></trkpt><trkpt lat="45.7650851" lon="8.7291404"><ele>307.0</ele><time>2026-05-04T09:04:14.166Z</time></trkpt><trkpt lat="45.7650567" lon="8.7292492"><ele>307.0</ele><time>2026-05-04T09:04:16.165Z</time></trkpt><trkpt lat="45.7650301" lon="8.7293583"><ele>307.0</ele><time>2026-05-04T09:04:18.166Z</time></trkpt><trkpt lat="45.7650105" lon="8.729465"><ele>307.0</ele><time>2026-05-04T09:04:20.166Z</time></trkpt><trkpt lat="45.7649936" lon="8.7295747"><ele>307.0</ele><time>2026-05-04T09:04:22.166Z</time></trkpt><trkpt lat="45.7649733" lon="8.7296822"><ele>307.0</ele><time>2026-05-04T09:04:24.166Z</time></trkpt><trkpt lat="45.7649561" lon="8.7297884"><ele>307.0</ele><time>2026-05-04T09:04:26.167Z</time></trkpt><trkpt lat="45.7649321" lon="8.7298934"><ele>307.66666666666663</ele><time>2026-05-04T09:04:28.166Z</time></trkpt><trkpt lat="45.7649019" lon="8.7300018"><ele>308.3333333333333</ele><time>2026-05-04T09:04:30.165Z</time></trkpt><trkpt lat="45.7648666" lon="8.7301074"><ele>309.0</ele><time>2026-05-04T09:04:32.166Z</time></trkpt><trkpt lat="45.7648292" lon="8.7301988"><ele>309.6666666666667</ele><time>2026-05-04T09:04:34.166Z</time></trkpt><trkpt lat="45.7647925" lon="8.7302905"><ele>310.33333333333337</ele><time>2026-05-04T09:04:36.166Z</time></trkpt><trkpt lat="45.7647492" lon="8.7303746"><ele>311.0</ele><time>2026-05-04T09:04:38.165Z</time></trkpt><trkpt lat="45.7647041" lon="8.7304566"><ele>312.2857142857143</ele><time>2026-05-04T09:04:40.166Z</time></trkpt><trkpt lat="45.764659" lon="8.7305358"><ele>313.5714285714286</ele><time>2026-05-04T09:04:42.165Z</time></trkpt><trkpt lat="45.7646127" lon="8.7306246"><ele>314.8571428571429</ele><time>2026-05-04T09:04:44.165Z</time></trkpt><trkpt lat="45.7645663" lon="8.7307057"><ele>316.1428571428571</ele><time>2026-05-04T09:04:46.165Z</time></trkpt><trkpt lat="45.7645226" lon="8.7307804"><ele>317.42857142857144</ele><time>2026-05-04T09:04:48.165Z</time></trkpt><trkpt lat="45.7644783" lon="8.7308578"><ele>318.7142857142857</ele><time>2026-05-04T09:04:50.166Z</time></trkpt><trkpt lat="45.7644332" lon="8.7309411"><ele>320.0</ele><time>2026-05-04T09:04:52.167Z</time></trkpt><trkpt lat="45.7643907" lon="8.7310271"><ele>320.5</ele><time>2026-05-04T09:04:54.165Z</time></trkpt><trkpt lat="45.7643431" lon="8.7311136"><ele>321.0</ele><time>2026-05-04T09:04:56.165Z</time></trkpt><trkpt lat="45.7642955" lon="8.731201"><ele>321.5</ele><time>2026-05-04T09:04:58.166Z</time></trkpt><trkpt lat="45.7642524" lon="8.7312767"><ele>322.0</ele><time>2026-05-04T09:05:00.166Z</time></trkpt><trkpt lat="45.7642031" lon="8.7313561"><ele>322.5</ele><time>2026-05-04T09:05:02.165Z</time></trkpt><trkpt lat="45.7641526" lon="8.7314342"><ele>323.0</ele><time>2026-05-04T09:05:04.165Z</time></trkpt><trkpt lat="45.7641077" lon="8.7315301"><ele>323.0</ele><time>2026-05-04T09:05:06.165Z</time></trkpt><trkpt lat="45.764062" lon="8.7316327"><ele>323.0</ele><time>2026-05-04T09:05:08.165Z</time></trkpt><trkpt lat="45.7640164" lon="8.7317357"><ele>323.0</ele><time>2026-05-04T09:05:10.167Z</time></trkpt><trkpt lat="45.7639791" lon="8.7318249"><ele>323.0</ele><time>2026-05-04T09:05:12.165Z</time></trkpt><trkpt lat="45.763941" lon="8.7319133"><ele>323.0</ele><time>2026-05-04T09:05:14.165Z</time></trkpt><trkpt lat="45.7639066" lon="8.7319893"><ele>323.0</ele><time>2026-05-04T09:05:16.165Z</time></trkpt><trkpt lat="45.7639209" lon="8.7321042"><ele>325.0</ele><time>2026-05-04T09:05:19.166Z</time></trkpt><trkpt lat="45.7639965" lon="8.7320998"><ele>327.0</ele><time>2026-05-04T09:05:21.165Z</time></trkpt><trkpt lat="45.7640762" lon="8.7320729"><ele>329.0</ele><time>2026-05-04T09:05:23.166Z</time></trkpt><trkpt lat="45.7641551" lon="8.732049"><ele>331.0</ele><time>2026-05-04T09:05:25.166Z</time></trkpt><trkpt lat="45.7642326" lon="8.7320152"><ele>333.0</ele><time>2026-05-04T09:05:27.167Z</time></trkpt><trkpt lat="45.7643072" lon="8.7319894"><ele>335.0</ele><time>2026-05-04T09:05:29.166Z</time></trkpt><trkpt lat="45.7643818" lon="8.731962"><ele>334.85714285714283</ele><time>2026-05-04T09:05:31.166Z</time></trkpt><trkpt lat="45.7644487" lon="8.7319263"><ele>334.7142857142857</ele><time>2026-05-04T09:05:33.165Z</time></trkpt><trkpt lat="45.7645158" lon="8.7319005"><ele>334.57142857142856</ele><time>2026-05-04T09:05:35.166Z</time></trkpt><trkpt lat="45.7645883" lon="8.7318719"><ele>334.42857142857144</ele><time>2026-05-04T09:05:37.165Z</time></trkpt><trkpt lat="45.7646618" lon="8.7318476"><ele>334.2857142857143</ele><time>2026-05-04T09:05:39.165Z</time></trkpt><trkpt lat="45.7647371" lon="8.7318198"><ele>334.1428571428571</ele><time>2026-05-04T09:05:41.165Z</time></trkpt><trkpt lat="45.7648108" lon="8.7317901"><ele>334.0</ele><time>2026-05-04T09:05:43.166Z</time></trkpt><trkpt lat="45.7648842" lon="8.7317644"><ele>334.0</ele><time>2026-05-04T09:05:45.165Z</time></trkpt><trkpt lat="45.7649588" lon="8.7317419"><ele>334.0</ele><time>2026-05-04T09:05:47.167Z</time></trkpt><trkpt lat="45.7650335" lon="8.7317219"><ele>334.0</ele><time>2026-05-04T09:05:49.165Z</time></trkpt><trkpt lat="45.7651083" lon="8.7317005"><ele>334.0</ele><time>2026-05-04T09:05:51.166Z</time></trkpt><trkpt lat="45.7651838" lon="8.7316788"><ele>334.0</ele><time>2026-05-04T09:05:53.165Z</time></trkpt><trkpt lat="45.765267" lon="8.7316544"><ele>334.0</ele><time>2026-05-04T09:05:55.166Z</time></trkpt><trkpt lat="45.7653512" lon="8.7316259"><ele>335.3333333333333</ele><time>2026-05-04T09:05:57.166Z</time></trkpt><trkpt lat="45.7654279" lon="8.7316111"><ele>336.66666666666663</ele><time>2026-05-04T09:05:59.166Z</time></trkpt><trkpt lat="45.7655002" lon="8.7315873"><ele>338.0</ele><time>2026-05-04T09:06:01.166Z</time></trkpt><trkpt lat="45.7655766" lon="8.7315637"><ele>339.3333333333333</ele><time>2026-05-04T09:06:03.166Z</time></trkpt><trkpt lat="45.7656595" lon="8.7315462"><ele>340.6666666666667</ele><time>2026-05-04T09:06:05.165Z</time></trkpt><trkpt lat="45.7657443" lon="8.731536"><ele>342.0</ele><time>2026-05-04T09:06:07.165Z</time></trkpt><trkpt lat="45.7658288" lon="8.7315201"><ele>342.0</ele><time>2026-05-04T09:06:09.166Z</time></trkpt><trkpt lat="45.7659073" lon="8.7314997"><ele>342.0</ele><time>2026-05-04T09:06:11.165Z</time></trkpt><trkpt lat="45.7659874" lon="8.7314861"><ele>342.0</ele><time>2026-05-04T09:06:13.165Z</time></trkpt><trkpt lat="45.7660714" lon="8.7314698"><ele>342.0</ele><time>2026-05-04T09:06:15.166Z</time></trkpt><trkpt lat="45.7661548" lon="8.7314496"><ele>342.0</ele><time>2026-05-04T09:06:17.165Z</time></trkpt><trkpt lat="45.7662371" lon="8.731433"><ele>342.0</ele><time>2026-05-04T09:06:19.166Z</time></trkpt><trkpt lat="45.7663186" lon="8.7314083"><ele>342.0</ele><time>2026-05-04T09:06:21.166Z</time></trkpt><trkpt lat="45.7663989" lon="8.7313787"><ele>342.0</ele><time>2026-05-04T09:06:23.166Z</time></trkpt><trkpt lat="45.7664838" lon="8.7313477"><ele>342.0</ele><time>2026-05-04T09:06:25.165Z</time></trkpt><trkpt lat="45.7665639" lon="8.7313199"><ele>342.0</ele><time>2026-05-04T09:06:27.166Z</time></trkpt><trkpt lat="45.7666248" lon="8.7312917"><ele>342.0</ele><time>2026-05-04T09:06:30.165Z</time></trkpt><trkpt lat="45.7666112" lon="8.731156"><ele>342.0</ele><time>2026-05-04T09:06:34.165Z</time></trkpt><trkpt lat="45.7666084" lon="8.7310472"><ele>342.0</ele><time>2026-05-04T09:06:37.166Z</time></trkpt><trkpt lat="45.7666233" lon="8.7309526"><ele>342.0</ele><time>2026-05-04T09:06:42.166Z</time></trkpt><trkpt lat="45.7665697" lon="8.7310447"><ele>342.0</ele><time>2026-05-04T09:10:18.166Z</time></trkpt><trkpt lat="45.7665633" lon="8.7311667"><ele>342.0</ele><time>2026-05-04T09:10:21.165Z</time></trkpt><trkpt lat="45.7666233" lon="8.7312568"><ele>342.0</ele><time>2026-05-04T09:10:24.165Z</time></trkpt><trkpt lat="45.7667032" lon="8.7312775"><ele>342.0</ele><time>2026-05-04T09:10:26.165Z</time></trkpt><trkpt lat="45.7667869" lon="8.7313055"><ele>344.0</ele><time>2026-05-04T09:10:28.165Z</time></trkpt><trkpt lat="45.7668699" lon="8.731344"><ele>346.0</ele><time>2026-05-04T09:10:30.166Z</time></trkpt><trkpt lat="45.7669518" lon="8.731385"><ele>348.0</ele><time>2026-05-04T09:10:32.166Z</time></trkpt><trkpt lat="45.7670221" lon="8.7314429"><ele>350.0</ele><time>2026-05-04T09:10:34.166Z</time></trkpt><trkpt lat="45.7670897" lon="8.7315101"><ele>352.0</ele><time>2026-05-04T09:10:36.165Z</time></trkpt><trkpt lat="45.7671534" lon="8.7315821"><ele>354.0</ele><time>2026-05-04T09:10:38.166Z</time></trkpt><trkpt lat="45.7672128" lon="8.7316534"><ele>354.0</ele><time>2026-05-04T09:10:40.166Z</time></trkpt><trkpt lat="45.7672711" lon="8.7317201"><ele>354.0</ele><time>2026-05-04T09:10:42.165Z</time></trkpt><trkpt lat="45.7673344" lon="8.7317708"><ele>354.0</ele><time>2026-05-04T09:10:44.164Z</time></trkpt><trkpt lat="45.7674057" lon="8.7318081"><ele>354.0</ele><time>2026-05-04T09:10:46.166Z</time></trkpt><trkpt lat="45.7674794" lon="8.7318231"><ele>354.0</ele><time>2026-05-04T09:10:48.164Z</time></trkpt><trkpt lat="45.7675536" lon="8.7318448"><ele>354.0</ele><time>2026-05-04T09:10:50.166Z</time></trkpt><trkpt lat="45.7676279" lon="8.7318753"><ele>354.3333333333333</ele><time>2026-05-04T09:10:52.165Z</time></trkpt><trkpt lat="45.7676863" lon="8.7319454"><ele>354.6666666666667</ele><time>2026-05-04T09:10:54.167Z</time></trkpt><trkpt lat="45.7676767" lon="8.7320525"><ele>355.0</ele><time>2026-05-04T09:10:56.165Z</time></trkpt><trkpt lat="45.7676499" lon="8.7321591"><ele>355.33333333333337</ele><time>2026-05-04T09:10:58.166Z</time></trkpt><trkpt lat="45.7676225" lon="8.7322649"><ele>355.6666666666667</ele><time>2026-05-04T09:11:00.165Z</time></trkpt><trkpt lat="45.7676006" lon="8.7323661"><ele>356.0</ele><time>2026-05-04T09:11:02.165Z</time></trkpt><trkpt lat="45.7675717" lon="8.7324725"><ele>356.0</ele><time>2026-05-04T09:11:04.166Z</time></trkpt><trkpt lat="45.7675461" lon="8.73258"><ele>356.0</ele><time>2026-05-04T09:11:06.165Z</time></trkpt><trkpt lat="45.7675135" lon="8.7326906"><ele>356.0</ele><time>2026-05-04T09:11:08.166Z</time></trkpt><trkpt lat="45.7674811" lon="8.7327945"><ele>356.0</ele><time>2026-05-04T09:11:10.165Z</time></trkpt><trkpt lat="45.7674526" lon="8.7328985"><ele>356.0</ele><time>2026-05-04T09:11:12.165Z</time></trkpt><trkpt lat="45.7674175" lon="8.7329919"><ele>356.0</ele><time>2026-05-04T09:11:14.166Z</time></trkpt><trkpt lat="45.7673775" lon="8.7330842"><ele>356.5</ele><time>2026-05-04T09:11:16.165Z</time></trkpt><trkpt lat="45.7673472" lon="8.7331826"><ele>357.0</ele><time>2026-05-04T09:11:18.165Z</time></trkpt><trkpt lat="45.7673222" lon="8.7332856"><ele>357.5</ele><time>2026-05-04T09:11:20.165Z</time></trkpt><trkpt lat="45.7672896" lon="8.7333927"><ele>358.0</ele><time>2026-05-04T09:11:22.166Z</time></trkpt><trkpt lat="45.7672565" lon="8.733499"><ele>358.5</ele><time>2026-05-04T09:11:24.165Z</time></trkpt><trkpt lat="45.7672308" lon="8.7335977"><ele>359.0</ele><time>2026-05-04T09:11:26.166Z</time></trkpt><trkpt lat="45.7672079" lon="8.7336887"><ele>359.83333333333337</ele><time>2026-05-04T09:11:28.165Z</time></trkpt><trkpt lat="45.7671932" lon="8.7337833"><ele>360.6666666666667</ele><time>2026-05-04T09:11:30.165Z</time></trkpt><trkpt lat="45.7671966" lon="8.7338908"><ele>361.5</ele><time>2026-05-04T09:11:32.166Z</time></trkpt><trkpt lat="45.7672194" lon="8.734001"><ele>362.3333333333333</ele><time>2026-05-04T09:11:34.166Z</time></trkpt><trkpt lat="45.7672544" lon="8.7341101"><ele>363.16666666666663</ele><time>2026-05-04T09:11:36.164Z</time></trkpt><trkpt lat="45.76729" lon="8.7342206"><ele>364.0</ele><time>2026-05-04T09:11:38.166Z</time></trkpt><trkpt lat="45.7673311" lon="8.7343293"><ele>364.3333333333333</ele><time>2026-05-04T09:11:40.166Z</time></trkpt><trkpt lat="45.7673677" lon="8.7344426"><ele>364.66666666666663</ele><time>2026-05-04T09:11:42.165Z</time></trkpt><trkpt lat="45.7673997" lon="8.7345573"><ele>365.0</ele><time>2026-05-04T09:11:44.165Z</time></trkpt><trkpt lat="45.7674347" lon="8.7346762"><ele>365.3333333333333</ele><time>2026-05-04T09:11:46.165Z</time></trkpt><trkpt lat="45.7674705" lon="8.7347896"><ele>365.6666666666667</ele><time>2026-05-04T09:11:48.166Z</time></trkpt><trkpt lat="45.7675011" lon="8.7349034"><ele>366.0</ele><time>2026-05-04T09:11:50.165Z</time></trkpt><trkpt lat="45.7675304" lon="8.7350108"><ele>366.0</ele><time>2026-05-04T09:11:52.166Z</time></trkpt><trkpt lat="45.7675537" lon="8.7351196"><ele>366.0</ele><time>2026-05-04T09:11:54.165Z</time></trkpt><trkpt lat="45.7675778" lon="8.7352346"><ele>366.0</ele><time>2026-05-04T09:11:56.165Z</time></trkpt><trkpt lat="45.7676097" lon="8.7353404"><ele>366.0</ele><time>2026-05-04T09:11:58.166Z</time></trkpt><trkpt lat="45.7676407" lon="8.7354406"><ele>366.0</ele><time>2026-05-04T09:12:00.165Z</time></trkpt><trkpt lat="45.7676641" lon="8.7355351"><ele>366.0</ele><time>2026-05-04T09:12:02.165Z</time></trkpt><trkpt lat="45.7676868" lon="8.7356341"><ele>367.42857142857144</ele><time>2026-05-04T09:12:04.166Z</time></trkpt><trkpt lat="45.7677115" lon="8.735739"><ele>368.8571428571429</ele><time>2026-05-04T09:12:06.166Z</time></trkpt><trkpt lat="45.7677459" lon="8.7358381"><ele>370.2857142857143</ele><time>2026-05-04T09:12:08.166Z</time></trkpt><trkpt lat="45.7677734" lon="8.7359351"><ele>371.7142857142857</ele><time>2026-05-04T09:12:10.166Z</time></trkpt><trkpt lat="45.7677976" lon="8.7360222"><ele>373.1428571428571</ele><time>2026-05-04T09:12:12.166Z</time></trkpt><trkpt lat="45.7678267" lon="8.7361272"><ele>374.57142857142856</ele><time>2026-05-04T09:12:15.164Z</time></trkpt><trkpt lat="45.7678623" lon="8.7362233"><ele>376.0</ele><time>2026-05-04T09:12:18.165Z</time></trkpt><trkpt lat="45.7679007" lon="8.7363405"><ele>376.0</ele><time>2026-05-04T09:12:21.166Z</time></trkpt><trkpt lat="45.7679266" lon="8.7364277"><ele>376.0</ele><time>2026-05-04T09:12:23.166Z</time></trkpt><trkpt lat="45.7679519" lon="8.7365198"><ele>376.0</ele><time>2026-05-04T09:12:25.166Z</time></trkpt><trkpt lat="45.7679866" lon="8.7366221"><ele>376.0</ele><time>2026-05-04T09:12:27.165Z</time></trkpt><trkpt lat="45.768019" lon="8.7367234"><ele>376.0</ele><time>2026-05-04T09:12:29.166Z</time></trkpt><trkpt lat="45.7680536" lon="8.7368238"><ele>376.0</ele><time>2026-05-04T09:12:31.165Z</time></trkpt><trkpt lat="45.768089" lon="8.7369285"><ele>376.16666666666663</ele><time>2026-05-04T09:12:33.166Z</time></trkpt><trkpt lat="45.7681216" lon="8.7370273"><ele>376.3333333333333</ele><time>2026-05-04T09:12:35.165Z</time></trkpt><trkpt lat="45.7681552" lon="8.7371256"><ele>376.5</ele><time>2026-05-04T09:12:37.166Z</time></trkpt><trkpt lat="45.7681904" lon="8.7372298"><ele>376.6666666666667</ele><time>2026-05-04T09:12:39.165Z</time></trkpt><trkpt lat="45.7682223" lon="8.737329"><ele>376.83333333333337</ele><time>2026-05-04T09:12:41.166Z</time></trkpt><trkpt lat="45.7682525" lon="8.7374247"><ele>377.0</ele><time>2026-05-04T09:12:43.166Z</time></trkpt><trkpt lat="45.768284" lon="8.7375251"><ele>377.0</ele><time>2026-05-04T09:12:45.164Z</time></trkpt><trkpt lat="45.7683109" lon="8.7376331"><ele>377.0</ele><time>2026-05-04T09:12:47.165Z</time></trkpt><trkpt lat="45.7683393" lon="8.7377427"><ele>377.0</ele><time>2026-05-04T09:12:49.165Z</time></trkpt><trkpt lat="45.7683707" lon="8.7378488"><ele>377.0</ele><time>2026-05-04T09:12:51.165Z</time></trkpt><trkpt lat="45.7683983" lon="8.7379604"><ele>377.0</ele><time>2026-05-04T09:12:53.165Z</time></trkpt><trkpt lat="45.7684255" lon="8.7380702"><ele>377.0</ele><time>2026-05-04T09:12:55.165Z</time></trkpt><trkpt lat="45.7684476" lon="8.7381799"><ele>377.83333333333337</ele><time>2026-05-04T09:12:57.164Z</time></trkpt><trkpt lat="45.7684665" lon="8.7382884"><ele>378.6666666666667</ele><time>2026-05-04T09:12:59.166Z</time></trkpt><trkpt lat="45.7684783" lon="8.738408"><ele>379.5</ele><time>2026-05-04T09:13:01.166Z</time></trkpt><trkpt lat="45.7684951" lon="8.7385273"><ele>380.3333333333333</ele><time>2026-05-04T09:13:03.166Z</time></trkpt><trkpt lat="45.7685013" lon="8.7386471"><ele>381.16666666666663</ele><time>2026-05-04T09:13:05.166Z</time></trkpt><trkpt lat="45.7685176" lon="8.7387681"><ele>382.0</ele><time>2026-05-04T09:13:07.165Z</time></trkpt><trkpt lat="45.76852" lon="8.7388862"><ele>382.3333333333333</ele><time>2026-05-04T09:13:09.165Z</time></trkpt><trkpt lat="45.7685257" lon="8.7390016"><ele>382.66666666666663</ele><time>2026-05-04T09:13:11.165Z</time></trkpt><trkpt lat="45.7685434" lon="8.7391202"><ele>383.0</ele><time>2026-05-04T09:13:13.165Z</time></trkpt><trkpt lat="45.7685532" lon="8.7392377"><ele>383.3333333333333</ele><time>2026-05-04T09:13:15.165Z</time></trkpt><trkpt lat="45.7685606" lon="8.739353"><ele>383.6666666666667</ele><time>2026-05-04T09:13:17.165Z</time></trkpt><trkpt lat="45.7685664" lon="8.7394653"><ele>384.0</ele><time>2026-05-04T09:13:19.166Z</time></trkpt><trkpt lat="45.7685739" lon="8.7395635"><ele>382.3333333333333</ele><time>2026-05-04T09:13:21.166Z</time></trkpt><trkpt lat="45.7685769" lon="8.7396555"><ele>380.6666666666667</ele><time>2026-05-04T09:13:23.166Z</time></trkpt><trkpt lat="45.7685688" lon="8.7397455"><ele>379.0</ele><time>2026-05-04T09:13:25.166Z</time></trkpt><trkpt lat="45.7685803" lon="8.739877"><ele>377.33333333333337</ele><time>2026-05-04T09:13:28.166Z</time></trkpt><trkpt lat="45.7686299" lon="8.7400345"><ele>375.6666666666667</ele><time>2026-05-04T09:13:30.166Z</time></trkpt><trkpt lat="45.7686563" lon="8.7401301"><ele>374.0</ele><time>2026-05-04T09:13:32.167Z</time></trkpt><trkpt lat="45.7687045" lon="8.7402786"><ele>373.79999999999995</ele><time>2026-05-04T09:13:34.164Z</time></trkpt><trkpt lat="45.7687491" lon="8.7404378"><ele>373.59999999999997</ele><time>2026-05-04T09:13:36.165Z</time></trkpt><trkpt lat="45.7687731" lon="8.7405782"><ele>373.4</ele><time>2026-05-04T09:13:38.165Z</time></trkpt><trkpt lat="45.7688279" lon="8.7407033"><ele>373.2</ele><time>2026-05-04T09:13:40.165Z</time></trkpt><trkpt lat="45.7688634" lon="8.740836"><ele>373.0</ele><time>2026-05-04T09:13:42.166Z</time></trkpt><trkpt lat="45.7688806" lon="8.7409254"><ele>373.0</ele><time>2026-05-04T09:13:45.164Z</time></trkpt><trkpt lat="45.7688944" lon="8.7410405"><ele>373.0</ele><time>2026-05-04T09:13:55.165Z</time></trkpt><trkpt lat="45.7689631" lon="8.7410562"><ele>373.0</ele><time>2026-05-04T09:14:17.165Z</time></trkpt><trkpt lat="45.7690689" lon="8.7410152"><ele>373.0</ele><time>2026-05-04T09:14:19.166Z</time></trkpt><trkpt lat="45.7691721" lon="8.7409619"><ele>373.0</ele><time>2026-05-04T09:14:21.166Z</time></trkpt><trkpt lat="45.7692604" lon="8.7408727"><ele>373.0</ele><time>2026-05-04T09:14:23.166Z</time></trkpt><trkpt lat="45.7693266" lon="8.7407701"><ele>373.0</ele><time>2026-05-04T09:14:25.165Z</time></trkpt><trkpt lat="45.7693699" lon="8.7406974"><ele>373.0</ele><time>2026-05-04T09:14:26.166Z</time></trkpt><trkpt lat="45.7694307" lon="8.7405477"><ele>373.0</ele><time>2026-05-04T09:14:28.163Z</time></trkpt><trkpt lat="45.7694767" lon="8.7403934"><ele>373.0</ele><time>2026-05-04T09:14:30.164Z</time></trkpt><trkpt lat="45.7695536" lon="8.7402569"><ele>371.3333333333333</ele><time>2026-05-04T09:14:32.164Z</time></trkpt><trkpt lat="45.7696646" lon="8.7402496"><ele>369.66666666666663</ele><time>2026-05-04T09:14:34.165Z</time></trkpt><trkpt lat="45.7697121" lon="8.7403276"><ele>368.0</ele><time>2026-05-04T09:14:35.165Z</time></trkpt><trkpt lat="45.7697436" lon="8.7404128"><ele>366.3333333333333</ele><time>2026-05-04T09:14:36.165Z</time></trkpt><trkpt lat="45.7697655" lon="8.740522"><ele>364.6666666666667</ele><time>2026-05-04T09:14:37.166Z</time></trkpt><trkpt lat="45.7697869" lon="8.7406385"><ele>363.0</ele><time>2026-05-04T09:14:38.165Z</time></trkpt><trkpt lat="45.7697977" lon="8.7407403"><ele>363.0</ele><time>2026-05-04T09:14:39.165Z</time></trkpt><trkpt lat="45.7698223" lon="8.7408997"><ele>363.0</ele><time>2026-05-04T09:14:41.165Z</time></trkpt><trkpt lat="45.7698477" lon="8.7410295"><ele>363.0</ele><time>2026-05-04T09:14:43.166Z</time></trkpt><trkpt lat="45.7699505" lon="8.7411288"><ele>363.0</ele><time>2026-05-04T09:14:45.165Z</time></trkpt><trkpt lat="45.7700157" lon="8.7411615"><ele>363.0</ele><time>2026-05-04T09:14:46.165Z</time></trkpt><trkpt lat="45.7701087" lon="8.7412098"><ele>362.71428571428567</ele><time>2026-05-04T09:14:48.166Z</time></trkpt><trkpt lat="45.7701769" lon="8.7412784"><ele>362.42857142857144</ele><time>2026-05-04T09:14:51.166Z</time></trkpt><trkpt lat="45.7702615" lon="8.741299"><ele>362.1428571428571</ele><time>2026-05-04T09:14:55.164Z</time></trkpt><trkpt lat="45.7703335" lon="8.7413326"><ele>361.85714285714283</ele><time>2026-05-04T09:14:57.166Z</time></trkpt><trkpt lat="45.7703937" lon="8.7413608"><ele>361.57142857142856</ele><time>2026-05-04T09:14:59.166Z</time></trkpt><trkpt lat="45.7704548" lon="8.7414142"><ele>361.2857142857143</ele><time>2026-05-04T09:15:02.165Z</time></trkpt><trkpt lat="45.7705164" lon="8.741457"><ele>361.0</ele><time>2026-05-04T09:15:06.164Z</time></trkpt><trkpt lat="45.7705816" lon="8.7414541"><ele>360.66666666666663</ele><time>2026-05-04T09:15:09.165Z</time></trkpt><trkpt lat="45.7706392" lon="8.741519"><ele>360.3333333333333</ele><time>2026-05-04T09:15:12.165Z</time></trkpt><trkpt lat="45.7706661" lon="8.7416513"><ele>360.0</ele><time>2026-05-04T09:15:14.166Z</time></trkpt><trkpt lat="45.7707085" lon="8.7417567"><ele>359.6666666666667</ele><time>2026-05-04T09:15:16.166Z</time></trkpt><trkpt lat="45.7707884" lon="8.7418623"><ele>359.33333333333337</ele><time>2026-05-04T09:15:18.166Z</time></trkpt><trkpt lat="45.7708412" lon="8.7419176"><ele>359.0</ele><time>2026-05-04T09:15:20.166Z</time></trkpt><trkpt lat="45.7709173" lon="8.7419133"><ele>359.0</ele><time>2026-05-04T09:15:21.487Z</time></trkpt><trkpt lat="45.7709549" lon="8.7417822"><ele>359.0</ele><time>2026-05-04T09:15:23.487Z</time></trkpt><trkpt lat="45.7708357" lon="8.741565"><ele>359.0</ele><time>2026-05-04T09:15:24.487Z</time></trkpt><trkpt lat="45.771155" lon="8.7417757"><ele>351.6666666666667</ele><time>2026-05-04T09:15:25.487Z</time></trkpt><trkpt lat="45.7712943" lon="8.74199"><ele>344.3333333333333</ele><time>2026-05-04T09:15:26.487Z</time></trkpt><trkpt lat="45.7713672" lon="8.7420546"><ele>337.0</ele><time>2026-05-04T09:15:27.488Z</time></trkpt><trkpt lat="45.7716392" lon="8.7421765"><ele>337.0</ele><time>2026-05-04T09:15:31.165Z</time></trkpt><trkpt lat="45.7717634" lon="8.7422259"><ele>337.0</ele><time>2026-05-04T09:15:33.165Z</time></trkpt><trkpt lat="45.7717629" lon="8.7423415"><ele>337.0</ele><time>2026-05-04T09:15:35.166Z</time></trkpt><trkpt lat="45.7717789" lon="8.7424598"><ele>337.0</ele><time>2026-05-04T09:15:37.166Z</time></trkpt><trkpt lat="45.7718219" lon="8.742561"><ele>337.0</ele><time>2026-05-04T09:15:40.166Z</time></trkpt><trkpt lat="45.7718919" lon="8.7426581"><ele>336.40000000000003</ele><time>2026-05-04T09:15:42.166Z</time></trkpt><trkpt lat="45.7719457" lon="8.7427464"><ele>335.8</ele><time>2026-05-04T09:15:44.165Z</time></trkpt><trkpt lat="45.7719676" lon="8.742847"><ele>335.2</ele><time>2026-05-04T09:15:46.165Z</time></trkpt><trkpt lat="45.7719438" lon="8.7429667"><ele>334.6</ele><time>2026-05-04T09:15:48.165Z</time></trkpt><trkpt lat="45.7718942" lon="8.7430737"><ele>334.0</ele><time>2026-05-04T09:15:50.165Z</time></trkpt><trkpt lat="45.7717795" lon="8.7431928"><ele>334.0</ele><time>2026-05-04T09:15:51.165Z</time></trkpt><trkpt lat="45.7717232" lon="8.7432679"><ele>334.0</ele><time>2026-05-04T09:15:52.166Z</time></trkpt><trkpt lat="45.771658" lon="8.7433367"><ele>334.0</ele><time>2026-05-04T09:15:53.165Z</time></trkpt><trkpt lat="45.7715906" lon="8.7434083"><ele>334.0</ele><time>2026-05-04T09:15:54.166Z</time></trkpt><trkpt lat="45.7715354" lon="8.7434769"><ele>334.0</ele><time>2026-05-04T09:15:55.166Z</time></trkpt><trkpt lat="45.7714706" lon="8.7435688"><ele>334.0</ele><time>2026-05-04T09:15:57.165Z</time></trkpt><trkpt lat="45.771463" lon="8.7436794"><ele>333.66666666666663</ele><time>2026-05-04T09:16:00.165Z</time></trkpt><trkpt lat="45.7714761" lon="8.7437739"><ele>333.3333333333333</ele><time>2026-05-04T09:16:03.166Z</time></trkpt><trkpt lat="45.7715114" lon="8.7438641"><ele>333.0</ele><time>2026-05-04T09:16:05.165Z</time></trkpt><trkpt lat="45.7715699" lon="8.7438038"><ele>332.6666666666667</ele><time>2026-05-04T09:16:06.165Z</time></trkpt><trkpt lat="45.7716498" lon="8.7437708"><ele>332.33333333333337</ele><time>2026-05-04T09:16:09.166Z</time></trkpt><trkpt lat="45.7717194" lon="8.7437636"><ele>332.0</ele><time>2026-05-04T09:16:12.164Z</time></trkpt><trkpt lat="45.7718091" lon="8.7438123"><ele>333.57142857142856</ele><time>2026-05-04T09:16:15.164Z</time></trkpt><trkpt lat="45.7718737" lon="8.7438786"><ele>335.14285714285717</ele><time>2026-05-04T09:16:18.165Z</time></trkpt><trkpt lat="45.7719323" lon="8.743916"><ele>336.7142857142857</ele><time>2026-05-04T09:16:20.166Z</time></trkpt><trkpt lat="45.7720099" lon="8.7439433"><ele>338.2857142857143</ele><time>2026-05-04T09:16:22.164Z</time></trkpt><trkpt lat="45.7720877" lon="8.7439379"><ele>339.8571428571429</ele><time>2026-05-04T09:16:25.164Z</time></trkpt><trkpt lat="45.772137" lon="8.743998"><ele>341.42857142857144</ele><time>2026-05-04T09:16:28.163Z</time></trkpt><trkpt lat="45.7721868" lon="8.7440807"><ele>343.0</ele><time>2026-05-04T09:16:32.167Z</time></trkpt><trkpt lat="45.7722139" lon="8.7441771"><ele>343.0</ele><time>2026-05-04T09:16:35.164Z</time></trkpt><trkpt lat="45.7721996" lon="8.74429"><ele>343.0</ele><time>2026-05-04T09:16:37.163Z</time></trkpt><trkpt lat="45.7721965" lon="8.7444067"><ele>343.0</ele><time>2026-05-04T09:16:39.165Z</time></trkpt><trkpt lat="45.7722087" lon="8.7445139"><ele>343.0</ele><time>2026-05-04T09:16:41.165Z</time></trkpt><trkpt lat="45.7722167" lon="8.7446184"><ele>343.0</ele><time>2026-05-04T09:16:43.164Z</time></trkpt><trkpt lat="45.7722266" lon="8.7447261"><ele>343.0</ele><time>2026-05-04T09:16:45.164Z</time></trkpt><trkpt lat="45.7722435" lon="8.7448321"><ele>344.3333333333333</ele><time>2026-05-04T09:16:47.165Z</time></trkpt><trkpt lat="45.772277" lon="8.7449405"><ele>345.66666666666663</ele><time>2026-05-04T09:16:49.165Z</time></trkpt><trkpt lat="45.7723347" lon="8.7450302"><ele>347.0</ele><time>2026-05-04T09:16:51.164Z</time></trkpt><trkpt lat="45.7724112" lon="8.7450603"><ele>348.3333333333333</ele><time>2026-05-04T09:16:53.164Z</time></trkpt><trkpt lat="45.7724869" lon="8.7450089"><ele>349.6666666666667</ele><time>2026-05-04T09:16:56.164Z</time></trkpt><trkpt lat="45.7725674" lon="8.7449488"><ele>351.0</ele><time>2026-05-04T09:16:59.164Z</time></trkpt><trkpt lat="45.7726565" lon="8.7449079"><ele>352.00000000000006</ele><time>2026-05-04T09:17:02.164Z</time></trkpt><trkpt lat="45.7727391" lon="8.7449029"><ele>353.0</ele><time>2026-05-04T09:17:05.166Z</time></trkpt><trkpt lat="45.7728049" lon="8.7449139"><ele>354.0</ele><time>2026-05-04T09:17:07.165Z</time></trkpt><trkpt lat="45.7728785" lon="8.7449245"><ele>355.0</ele><time>2026-05-04T09:17:09.165Z</time></trkpt><trkpt lat="45.7729498" lon="8.7449346"><ele>356.0</ele><time>2026-05-04T09:17:11.166Z</time></trkpt><trkpt lat="45.7730133" lon="8.7449264"><ele>357.00000000000006</ele><time>2026-05-04T09:17:13.166Z</time></trkpt><trkpt lat="45.7730969" lon="8.7449103"><ele>358.0</ele><time>2026-05-04T09:17:16.165Z</time></trkpt><trkpt lat="45.7731825" lon="8.7448951"><ele>358.0</ele><time>2026-05-04T09:17:19.165Z</time></trkpt><trkpt lat="45.7732742" lon="8.7448816"><ele>358.0</ele><time>2026-05-04T09:17:22.166Z</time></trkpt><trkpt lat="45.7733556" lon="8.7448347"><ele>358.0</ele><time>2026-05-04T09:17:25.165Z</time></trkpt><trkpt lat="45.773408" lon="8.7447679"><ele>358.0</ele><time>2026-05-04T09:17:27.165Z</time></trkpt><trkpt lat="45.7734544" lon="8.7446897"><ele>358.0</ele><time>2026-05-04T09:17:29.165Z</time></trkpt><trkpt lat="45.7735015" lon="8.744613"><ele>358.0</ele><time>2026-05-04T09:17:31.165Z</time></trkpt><trkpt lat="45.7735515" lon="8.7445313"><ele>358.66666666666663</ele><time>2026-05-04T09:17:33.165Z</time></trkpt><trkpt lat="45.7736095" lon="8.7444649"><ele>359.3333333333333</ele><time>2026-05-04T09:17:35.165Z</time></trkpt><trkpt lat="45.7736644" lon="8.7444076"><ele>360.0</ele><time>2026-05-04T09:17:37.166Z</time></trkpt><trkpt lat="45.7737256" lon="8.7443684"><ele>360.6666666666667</ele><time>2026-05-04T09:17:39.165Z</time></trkpt><trkpt lat="45.7738089" lon="8.7443382"><ele>361.33333333333337</ele><time>2026-05-04T09:17:42.166Z</time></trkpt><trkpt lat="45.773886" lon="8.7443124"><ele>362.0</ele><time>2026-05-04T09:17:45.165Z</time></trkpt><trkpt lat="45.7739694" lon="8.7442574"><ele>362.0</ele><time>2026-05-04T09:17:48.165Z</time></trkpt><trkpt lat="45.7740438" lon="8.7442094"><ele>362.0</ele><time>2026-05-04T09:17:51.165Z</time></trkpt><trkpt lat="45.7741196" lon="8.7441581"><ele>362.0</ele><time>2026-05-04T09:17:54.165Z</time></trkpt><trkpt lat="45.7741805" lon="8.7441279"><ele>362.0</ele><time>2026-05-04T09:17:56.164Z</time></trkpt><trkpt lat="45.7742471" lon="8.7441159"><ele>362.0</ele><time>2026-05-04T09:17:58.165Z</time></trkpt><trkpt lat="45.7743161" lon="8.7441066"><ele>362.0</ele><time>2026-05-04T09:18:00.165Z</time></trkpt><trkpt lat="45.774385" lon="8.7441176"><ele>362.0</ele><time>2026-05-04T09:18:02.166Z</time></trkpt><trkpt lat="45.7744462" lon="8.744149"><ele>362.0</ele><time>2026-05-04T09:18:04.166Z</time></trkpt><trkpt lat="45.774561" lon="8.7442402"><ele>362.0</ele><time>2026-05-04T09:18:14.165Z</time></trkpt><trkpt lat="45.7745236" lon="8.744318"><ele>362.0</ele><time>2026-05-04T09:18:23.193Z</time></trkpt><trkpt lat="45.7744502" lon="8.7443592"><ele>362.0</ele><time>2026-05-04T09:18:26.163Z</time></trkpt><trkpt lat="45.7743907" lon="8.7444085"><ele>362.0</ele><time>2026-05-04T09:18:32.165Z</time></trkpt><trkpt lat="45.7743496" lon="8.7444811"><ele>362.0</ele><time>2026-05-04T09:18:36.166Z</time></trkpt><trkpt lat="45.7742619" lon="8.7447244"><ele>362.42857142857144</ele><time>2026-05-04T09:18:40.165Z</time></trkpt><trkpt lat="45.7742245" lon="8.7448096"><ele>362.85714285714283</ele><time>2026-05-04T09:18:42.166Z</time></trkpt><trkpt lat="45.7741889" lon="8.744903"><ele>363.28571428571433</ele><time>2026-05-04T09:18:44.165Z</time></trkpt><trkpt lat="45.7741427" lon="8.7449865"><ele>363.7142857142857</ele><time>2026-05-04T09:18:46.166Z</time></trkpt><trkpt lat="45.7740868" lon="8.7450749"><ele>364.14285714285717</ele><time>2026-05-04T09:18:49.165Z</time></trkpt><trkpt lat="45.7740507" lon="8.7451497"><ele>364.5714285714286</ele><time>2026-05-04T09:18:52.165Z</time></trkpt><trkpt lat="45.7740014" lon="8.7452401"><ele>365.0</ele><time>2026-05-04T09:18:55.164Z</time></trkpt><trkpt lat="45.7739448" lon="8.7453361"><ele>363.33333333333337</ele><time>2026-05-04T09:18:57.166Z</time></trkpt><trkpt lat="45.7738879" lon="8.745427"><ele>361.6666666666667</ele><time>2026-05-04T09:18:58.164Z</time></trkpt><trkpt lat="45.7738316" lon="8.7454943"><ele>360.0</ele><time>2026-05-04T09:19:33.165Z</time></trkpt><trkpt lat="45.7737696" lon="8.7455471"><ele>358.3333333333333</ele><time>2026-05-04T09:19:36.165Z</time></trkpt><trkpt lat="45.7737155" lon="8.7456149"><ele>356.66666666666663</ele><time>2026-05-04T09:19:39.165Z</time></trkpt><trkpt lat="45.7736638" lon="8.7456887"><ele>355.0</ele><time>2026-05-04T09:19:42.165Z</time></trkpt><trkpt lat="45.7736163" lon="8.7457728"><ele>355.0</ele><time>2026-05-04T09:19:45.164Z</time></trkpt><trkpt lat="45.7735626" lon="8.7458398"><ele>355.0</ele><time>2026-05-04T09:19:48.165Z</time></trkpt><trkpt lat="45.7735127" lon="8.7459095"><ele>355.0</ele><time>2026-05-04T09:19:51.166Z</time></trkpt><trkpt lat="45.7734579" lon="8.7459736"><ele>355.0</ele><time>2026-05-04T09:19:54.164Z</time></trkpt><trkpt lat="45.7734075" lon="8.7460289"><ele>355.0</ele><time>2026-05-04T09:19:57.164Z</time></trkpt><trkpt lat="45.7733464" lon="8.7461095"><ele>355.0</ele><time>2026-05-04T09:20:18.166Z</time></trkpt><trkpt lat="45.7732704" lon="8.7461854"><ele>356.0</ele><time>2026-05-04T09:20:21.167Z</time></trkpt><trkpt lat="45.7732017" lon="8.7462539"><ele>357.0</ele><time>2026-05-04T09:20:24.166Z</time></trkpt><trkpt lat="45.7731378" lon="8.7462945"><ele>358.0</ele><time>2026-05-04T09:20:30.165Z</time></trkpt><trkpt lat="45.7730698" lon="8.7463081"><ele>359.0</ele><time>2026-05-04T09:20:34.165Z</time></trkpt><trkpt lat="45.7731329" lon="8.7463187"><ele>360.0</ele><time>2026-05-04T09:20:45.165Z</time></trkpt><trkpt lat="45.7732022" lon="8.7462986"><ele>361.0</ele><time>2026-05-04T09:20:49.165Z</time></trkpt><trkpt lat="45.7733124" lon="8.7462224"><ele>361.0</ele><time>2026-05-04T09:20:52.165Z</time></trkpt><trkpt lat="45.7733799" lon="8.7461588"><ele>361.0</ele><time>2026-05-04T09:20:54.164Z</time></trkpt><trkpt lat="45.7734488" lon="8.7460238"><ele>361.0</ele><time>2026-05-04T09:20:56.166Z</time></trkpt><trkpt lat="45.7735173" lon="8.7459509"><ele>361.0</ele><time>2026-05-04T09:20:58.166Z</time></trkpt><trkpt lat="45.7736058" lon="8.7458617"><ele>361.0</ele><time>2026-05-04T09:21:00.166Z</time></trkpt><trkpt lat="45.7736602" lon="8.745792"><ele>360.0</ele><time>2026-05-04T09:21:02.166Z</time></trkpt><trkpt lat="45.7737079" lon="8.7457235"><ele>359.0</ele><time>2026-05-04T09:21:04.164Z</time></trkpt><trkpt lat="45.773792" lon="8.745639"><ele>358.0</ele><time>2026-05-04T09:21:06.164Z</time></trkpt><trkpt lat="45.7738511" lon="8.7455533"><ele>357.0</ele><time>2026-05-04T09:21:08.165Z</time></trkpt><trkpt lat="45.773882" lon="8.7454642"><ele>356.0</ele><time>2026-05-04T09:21:10.164Z</time></trkpt><trkpt lat="45.7739322" lon="8.7453542"><ele>355.0</ele><time>2026-05-04T09:21:13.165Z</time></trkpt><trkpt lat="45.7739848" lon="8.7453029"><ele>355.0</ele><time>2026-05-04T09:21:16.165Z</time></trkpt><trkpt lat="45.774058" lon="8.7453167"><ele>355.0</ele><time>2026-05-04T09:21:34.164Z</time></trkpt><trkpt lat="45.774116" lon="8.7454031"><ele>355.0</ele><time>2026-05-04T09:21:37.165Z</time></trkpt><trkpt lat="45.7741767" lon="8.7454999"><ele>355.0</ele><time>2026-05-04T09:21:40.166Z</time></trkpt><trkpt lat="45.774224" lon="8.7455913"><ele>355.0</ele><time>2026-05-04T09:21:43.166Z</time></trkpt><trkpt lat="45.7742695" lon="8.7456993"><ele>355.0</ele><time>2026-05-04T09:21:46.165Z</time></trkpt><trkpt lat="45.7743254" lon="8.7457692"><ele>352.8333333333333</ele><time>2026-05-04T09:21:48.165Z</time></trkpt><trkpt lat="45.7743763" lon="8.7458602"><ele>350.66666666666663</ele><time>2026-05-04T09:21:50.165Z</time></trkpt><trkpt lat="45.7744123" lon="8.7459738"><ele>348.5</ele><time>2026-05-04T09:21:52.164Z</time></trkpt><trkpt lat="45.7744284" lon="8.7460922"><ele>346.3333333333333</ele><time>2026-05-04T09:21:54.165Z</time></trkpt><trkpt lat="45.7744319" lon="8.7461857"><ele>344.1666666666667</ele><time>2026-05-04T09:21:56.165Z</time></trkpt><trkpt lat="45.7744175" lon="8.7462889"><ele>342.0</ele><time>2026-05-04T09:21:58.165Z</time></trkpt><trkpt lat="45.7743905" lon="8.7464031"><ele>341.8333333333333</ele><time>2026-05-04T09:22:00.165Z</time></trkpt><trkpt lat="45.7743563" lon="8.746538"><ele>341.6666666666667</ele><time>2026-05-04T09:22:02.165Z</time></trkpt><trkpt lat="45.7743491" lon="8.7466586"><ele>341.5</ele><time>2026-05-04T09:22:04.166Z</time></trkpt><trkpt lat="45.7743647" lon="8.7468034"><ele>341.33333333333337</ele><time>2026-05-04T09:22:06.166Z</time></trkpt><trkpt lat="45.7743817" lon="8.7469123"><ele>341.1666666666667</ele><time>2026-05-04T09:22:08.165Z</time></trkpt><trkpt lat="45.7744505" lon="8.7469229"><ele>341.0</ele><time>2026-05-04T09:22:11.165Z</time></trkpt><trkpt lat="45.7745237" lon="8.7469191"><ele>337.6</ele><time>2026-05-04T09:22:15.163Z</time></trkpt><trkpt lat="45.7745865" lon="8.7468035"><ele>334.20000000000005</ele><time>2026-05-04T09:22:18.165Z</time></trkpt><trkpt lat="45.7746469" lon="8.7467503"><ele>330.79999999999995</ele><time>2026-05-04T09:22:20.166Z</time></trkpt><trkpt lat="45.7746963" lon="8.7466791"><ele>327.4</ele><time>2026-05-04T09:22:22.166Z</time></trkpt><trkpt lat="45.7748328" lon="8.7467521"><ele>324.0</ele><time>2026-05-04T09:22:24.166Z</time></trkpt><trkpt lat="45.7749062" lon="8.7467953"><ele>321.8333333333333</ele><time>2026-05-04T09:22:25.166Z</time></trkpt><trkpt lat="45.7749644" lon="8.7468971"><ele>319.6666666666667</ele><time>2026-05-04T09:22:26.165Z</time></trkpt><trkpt lat="45.7749507" lon="8.7469893"><ele>317.5</ele><time>2026-05-04T09:22:27.166Z</time></trkpt><trkpt lat="45.7750149" lon="8.7470829"><ele>315.33333333333337</ele><time>2026-05-04T09:22:28.166Z</time></trkpt><trkpt lat="45.7750118" lon="8.7471932"><ele>313.1666666666667</ele><time>2026-05-04T09:22:29.165Z</time></trkpt><trkpt lat="45.7750462" lon="8.7473562"><ele>311.0</ele><time>2026-05-04T09:22:31.165Z</time></trkpt><trkpt lat="45.7750881" lon="8.7474277"><ele>311.0</ele><time>2026-05-04T09:22:32.165Z</time></trkpt><trkpt lat="45.7751511" lon="8.747507"><ele>311.0</ele><time>2026-05-04T09:22:35.165Z</time></trkpt><trkpt lat="45.7752368" lon="8.7475003"><ele>311.0</ele><time>2026-05-04T09:22:37.166Z</time></trkpt><trkpt lat="45.7753351" lon="8.7475249"><ele>311.0</ele><time>2026-05-04T09:22:39.166Z</time></trkpt><trkpt lat="45.7754292" lon="8.7475114"><ele>311.0</ele><time>2026-05-04T09:22:41.165Z</time></trkpt><trkpt lat="45.7755243" lon="8.747552"><ele>312.2</ele><time>2026-05-04T09:22:43.165Z</time></trkpt><trkpt lat="45.7756044" lon="8.7475754"><ele>313.40000000000003</ele><time>2026-05-04T09:22:45.166Z</time></trkpt><trkpt lat="45.7756992" lon="8.747664"><ele>314.6</ele><time>2026-05-04T09:22:47.165Z</time></trkpt><trkpt lat="45.7757751" lon="8.7477751"><ele>315.8</ele><time>2026-05-04T09:22:49.165Z</time></trkpt><trkpt lat="45.7758494" lon="8.747879"><ele>317.0</ele><time>2026-05-04T09:22:51.164Z</time></trkpt><trkpt lat="45.7758897" lon="8.748008"><ele>317.0</ele><time>2026-05-04T09:22:53.166Z</time></trkpt><trkpt lat="45.7759175" lon="8.7481027"><ele>317.0</ele><time>2026-05-04T09:22:55.165Z</time></trkpt><trkpt lat="45.775931" lon="8.7482005"><ele>317.0</ele><time>2026-05-04T09:22:57.166Z</time></trkpt><trkpt lat="45.7759419" lon="8.7483307"><ele>317.0</ele><time>2026-05-04T09:22:59.165Z</time></trkpt><trkpt lat="45.7759562" lon="8.7484642"><ele>317.0</ele><time>2026-05-04T09:23:01.166Z</time></trkpt><trkpt lat="45.7759799" lon="8.7486157"><ele>317.0</ele><time>2026-05-04T09:23:03.166Z</time></trkpt><trkpt lat="45.7760223" lon="8.7487352"><ele>316.6666666666667</ele><time>2026-05-04T09:23:05.165Z</time></trkpt><trkpt lat="45.7760611" lon="8.7488334"><ele>316.33333333333337</ele><time>2026-05-04T09:23:07.165Z</time></trkpt><trkpt lat="45.7760906" lon="8.7489448"><ele>316.0</ele><time>2026-05-04T09:23:10.166Z</time></trkpt><trkpt lat="45.7760793" lon="8.7490365"><ele>315.6666666666667</ele><time>2026-05-04T09:23:12.164Z</time></trkpt><trkpt lat="45.7760517" lon="8.7491444"><ele>315.3333333333333</ele><time>2026-05-04T09:23:14.166Z</time></trkpt><trkpt lat="45.7759917" lon="8.7492827"><ele>315.0</ele><time>2026-05-04T09:23:16.165Z</time></trkpt><trkpt lat="45.7759598" lon="8.7493805"><ele>315.0</ele><time>2026-05-04T09:23:18.165Z</time></trkpt><trkpt lat="45.775887" lon="8.7494143"><ele>315.0</ele><time>2026-05-04T09:23:20.165Z</time></trkpt><trkpt lat="45.77579" lon="8.7494241"><ele>315.0</ele><time>2026-05-04T09:23:22.166Z</time></trkpt><trkpt lat="45.7756953" lon="8.7494126"><ele>315.0</ele><time>2026-05-04T09:23:23.166Z</time></trkpt><trkpt lat="45.7755694" lon="8.7494323"><ele>315.0</ele><time>2026-05-04T09:23:25.166Z</time></trkpt><trkpt lat="45.7754451" lon="8.7494477"><ele>315.0</ele><time>2026-05-04T09:23:27.166Z</time></trkpt><trkpt lat="45.7753363" lon="8.7494824"><ele>315.0</ele><time>2026-05-04T09:23:29.166Z</time></trkpt><trkpt lat="45.7752306" lon="8.7495091"><ele>315.0</ele><time>2026-05-04T09:23:31.166Z</time></trkpt><trkpt lat="45.7751398" lon="8.7495392"><ele>315.0</ele><time>2026-05-04T09:23:33.166Z</time></trkpt><trkpt lat="45.7750613" lon="8.7495629"><ele>315.0</ele><time>2026-05-04T09:23:35.165Z</time></trkpt><trkpt lat="45.7749938" lon="8.7496068"><ele>314.0</ele><time>2026-05-04T09:23:37.165Z</time></trkpt><trkpt lat="45.7749237" lon="8.7497016"><ele>313.0</ele><time>2026-05-04T09:23:40.166Z</time></trkpt><trkpt lat="45.774865" lon="8.7497576"><ele>312.0</ele><time>2026-05-04T09:23:42.165Z</time></trkpt><trkpt lat="45.7747859" lon="8.7498384"><ele>311.0</ele><time>2026-05-04T09:23:44.166Z</time></trkpt><trkpt lat="45.7747289" lon="8.7498963"><ele>310.0</ele><time>2026-05-04T09:23:45.166Z</time></trkpt><trkpt lat="45.7745899" lon="8.750033"><ele>310.0</ele><time>2026-05-04T09:23:47.165Z</time></trkpt><trkpt lat="45.7745269" lon="8.7500416"><ele>310.0</ele><time>2026-05-04T09:23:48.165Z</time></trkpt><trkpt lat="45.7744794" lon="8.7501096"><ele>310.0</ele><time>2026-05-04T09:23:49.165Z</time></trkpt><trkpt lat="45.7744019" lon="8.7501693"><ele>310.0</ele><time>2026-05-04T09:23:51.166Z</time></trkpt><trkpt lat="45.7742992" lon="8.7502849"><ele>310.0</ele><time>2026-05-04T09:23:53.165Z</time></trkpt><trkpt lat="45.774214" lon="8.7503698"><ele>310.5</ele><time>2026-05-04T09:23:55.165Z</time></trkpt><trkpt lat="45.7741363" lon="8.7504609"><ele>311.0</ele><time>2026-05-04T09:23:57.166Z</time></trkpt><trkpt lat="45.7740936" lon="8.7505341"><ele>311.5</ele><time>2026-05-04T09:23:58.166Z</time></trkpt><trkpt lat="45.7740362" lon="8.7506174"><ele>312.0</ele><time>2026-05-04T09:24:00.165Z</time></trkpt><trkpt lat="45.7739878" lon="8.7506963"><ele>312.5</ele><time>2026-05-04T09:24:01.165Z</time></trkpt><trkpt lat="45.7738982" lon="8.7507565"><ele>313.0</ele><time>2026-05-04T09:24:03.165Z</time></trkpt><trkpt lat="45.7738006" lon="8.7508668"><ele>313.0</ele><time>2026-05-04T09:24:04.166Z</time></trkpt><trkpt lat="45.7737364" lon="8.7509347"><ele>313.0</ele><time>2026-05-04T09:24:06.166Z</time></trkpt><trkpt lat="45.7736806" lon="8.751019"><ele>313.0</ele><time>2026-05-04T09:24:08.165Z</time></trkpt><trkpt lat="45.7735777" lon="8.751115"><ele>313.0</ele><time>2026-05-04T09:24:10.164Z</time></trkpt><trkpt lat="45.7735208" lon="8.7511645"><ele>313.0</ele><time>2026-05-04T09:24:11.166Z</time></trkpt><trkpt lat="45.7734275" lon="8.7512589"><ele>312.4</ele><time>2026-05-04T09:24:13.165Z</time></trkpt><trkpt lat="45.7733342" lon="8.7513477"><ele>311.8</ele><time>2026-05-04T09:24:15.166Z</time></trkpt><trkpt lat="45.77325" lon="8.7514343"><ele>311.2</ele><time>2026-05-04T09:24:17.165Z</time></trkpt><trkpt lat="45.7731641" lon="8.7515326"><ele>310.6</ele><time>2026-05-04T09:24:19.165Z</time></trkpt><trkpt lat="45.7730722" lon="8.7516457"><ele>310.0</ele><time>2026-05-04T09:24:21.166Z</time></trkpt><trkpt lat="45.7730139" lon="8.7517097"><ele>310.0</ele><time>2026-05-04T09:24:22.165Z</time></trkpt><trkpt lat="45.7729486" lon="8.7518328"><ele>310.0</ele><time>2026-05-04T09:24:24.166Z</time></trkpt><trkpt lat="45.7728731" lon="8.7519485"><ele>310.0</ele><time>2026-05-04T09:24:26.165Z</time></trkpt><trkpt lat="45.7727989" lon="8.7520569"><ele>310.0</ele><time>2026-05-04T09:24:28.165Z</time></trkpt><trkpt lat="45.7727142" lon="8.7521311"><ele>310.0</ele><time>2026-05-04T09:24:29.165Z</time></trkpt><trkpt lat="45.772656" lon="8.7522601"><ele>308.8</ele><time>2026-05-04T09:24:31.166Z</time></trkpt><trkpt lat="45.7726068" lon="8.7523809"><ele>307.6</ele><time>2026-05-04T09:24:33.166Z</time></trkpt><trkpt lat="45.7725424" lon="8.7525112"><ele>306.4</ele><time>2026-05-04T09:24:35.166Z</time></trkpt><trkpt lat="45.7724977" lon="8.7525866"><ele>305.2</ele><time>2026-05-04T09:24:36.165Z</time></trkpt><trkpt lat="45.7724126" lon="8.7527725"><ele>304.0</ele><time>2026-05-04T09:24:38.165Z</time></trkpt><trkpt lat="45.772339" lon="8.7528723"><ele>305.2</ele><time>2026-05-04T09:24:40.166Z</time></trkpt><trkpt lat="45.7722196" lon="8.7529457"><ele>306.4</ele><time>2026-05-04T09:24:42.165Z</time></trkpt><trkpt lat="45.7720962" lon="8.7529637"><ele>307.6</ele><time>2026-05-04T09:24:44.165Z</time></trkpt><trkpt lat="45.7720303" lon="8.7529823"><ele>308.8</ele><time>2026-05-04T09:24:45.166Z</time></trkpt><trkpt lat="45.7719274" lon="8.7529997"><ele>310.0</ele><time>2026-05-04T09:24:47.166Z</time></trkpt><trkpt lat="45.771823" lon="8.7530349"><ele>310.0</ele><time>2026-05-04T09:24:49.165Z</time></trkpt><trkpt lat="45.7717356" lon="8.7530647"><ele>310.0</ele><time>2026-05-04T09:24:51.166Z</time></trkpt><trkpt lat="45.7716768" lon="8.7531058"><ele>310.0</ele><time>2026-05-04T09:24:52.166Z</time></trkpt><trkpt lat="45.7715979" lon="8.7531574"><ele>310.0</ele><time>2026-05-04T09:24:54.165Z</time></trkpt><trkpt lat="45.7715093" lon="8.7531827"><ele>310.0</ele><time>2026-05-04T09:24:56.166Z</time></trkpt><trkpt lat="45.7713811" lon="8.7532122"><ele>310.0</ele><time>2026-05-04T09:24:57.166Z</time></trkpt><trkpt lat="45.7713406" lon="8.7533111"><ele>310.0</ele><time>2026-05-04T09:24:59.165Z</time></trkpt><trkpt lat="45.7712711" lon="8.7533933"><ele>310.0</ele><time>2026-05-04T09:25:03.165Z</time></trkpt><trkpt lat="45.7711937" lon="8.7534657"><ele>310.0</ele><time>2026-05-04T09:25:05.165Z</time></trkpt><trkpt lat="45.7711294" lon="8.7535262"><ele>310.0</ele><time>2026-05-04T09:25:07.165Z</time></trkpt><trkpt lat="45.7710557" lon="8.7535815"><ele>310.0</ele><time>2026-05-04T09:25:09.165Z</time></trkpt><trkpt lat="45.7709775" lon="8.7536527"><ele>310.16666666666663</ele><time>2026-05-04T09:25:11.165Z</time></trkpt><trkpt lat="45.7709141" lon="8.753708"><ele>310.3333333333333</ele><time>2026-05-04T09:25:13.166Z</time></trkpt><trkpt lat="45.7708462" lon="8.7537526"><ele>310.5</ele><time>2026-05-04T09:25:15.165Z</time></trkpt><trkpt lat="45.7707846" lon="8.7538152"><ele>310.6666666666667</ele><time>2026-05-04T09:25:17.165Z</time></trkpt><trkpt lat="45.7707032" lon="8.7538715"><ele>310.83333333333337</ele><time>2026-05-04T09:25:19.166Z</time></trkpt><trkpt lat="45.7706099" lon="8.7539307"><ele>311.0</ele><time>2026-05-04T09:25:21.165Z</time></trkpt><trkpt lat="45.7705237" lon="8.7539835"><ele>311.0</ele><time>2026-05-04T09:25:23.165Z</time></trkpt><trkpt lat="45.7704218" lon="8.7540828"><ele>311.0</ele><time>2026-05-04T09:25:25.166Z</time></trkpt><trkpt lat="45.7703258" lon="8.7541838"><ele>311.0</ele><time>2026-05-04T09:25:27.165Z</time></trkpt><trkpt lat="45.7703216" lon="8.754344"><ele>311.0</ele><time>2026-05-04T09:25:30.165Z</time></trkpt><trkpt lat="45.770325" lon="8.7544537"><ele>311.0</ele><time>2026-05-04T09:25:32.165Z</time></trkpt><trkpt lat="45.7703355" lon="8.7545534"><ele>311.83333333333337</ele><time>2026-05-04T09:25:34.164Z</time></trkpt><trkpt lat="45.770351" lon="8.7546709"><ele>312.6666666666667</ele><time>2026-05-04T09:25:36.167Z</time></trkpt><trkpt lat="45.7703748" lon="8.7547824"><ele>313.5</ele><time>2026-05-04T09:25:39.164Z</time></trkpt><trkpt lat="45.7704001" lon="8.754905"><ele>314.3333333333333</ele><time>2026-05-04T09:25:42.166Z</time></trkpt><trkpt lat="45.7704339" lon="8.755009"><ele>315.16666666666663</ele><time>2026-05-04T09:25:46.165Z</time></trkpt><trkpt lat="45.7704508" lon="8.7550967"><ele>316.0</ele><time>2026-05-04T09:25:49.165Z</time></trkpt><trkpt lat="45.7704706" lon="8.7551902"><ele>315.0</ele><time>2026-05-04T09:25:52.165Z</time></trkpt><trkpt lat="45.7704925" lon="8.7553079"><ele>314.0</ele><time>2026-05-04T09:25:55.165Z</time></trkpt><trkpt lat="45.7705045" lon="8.7554628"><ele>313.0</ele><time>2026-05-04T09:25:57.165Z</time></trkpt><trkpt lat="45.7705157" lon="8.7556136"><ele>312.0</ele><time>2026-05-04T09:25:59.165Z</time></trkpt><trkpt lat="45.7705363" lon="8.7557696"><ele>311.0</ele><time>2026-05-04T09:26:01.165Z</time></trkpt><trkpt lat="45.7705367" lon="8.7559568"><ele>308.2</ele><time>2026-05-04T09:26:02.165Z</time></trkpt><trkpt lat="45.7705282" lon="8.7560708"><ele>305.40000000000003</ele><time>2026-05-04T09:26:04.165Z</time></trkpt><trkpt lat="45.7703634" lon="8.7560818"><ele>302.6</ele><time>2026-05-04T09:26:08.165Z</time></trkpt><trkpt lat="45.7702976" lon="8.7560642"><ele>299.8</ele><time>2026-05-04T09:26:09.166Z</time></trkpt><trkpt lat="45.7702057" lon="8.7560968"><ele>297.0</ele><time>2026-05-04T09:26:11.166Z</time></trkpt><trkpt lat="45.7700988" lon="8.7561397"><ele>295.6</ele><time>2026-05-04T09:26:13.164Z</time></trkpt><trkpt lat="45.7700056" lon="8.7561775"><ele>294.2</ele><time>2026-05-04T09:26:15.164Z</time></trkpt><trkpt lat="45.7698985" lon="8.7562116"><ele>292.8</ele><time>2026-05-04T09:26:17.165Z</time></trkpt><trkpt lat="45.7697964" lon="8.7562518"><ele>291.4</ele><time>2026-05-04T09:26:19.165Z</time></trkpt><trkpt lat="45.7696943" lon="8.7562729"><ele>290.0</ele><time>2026-05-04T09:26:21.165Z</time></trkpt><trkpt lat="45.7696011" lon="8.7562714"><ele>290.0</ele><time>2026-05-04T09:26:23.164Z</time></trkpt><trkpt lat="45.7694964" lon="8.7562363"><ele>290.0</ele><time>2026-05-04T09:26:25.164Z</time></trkpt><trkpt lat="45.7693965" lon="8.7561837"><ele>290.0</ele><time>2026-05-04T09:26:27.166Z</time></trkpt><trkpt lat="45.7693065" lon="8.7561268"><ele>290.0</ele><time>2026-05-04T09:26:29.165Z</time></trkpt><trkpt lat="45.7692275" lon="8.7560516"><ele>290.0</ele><time>2026-05-04T09:26:31.165Z</time></trkpt><trkpt lat="45.7691459" lon="8.7559837"><ele>290.8</ele><time>2026-05-04T09:26:33.166Z</time></trkpt><trkpt lat="45.769063" lon="8.7559098"><ele>291.6</ele><time>2026-05-04T09:26:35.166Z</time></trkpt><trkpt lat="45.7689773" lon="8.7558506"><ele>292.4</ele><time>2026-05-04T09:26:37.166Z</time></trkpt><trkpt lat="45.7688832" lon="8.7558189"><ele>293.2</ele><time>2026-05-04T09:26:39.166Z</time></trkpt><trkpt lat="45.7687765" lon="8.7557988"><ele>294.0</ele><time>2026-05-04T09:26:41.165Z</time></trkpt><trkpt lat="45.7686716" lon="8.755774"><ele>294.0</ele><time>2026-05-04T09:26:43.166Z</time></trkpt><trkpt lat="45.7685632" lon="8.7557571"><ele>294.0</ele><time>2026-05-04T09:26:45.164Z</time></trkpt><trkpt lat="45.7684419" lon="8.7557423"><ele>294.0</ele><time>2026-05-04T09:26:47.164Z</time></trkpt><trkpt lat="45.7683324" lon="8.7557215"><ele>294.0</ele><time>2026-05-04T09:26:49.165Z</time></trkpt><trkpt lat="45.7682245" lon="8.7557034"><ele>293.4</ele><time>2026-05-04T09:26:51.164Z</time></trkpt><trkpt lat="45.7681077" lon="8.7556909"><ele>292.79999999999995</ele><time>2026-05-04T09:26:53.164Z</time></trkpt><trkpt lat="45.7679908" lon="8.7556627"><ele>292.20000000000005</ele><time>2026-05-04T09:26:55.166Z</time></trkpt><trkpt lat="45.7678924" lon="8.7556361"><ele>291.6</ele><time>2026-05-04T09:26:57.164Z</time></trkpt><trkpt lat="45.7677823" lon="8.755621"><ele>291.0</ele><time>2026-05-04T09:26:59.166Z</time></trkpt><trkpt lat="45.7676823" lon="8.7556099"><ele>290.8</ele><time>2026-05-04T09:27:01.164Z</time></trkpt><trkpt lat="45.76759" lon="8.7555965"><ele>290.6</ele><time>2026-05-04T09:27:03.164Z</time></trkpt><trkpt lat="45.7674874" lon="8.7556007"><ele>290.4</ele><time>2026-05-04T09:27:05.166Z</time></trkpt><trkpt lat="45.7673897" lon="8.7555842"><ele>290.2</ele><time>2026-05-04T09:27:07.164Z</time></trkpt><trkpt lat="45.7672869" lon="8.7555663"><ele>290.0</ele><time>2026-05-04T09:27:09.166Z</time></trkpt><trkpt lat="45.7671931" lon="8.7555258"><ele>290.0</ele><time>2026-05-04T09:27:11.164Z</time></trkpt><trkpt lat="45.7670917" lon="8.7554925"><ele>290.0</ele><time>2026-05-04T09:27:13.164Z</time></trkpt><trkpt lat="45.7669937" lon="8.7554525"><ele>290.0</ele><time>2026-05-04T09:27:15.164Z</time></trkpt><trkpt lat="45.7668992" lon="8.755414"><ele>290.0</ele><time>2026-05-04T09:27:17.165Z</time></trkpt><trkpt lat="45.7668016" lon="8.7553894"><ele>290.0</ele><time>2026-05-04T09:27:19.166Z</time></trkpt><trkpt lat="45.7667115" lon="8.7553576"><ele>290.5</ele><time>2026-05-04T09:27:21.165Z</time></trkpt><trkpt lat="45.7666227" lon="8.7553142"><ele>291.0</ele><time>2026-05-04T09:27:23.166Z</time></trkpt><trkpt lat="45.766541" lon="8.7552598"><ele>291.5</ele><time>2026-05-04T09:27:25.166Z</time></trkpt><trkpt lat="45.7664781" lon="8.7552065"><ele>292.0</ele><time>2026-05-04T09:27:27.166Z</time></trkpt><trkpt lat="45.7664082" lon="8.755198"><ele>292.5</ele><time>2026-05-04T09:27:29.164Z</time></trkpt><trkpt lat="45.7663481" lon="8.7552329"><ele>293.0</ele><time>2026-05-04T09:27:31.165Z</time></trkpt><trkpt lat="45.7663283" lon="8.7553775"><ele>293.0</ele><time>2026-05-04T09:27:33.165Z</time></trkpt><trkpt lat="45.7662992" lon="8.755521"><ele>293.0</ele><time>2026-05-04T09:27:35.165Z</time></trkpt><trkpt lat="45.7662535" lon="8.7556351"><ele>293.0</ele><time>2026-05-04T09:27:37.164Z</time></trkpt><trkpt lat="45.7661891" lon="8.7557347"><ele>293.0</ele><time>2026-05-04T09:27:39.165Z</time></trkpt><trkpt lat="45.7661088" lon="8.7557844"><ele>293.0</ele><time>2026-05-04T09:27:41.166Z</time></trkpt><trkpt lat="45.7660251" lon="8.7558062"><ele>293.0</ele><time>2026-05-04T09:27:43.165Z</time></trkpt><trkpt lat="45.7659487" lon="8.755804"><ele>293.0</ele><time>2026-05-04T09:27:45.166Z</time></trkpt><trkpt lat="45.7658831" lon="8.755775"><ele>293.0</ele><time>2026-05-04T09:27:49.164Z</time></trkpt><trkpt lat="45.7658042" lon="8.7557505"><ele>293.0</ele><time>2026-05-04T09:27:52.165Z</time></trkpt><trkpt lat="45.7657315" lon="8.7557754"><ele>293.0</ele><time>2026-05-04T09:27:55.165Z</time></trkpt><trkpt lat="45.7657935" lon="8.7557179"><ele>293.0</ele><time>2026-05-04T09:28:23.164Z</time></trkpt><trkpt lat="45.7658751" lon="8.7557185"><ele>293.0</ele><time>2026-05-04T09:28:27.165Z</time></trkpt><trkpt lat="45.7659145" lon="8.7558284"><ele>293.0</ele><time>2026-05-04T09:28:29.164Z</time></trkpt><trkpt lat="45.7659496" lon="8.755942"><ele>293.0</ele><time>2026-05-04T09:28:31.166Z</time></trkpt><trkpt lat="45.7659403" lon="8.7560657"><ele>293.0</ele><time>2026-05-04T09:28:33.166Z</time></trkpt><trkpt lat="45.7659248" lon="8.7561778"><ele>293.0</ele><time>2026-05-04T09:28:35.165Z</time></trkpt><trkpt lat="45.7658964" lon="8.7562826"><ele>293.0</ele><time>2026-05-04T09:28:37.165Z</time></trkpt><trkpt lat="45.7658865" lon="8.7563944"><ele>292.99999999999994</ele><time>2026-05-04T09:28:39.166Z</time></trkpt><trkpt lat="45.7658838" lon="8.756496"><ele>293.0</ele><time>2026-05-04T09:28:41.165Z</time></trkpt><trkpt lat="45.765881" lon="8.7566274"><ele>293.0</ele><time>2026-05-04T09:28:44.166Z</time></trkpt><trkpt lat="45.7658776" lon="8.7567388"><ele>293.0</ele><time>2026-05-04T09:28:47.165Z</time></trkpt><trkpt lat="45.7658508" lon="8.7568407"><ele>293.0</ele><time>2026-05-04T09:28:51.165Z</time></trkpt><trkpt lat="45.7657883" lon="8.7568781"><ele>292.99999999999994</ele><time>2026-05-04T09:28:54.164Z</time></trkpt><trkpt lat="45.7657239" lon="8.756887"><ele>293.0</ele><time>2026-05-04T09:28:57.164Z</time></trkpt><trkpt lat="45.7656647" lon="8.7569396"><ele>293.1666666666667</ele><time>2026-05-04T09:29:12.165Z</time></trkpt><trkpt lat="45.7656518" lon="8.7570432"><ele>293.33333333333337</ele><time>2026-05-04T09:30:09.165Z</time></trkpt><trkpt lat="45.7656429" lon="8.7571677"><ele>293.5</ele><time>2026-05-04T09:30:12.164Z</time></trkpt><trkpt lat="45.7656253" lon="8.7572717"><ele>293.6666666666667</ele><time>2026-05-04T09:30:14.166Z</time></trkpt><trkpt lat="45.7656326" lon="8.7574074"><ele>293.8333333333333</ele><time>2026-05-04T09:30:17.165Z</time></trkpt><trkpt lat="45.7656202" lon="8.7575119"><ele>294.0</ele><time>2026-05-04T09:30:19.166Z</time></trkpt><trkpt lat="45.7655905" lon="8.7576008"><ele>294.0</ele><time>2026-05-04T09:30:21.165Z</time></trkpt><trkpt lat="45.7655627" lon="8.7576904"><ele>294.0</ele><time>2026-05-04T09:30:23.166Z</time></trkpt><trkpt lat="45.7655399" lon="8.7577881"><ele>294.0</ele><time>2026-05-04T09:30:25.165Z</time></trkpt><trkpt lat="45.7655219" lon="8.7578886"><ele>294.0</ele><time>2026-05-04T09:30:27.165Z</time></trkpt><trkpt lat="45.7655014" lon="8.7579848"><ele>294.0</ele><time>2026-05-04T09:30:29.165Z</time></trkpt><trkpt lat="45.7654724" lon="8.7580881"><ele>294.0</ele><time>2026-05-04T09:30:31.164Z</time></trkpt><trkpt lat="45.7654347" lon="8.7581867"><ele>294.0</ele><time>2026-05-04T09:30:33.164Z</time></trkpt><trkpt lat="45.765399" lon="8.7582804"><ele>294.14285714285717</ele><time>2026-05-04T09:30:35.164Z</time></trkpt><trkpt lat="45.7653997" lon="8.7583795"><ele>294.2857142857143</ele><time>2026-05-04T09:30:37.165Z</time></trkpt><trkpt lat="45.7654121" lon="8.7584776"><ele>294.42857142857144</ele><time>2026-05-04T09:30:39.165Z</time></trkpt><trkpt lat="45.7653995" lon="8.7585749"><ele>294.57142857142856</ele><time>2026-05-04T09:30:41.164Z</time></trkpt><trkpt lat="45.7653513" lon="8.7586562"><ele>294.7142857142857</ele><time>2026-05-04T09:30:43.165Z</time></trkpt><trkpt lat="45.7652843" lon="8.7587014"><ele>294.8571428571429</ele><time>2026-05-04T09:30:45.165Z</time></trkpt><trkpt lat="45.7652161" lon="8.7587547"><ele>295.0</ele><time>2026-05-04T09:30:47.164Z</time></trkpt><trkpt lat="45.7651511" lon="8.7588275"><ele>296.00000000000006</ele><time>2026-05-04T09:30:49.165Z</time></trkpt><trkpt lat="45.7650902" lon="8.7588986"><ele>297.0</ele><time>2026-05-04T09:30:51.165Z</time></trkpt><trkpt lat="45.7650349" lon="8.7589692"><ele>298.0</ele><time>2026-05-04T09:30:53.165Z</time></trkpt><trkpt lat="45.7649805" lon="8.7590278"><ele>299.0</ele><time>2026-05-04T09:30:55.166Z</time></trkpt><trkpt lat="45.7649153" lon="8.7590774"><ele>300.0</ele><time>2026-05-04T09:30:57.165Z</time></trkpt><trkpt lat="45.7648708" lon="8.7591457"><ele>301.00000000000006</ele><time>2026-05-04T09:30:59.165Z</time></trkpt><trkpt lat="45.7648514" lon="8.7592419"><ele>302.0</ele><time>2026-05-04T09:31:01.167Z</time></trkpt><trkpt lat="45.764849" lon="8.7593452"><ele>302.1666666666667</ele><time>2026-05-04T09:31:03.165Z</time></trkpt><trkpt lat="45.7648444" lon="8.7594397"><ele>302.33333333333337</ele><time>2026-05-04T09:31:05.166Z</time></trkpt><trkpt lat="45.7648454" lon="8.7595872"><ele>302.5</ele><time>2026-05-04T09:31:08.165Z</time></trkpt><trkpt lat="45.7648607" lon="8.7597034"><ele>302.6666666666667</ele><time>2026-05-04T09:31:10.164Z</time></trkpt><trkpt lat="45.764874" lon="8.7598113"><ele>302.8333333333333</ele><time>2026-05-04T09:31:12.165Z</time></trkpt><trkpt lat="45.7648905" lon="8.7599083"><ele>303.0</ele><time>2026-05-04T09:31:14.167Z</time></trkpt><trkpt lat="45.7649237" lon="8.7600382"><ele>303.0</ele><time>2026-05-04T09:31:17.164Z</time></trkpt><trkpt lat="45.7649565" lon="8.7601555"><ele>303.0</ele><time>2026-05-04T09:31:20.165Z</time></trkpt><trkpt lat="45.7649845" lon="8.7602466"><ele>303.0</ele><time>2026-05-04T09:31:22.164Z</time></trkpt><trkpt lat="45.7650126" lon="8.7603581"><ele>303.0</ele><time>2026-05-04T09:31:25.165Z</time></trkpt><trkpt lat="45.7650265" lon="8.7604816"><ele>303.0</ele><time>2026-05-04T09:31:28.164Z</time></trkpt><trkpt lat="45.7650379" lon="8.7605898"><ele>303.0</ele><time>2026-05-04T09:31:31.163Z</time></trkpt><trkpt lat="45.7650577" lon="8.7606938"><ele>303.0</ele><time>2026-05-04T09:31:34.165Z</time></trkpt><trkpt lat="45.765069" lon="8.7607838"><ele>303.0</ele><time>2026-05-04T09:31:36.165Z</time></trkpt><trkpt lat="45.765097" lon="8.7609038"><ele>303.0</ele><time>2026-05-04T09:31:39.164Z</time></trkpt><trkpt lat="45.7651258" lon="8.7610281"><ele>303.0</ele><time>2026-05-04T09:31:42.165Z</time></trkpt><trkpt lat="45.765134" lon="8.7611227"><ele>303.0</ele><time>2026-05-04T09:31:44.164Z</time></trkpt><trkpt lat="45.7651129" lon="8.7612214"><ele>303.0</ele><time>2026-05-04T09:31:47.167Z</time></trkpt><trkpt lat="45.7650625" lon="8.7613013"><ele>303.0</ele><time>2026-05-04T09:31:50.165Z</time></trkpt><trkpt lat="45.7650137" lon="8.7614043"><ele>303.0</ele><time>2026-05-04T09:31:52.164Z</time></trkpt><trkpt lat="45.7649561" lon="8.7615049"><ele>303.0</ele><time>2026-05-04T09:31:53.165Z</time></trkpt><trkpt lat="45.7648775" lon="8.7616205"><ele>303.0</ele><time>2026-05-04T09:31:55.165Z</time></trkpt><trkpt lat="45.764836" lon="8.7617003"><ele>303.0</ele><time>2026-05-04T09:31:56.165Z</time></trkpt><trkpt lat="45.7647794" lon="8.7617994"><ele>303.0</ele><time>2026-05-04T09:31:57.165Z</time></trkpt><trkpt lat="45.7647348" lon="8.7618903"><ele>302.5</ele><time>2026-05-04T09:31:58.165Z</time></trkpt><trkpt lat="45.7646903" lon="8.7619919"><ele>302.0</ele><time>2026-05-04T09:31:59.165Z</time></trkpt><trkpt lat="45.7646487" lon="8.762097"><ele>301.5</ele><time>2026-05-04T09:32:00.165Z</time></trkpt><trkpt lat="45.7645973" lon="8.762197"><ele>301.0</ele><time>2026-05-04T09:32:01.165Z</time></trkpt><trkpt lat="45.7645391" lon="8.7622827"><ele>300.5</ele><time>2026-05-04T09:32:02.165Z</time></trkpt><trkpt lat="45.7644928" lon="8.7623656"><ele>300.0</ele><time>2026-05-04T09:32:03.165Z</time></trkpt><trkpt lat="45.7644463" lon="8.7624517"><ele>300.0</ele><time>2026-05-04T09:32:04.165Z</time></trkpt><trkpt lat="45.7644042" lon="8.7625299"><ele>300.0</ele><time>2026-05-04T09:32:05.165Z</time></trkpt><trkpt lat="45.7643637" lon="8.762601"><ele>300.0</ele><time>2026-05-04T09:32:06.165Z</time></trkpt><trkpt lat="45.7643206" lon="8.7626684"><ele>300.0</ele><time>2026-05-04T09:32:07.164Z</time></trkpt><trkpt lat="45.7642652" lon="8.7628046"><ele>300.0</ele><time>2026-05-04T09:32:09.164Z</time></trkpt><trkpt lat="45.7642115" lon="8.762927"><ele>300.0</ele><time>2026-05-04T09:32:11.164Z</time></trkpt><trkpt lat="45.7641391" lon="8.7630179"><ele>300.6</ele><time>2026-05-04T09:32:13.164Z</time></trkpt><trkpt lat="45.7640512" lon="8.7630746"><ele>301.2</ele><time>2026-05-04T09:32:15.164Z</time></trkpt><trkpt lat="45.7639689" lon="8.763108"><ele>301.8</ele><time>2026-05-04T09:32:17.165Z</time></trkpt><trkpt lat="45.7638748" lon="8.7631295"><ele>302.4</ele><time>2026-05-04T09:32:19.164Z</time></trkpt><trkpt lat="45.7637782" lon="8.7631456"><ele>303.0</ele><time>2026-05-04T09:32:21.165Z</time></trkpt><trkpt lat="45.7636763" lon="8.7631584"><ele>303.0</ele><time>2026-05-04T09:32:23.164Z</time></trkpt><trkpt lat="45.7635802" lon="8.7631668"><ele>303.0</ele><time>2026-05-04T09:32:25.165Z</time></trkpt><trkpt lat="45.7634826" lon="8.7631751"><ele>303.0</ele><time>2026-05-04T09:32:27.165Z</time></trkpt><trkpt lat="45.7633843" lon="8.7631802"><ele>303.0</ele><time>2026-05-04T09:32:29.165Z</time></trkpt><trkpt lat="45.7632907" lon="8.7632138"><ele>303.0</ele><time>2026-05-04T09:32:31.165Z</time></trkpt><trkpt lat="45.7632121" lon="8.7632624"><ele>302.6666666666667</ele><time>2026-05-04T09:32:33.165Z</time></trkpt><trkpt lat="45.7631319" lon="8.7633196"><ele>302.3333333333333</ele><time>2026-05-04T09:32:35.165Z</time></trkpt><trkpt lat="45.7630599" lon="8.7633843"><ele>302.0</ele><time>2026-05-04T09:32:37.165Z</time></trkpt><trkpt lat="45.7629873" lon="8.7634573"><ele>301.66666666666663</ele><time>2026-05-04T09:32:39.166Z</time></trkpt><trkpt lat="45.7629169" lon="8.7635191"><ele>301.3333333333333</ele><time>2026-05-04T09:32:41.165Z</time></trkpt><trkpt lat="45.7628372" lon="8.7635906"><ele>301.0</ele><time>2026-05-04T09:32:43.164Z</time></trkpt><trkpt lat="45.7627693" lon="8.7636648"><ele>301.0</ele><time>2026-05-04T09:32:45.164Z</time></trkpt><trkpt lat="45.7626999" lon="8.7637294"><ele>301.0</ele><time>2026-05-04T09:32:47.166Z</time></trkpt><trkpt lat="45.7626224" lon="8.7638004"><ele>301.0</ele><time>2026-05-04T09:32:49.166Z</time></trkpt><trkpt lat="45.7625596" lon="8.7638705"><ele>301.0</ele><time>2026-05-04T09:32:51.166Z</time></trkpt><trkpt lat="45.7624999" lon="8.7639254"><ele>301.0</ele><time>2026-05-04T09:32:53.165Z</time></trkpt><trkpt lat="45.7624369" lon="8.764005"><ele>301.0</ele><time>2026-05-04T09:32:55.165Z</time></trkpt><trkpt lat="45.762377" lon="8.7640832"><ele>301.0</ele><time>2026-05-04T09:32:57.166Z</time></trkpt><trkpt lat="45.7623125" lon="8.7641537"><ele>301.0</ele><time>2026-05-04T09:32:59.165Z</time></trkpt><trkpt lat="45.7622438" lon="8.7642225"><ele>301.0</ele><time>2026-05-04T09:33:01.166Z</time></trkpt><trkpt lat="45.762174" lon="8.7642913"><ele>301.0</ele><time>2026-05-04T09:33:03.165Z</time></trkpt><trkpt lat="45.7621109" lon="8.7643694"><ele>301.0</ele><time>2026-05-04T09:33:05.164Z</time></trkpt><trkpt lat="45.7620525" lon="8.7644567"><ele>301.0</ele><time>2026-05-04T09:33:07.165Z</time></trkpt><trkpt lat="45.7619925" lon="8.764539"><ele>301.0</ele><time>2026-05-04T09:33:09.165Z</time></trkpt><trkpt lat="45.76193" lon="8.7646174"><ele>301.0</ele><time>2026-05-04T09:33:11.166Z</time></trkpt><trkpt lat="45.7618753" lon="8.7647218"><ele>301.0</ele><time>2026-05-04T09:33:13.164Z</time></trkpt><trkpt lat="45.7618183" lon="8.7648292"><ele>301.0</ele><time>2026-05-04T09:33:15.166Z</time></trkpt><trkpt lat="45.761761" lon="8.7649303"><ele>301.0</ele><time>2026-05-04T09:33:17.166Z</time></trkpt><trkpt lat="45.7617018" lon="8.7650207"><ele>301.0</ele><time>2026-05-04T09:33:19.165Z</time></trkpt><trkpt lat="45.7616455" lon="8.765118"><ele>301.3333333333333</ele><time>2026-05-04T09:33:21.164Z</time></trkpt><trkpt lat="45.7615902" lon="8.7652268"><ele>301.66666666666663</ele><time>2026-05-04T09:33:23.166Z</time></trkpt><trkpt lat="45.7615309" lon="8.7653426"><ele>302.0</ele><time>2026-05-04T09:33:25.165Z</time></trkpt><trkpt lat="45.761485" lon="8.7654381"><ele>302.3333333333333</ele><time>2026-05-04T09:33:27.166Z</time></trkpt><trkpt lat="45.7614336" lon="8.7655197"><ele>302.6666666666667</ele><time>2026-05-04T09:33:29.164Z</time></trkpt><trkpt lat="45.7613765" lon="8.7655969"><ele>303.0</ele><time>2026-05-04T09:33:31.164Z</time></trkpt><trkpt lat="45.7613085" lon="8.7656814"><ele>303.0</ele><time>2026-05-04T09:33:33.165Z</time></trkpt><trkpt lat="45.7612474" lon="8.765788"><ele>303.0</ele><time>2026-05-04T09:33:35.164Z</time></trkpt><trkpt lat="45.7612263" lon="8.7659288"><ele>303.0</ele><time>2026-05-04T09:33:37.165Z</time></trkpt><trkpt lat="45.7612153" lon="8.7660722"><ele>303.0</ele><time>2026-05-04T09:33:39.166Z</time></trkpt><trkpt lat="45.7611729" lon="8.7662158"><ele>303.0</ele><time>2026-05-04T09:33:41.166Z</time></trkpt><trkpt lat="45.761117" lon="8.766344"><ele>303.2</ele><time>2026-05-04T09:33:43.165Z</time></trkpt><trkpt lat="45.7610676" lon="8.766478"><ele>303.4</ele><time>2026-05-04T09:33:45.164Z</time></trkpt><trkpt lat="45.7610191" lon="8.766595"><ele>303.59999999999997</ele><time>2026-05-04T09:33:47.165Z</time></trkpt><trkpt lat="45.7609833" lon="8.7667098"><ele>303.8</ele><time>2026-05-04T09:33:49.165Z</time></trkpt><trkpt lat="45.7609453" lon="8.7668187"><ele>304.0</ele><time>2026-05-04T09:33:51.166Z</time></trkpt><trkpt lat="45.7609057" lon="8.7669186"><ele>305.16666666666663</ele><time>2026-05-04T09:33:53.166Z</time></trkpt><trkpt lat="45.7608722" lon="8.7670189"><ele>306.3333333333333</ele><time>2026-05-04T09:33:55.166Z</time></trkpt><trkpt lat="45.7608302" lon="8.7671228"><ele>307.5</ele><time>2026-05-04T09:33:57.165Z</time></trkpt><trkpt lat="45.7607791" lon="8.767219"><ele>308.6666666666667</ele><time>2026-05-04T09:33:59.165Z</time></trkpt><trkpt lat="45.760728" lon="8.7673192"><ele>309.83333333333337</ele><time>2026-05-04T09:34:01.164Z</time></trkpt><trkpt lat="45.7606748" lon="8.7674015"><ele>311.0</ele><time>2026-05-04T09:34:03.165Z</time></trkpt><trkpt lat="45.7606044" lon="8.7674715"><ele>311.0</ele><time>2026-05-04T09:34:05.165Z</time></trkpt><trkpt lat="45.7605301" lon="8.7675064"><ele>311.0</ele><time>2026-05-04T09:34:07.165Z</time></trkpt><trkpt lat="45.7604684" lon="8.7675457"><ele>311.0</ele><time>2026-05-04T09:34:09.165Z</time></trkpt><trkpt lat="45.7604084" lon="8.767619"><ele>311.0</ele><time>2026-05-04T09:34:12.165Z</time></trkpt><trkpt lat="45.7603511" lon="8.7677049"><ele>311.0</ele><time>2026-05-04T09:34:15.166Z</time></trkpt><trkpt lat="45.7603104" lon="8.7677852"><ele>311.0</ele><time>2026-05-04T09:34:17.165Z</time></trkpt><trkpt lat="45.7602747" lon="8.7678749"><ele>311.0</ele><time>2026-05-04T09:34:19.164Z</time></trkpt><trkpt lat="45.7602412" lon="8.767966"><ele>312.83333333333337</ele><time>2026-05-04T09:34:21.164Z</time></trkpt><trkpt lat="45.76019" lon="8.7680748"><ele>314.6666666666667</ele><time>2026-05-04T09:34:24.164Z</time></trkpt><trkpt lat="45.7601425" lon="8.7681792"><ele>316.5</ele><time>2026-05-04T09:34:27.164Z</time></trkpt><trkpt lat="45.7601186" lon="8.7682661"><ele>318.3333333333333</ele><time>2026-05-04T09:34:30.164Z</time></trkpt><trkpt lat="45.7600818" lon="8.7683795"><ele>320.16666666666663</ele><time>2026-05-04T09:34:33.164Z</time></trkpt><trkpt lat="45.7600686" lon="8.7684769"><ele>322.0</ele><time>2026-05-04T09:34:36.164Z</time></trkpt><trkpt lat="45.7600492" lon="8.7685709"><ele>322.0</ele><time>2026-05-04T09:34:40.166Z</time></trkpt><trkpt lat="45.7600308" lon="8.7686672"><ele>322.0</ele><time>2026-05-04T09:34:43.165Z</time></trkpt><trkpt lat="45.7600108" lon="8.7687596"><ele>322.0</ele><time>2026-05-04T09:34:45.165Z</time></trkpt><trkpt lat="45.7599861" lon="8.7688582"><ele>322.0</ele><time>2026-05-04T09:34:47.165Z</time></trkpt><trkpt lat="45.7599403" lon="8.7689627"><ele>322.0</ele><time>2026-05-04T09:34:49.164Z</time></trkpt><trkpt lat="45.7599062" lon="8.7690404"><ele>322.0</ele><time>2026-05-04T09:34:50.165Z</time></trkpt><trkpt lat="45.7598545" lon="8.7691637"><ele>322.0</ele><time>2026-05-04T09:34:52.165Z</time></trkpt><trkpt lat="45.7598055" lon="8.7692735"><ele>322.0</ele><time>2026-05-04T09:34:54.166Z</time></trkpt><trkpt lat="45.7597555" lon="8.7693834"><ele>322.0</ele><time>2026-05-04T09:34:56.165Z</time></trkpt><trkpt lat="45.7597066" lon="8.7695071"><ele>322.0</ele><time>2026-05-04T09:34:58.165Z</time></trkpt><trkpt lat="45.7596591" lon="8.7696381"><ele>322.0</ele><time>2026-05-04T09:35:00.165Z</time></trkpt><trkpt lat="45.7596016" lon="8.7697692"><ele>322.20000000000005</ele><time>2026-05-04T09:35:02.165Z</time></trkpt><trkpt lat="45.7595116" lon="8.7698923"><ele>322.4</ele><time>2026-05-04T09:35:04.164Z</time></trkpt><trkpt lat="45.7594028" lon="8.7698996"><ele>322.6</ele><time>2026-05-04T09:35:06.165Z</time></trkpt><trkpt lat="45.7593118" lon="8.7698925"><ele>322.79999999999995</ele><time>2026-05-04T09:35:08.164Z</time></trkpt><trkpt lat="45.7592098" lon="8.7698816"><ele>323.0</ele><time>2026-05-04T09:35:10.165Z</time></trkpt><trkpt lat="45.7591057" lon="8.7698838"><ele>323.1666666666667</ele><time>2026-05-04T09:35:12.166Z</time></trkpt><trkpt lat="45.7590003" lon="8.7698577"><ele>323.33333333333337</ele><time>2026-05-04T09:35:14.165Z</time></trkpt><trkpt lat="45.7589386" lon="8.7698381"><ele>323.5</ele><time>2026-05-04T09:35:15.165Z</time></trkpt><trkpt lat="45.7588542" lon="8.769821"><ele>323.6666666666667</ele><time>2026-05-04T09:35:17.165Z</time></trkpt><trkpt lat="45.7587674" lon="8.769836"><ele>323.8333333333333</ele><time>2026-05-04T09:35:19.164Z</time></trkpt><trkpt lat="45.7587022" lon="8.7698355"><ele>324.0</ele><time>2026-05-04T09:35:21.164Z</time></trkpt><trkpt lat="45.7586299" lon="8.7698393"><ele>324.0</ele><time>2026-05-04T09:35:23.166Z</time></trkpt><trkpt lat="45.7585558" lon="8.7698311"><ele>324.0</ele><time>2026-05-04T09:35:25.165Z</time></trkpt><trkpt lat="45.7584609" lon="8.7698212"><ele>324.0</ele><time>2026-05-04T09:35:28.166Z</time></trkpt><trkpt lat="45.7583653" lon="8.769815"><ele>324.0</ele><time>2026-05-04T09:35:30.165Z</time></trkpt><trkpt lat="45.7582551" lon="8.7697822"><ele>324.0</ele><time>2026-05-04T09:35:32.164Z</time></trkpt><trkpt lat="45.7581915" lon="8.7697691"><ele>324.0</ele><time>2026-05-04T09:35:33.165Z</time></trkpt><trkpt lat="45.7581231" lon="8.7697417"><ele>323.8333333333333</ele><time>2026-05-04T09:35:34.165Z</time></trkpt><trkpt lat="45.7580094" lon="8.7697237"><ele>323.6666666666667</ele><time>2026-05-04T09:35:36.164Z</time></trkpt><trkpt lat="45.7579474" lon="8.7697074"><ele>323.5</ele><time>2026-05-04T09:35:37.166Z</time></trkpt><trkpt lat="45.7578807" lon="8.7697011"><ele>323.33333333333337</ele><time>2026-05-04T09:35:38.164Z</time></trkpt><trkpt lat="45.7577731" lon="8.7696491"><ele>323.1666666666667</ele><time>2026-05-04T09:35:40.165Z</time></trkpt><trkpt lat="45.75771" lon="8.7696347"><ele>323.0</ele><time>2026-05-04T09:35:41.166Z</time></trkpt><trkpt lat="45.7576" lon="8.769593"><ele>323.0</ele><time>2026-05-04T09:35:43.165Z</time></trkpt><trkpt lat="45.7574842" lon="8.769576"><ele>323.0</ele><time>2026-05-04T09:35:45.165Z</time></trkpt><trkpt lat="45.757371" lon="8.7695227"><ele>323.0</ele><time>2026-05-04T09:35:47.166Z</time></trkpt><trkpt lat="45.757308" lon="8.7694583"><ele>323.0</ele><time>2026-05-04T09:35:49.166Z</time></trkpt><trkpt lat="45.7573231" lon="8.7693455"><ele>323.0</ele><time>2026-05-04T09:35:52.165Z</time></trkpt><trkpt lat="45.7573675" lon="8.7692544"><ele>324.0</ele><time>2026-05-04T09:35:54.164Z</time></trkpt><trkpt lat="45.7573929" lon="8.7691486"><ele>325.0</ele><time>2026-05-04T09:35:56.165Z</time></trkpt><trkpt lat="45.7573702" lon="8.7690472"><ele>326.0</ele><time>2026-05-04T09:35:58.165Z</time></trkpt><trkpt lat="45.7572992" lon="8.7689591"><ele>327.0</ele><time>2026-05-04T09:36:00.165Z</time></trkpt><trkpt lat="45.7572111" lon="8.768872"><ele>328.0</ele><time>2026-05-04T09:36:02.165Z</time></trkpt><trkpt lat="45.7571184" lon="8.7687526"><ele>328.0</ele><time>2026-05-04T09:36:04.165Z</time></trkpt><trkpt lat="45.7570318" lon="8.7686454"><ele>328.0</ele><time>2026-05-04T09:36:06.164Z</time></trkpt><trkpt lat="45.756936" lon="8.7685476"><ele>328.0</ele><time>2026-05-04T09:36:08.165Z</time></trkpt><trkpt lat="45.7568973" lon="8.7684561"><ele>328.0</ele><time>2026-05-04T09:36:09.167Z</time></trkpt><trkpt lat="45.7568226" lon="8.7683011"><ele>328.0</ele><time>2026-05-04T09:36:11.165Z</time></trkpt><trkpt lat="45.7567791" lon="8.7682341"><ele>328.16666666666663</ele><time>2026-05-04T09:36:12.164Z</time></trkpt><trkpt lat="45.756725" lon="8.7681724"><ele>328.3333333333333</ele><time>2026-05-04T09:36:13.165Z</time></trkpt><trkpt lat="45.756648" lon="8.7680687"><ele>328.5</ele><time>2026-05-04T09:36:15.164Z</time></trkpt><trkpt lat="45.7565752" lon="8.7679618"><ele>328.6666666666667</ele><time>2026-05-04T09:36:17.166Z</time></trkpt><trkpt lat="45.7565467" lon="8.7678606"><ele>328.83333333333337</ele><time>2026-05-04T09:36:19.165Z</time></trkpt><trkpt lat="45.7564981" lon="8.7677937"><ele>329.0</ele><time>2026-05-04T09:36:20.167Z</time></trkpt><trkpt lat="45.756447" lon="8.767613"><ele>329.0</ele><time>2026-05-04T09:36:22.164Z</time></trkpt><trkpt lat="45.7563919" lon="8.7675088"><ele>329.0</ele><time>2026-05-04T09:36:24.164Z</time></trkpt><trkpt lat="45.7563158" lon="8.7673638"><ele>329.0</ele><time>2026-05-04T09:36:26.165Z</time></trkpt><trkpt lat="45.7562757" lon="8.7672873"><ele>329.0</ele><time>2026-05-04T09:36:27.165Z</time></trkpt><trkpt lat="45.7561998" lon="8.7671733"><ele>329.0</ele><time>2026-05-04T09:36:29.165Z</time></trkpt><trkpt lat="45.7561882" lon="8.7670231"><ele>329.0</ele><time>2026-05-04T09:36:31.163Z</time></trkpt><trkpt lat="45.7562517" lon="8.7669331"><ele>329.0</ele><time>2026-05-04T09:36:33.165Z</time></trkpt><trkpt lat="45.7563521" lon="8.7668364"><ele>329.0</ele><time>2026-05-04T09:36:35.164Z</time></trkpt><trkpt lat="45.7564449" lon="8.7666826"><ele>329.0</ele><time>2026-05-04T09:36:37.166Z</time></trkpt><trkpt lat="45.7565289" lon="8.7665868"><ele>330.0</ele><time>2026-05-04T09:36:39.166Z</time></trkpt><trkpt lat="45.7565592" lon="8.766504"><ele>331.0</ele><time>2026-05-04T09:36:41.166Z</time></trkpt><trkpt lat="45.7565471" lon="8.766377"><ele>332.0</ele><time>2026-05-04T09:36:43.164Z</time></trkpt><trkpt lat="45.7564751" lon="8.7662389"><ele>333.0</ele><time>2026-05-04T09:36:45.165Z</time></trkpt><trkpt lat="45.7564273" lon="8.7661181"><ele>334.0</ele><time>2026-05-04T09:36:47.166Z</time></trkpt><trkpt lat="45.7564119" lon="8.7659591"><ele>334.3333333333333</ele><time>2026-05-04T09:36:49.165Z</time></trkpt><trkpt lat="45.7563987" lon="8.7658367"><ele>334.66666666666663</ele><time>2026-05-04T09:36:51.165Z</time></trkpt><trkpt lat="45.7563899" lon="8.7657428"><ele>335.0</ele><time>2026-05-04T09:36:52.165Z</time></trkpt><trkpt lat="45.7563724" lon="8.7655971"><ele>335.3333333333333</ele><time>2026-05-04T09:36:54.166Z</time></trkpt><trkpt lat="45.7563509" lon="8.7654588"><ele>335.6666666666667</ele><time>2026-05-04T09:36:56.164Z</time></trkpt><trkpt lat="45.7563291" lon="8.7653397"><ele>336.0</ele><time>2026-05-04T09:36:58.166Z</time></trkpt><trkpt lat="45.7562944" lon="8.765263"><ele>335.8</ele><time>2026-05-04T09:37:00.166Z</time></trkpt><trkpt lat="45.756238" lon="8.7651719"><ele>335.6</ele><time>2026-05-04T09:37:02.165Z</time></trkpt><trkpt lat="45.7561524" lon="8.7650925"><ele>335.4</ele><time>2026-05-04T09:37:04.165Z</time></trkpt><trkpt lat="45.7560624" lon="8.7649726"><ele>335.2</ele><time>2026-05-04T09:37:06.165Z</time></trkpt><trkpt lat="45.7559849" lon="8.7648711"><ele>335.0</ele><time>2026-05-04T09:37:08.164Z</time></trkpt><trkpt lat="45.7559026" lon="8.7647669"><ele>335.0</ele><time>2026-05-04T09:37:10.164Z</time></trkpt><trkpt lat="45.7558101" lon="8.7646797"><ele>335.0</ele><time>2026-05-04T09:37:12.164Z</time></trkpt><trkpt lat="45.7557408" lon="8.7645883"><ele>335.0</ele><time>2026-05-04T09:37:14.165Z</time></trkpt><trkpt lat="45.7556714" lon="8.7645022"><ele>335.0</ele><time>2026-05-04T09:37:16.164Z</time></trkpt><trkpt lat="45.7555851" lon="8.7644187"><ele>335.0</ele><time>2026-05-04T09:37:18.165Z</time></trkpt><trkpt lat="45.755475" lon="8.764332"><ele>335.0</ele><time>2026-05-04T09:37:20.165Z</time></trkpt><trkpt lat="45.7554267" lon="8.7642599"><ele>335.0</ele><time>2026-05-04T09:37:21.164Z</time></trkpt><trkpt lat="45.755374" lon="8.7641835"><ele>335.0</ele><time>2026-05-04T09:37:22.164Z</time></trkpt><trkpt lat="45.7553403" lon="8.7641049"><ele>335.0</ele><time>2026-05-04T09:37:23.165Z</time></trkpt><trkpt lat="45.7552723" lon="8.7639933"><ele>335.0</ele><time>2026-05-04T09:37:25.164Z</time></trkpt><trkpt lat="45.7552152" lon="8.7640387"><ele>335.0</ele><time>2026-05-04T09:37:29.164Z</time></trkpt><trkpt lat="45.7551734" lon="8.7641367"><ele>335.0</ele><time>2026-05-04T09:37:32.165Z</time></trkpt><trkpt lat="45.7551133" lon="8.7642004"><ele>335.0</ele><time>2026-05-04T09:37:35.164Z</time></trkpt><trkpt lat="45.7550491" lon="8.764268"><ele>335.0</ele><time>2026-05-04T09:37:58.165Z</time></trkpt><trkpt lat="45.755015" lon="8.7643661"><ele>335.0</ele><time>2026-05-04T09:38:01.165Z</time></trkpt><trkpt lat="45.7549927" lon="8.7644958"><ele>335.0</ele><time>2026-05-04T09:38:04.165Z</time></trkpt><trkpt lat="45.754931" lon="8.7646265"><ele>335.0</ele><time>2026-05-04T09:38:06.164Z</time></trkpt><trkpt lat="45.7548343" lon="8.7647051"><ele>334.1666666666667</ele><time>2026-05-04T09:38:08.165Z</time></trkpt><trkpt lat="45.754773" lon="8.7647864"><ele>333.33333333333337</ele><time>2026-05-04T09:38:10.166Z</time></trkpt><trkpt lat="45.7547334" lon="8.7648821"><ele>332.5</ele><time>2026-05-04T09:38:12.163Z</time></trkpt><trkpt lat="45.7546383" lon="8.7649715"><ele>331.6666666666667</ele><time>2026-05-04T09:38:14.165Z</time></trkpt><trkpt lat="45.7545595" lon="8.7649867"><ele>330.8333333333333</ele><time>2026-05-04T09:38:15.164Z</time></trkpt><trkpt lat="45.7544928" lon="8.7649864"><ele>330.0</ele><time>2026-05-04T09:38:16.164Z</time></trkpt><trkpt lat="45.7544246" lon="8.7650176"><ele>329.2</ele><time>2026-05-04T09:38:17.164Z</time></trkpt><trkpt lat="45.7543388" lon="8.7650958"><ele>328.4</ele><time>2026-05-04T09:38:19.163Z</time></trkpt><trkpt lat="45.754258" lon="8.7652134"><ele>327.6</ele><time>2026-05-04T09:38:21.165Z</time></trkpt><trkpt lat="45.754186" lon="8.7652827"><ele>326.8</ele><time>2026-05-04T09:38:22.165Z</time></trkpt><trkpt lat="45.7541111" lon="8.7654132"><ele>326.0</ele><time>2026-05-04T09:38:24.165Z</time></trkpt><trkpt lat="45.7540735" lon="8.7655378"><ele>325.20000000000005</ele><time>2026-05-04T09:38:26.164Z</time></trkpt><trkpt lat="45.7540044" lon="8.7656585"><ele>324.40000000000003</ele><time>2026-05-04T09:38:28.164Z</time></trkpt><trkpt lat="45.7539585" lon="8.7657307"><ele>323.6</ele><time>2026-05-04T09:38:29.166Z</time></trkpt><trkpt lat="45.753904" lon="8.7658452"><ele>322.8</ele><time>2026-05-04T09:38:31.166Z</time></trkpt><trkpt lat="45.7538228" lon="8.7659751"><ele>322.0</ele><time>2026-05-04T09:38:33.166Z</time></trkpt><trkpt lat="45.7537506" lon="8.7659969"><ele>322.0</ele><time>2026-05-04T09:38:34.165Z</time></trkpt><trkpt lat="45.7536714" lon="8.7660331"><ele>322.0</ele><time>2026-05-04T09:38:35.164Z</time></trkpt><trkpt lat="45.7535874" lon="8.7659733"><ele>322.0</ele><time>2026-05-04T09:38:37.164Z</time></trkpt><trkpt lat="45.753544" lon="8.7659063"><ele>322.0</ele><time>2026-05-04T09:38:38.166Z</time></trkpt><trkpt lat="45.7534935" lon="8.7658412"><ele>322.0</ele><time>2026-05-04T09:38:39.164Z</time></trkpt><trkpt lat="45.7534363" lon="8.765793"><ele>322.0</ele><time>2026-05-04T09:38:40.164Z</time></trkpt><trkpt lat="45.7533885" lon="8.7657298"><ele>322.0</ele><time>2026-05-04T09:38:41.165Z</time></trkpt><trkpt lat="45.7532879" lon="8.7657"><ele>321.0</ele><time>2026-05-04T09:38:43.165Z</time></trkpt><trkpt lat="45.7532317" lon="8.7658858"><ele>320.0</ele><time>2026-05-04T09:38:45.165Z</time></trkpt><trkpt lat="45.7531633" lon="8.7659719"><ele>319.0</ele><time>2026-05-04T09:38:46.165Z</time></trkpt><trkpt lat="45.7531323" lon="8.7660597"><ele>318.0</ele><time>2026-05-04T09:38:47.165Z</time></trkpt><trkpt lat="45.7530961" lon="8.7661416"><ele>317.0</ele><time>2026-05-04T09:38:48.165Z</time></trkpt><trkpt lat="45.7530323" lon="8.7662622"><ele>315.5</ele><time>2026-05-04T09:38:50.164Z</time></trkpt><trkpt lat="45.7529803" lon="8.7663374"><ele>314.0</ele><time>2026-05-04T09:38:52.165Z</time></trkpt><trkpt lat="45.7528891" lon="8.7662659"><ele>312.5</ele><time>2026-05-04T09:38:54.165Z</time></trkpt><trkpt lat="45.7528101" lon="8.766216"><ele>311.0</ele><time>2026-05-04T09:38:55.164Z</time></trkpt><trkpt lat="45.7527495" lon="8.7661626"><ele>309.5</ele><time>2026-05-04T09:38:56.164Z</time></trkpt><trkpt lat="45.7526954" lon="8.7661105"><ele>308.0</ele><time>2026-05-04T09:38:57.165Z</time></trkpt><trkpt lat="45.7526041" lon="8.7660073"><ele>308.0</ele><time>2026-05-04T09:38:59.164Z</time></trkpt><trkpt lat="45.7525236" lon="8.7658957"><ele>308.0</ele><time>2026-05-04T09:39:01.164Z</time></trkpt><trkpt lat="45.7524359" lon="8.765808"><ele>308.0</ele><time>2026-05-04T09:39:03.165Z</time></trkpt><trkpt lat="45.7523519" lon="8.7657391"><ele>308.0</ele><time>2026-05-04T09:39:05.164Z</time></trkpt><trkpt lat="45.7522814" lon="8.7656683"><ele>308.0</ele><time>2026-05-04T09:39:07.165Z</time></trkpt><trkpt lat="45.7522797" lon="8.7655547"><ele>308.0</ele><time>2026-05-04T09:39:11.164Z</time></trkpt><trkpt lat="45.7523347" lon="8.7654898"><ele>308.0</ele><time>2026-05-04T09:39:42.165Z</time></trkpt><trkpt lat="45.7523735" lon="8.7653975"><ele>308.0</ele><time>2026-05-04T09:39:45.164Z</time></trkpt><trkpt lat="45.7524199" lon="8.7652775"><ele>308.0</ele><time>2026-05-04T09:39:48.165Z</time></trkpt><trkpt lat="45.7524508" lon="8.765189"><ele>308.0</ele><time>2026-05-04T09:39:50.166Z</time></trkpt><trkpt lat="45.7524748" lon="8.7651005"><ele>308.0</ele><time>2026-05-04T09:39:52.164Z</time></trkpt><trkpt lat="45.7524958" lon="8.7649734"><ele>308.83333333333337</ele><time>2026-05-04T09:39:55.165Z</time></trkpt><trkpt lat="45.7525031" lon="8.7648835"><ele>309.6666666666667</ele><time>2026-05-04T09:39:57.166Z</time></trkpt><trkpt lat="45.752511" lon="8.7647666"><ele>310.5</ele><time>2026-05-04T09:40:09.165Z</time></trkpt><trkpt lat="45.7524564" lon="8.7646479"><ele>311.3333333333333</ele><time>2026-05-04T09:40:12.164Z</time></trkpt><trkpt lat="45.752465" lon="8.7645307"><ele>312.16666666666663</ele><time>2026-05-04T09:40:15.165Z</time></trkpt><trkpt lat="45.7525388" lon="8.7645348"><ele>313.0</ele><time>2026-05-04T09:40:19.165Z</time></trkpt><trkpt lat="45.7526109" lon="8.7644552"><ele>313.0</ele><time>2026-05-04T09:40:23.165Z</time></trkpt><trkpt lat="45.752662" lon="8.764374"><ele>313.0</ele><time>2026-05-04T09:40:25.164Z</time></trkpt><trkpt lat="45.7527255" lon="8.7642919"><ele>313.0</ele><time>2026-05-04T09:40:27.164Z</time></trkpt><trkpt lat="45.7527795" lon="8.7642161"><ele>313.0</ele><time>2026-05-04T09:40:29.164Z</time></trkpt><trkpt lat="45.7528298" lon="8.7641554"><ele>313.0</ele><time>2026-05-04T09:40:31.165Z</time></trkpt><trkpt lat="45.7528841" lon="8.7640921"><ele>313.0</ele><time>2026-05-04T09:40:33.165Z</time></trkpt><trkpt lat="45.7529416" lon="8.7640056"><ele>314.8333333333333</ele><time>2026-05-04T09:40:35.164Z</time></trkpt><trkpt lat="45.753" lon="8.763913"><ele>316.66666666666663</ele><time>2026-05-04T09:40:37.165Z</time></trkpt><trkpt lat="45.7530425" lon="8.7638347"><ele>318.5</ele><time>2026-05-04T09:40:39.165Z</time></trkpt><trkpt lat="45.7530998" lon="8.76374"><ele>320.3333333333333</ele><time>2026-05-04T09:40:42.165Z</time></trkpt><trkpt lat="45.7531584" lon="8.7636731"><ele>322.1666666666667</ele><time>2026-05-04T09:40:44.164Z</time></trkpt><trkpt lat="45.7532244" lon="8.7636191"><ele>324.0</ele><time>2026-05-04T09:40:46.164Z</time></trkpt><trkpt lat="45.7533026" lon="8.7636074"><ele>324.0</ele><time>2026-05-04T09:40:48.165Z</time></trkpt><trkpt lat="45.7533662" lon="8.7636345"><ele>324.0</ele><time>2026-05-04T09:40:50.165Z</time></trkpt><trkpt lat="45.753421" lon="8.7636865"><ele>324.0</ele><time>2026-05-04T09:40:52.164Z</time></trkpt><trkpt lat="45.7534748" lon="8.7637478"><ele>324.0</ele><time>2026-05-04T09:40:54.165Z</time></trkpt><trkpt lat="45.7535337" lon="8.7638007"><ele>324.0</ele><time>2026-05-04T09:40:56.164Z</time></trkpt><trkpt lat="45.7535953" lon="8.7638494"><ele>324.0</ele><time>2026-05-04T09:40:58.164Z</time></trkpt><trkpt lat="45.7536578" lon="8.7639117"><ele>324.0</ele><time>2026-05-04T09:41:00.165Z</time></trkpt><trkpt lat="45.7537228" lon="8.7639807"><ele>326.25</ele><time>2026-05-04T09:41:02.165Z</time></trkpt><trkpt lat="45.7538799" lon="8.7640867"><ele>328.5</ele><time>2026-05-04T09:41:04.165Z</time></trkpt><trkpt lat="45.753982" lon="8.7641545"><ele>330.75</ele><time>2026-05-04T09:41:06.165Z</time></trkpt><trkpt lat="45.7540751" lon="8.764203"><ele>333.0</ele><time>2026-05-04T09:41:08.165Z</time></trkpt><trkpt lat="45.754168" lon="8.7641788"><ele>333.0</ele><time>2026-05-04T09:41:11.165Z</time></trkpt><trkpt lat="45.7542253" lon="8.7640994"><ele>333.0</ele><time>2026-05-04T09:41:15.164Z</time></trkpt><trkpt lat="45.7542592" lon="8.763994"><ele>333.0</ele><time>2026-05-04T09:41:18.165Z</time></trkpt><trkpt lat="45.7542938" lon="8.7638887"><ele>333.0</ele><time>2026-05-04T09:41:20.164Z</time></trkpt><trkpt lat="45.754316" lon="8.7637644"><ele>333.0</ele><time>2026-05-04T09:41:23.164Z</time></trkpt><trkpt lat="45.7543167" lon="8.7636535"><ele>333.0</ele><time>2026-05-04T09:41:25.165Z</time></trkpt><trkpt lat="45.7543144" lon="8.7635301"><ele>333.6666666666667</ele><time>2026-05-04T09:41:28.164Z</time></trkpt><trkpt lat="45.7543164" lon="8.7634146"><ele>334.3333333333333</ele><time>2026-05-04T09:41:32.164Z</time></trkpt><trkpt lat="45.7543491" lon="8.763289"><ele>335.0</ele><time>2026-05-04T09:41:35.163Z</time></trkpt><trkpt lat="45.7543819" lon="8.7631791"><ele>335.66666666666663</ele><time>2026-05-04T09:41:38.164Z</time></trkpt><trkpt lat="45.7544027" lon="8.7630792"><ele>336.3333333333333</ele><time>2026-05-04T09:41:41.164Z</time></trkpt><trkpt lat="45.7544486" lon="8.7629906"><ele>337.0</ele><time>2026-05-04T09:41:45.165Z</time></trkpt><trkpt lat="45.7544419" lon="8.7628692"><ele>337.16666666666663</ele><time>2026-05-04T09:41:48.164Z</time></trkpt><trkpt lat="45.7544108" lon="8.7627395"><ele>337.3333333333333</ele><time>2026-05-04T09:41:51.165Z</time></trkpt><trkpt lat="45.7543743" lon="8.7626629"><ele>337.5</ele><time>2026-05-04T09:41:53.164Z</time></trkpt><trkpt lat="45.754333" lon="8.76257"><ele>337.6666666666667</ele><time>2026-05-04T09:41:56.165Z</time></trkpt><trkpt lat="45.7543009" lon="8.7624449"><ele>337.83333333333337</ele><time>2026-05-04T09:41:59.164Z</time></trkpt><trkpt lat="45.7542659" lon="8.7623505"><ele>338.0</ele><time>2026-05-04T09:42:01.165Z</time></trkpt><trkpt lat="45.7542236" lon="8.7622779"><ele>339.14285714285717</ele><time>2026-05-04T09:42:03.165Z</time></trkpt><trkpt lat="45.7541822" lon="8.7621774"><ele>340.2857142857143</ele><time>2026-05-04T09:42:06.164Z</time></trkpt><trkpt lat="45.7541541" lon="8.7620697"><ele>341.42857142857144</ele><time>2026-05-04T09:42:09.164Z</time></trkpt><trkpt lat="45.7541299" lon="8.7619824"><ele>342.57142857142856</ele><time>2026-05-04T09:42:11.164Z</time></trkpt><trkpt lat="45.7540954" lon="8.7618977"><ele>343.7142857142857</ele><time>2026-05-04T09:42:13.165Z</time></trkpt><trkpt lat="45.7540657" lon="8.761802"><ele>344.85714285714283</ele><time>2026-05-04T09:42:15.165Z</time></trkpt><trkpt lat="45.7540466" lon="8.7617125"><ele>346.0</ele><time>2026-05-04T09:42:17.165Z</time></trkpt><trkpt lat="45.7540181" lon="8.7615992"><ele>346.7142857142857</ele><time>2026-05-04T09:42:20.165Z</time></trkpt><trkpt lat="45.7539714" lon="8.7614877"><ele>347.42857142857144</ele><time>2026-05-04T09:42:23.165Z</time></trkpt><trkpt lat="45.7539128" lon="8.7613918"><ele>348.14285714285717</ele><time>2026-05-04T09:42:26.164Z</time></trkpt><trkpt lat="45.7538725" lon="8.7613206"><ele>348.8571428571429</ele><time>2026-05-04T09:42:28.164Z</time></trkpt><trkpt lat="45.7538353" lon="8.7612301"><ele>349.57142857142856</ele><time>2026-05-04T09:42:30.164Z</time></trkpt><trkpt lat="45.7537825" lon="8.7611716"><ele>350.28571428571433</ele><time>2026-05-04T09:42:32.164Z</time></trkpt><trkpt lat="45.7537263" lon="8.7611258"><ele>351.0</ele><time>2026-05-04T09:42:34.165Z</time></trkpt><trkpt lat="45.7536665" lon="8.7610357"><ele>351.3333333333333</ele><time>2026-05-04T09:42:37.164Z</time></trkpt><trkpt lat="45.753612" lon="8.7609903"><ele>351.6666666666667</ele><time>2026-05-04T09:42:39.164Z</time></trkpt><trkpt lat="45.7535409" lon="8.7609212"><ele>352.0</ele><time>2026-05-04T09:42:41.164Z</time></trkpt><trkpt lat="45.7534737" lon="8.7608348"><ele>352.33333333333337</ele><time>2026-05-04T09:42:43.165Z</time></trkpt><trkpt lat="45.7533965" lon="8.7607476"><ele>352.6666666666667</ele><time>2026-05-04T09:42:45.165Z</time></trkpt><trkpt lat="45.7533115" lon="8.7606525"><ele>353.0</ele><time>2026-05-04T09:42:46.164Z</time></trkpt><trkpt lat="45.7532342" lon="8.7605285"><ele>353.0</ele><time>2026-05-04T09:42:48.164Z</time></trkpt><trkpt lat="45.7531581" lon="8.7604122"><ele>353.0</ele><time>2026-05-04T09:42:50.165Z</time></trkpt><trkpt lat="45.7531189" lon="8.7603191"><ele>353.0</ele><time>2026-05-04T09:42:52.165Z</time></trkpt><trkpt lat="45.7530447" lon="8.7602198"><ele>353.0</ele><time>2026-05-04T09:42:54.164Z</time></trkpt><trkpt lat="45.7529831" lon="8.7601184"><ele>353.0</ele><time>2026-05-04T09:42:56.164Z</time></trkpt><trkpt lat="45.7529468" lon="8.7600352"><ele>352.4</ele><time>2026-05-04T09:42:57.164Z</time></trkpt><trkpt lat="45.7528982" lon="8.7599074"><ele>351.79999999999995</ele><time>2026-05-04T09:42:59.164Z</time></trkpt><trkpt lat="45.7528819" lon="8.7597748"><ele>351.2</ele><time>2026-05-04T09:43:01.165Z</time></trkpt><trkpt lat="45.7528632" lon="8.7596409"><ele>350.6</ele><time>2026-05-04T09:43:03.164Z</time></trkpt><trkpt lat="45.7527948" lon="8.7594821"><ele>350.0</ele><time>2026-05-04T09:43:05.165Z</time></trkpt><trkpt lat="45.752734" lon="8.7593969"><ele>349.42857142857144</ele><time>2026-05-04T09:43:06.165Z</time></trkpt><trkpt lat="45.7526586" lon="8.7593405"><ele>348.8571428571429</ele><time>2026-05-04T09:43:07.164Z</time></trkpt><trkpt lat="45.7525993" lon="8.759286"><ele>348.2857142857143</ele><time>2026-05-04T09:43:08.164Z</time></trkpt><trkpt lat="45.7525448" lon="8.7592331"><ele>347.7142857142857</ele><time>2026-05-04T09:43:09.164Z</time></trkpt><trkpt lat="45.7524972" lon="8.7591599"><ele>347.14285714285717</ele><time>2026-05-04T09:43:10.165Z</time></trkpt><trkpt lat="45.7524514" lon="8.7590883"><ele>346.57142857142856</ele><time>2026-05-04T09:43:11.164Z</time></trkpt><trkpt lat="45.7523792" lon="8.7590298"><ele>346.0</ele><time>2026-05-04T09:43:12.165Z</time></trkpt><trkpt lat="45.7523173" lon="8.7589374"><ele>346.0</ele><time>2026-05-04T09:43:13.164Z</time></trkpt><trkpt lat="45.7522147" lon="8.7588257"><ele>346.0</ele><time>2026-05-04T09:43:15.164Z</time></trkpt><trkpt lat="45.7521565" lon="8.7587908"><ele>346.0</ele><time>2026-05-04T09:43:16.164Z</time></trkpt><trkpt lat="45.7520981" lon="8.7587372"><ele>346.0</ele><time>2026-05-04T09:43:17.164Z</time></trkpt><trkpt lat="45.7520719" lon="8.7586317"><ele>346.0</ele><time>2026-05-04T09:43:19.165Z</time></trkpt><trkpt lat="45.7519696" lon="8.7585737"><ele>346.0</ele><time>2026-05-04T09:43:22.164Z</time></trkpt><trkpt lat="45.7518762" lon="8.7585031"><ele>345.5</ele><time>2026-05-04T09:43:24.165Z</time></trkpt><trkpt lat="45.7517994" lon="8.7584114"><ele>345.0</ele><time>2026-05-04T09:43:26.164Z</time></trkpt><trkpt lat="45.7517446" lon="8.7583662"><ele>344.5</ele><time>2026-05-04T09:43:27.164Z</time></trkpt><trkpt lat="45.7516741" lon="8.7583"><ele>344.0</ele><time>2026-05-04T09:43:28.163Z</time></trkpt><trkpt lat="45.7516199" lon="8.7582216"><ele>343.5</ele><time>2026-05-04T09:43:29.164Z</time></trkpt><trkpt lat="45.7515423" lon="8.7581266"><ele>343.0</ele><time>2026-05-04T09:43:30.165Z</time></trkpt><trkpt lat="45.7514428" lon="8.7579918"><ele>343.0</ele><time>2026-05-04T09:43:32.165Z</time></trkpt><trkpt lat="45.7513906" lon="8.7579058"><ele>343.0</ele><time>2026-05-04T09:43:33.164Z</time></trkpt><trkpt lat="45.7513469" lon="8.7578177"><ele>343.0</ele><time>2026-05-04T09:43:34.165Z</time></trkpt><trkpt lat="45.7512844" lon="8.7577165"><ele>343.0</ele><time>2026-05-04T09:43:35.164Z</time></trkpt><trkpt lat="45.7512278" lon="8.7576533"><ele>343.0</ele><time>2026-05-04T09:43:36.164Z</time></trkpt><trkpt lat="45.7511668" lon="8.7575551"><ele>343.0</ele><time>2026-05-04T09:43:37.164Z</time></trkpt><trkpt lat="45.7510985" lon="8.7574625"><ele>341.66666666666663</ele><time>2026-05-04T09:43:38.164Z</time></trkpt><trkpt lat="45.7510353" lon="8.7573853"><ele>340.3333333333333</ele><time>2026-05-04T09:43:39.165Z</time></trkpt><trkpt lat="45.7509884" lon="8.7573006"><ele>339.0</ele><time>2026-05-04T09:43:40.164Z</time></trkpt><trkpt lat="45.7509087" lon="8.7572249"><ele>337.6666666666667</ele><time>2026-05-04T09:43:41.164Z</time></trkpt><trkpt lat="45.7508377" lon="8.7571244"><ele>336.33333333333337</ele><time>2026-05-04T09:43:42.164Z</time></trkpt><trkpt lat="45.750764" lon="8.7570513"><ele>335.0</ele><time>2026-05-04T09:43:43.164Z</time></trkpt><trkpt lat="45.750699" lon="8.7569656"><ele>333.5</ele><time>2026-05-04T09:43:44.165Z</time></trkpt><trkpt lat="45.7506127" lon="8.7568522"><ele>332.0</ele><time>2026-05-04T09:43:46.164Z</time></trkpt><trkpt lat="45.7505506" lon="8.7567672"><ele>330.5</ele><time>2026-05-04T09:43:48.164Z</time></trkpt><trkpt lat="45.750502" lon="8.7566626"><ele>329.0</ele><time>2026-05-04T09:43:49.165Z</time></trkpt><trkpt lat="45.7504465" lon="8.7565751"><ele>327.5</ele><time>2026-05-04T09:43:51.165Z</time></trkpt><trkpt lat="45.7503921" lon="8.75652"><ele>326.0</ele><time>2026-05-04T09:43:53.164Z</time></trkpt><trkpt lat="45.7503671" lon="8.7564194"><ele>326.0</ele><time>2026-05-04T09:43:56.165Z</time></trkpt><trkpt lat="45.7503008" lon="8.7564342"><ele>326.0</ele><time>2026-05-04T09:43:59.164Z</time></trkpt><trkpt lat="45.7502408" lon="8.7564682"><ele>326.0</ele><time>2026-05-04T09:44:02.163Z</time></trkpt><trkpt lat="45.7501687" lon="8.7565126"><ele>326.0</ele><time>2026-05-04T09:44:04.164Z</time></trkpt><trkpt lat="45.7501035" lon="8.7565637"><ele>326.0</ele><time>2026-05-04T09:44:06.164Z</time></trkpt><trkpt lat="45.7500416" lon="8.7566189"><ele>326.0</ele><time>2026-05-04T09:44:08.163Z</time></trkpt><trkpt lat="45.7499772" lon="8.7566751"><ele>326.0</ele><time>2026-05-04T09:44:10.164Z</time></trkpt><trkpt lat="45.7499174" lon="8.7567149"><ele>325.5</ele><time>2026-05-04T09:44:12.165Z</time></trkpt><trkpt lat="45.749846" lon="8.7567658"><ele>325.0</ele><time>2026-05-04T09:44:15.165Z</time></trkpt><trkpt lat="45.7498567" lon="8.7568812"><ele>324.5</ele><time>2026-05-04T09:44:19.164Z</time></trkpt><trkpt lat="45.7498857" lon="8.756997"><ele>324.0</ele><time>2026-05-04T09:44:22.165Z</time></trkpt><trkpt lat="45.7498809" lon="8.7571317"><ele>323.5</ele><time>2026-05-04T09:44:41.165Z</time></trkpt><trkpt lat="45.7498645" lon="8.7572377"><ele>323.0</ele><time>2026-05-04T09:44:47.165Z</time></trkpt><trkpt lat="45.7498162" lon="8.7573136"><ele>324.5</ele><time>2026-05-04T09:44:53.165Z</time></trkpt><trkpt lat="45.7497956" lon="8.7574012"><ele>326.0</ele><time>2026-05-04T09:44:56.164Z</time></trkpt><trkpt lat="45.7497602" lon="8.7575071"><ele>327.5</ele><time>2026-05-04T09:44:59.165Z</time></trkpt><trkpt lat="45.749713" lon="8.757582"><ele>329.0</ele><time>2026-05-04T09:45:04.165Z</time></trkpt><trkpt lat="45.7496825" lon="8.7576822"><ele>330.5</ele><time>2026-05-04T09:45:09.164Z</time></trkpt><trkpt lat="45.7496137" lon="8.7577353"><ele>332.0</ele><time>2026-05-04T09:45:13.165Z</time></trkpt><trkpt lat="45.7495405" lon="8.7578038"><ele>332.5</ele><time>2026-05-04T09:45:36.164Z</time></trkpt><trkpt lat="45.7495365" lon="8.7579115"><ele>333.0</ele><time>2026-05-04T09:45:42.163Z</time></trkpt><trkpt lat="45.7494801" lon="8.7580127"><ele>333.5</ele><time>2026-05-04T09:45:44.164Z</time></trkpt><trkpt lat="45.749412" lon="8.7580621"><ele>334.0</ele><time>2026-05-04T09:45:46.164Z</time></trkpt><trkpt lat="45.7493441" lon="8.7580564"><ele>334.5</ele><time>2026-05-04T09:45:48.164Z</time></trkpt><trkpt lat="45.7492758" lon="8.7580236"><ele>335.0</ele><time>2026-05-04T09:45:50.165Z</time></trkpt><trkpt lat="45.7492033" lon="8.7580045"><ele>333.6666666666667</ele><time>2026-05-04T09:45:52.164Z</time></trkpt><trkpt lat="45.7491207" lon="8.7579931"><ele>332.33333333333337</ele><time>2026-05-04T09:45:55.164Z</time></trkpt><trkpt lat="45.7490449" lon="8.7579735"><ele>331.0</ele><time>2026-05-04T09:45:58.165Z</time></trkpt><trkpt lat="45.7489756" lon="8.7579514"><ele>329.6666666666667</ele><time>2026-05-04T09:46:01.164Z</time></trkpt><trkpt lat="45.748893" lon="8.7578708"><ele>328.3333333333333</ele><time>2026-05-04T09:46:04.165Z</time></trkpt><trkpt lat="45.7488242" lon="8.7577968"><ele>327.0</ele><time>2026-05-04T09:46:06.164Z</time></trkpt><trkpt lat="45.7487604" lon="8.7577128"><ele>327.6</ele><time>2026-05-04T09:46:08.163Z</time></trkpt><trkpt lat="45.7486767" lon="8.7576363"><ele>328.20000000000005</ele><time>2026-05-04T09:46:10.164Z</time></trkpt><trkpt lat="45.7485688" lon="8.7575499"><ele>328.8</ele><time>2026-05-04T09:46:11.164Z</time></trkpt><trkpt lat="45.7484682" lon="8.7574415"><ele>329.4</ele><time>2026-05-04T09:46:13.164Z</time></trkpt><trkpt lat="45.7484103" lon="8.7573862"><ele>330.0</ele><time>2026-05-04T09:46:14.164Z</time></trkpt><trkpt lat="45.748301" lon="8.7573098"><ele>328.6666666666667</ele><time>2026-05-04T09:46:16.165Z</time></trkpt><trkpt lat="45.7482229" lon="8.7572441"><ele>327.3333333333333</ele><time>2026-05-04T09:46:17.164Z</time></trkpt><trkpt lat="45.7481479" lon="8.7571779"><ele>326.0</ele><time>2026-05-04T09:46:20.164Z</time></trkpt><trkpt lat="45.7480901" lon="8.7570514"><ele>324.66666666666663</ele><time>2026-05-04T09:46:32.164Z</time></trkpt><trkpt lat="45.7480273" lon="8.7570254"><ele>323.3333333333333</ele><time>2026-05-04T09:46:42.164Z</time></trkpt><trkpt lat="45.7479521" lon="8.7570311"><ele>322.0</ele><time>2026-05-04T09:46:46.164Z</time></trkpt><trkpt lat="45.7478645" lon="8.7569834"><ele>322.0</ele><time>2026-05-04T09:46:49.164Z</time></trkpt><trkpt lat="45.7477395" lon="8.7570567"><ele>322.0</ele><time>2026-05-04T09:46:52.164Z</time></trkpt><trkpt lat="45.7476792" lon="8.7571005"><ele>322.0</ele><time>2026-05-04T09:46:53.164Z</time></trkpt><trkpt lat="45.7475692" lon="8.75717"><ele>322.0</ele><time>2026-05-04T09:46:55.165Z</time></trkpt><trkpt lat="45.7474901" lon="8.7572211"><ele>322.0</ele><time>2026-05-04T09:46:56.164Z</time></trkpt><trkpt lat="45.7474088" lon="8.7572324"><ele>320.5</ele><time>2026-05-04T09:46:57.164Z</time></trkpt><trkpt lat="45.747389" lon="8.7573253"><ele>319.0</ele><time>2026-05-04T09:47:02.164Z</time></trkpt><trkpt lat="45.747404" lon="8.7574404"><ele>317.5</ele><time>2026-05-04T09:47:04.164Z</time></trkpt><trkpt lat="45.7474154" lon="8.757602"><ele>316.0</ele><time>2026-05-04T09:47:06.164Z</time></trkpt><trkpt lat="45.747414" lon="8.7577331"><ele>314.5</ele><time>2026-05-04T09:47:09.165Z</time></trkpt><trkpt lat="45.7474144" lon="8.7578385"><ele>313.0</ele><time>2026-05-04T09:47:11.165Z</time></trkpt><trkpt lat="45.7474428" lon="8.7579927"><ele>312.2</ele><time>2026-05-04T09:47:13.165Z</time></trkpt><trkpt lat="45.7474564" lon="8.7581229"><ele>311.4</ele><time>2026-05-04T09:47:15.164Z</time></trkpt><trkpt lat="45.7474647" lon="8.7582858"><ele>310.59999999999997</ele><time>2026-05-04T09:47:17.165Z</time></trkpt><trkpt lat="45.7474535" lon="8.7584312"><ele>309.8</ele><time>2026-05-04T09:47:19.165Z</time></trkpt><trkpt lat="45.747415" lon="8.7585548"><ele>309.0</ele><time>2026-05-04T09:47:21.164Z</time></trkpt><trkpt lat="45.7473732" lon="8.7586472"><ele>307.8571428571429</ele><time>2026-05-04T09:47:23.164Z</time></trkpt><trkpt lat="45.7473215" lon="8.7587294"><ele>306.7142857142857</ele><time>2026-05-04T09:47:26.164Z</time></trkpt><trkpt lat="45.7472799" lon="8.7588199"><ele>305.57142857142856</ele><time>2026-05-04T09:47:29.164Z</time></trkpt><trkpt lat="45.7472219" lon="8.758863"><ele>304.42857142857144</ele><time>2026-05-04T09:47:51.164Z</time></trkpt><trkpt lat="45.7471497" lon="8.7587961"><ele>303.2857142857143</ele><time>2026-05-04T09:47:54.165Z</time></trkpt><trkpt lat="45.7470862" lon="8.758729"><ele>302.14285714285717</ele><time>2026-05-04T09:47:57.165Z</time></trkpt><trkpt lat="45.747027" lon="8.758689"><ele>301.0</ele><time>2026-05-04T09:48:00.165Z</time></trkpt><trkpt lat="45.7469514" lon="8.7586535"><ele>301.0</ele><time>2026-05-04T09:48:03.164Z</time></trkpt><trkpt lat="45.7468627" lon="8.758605"><ele>301.0</ele><time>2026-05-04T09:48:06.165Z</time></trkpt><trkpt lat="45.7468034" lon="8.7585419"><ele>301.0</ele><time>2026-05-04T09:48:08.164Z</time></trkpt><trkpt lat="45.7467505" lon="8.7584538"><ele>301.0</ele><time>2026-05-04T09:48:10.165Z</time></trkpt><trkpt lat="45.7466892" lon="8.7583666"><ele>301.0</ele><time>2026-05-04T09:48:12.165Z</time></trkpt><trkpt lat="45.7466412" lon="8.7582545"><ele>301.0</ele><time>2026-05-04T09:48:14.164Z</time></trkpt><trkpt lat="45.7466053" lon="8.7581356"><ele>302.40000000000003</ele><time>2026-05-04T09:48:16.164Z</time></trkpt><trkpt lat="45.746556" lon="8.7580592"><ele>303.8</ele><time>2026-05-04T09:48:18.164Z</time></trkpt><trkpt lat="45.7464721" lon="8.7580022"><ele>305.20000000000005</ele><time>2026-05-04T09:48:20.165Z</time></trkpt><trkpt lat="45.7464094" lon="8.7578952"><ele>306.6</ele><time>2026-05-04T09:48:22.164Z</time></trkpt><trkpt lat="45.7463233" lon="8.757867"><ele>308.0</ele><time>2026-05-04T09:48:23.165Z</time></trkpt><trkpt lat="45.7462039" lon="8.7578272"><ele>308.0</ele><time>2026-05-04T09:48:25.165Z</time></trkpt><trkpt lat="45.7461219" lon="8.7578089"><ele>308.0</ele><time>2026-05-04T09:48:27.166Z</time></trkpt><trkpt lat="45.7460654" lon="8.7577546"><ele>308.0</ele><time>2026-05-04T09:48:29.165Z</time></trkpt><trkpt lat="45.7460095" lon="8.7577077"><ele>308.0</ele><time>2026-05-04T09:48:31.165Z</time></trkpt><trkpt lat="45.7459484" lon="8.7576633"><ele>308.0</ele><time>2026-05-04T09:48:33.166Z</time></trkpt><trkpt lat="45.7458666" lon="8.7576155"><ele>308.0</ele><time>2026-05-04T09:48:35.164Z</time></trkpt><trkpt lat="45.745804" lon="8.7575745"><ele>308.0</ele><time>2026-05-04T09:48:37.166Z</time></trkpt><trkpt lat="45.7457279" lon="8.7575118"><ele>310.0</ele><time>2026-05-04T09:48:40.164Z</time></trkpt><trkpt lat="45.7456695" lon="8.7574687"><ele>312.0</ele><time>2026-05-04T09:48:43.164Z</time></trkpt><trkpt lat="45.7456042" lon="8.7574647"><ele>314.0</ele><time>2026-05-04T09:48:46.166Z</time></trkpt><trkpt lat="45.7455198" lon="8.7574406"><ele>316.0</ele><time>2026-05-04T09:48:49.164Z</time></trkpt><trkpt lat="45.7454419" lon="8.7574114"><ele>318.0</ele><time>2026-05-04T09:48:51.165Z</time></trkpt><trkpt lat="45.7453614" lon="8.7573864"><ele>320.0</ele><time>2026-05-04T09:48:53.165Z</time></trkpt><trkpt lat="45.7452793" lon="8.7573713"><ele>319.83333333333337</ele><time>2026-05-04T09:48:55.163Z</time></trkpt><trkpt lat="45.7452006" lon="8.7573765"><ele>319.6666666666667</ele><time>2026-05-04T09:48:57.163Z</time></trkpt><trkpt lat="45.7451186" lon="8.7573505"><ele>319.5</ele><time>2026-05-04T09:49:00.163Z</time></trkpt><trkpt lat="45.745044" lon="8.7573021"><ele>319.3333333333333</ele><time>2026-05-04T09:49:03.163Z</time></trkpt><trkpt lat="45.744961" lon="8.7572685"><ele>319.16666666666663</ele><time>2026-05-04T09:49:06.163Z</time></trkpt><trkpt lat="45.7449038" lon="8.7572263"><ele>319.0</ele><time>2026-05-04T09:49:07.163Z</time></trkpt><trkpt lat="45.7448378" lon="8.7572177"><ele>319.0</ele><time>2026-05-04T09:49:09.164Z</time></trkpt><trkpt lat="45.7447531" lon="8.7571781"><ele>319.0</ele><time>2026-05-04T09:49:11.164Z</time></trkpt><trkpt lat="45.7446884" lon="8.7571664"><ele>319.0</ele><time>2026-05-04T09:49:13.163Z</time></trkpt><trkpt lat="45.7446166" lon="8.7571306"><ele>319.0</ele><time>2026-05-04T09:49:15.163Z</time></trkpt><trkpt lat="45.744552" lon="8.7570888"><ele>319.0</ele><time>2026-05-04T09:49:17.164Z</time></trkpt><trkpt lat="45.7444731" lon="8.757053"><ele>319.0</ele><time>2026-05-04T09:49:20.163Z</time></trkpt><trkpt lat="45.7443852" lon="8.7569999"><ele>318.66666666666663</ele><time>2026-05-04T09:49:23.165Z</time></trkpt><trkpt lat="45.7443163" lon="8.7569776"><ele>318.3333333333333</ele><time>2026-05-04T09:49:25.166Z</time></trkpt><trkpt lat="45.7442432" lon="8.7569132"><ele>318.0</ele><time>2026-05-04T09:49:28.164Z</time></trkpt><trkpt lat="45.7441858" lon="8.756863"><ele>317.6666666666667</ele><time>2026-05-04T09:49:30.165Z</time></trkpt><trkpt lat="45.7441204" lon="8.7568202"><ele>317.33333333333337</ele><time>2026-05-04T09:49:32.165Z</time></trkpt><trkpt lat="45.7440427" lon="8.7567694"><ele>317.0</ele><time>2026-05-04T09:49:35.164Z</time></trkpt><trkpt lat="45.743976" lon="8.7567439"><ele>319.6</ele><time>2026-05-04T09:49:37.165Z</time></trkpt><trkpt lat="45.7438637" lon="8.7566924"><ele>322.2</ele><time>2026-05-04T09:49:38.164Z</time></trkpt><trkpt lat="45.7437736" lon="8.7565559"><ele>324.8</ele><time>2026-05-04T09:49:40.166Z</time></trkpt><trkpt lat="45.7437016" lon="8.7564772"><ele>327.4</ele><time>2026-05-04T09:49:42.165Z</time></trkpt><trkpt lat="45.7436572" lon="8.7563551"><ele>330.0</ele><time>2026-05-04T09:49:44.164Z</time></trkpt><trkpt lat="45.7436664" lon="8.75622"><ele>330.0</ele><time>2026-05-04T09:49:45.164Z</time></trkpt><trkpt lat="45.7435882" lon="8.7561419"><ele>330.0</ele><time>2026-05-04T09:49:47.165Z</time></trkpt><trkpt lat="45.7436501" lon="8.7560973"><ele>330.0</ele><time>2026-05-04T09:49:48.164Z</time></trkpt><trkpt lat="45.7436404" lon="8.7559294"><ele>330.0</ele><time>2026-05-04T09:49:50.166Z</time></trkpt><trkpt lat="45.7435788" lon="8.755902"><ele>330.0</ele><time>2026-05-04T09:49:51.165Z</time></trkpt><trkpt lat="45.7435484" lon="8.7558114"><ele>330.0</ele><time>2026-05-04T09:49:53.165Z</time></trkpt><trkpt lat="45.7434897" lon="8.7557673"><ele>330.14285714285717</ele><time>2026-05-04T09:49:55.165Z</time></trkpt><trkpt lat="45.7434253" lon="8.7557135"><ele>330.2857142857143</ele><time>2026-05-04T09:49:57.164Z</time></trkpt><trkpt lat="45.7434137" lon="8.7556238"><ele>330.42857142857144</ele><time>2026-05-04T09:50:01.164Z</time></trkpt><trkpt lat="45.7433486" lon="8.7555918"><ele>330.57142857142856</ele><time>2026-05-04T09:50:04.165Z</time></trkpt><trkpt lat="45.7433035" lon="8.7555244"><ele>330.7142857142857</ele><time>2026-05-04T09:50:06.165Z</time></trkpt><trkpt lat="45.7432278" lon="8.7554607"><ele>330.8571428571429</ele><time>2026-05-04T09:50:09.164Z</time></trkpt><trkpt lat="45.7431544" lon="8.7554475"><ele>331.0</ele><time>2026-05-04T09:50:12.164Z</time></trkpt><trkpt lat="45.7430819" lon="8.7554526"><ele>331.0</ele><time>2026-05-04T09:50:14.164Z</time></trkpt><trkpt lat="45.7429937" lon="8.7554289"><ele>331.0</ele><time>2026-05-04T09:50:16.164Z</time></trkpt><trkpt lat="45.7429217" lon="8.7554146"><ele>331.0</ele><time>2026-05-04T09:50:18.164Z</time></trkpt><trkpt lat="45.7428584" lon="8.7554175"><ele>331.0</ele><time>2026-05-04T09:50:21.164Z</time></trkpt><trkpt lat="45.7427928" lon="8.7554195"><ele>331.0</ele><time>2026-05-04T09:50:26.165Z</time></trkpt><trkpt lat="45.7426933" lon="8.7553992"><ele>331.0</ele><time>2026-05-04T09:50:37.163Z</time></trkpt><trkpt lat="45.7425231" lon="8.7553548"><ele>329.20000000000005</ele><time>2026-05-04T09:50:39.165Z</time></trkpt><trkpt lat="45.7424521" lon="8.7553194"><ele>327.40000000000003</ele><time>2026-05-04T09:50:40.165Z</time></trkpt><trkpt lat="45.7423832" lon="8.7553221"><ele>325.6</ele><time>2026-05-04T09:50:41.164Z</time></trkpt><trkpt lat="45.7422683" lon="8.7553232"><ele>323.8</ele><time>2026-05-04T09:50:43.165Z</time></trkpt><trkpt lat="45.7421961" lon="8.7552839"><ele>322.0</ele><time>2026-05-04T09:50:44.165Z</time></trkpt><trkpt lat="45.7420806" lon="8.7552828"><ele>322.0</ele><time>2026-05-04T09:50:46.165Z</time></trkpt><trkpt lat="45.7419743" lon="8.7553002"><ele>322.0</ele><time>2026-05-04T09:50:49.165Z</time></trkpt><trkpt lat="45.7419069" lon="8.7553253"><ele>322.0</ele><time>2026-05-04T09:50:51.163Z</time></trkpt><trkpt lat="45.7418304" lon="8.7553303"><ele>322.0</ele><time>2026-05-04T09:50:53.165Z</time></trkpt><trkpt lat="45.7417223" lon="8.7553337"><ele>322.0</ele><time>2026-05-04T09:50:55.164Z</time></trkpt><trkpt lat="45.7416729" lon="8.7552654"><ele>322.0</ele><time>2026-05-04T09:50:57.165Z</time></trkpt><trkpt lat="45.7415378" lon="8.7551913"><ele>321.0</ele><time>2026-05-04T09:50:59.164Z</time></trkpt><trkpt lat="45.741409" lon="8.7551353"><ele>320.0</ele><time>2026-05-04T09:51:01.165Z</time></trkpt><trkpt lat="45.7413321" lon="8.7550485"><ele>319.0</ele><time>2026-05-04T09:51:03.164Z</time></trkpt><trkpt lat="45.741266" lon="8.7550037"><ele>318.0</ele><time>2026-05-04T09:51:05.164Z</time></trkpt><trkpt lat="45.7412133" lon="8.7549477"><ele>317.0</ele><time>2026-05-04T09:51:07.165Z</time></trkpt><trkpt lat="45.7411451" lon="8.7551092"><ele>316.6</ele><time>2026-05-04T09:51:14.165Z</time></trkpt><trkpt lat="45.7411225" lon="8.7552132"><ele>316.2</ele><time>2026-05-04T09:51:18.165Z</time></trkpt><trkpt lat="45.7411096" lon="8.755329"><ele>315.8</ele><time>2026-05-04T09:51:22.164Z</time></trkpt><trkpt lat="45.7410973" lon="8.7554344"><ele>315.4</ele><time>2026-05-04T09:51:24.164Z</time></trkpt><trkpt lat="45.7410165" lon="8.7556051"><ele>315.0</ele><time>2026-05-04T09:51:26.164Z</time></trkpt><trkpt lat="45.7409622" lon="8.755756"><ele>312.2</ele><time>2026-05-04T09:51:28.164Z</time></trkpt><trkpt lat="45.7409081" lon="8.7559856"><ele>309.4</ele><time>2026-05-04T09:51:30.164Z</time></trkpt><trkpt lat="45.740872" lon="8.7560806"><ele>306.6</ele><time>2026-05-04T09:51:31.165Z</time></trkpt><trkpt lat="45.7408187" lon="8.7562004"><ele>303.8</ele><time>2026-05-04T09:51:32.164Z</time></trkpt><trkpt lat="45.740769" lon="8.7562958"><ele>301.0</ele><time>2026-05-04T09:51:33.164Z</time></trkpt><trkpt lat="45.7407131" lon="8.7563867"><ele>300.0</ele><time>2026-05-04T09:51:34.163Z</time></trkpt><trkpt lat="45.7406623" lon="8.756474"><ele>299.0</ele><time>2026-05-04T09:51:35.164Z</time></trkpt><trkpt lat="45.7406099" lon="8.756551"><ele>298.0</ele><time>2026-05-04T09:51:37.165Z</time></trkpt><trkpt lat="45.7405264" lon="8.7565989"><ele>297.0</ele><time>2026-05-04T09:51:39.165Z</time></trkpt><trkpt lat="45.7404398" lon="8.7565757"><ele>296.0</ele><time>2026-05-04T09:51:41.164Z</time></trkpt><trkpt lat="45.7403791" lon="8.7565258"><ele>295.0</ele><time>2026-05-04T09:51:43.165Z</time></trkpt><trkpt lat="45.740294" lon="8.7565779"><ele>295.0</ele><time>2026-05-04T09:51:46.165Z</time></trkpt><trkpt lat="45.7402704" lon="8.7566703"><ele>295.0</ele><time>2026-05-04T09:51:47.164Z</time></trkpt><trkpt lat="45.7402279" lon="8.7567929"><ele>295.0</ele><time>2026-05-04T09:51:49.164Z</time></trkpt><trkpt lat="45.7401972" lon="8.7568758"><ele>295.0</ele><time>2026-05-04T09:51:51.164Z</time></trkpt><trkpt lat="45.7401674" lon="8.756997"><ele>295.0</ele><time>2026-05-04T09:51:53.164Z</time></trkpt><trkpt lat="45.7401409" lon="8.7570837"><ele>295.0</ele><time>2026-05-04T09:51:55.164Z</time></trkpt><trkpt lat="45.7401275" lon="8.7571938"><ele>293.4</ele><time>2026-05-04T09:51:57.164Z</time></trkpt><trkpt lat="45.7400496" lon="8.7573732"><ele>291.8</ele><time>2026-05-04T09:51:59.163Z</time></trkpt><trkpt lat="45.740013" lon="8.7575003"><ele>290.2</ele><time>2026-05-04T09:52:01.163Z</time></trkpt><trkpt lat="45.7399703" lon="8.757619"><ele>288.6</ele><time>2026-05-04T09:52:03.165Z</time></trkpt><trkpt lat="45.7399402" lon="8.757708"><ele>287.0</ele><time>2026-05-04T09:52:05.164Z</time></trkpt><trkpt lat="45.7398893" lon="8.7578058"><ele>287.0</ele><time>2026-05-04T09:52:07.164Z</time></trkpt><trkpt lat="45.7398524" lon="8.75791"><ele>287.0</ele><time>2026-05-04T09:52:09.164Z</time></trkpt><trkpt lat="45.7398308" lon="8.758013"><ele>287.0</ele><time>2026-05-04T09:52:11.165Z</time></trkpt><trkpt lat="45.7397737" lon="8.7580823"><ele>287.0</ele><time>2026-05-04T09:52:13.165Z</time></trkpt><trkpt lat="45.7396836" lon="8.7580812"><ele>287.0</ele><time>2026-05-04T09:52:15.163Z</time></trkpt><trkpt lat="45.7396016" lon="8.7580664"><ele>287.0</ele><time>2026-05-04T09:52:17.163Z</time></trkpt><trkpt lat="45.739515" lon="8.7580489"><ele>287.0</ele><time>2026-05-04T09:52:19.165Z</time></trkpt><trkpt lat="45.7394274" lon="8.7580268"><ele>287.0</ele><time>2026-05-04T09:52:21.165Z</time></trkpt><trkpt lat="45.7393428" lon="8.7579984"><ele>287.0</ele><time>2026-05-04T09:52:23.165Z</time></trkpt><trkpt lat="45.7392669" lon="8.7579938"><ele>287.0</ele><time>2026-05-04T09:52:25.164Z</time></trkpt><trkpt lat="45.7391899" lon="8.7579645"><ele>287.0</ele><time>2026-05-04T09:52:27.163Z</time></trkpt><trkpt lat="45.7391084" lon="8.7579534"><ele>287.0</ele><time>2026-05-04T09:52:29.165Z</time></trkpt><trkpt lat="45.7390241" lon="8.7579386"><ele>287.1666666666667</ele><time>2026-05-04T09:52:31.165Z</time></trkpt><trkpt lat="45.7389442" lon="8.7579118"><ele>287.33333333333337</ele><time>2026-05-04T09:52:33.164Z</time></trkpt><trkpt lat="45.7388676" lon="8.7578756"><ele>287.5</ele><time>2026-05-04T09:52:35.164Z</time></trkpt><trkpt lat="45.7387962" lon="8.757839"><ele>287.6666666666667</ele><time>2026-05-04T09:52:37.164Z</time></trkpt><trkpt lat="45.7387174" lon="8.7578132"><ele>287.8333333333333</ele><time>2026-05-04T09:52:39.165Z</time></trkpt><trkpt lat="45.7386375" lon="8.7577911"><ele>288.0</ele><time>2026-05-04T09:52:41.165Z</time></trkpt><trkpt lat="45.7385619" lon="8.7577542"><ele>288.4</ele><time>2026-05-04T09:52:43.164Z</time></trkpt><trkpt lat="45.738483" lon="8.7577095"><ele>288.8</ele><time>2026-05-04T09:52:45.165Z</time></trkpt><trkpt lat="45.738379" lon="8.7576481"><ele>289.2</ele><time>2026-05-04T09:52:47.164Z</time></trkpt><trkpt lat="45.738296" lon="8.757603"><ele>289.6</ele><time>2026-05-04T09:52:49.164Z</time></trkpt><trkpt lat="45.7382102" lon="8.7575503"><ele>290.0</ele><time>2026-05-04T09:52:51.165Z</time></trkpt><trkpt lat="45.7381428" lon="8.7574837"><ele>289.33333333333337</ele><time>2026-05-04T09:52:53.165Z</time></trkpt><trkpt lat="45.7380678" lon="8.7574318"><ele>288.6666666666667</ele><time>2026-05-04T09:52:55.164Z</time></trkpt><trkpt lat="45.7379873" lon="8.7573745"><ele>288.0</ele><time>2026-05-04T09:52:57.165Z</time></trkpt><trkpt lat="45.7379032" lon="8.7573164"><ele>287.3333333333333</ele><time>2026-05-04T09:52:59.164Z</time></trkpt><trkpt lat="45.7378191" lon="8.7572869"><ele>286.66666666666663</ele><time>2026-05-04T09:53:01.164Z</time></trkpt><trkpt lat="45.7377351" lon="8.7572498"><ele>286.0</ele><time>2026-05-04T09:53:03.163Z</time></trkpt><trkpt lat="45.737652" lon="8.7572239"><ele>286.0</ele><time>2026-05-04T09:53:05.164Z</time></trkpt><trkpt lat="45.7375716" lon="8.7572047"><ele>286.0</ele><time>2026-05-04T09:53:07.165Z</time></trkpt><trkpt lat="45.7374913" lon="8.7571846"><ele>286.0</ele><time>2026-05-04T09:53:09.164Z</time></trkpt><trkpt lat="45.7374099" lon="8.7571681"><ele>286.0</ele><time>2026-05-04T09:53:11.164Z</time></trkpt><trkpt lat="45.7373273" lon="8.7571477"><ele>286.0</ele><time>2026-05-04T09:53:13.164Z</time></trkpt><trkpt lat="45.7372435" lon="8.7571251"><ele>286.0</ele><time>2026-05-04T09:53:15.165Z</time></trkpt><trkpt lat="45.7371658" lon="8.7570982"><ele>286.0</ele><time>2026-05-04T09:53:17.165Z</time></trkpt><trkpt lat="45.7370895" lon="8.7570669"><ele>286.0</ele><time>2026-05-04T09:53:19.165Z</time></trkpt><trkpt lat="45.7370096" lon="8.7570312"><ele>286.0</ele><time>2026-05-04T09:53:21.165Z</time></trkpt><trkpt lat="45.7369268" lon="8.7569991"><ele>286.0</ele><time>2026-05-04T09:53:23.164Z</time></trkpt><trkpt lat="45.7368446" lon="8.7569657"><ele>286.0</ele><time>2026-05-04T09:53:25.164Z</time></trkpt><trkpt lat="45.7367682" lon="8.7569087"><ele>286.0</ele><time>2026-05-04T09:53:27.165Z</time></trkpt><trkpt lat="45.7367025" lon="8.7568126"><ele>287.0</ele><time>2026-05-04T09:53:29.164Z</time></trkpt><trkpt lat="45.736642" lon="8.7567092"><ele>288.0</ele><time>2026-05-04T09:53:31.164Z</time></trkpt><trkpt lat="45.7365772" lon="8.7566357"><ele>289.0</ele><time>2026-05-04T09:53:33.164Z</time></trkpt><trkpt lat="45.7364828" lon="8.7566229"><ele>290.0</ele><time>2026-05-04T09:53:35.164Z</time></trkpt><trkpt lat="45.7363738" lon="8.756652"><ele>291.0</ele><time>2026-05-04T09:53:37.164Z</time></trkpt><trkpt lat="45.7362599" lon="8.7566798"><ele>291.0</ele><time>2026-05-04T09:53:39.164Z</time></trkpt><trkpt lat="45.736169" lon="8.7567231"><ele>291.0</ele><time>2026-05-04T09:53:41.165Z</time></trkpt><trkpt lat="45.7360837" lon="8.7567551"><ele>291.0</ele><time>2026-05-04T09:53:43.165Z</time></trkpt><trkpt lat="45.735997" lon="8.7567728"><ele>291.0</ele><time>2026-05-04T09:53:45.165Z</time></trkpt><trkpt lat="45.7358975" lon="8.7568125"><ele>291.0</ele><time>2026-05-04T09:53:47.165Z</time></trkpt><trkpt lat="45.7358054" lon="8.7568523"><ele>289.40000000000003</ele><time>2026-05-04T09:53:49.164Z</time></trkpt><trkpt lat="45.7357075" lon="8.7569046"><ele>287.8</ele><time>2026-05-04T09:53:51.165Z</time></trkpt><trkpt lat="45.7356131" lon="8.7569508"><ele>286.20000000000005</ele><time>2026-05-04T09:53:53.163Z</time></trkpt><trkpt lat="45.7355086" lon="8.7570004"><ele>284.6</ele><time>2026-05-04T09:53:55.164Z</time></trkpt><trkpt lat="45.7354087" lon="8.7570341"><ele>283.0</ele><time>2026-05-04T09:53:57.164Z</time></trkpt><trkpt lat="45.7353041" lon="8.7570715"><ele>283.8</ele><time>2026-05-04T09:53:59.163Z</time></trkpt><trkpt lat="45.7352019" lon="8.757078"><ele>284.6</ele><time>2026-05-04T09:54:01.165Z</time></trkpt><trkpt lat="45.735093" lon="8.7570765"><ele>285.4</ele><time>2026-05-04T09:54:03.164Z</time></trkpt><trkpt lat="45.7349982" lon="8.7570231"><ele>286.2</ele><time>2026-05-04T09:54:05.165Z</time></trkpt><trkpt lat="45.7349107" lon="8.7569823"><ele>287.0</ele><time>2026-05-04T09:54:07.165Z</time></trkpt><trkpt lat="45.7348229" lon="8.7569369"><ele>288.1666666666667</ele><time>2026-05-04T09:54:09.164Z</time></trkpt><trkpt lat="45.7347544" lon="8.7568691"><ele>289.33333333333337</ele><time>2026-05-04T09:54:11.164Z</time></trkpt><trkpt lat="45.7346713" lon="8.7568104"><ele>290.5</ele><time>2026-05-04T09:54:14.164Z</time></trkpt><trkpt lat="45.7345928" lon="8.7567754"><ele>291.6666666666667</ele><time>2026-05-04T09:54:16.165Z</time></trkpt><trkpt lat="45.7345067" lon="8.7567503"><ele>292.8333333333333</ele><time>2026-05-04T09:54:18.164Z</time></trkpt><trkpt lat="45.7344154" lon="8.7567312"><ele>294.0</ele><time>2026-05-04T09:54:20.164Z</time></trkpt><trkpt lat="45.7343359" lon="8.7566931"><ele>294.0</ele><time>2026-05-04T09:54:22.164Z</time></trkpt><trkpt lat="45.734248" lon="8.7566759"><ele>294.0</ele><time>2026-05-04T09:54:24.164Z</time></trkpt><trkpt lat="45.7341811" lon="8.7566564"><ele>294.0</ele><time>2026-05-04T09:54:26.165Z</time></trkpt><trkpt lat="45.7340998" lon="8.7566503"><ele>294.0</ele><time>2026-05-04T09:54:28.164Z</time></trkpt><trkpt lat="45.7340227" lon="8.756625"><ele>294.0</ele><time>2026-05-04T09:54:30.165Z</time></trkpt><trkpt lat="45.7339293" lon="8.7565936"><ele>294.0</ele><time>2026-05-04T09:54:32.165Z</time></trkpt><trkpt lat="45.7338274" lon="8.7565558"><ele>294.0</ele><time>2026-05-04T09:54:34.164Z</time></trkpt><trkpt lat="45.7337265" lon="8.7565363"><ele>294.0</ele><time>2026-05-04T09:54:36.164Z</time></trkpt><trkpt lat="45.7336337" lon="8.7565122"><ele>294.0</ele><time>2026-05-04T09:54:38.164Z</time></trkpt><trkpt lat="45.7335292" lon="8.756509"><ele>294.0</ele><time>2026-05-04T09:54:40.164Z</time></trkpt><trkpt lat="45.7334215" lon="8.7565083"><ele>294.0</ele><time>2026-05-04T09:54:42.165Z</time></trkpt><trkpt lat="45.733312" lon="8.75651"><ele>293.59999999999997</ele><time>2026-05-04T09:54:44.164Z</time></trkpt><trkpt lat="45.733207" lon="8.7565192"><ele>293.2</ele><time>2026-05-04T09:54:46.165Z</time></trkpt><trkpt lat="45.7330966" lon="8.7565658"><ele>292.79999999999995</ele><time>2026-05-04T09:54:48.164Z</time></trkpt><trkpt lat="45.7329921" lon="8.7565982"><ele>292.4</ele><time>2026-05-04T09:54:50.164Z</time></trkpt><trkpt lat="45.732893" lon="8.7566043"><ele>292.0</ele><time>2026-05-04T09:54:52.164Z</time></trkpt><trkpt lat="45.7328347" lon="8.7565423"><ele>291.2</ele><time>2026-05-04T09:54:53.163Z</time></trkpt><trkpt lat="45.7327215" lon="8.7565057"><ele>290.4</ele><time>2026-05-04T09:54:55.165Z</time></trkpt><trkpt lat="45.732612" lon="8.7564406"><ele>289.6</ele><time>2026-05-04T09:54:57.164Z</time></trkpt><trkpt lat="45.732551" lon="8.756415"><ele>288.8</ele><time>2026-05-04T09:54:58.165Z</time></trkpt><trkpt lat="45.7324442" lon="8.7563585"><ele>288.0</ele><time>2026-05-04T09:55:00.164Z</time></trkpt><trkpt lat="45.732331" lon="8.7563279"><ele>288.0</ele><time>2026-05-04T09:55:02.164Z</time></trkpt><trkpt lat="45.7322073" lon="8.7563166"><ele>288.0</ele><time>2026-05-04T09:55:04.165Z</time></trkpt><trkpt lat="45.7320855" lon="8.7562961"><ele>288.0</ele><time>2026-05-04T09:55:06.164Z</time></trkpt><trkpt lat="45.731992" lon="8.7563056"><ele>288.0</ele><time>2026-05-04T09:55:08.164Z</time></trkpt><trkpt lat="45.7319185" lon="8.7562953"><ele>288.0</ele><time>2026-05-04T09:55:09.166Z</time></trkpt><trkpt lat="45.731773" lon="8.7562897"><ele>288.1666666666667</ele><time>2026-05-04T09:55:11.165Z</time></trkpt><trkpt lat="45.731704" lon="8.7562792"><ele>288.3333333333333</ele><time>2026-05-04T09:55:12.164Z</time></trkpt><trkpt lat="45.7316173" lon="8.7562507"><ele>288.5</ele><time>2026-05-04T09:55:13.166Z</time></trkpt><trkpt lat="45.7315532" lon="8.7562832"><ele>288.66666666666663</ele><time>2026-05-04T09:55:14.164Z</time></trkpt><trkpt lat="45.7314911" lon="8.7563083"><ele>288.8333333333333</ele><time>2026-05-04T09:55:15.165Z</time></trkpt><trkpt lat="45.7313615" lon="8.7563162"><ele>289.0</ele><time>2026-05-04T09:55:17.164Z</time></trkpt><trkpt lat="45.7312342" lon="8.7562999"><ele>289.0</ele><time>2026-05-04T09:55:19.164Z</time></trkpt><trkpt lat="45.7311641" lon="8.756307"><ele>289.0</ele><time>2026-05-04T09:55:20.164Z</time></trkpt><trkpt lat="45.7310698" lon="8.7562723"><ele>289.0</ele><time>2026-05-04T09:55:22.165Z</time></trkpt><trkpt lat="45.7309864" lon="8.7562958"><ele>289.0</ele><time>2026-05-04T09:55:24.163Z</time></trkpt><trkpt lat="45.7309168" lon="8.756322"><ele>289.0</ele><time>2026-05-04T09:55:25.164Z</time></trkpt><trkpt lat="45.7307901" lon="8.7563024"><ele>289.8</ele><time>2026-05-04T09:55:27.164Z</time></trkpt><trkpt lat="45.7306381" lon="8.7562724"><ele>290.59999999999997</ele><time>2026-05-04T09:55:29.165Z</time></trkpt><trkpt lat="45.7305747" lon="8.7562707"><ele>291.4</ele><time>2026-05-04T09:55:30.164Z</time></trkpt><trkpt lat="45.7305055" lon="8.7562604"><ele>292.2</ele><time>2026-05-04T09:55:31.165Z</time></trkpt><trkpt lat="45.7303946" lon="8.7562828"><ele>293.0</ele><time>2026-05-04T09:55:33.164Z</time></trkpt><trkpt lat="45.7303058" lon="8.7562458"><ele>293.0</ele><time>2026-05-04T09:55:35.165Z</time></trkpt><trkpt lat="45.7302399" lon="8.7562414"><ele>293.0</ele><time>2026-05-04T09:55:36.164Z</time></trkpt><trkpt lat="45.7301109" lon="8.756236"><ele>293.0</ele><time>2026-05-04T09:55:38.164Z</time></trkpt><trkpt lat="45.7300003" lon="8.7562419"><ele>293.0</ele><time>2026-05-04T09:55:40.164Z</time></trkpt><trkpt lat="45.7299366" lon="8.7562524"><ele>293.0</ele><time>2026-05-04T09:55:41.163Z</time></trkpt><trkpt lat="45.7298657" lon="8.7562677"><ele>293.0</ele><time>2026-05-04T09:55:42.164Z</time></trkpt><trkpt lat="45.7298026" lon="8.7562733"><ele>292.5</ele><time>2026-05-04T09:55:43.165Z</time></trkpt><trkpt lat="45.7297223" lon="8.7562907"><ele>292.0</ele><time>2026-05-04T09:55:44.166Z</time></trkpt><trkpt lat="45.7295791" lon="8.7563225"><ele>291.5</ele><time>2026-05-04T09:55:46.165Z</time></trkpt><trkpt lat="45.7294114" lon="8.7563869"><ele>291.0</ele><time>2026-05-04T09:55:48.166Z</time></trkpt><trkpt lat="45.7293439" lon="8.7564071"><ele>291.0</ele><time>2026-05-04T09:55:49.164Z</time></trkpt><trkpt lat="45.7292626" lon="8.7563673"><ele>291.0</ele><time>2026-05-04T09:55:51.164Z</time></trkpt><trkpt lat="45.7291575" lon="8.7563917"><ele>291.0</ele><time>2026-05-04T09:55:53.164Z</time></trkpt><trkpt lat="45.7290928" lon="8.756389"><ele>291.0</ele><time>2026-05-04T09:55:54.166Z</time></trkpt><trkpt lat="45.728982" lon="8.7563907"><ele>291.0</ele><time>2026-05-04T09:55:56.165Z</time></trkpt><trkpt lat="45.7289125" lon="8.7564037"><ele>291.0</ele><time>2026-05-04T09:55:57.164Z</time></trkpt><trkpt lat="45.7287841" lon="8.7564212"><ele>291.0</ele><time>2026-05-04T09:55:59.164Z</time></trkpt><trkpt lat="45.7287165" lon="8.7564098"><ele>291.0</ele><time>2026-05-04T09:56:00.165Z</time></trkpt><trkpt lat="45.7286482" lon="8.756413"><ele>291.0</ele><time>2026-05-04T09:56:01.165Z</time></trkpt><trkpt lat="45.7285751" lon="8.7564037"><ele>291.0</ele><time>2026-05-04T09:56:02.165Z</time></trkpt><trkpt lat="45.7284824" lon="8.7563766"><ele>291.0</ele><time>2026-05-04T09:56:04.165Z</time></trkpt><trkpt lat="45.7283827" lon="8.7563612"><ele>291.0</ele><time>2026-05-04T09:56:06.164Z</time></trkpt><trkpt lat="45.728287" lon="8.7563383"><ele>291.3333333333333</ele><time>2026-05-04T09:56:08.165Z</time></trkpt><trkpt lat="45.728221" lon="8.7563461"><ele>291.6666666666667</ele><time>2026-05-04T09:56:09.165Z</time></trkpt><trkpt lat="45.7281193" lon="8.7563396"><ele>292.0</ele><time>2026-05-04T09:56:11.165Z</time></trkpt><trkpt lat="45.7280663" lon="8.7562686"><ele>292.33333333333337</ele><time>2026-05-04T09:56:13.165Z</time></trkpt><trkpt lat="45.728072" lon="8.756163"><ele>292.6666666666667</ele><time>2026-05-04T09:56:14.165Z</time></trkpt><trkpt lat="45.7281011" lon="8.7560738"><ele>293.0</ele><time>2026-05-04T09:56:17.166Z</time></trkpt><trkpt lat="45.7280786" lon="8.7559659"><ele>293.0</ele><time>2026-05-04T09:56:19.165Z</time></trkpt><trkpt lat="45.727991" lon="8.755956"><ele>293.0</ele><time>2026-05-04T09:56:22.165Z</time></trkpt><trkpt lat="45.7279295" lon="8.7560077"><ele>293.0</ele><time>2026-05-04T09:56:24.166Z</time></trkpt><trkpt lat="45.7278324" lon="8.7560374"><ele>293.0</ele><time>2026-05-04T09:56:25.165Z</time></trkpt><trkpt lat="45.7276979" lon="8.7560743"><ele>293.0</ele><time>2026-05-04T09:56:27.165Z</time></trkpt><trkpt lat="45.727617" lon="8.7561448"><ele>294.0</ele><time>2026-05-04T09:56:28.165Z</time></trkpt><trkpt lat="45.7275426" lon="8.7561568"><ele>295.0</ele><time>2026-05-04T09:56:29.165Z</time></trkpt><trkpt lat="45.7274518" lon="8.7562502"><ele>296.0</ele><time>2026-05-04T09:56:30.164Z</time></trkpt><trkpt lat="45.7273807" lon="8.7562824"><ele>297.0</ele><time>2026-05-04T09:56:31.164Z</time></trkpt><trkpt lat="45.7272849" lon="8.7562788"><ele>298.0</ele><time>2026-05-04T09:56:32.166Z</time></trkpt><trkpt lat="45.7272089" lon="8.756222"><ele>299.0</ele><time>2026-05-04T09:56:34.164Z</time></trkpt><trkpt lat="45.7271027" lon="8.756183"><ele>299.0</ele><time>2026-05-04T09:56:36.164Z</time></trkpt><trkpt lat="45.7269733" lon="8.7561865"><ele>299.0</ele><time>2026-05-04T09:56:38.165Z</time></trkpt><trkpt lat="45.7268942" lon="8.756133"><ele>299.0</ele><time>2026-05-04T09:56:40.164Z</time></trkpt><trkpt lat="45.7268192" lon="8.7561281"><ele>299.0</ele><time>2026-05-04T09:56:41.165Z</time></trkpt><trkpt lat="45.7267402" lon="8.7561203"><ele>299.0</ele><time>2026-05-04T09:56:42.165Z</time></trkpt><trkpt lat="45.7266529" lon="8.7561201"><ele>298.59999999999997</ele><time>2026-05-04T09:56:43.164Z</time></trkpt><trkpt lat="45.7265546" lon="8.7561191"><ele>298.2</ele><time>2026-05-04T09:56:45.164Z</time></trkpt><trkpt lat="45.7264555" lon="8.7561269"><ele>297.79999999999995</ele><time>2026-05-04T09:56:47.164Z</time></trkpt><trkpt lat="45.726359" lon="8.7561737"><ele>297.4</ele><time>2026-05-04T09:56:49.164Z</time></trkpt><trkpt lat="45.72624" lon="8.7562128"><ele>297.0</ele><time>2026-05-04T09:56:51.164Z</time></trkpt><trkpt lat="45.7261721" lon="8.7562354"><ele>297.0</ele><time>2026-05-04T09:56:52.165Z</time></trkpt><trkpt lat="45.7260909" lon="8.7562639"><ele>297.0</ele><time>2026-05-04T09:56:53.165Z</time></trkpt><trkpt lat="45.7259753" lon="8.7562568"><ele>297.0</ele><time>2026-05-04T09:56:55.164Z</time></trkpt><trkpt lat="45.7259075" lon="8.7562769"><ele>297.0</ele><time>2026-05-04T09:56:56.164Z</time></trkpt><trkpt lat="45.7258369" lon="8.7562999"><ele>297.0</ele><time>2026-05-04T09:56:57.164Z</time></trkpt><trkpt lat="45.7257299" lon="8.7563097"><ele>297.0</ele><time>2026-05-04T09:56:59.164Z</time></trkpt><trkpt lat="45.725617" lon="8.7563558"><ele>297.0</ele><time>2026-05-04T09:57:01.165Z</time></trkpt><trkpt lat="45.7255498" lon="8.7563764"><ele>297.0</ele><time>2026-05-04T09:57:02.165Z</time></trkpt><trkpt lat="45.7254778" lon="8.7563965"><ele>297.0</ele><time>2026-05-04T09:57:03.164Z</time></trkpt><trkpt lat="45.7253912" lon="8.7563776"><ele>297.0</ele><time>2026-05-04T09:57:05.164Z</time></trkpt><trkpt lat="45.7253234" lon="8.756403"><ele>297.0</ele><time>2026-05-04T09:57:06.165Z</time></trkpt><trkpt lat="45.7252061" lon="8.7564517"><ele>297.0</ele><time>2026-05-04T09:57:08.165Z</time></trkpt><trkpt lat="45.7250986" lon="8.7564547"><ele>297.0</ele><time>2026-05-04T09:57:10.165Z</time></trkpt><trkpt lat="45.7249976" lon="8.7564657"><ele>297.0</ele><time>2026-05-04T09:57:12.164Z</time></trkpt><trkpt lat="45.7248863" lon="8.7564798"><ele>297.0</ele><time>2026-05-04T09:57:13.165Z</time></trkpt><trkpt lat="45.7248105" lon="8.7565039"><ele>297.0</ele><time>2026-05-04T09:57:14.165Z</time></trkpt><trkpt lat="45.7246889" lon="8.7564787"><ele>297.0</ele><time>2026-05-04T09:57:16.165Z</time></trkpt><trkpt lat="45.7246277" lon="8.7564485"><ele>297.0</ele><time>2026-05-04T09:57:17.165Z</time></trkpt><trkpt lat="45.7245366" lon="8.7564649"><ele>297.0</ele><time>2026-05-04T09:57:19.164Z</time></trkpt><trkpt lat="45.7244604" lon="8.7564815"><ele>297.0</ele><time>2026-05-04T09:57:20.165Z</time></trkpt><trkpt lat="45.7243942" lon="8.7564993"><ele>297.0</ele><time>2026-05-04T09:57:21.164Z</time></trkpt><trkpt lat="45.7242595" lon="8.7564799"><ele>297.0</ele><time>2026-05-04T09:57:23.164Z</time></trkpt><trkpt lat="45.7241957" lon="8.7564809"><ele>297.0</ele><time>2026-05-04T09:57:24.164Z</time></trkpt><trkpt lat="45.7240746" lon="8.7564672"><ele>297.0</ele><time>2026-05-04T09:57:26.165Z</time></trkpt><trkpt lat="45.7240028" lon="8.7564704"><ele>297.0</ele><time>2026-05-04T09:57:27.164Z</time></trkpt><trkpt lat="45.7239308" lon="8.7564904"><ele>297.0</ele><time>2026-05-04T09:57:28.164Z</time></trkpt><trkpt lat="45.7238195" lon="8.7564615"><ele>297.0</ele><time>2026-05-04T09:57:30.165Z</time></trkpt><trkpt lat="45.7237134" lon="8.7564584"><ele>297.0</ele><time>2026-05-04T09:57:32.164Z</time></trkpt><trkpt lat="45.7236354" lon="8.7564873"><ele>297.0</ele><time>2026-05-04T09:57:33.165Z</time></trkpt><trkpt lat="45.72356" lon="8.7564973"><ele>296.8</ele><time>2026-05-04T09:57:34.164Z</time></trkpt><trkpt lat="45.7234912" lon="8.756498"><ele>296.6</ele><time>2026-05-04T09:57:35.164Z</time></trkpt><trkpt lat="45.7233609" lon="8.756506"><ele>296.40000000000003</ele><time>2026-05-04T09:57:37.165Z</time></trkpt><trkpt lat="45.7232891" lon="8.7565058"><ele>296.2</ele><time>2026-05-04T09:57:38.164Z</time></trkpt><trkpt lat="45.7231654" lon="8.7564975"><ele>296.0</ele><time>2026-05-04T09:57:40.164Z</time></trkpt><trkpt lat="45.7230796" lon="8.7564831"><ele>296.0</ele><time>2026-05-04T09:57:41.165Z</time></trkpt><trkpt lat="45.7230127" lon="8.7564765"><ele>296.0</ele><time>2026-05-04T09:57:42.164Z</time></trkpt><trkpt lat="45.7229461" lon="8.7564669"><ele>296.0</ele><time>2026-05-04T09:57:43.165Z</time></trkpt><trkpt lat="45.722844" lon="8.7564425"><ele>296.0</ele><time>2026-05-04T09:57:45.164Z</time></trkpt><trkpt lat="45.7227208" lon="8.7564185"><ele>296.0</ele><time>2026-05-04T09:57:47.164Z</time></trkpt><trkpt lat="45.7225875" lon="8.7563773"><ele>295.8</ele><time>2026-05-04T09:57:49.164Z</time></trkpt><trkpt lat="45.7224721" lon="8.7563499"><ele>295.6</ele><time>2026-05-04T09:57:51.165Z</time></trkpt><trkpt lat="45.722333" lon="8.7563098"><ele>295.4</ele><time>2026-05-04T09:57:53.166Z</time></trkpt><trkpt lat="45.7222731" lon="8.7562738"><ele>295.2</ele><time>2026-05-04T09:57:54.165Z</time></trkpt><trkpt lat="45.7221877" lon="8.7562055"><ele>295.0</ele><time>2026-05-04T09:57:56.165Z</time></trkpt><trkpt lat="45.7220778" lon="8.7561216"><ele>296.2</ele><time>2026-05-04T09:57:58.165Z</time></trkpt><trkpt lat="45.7220289" lon="8.7560163"><ele>297.4</ele><time>2026-05-04T09:57:59.165Z</time></trkpt><trkpt lat="45.7219371" lon="8.7560134"><ele>298.6</ele><time>2026-05-04T09:58:00.165Z</time></trkpt><trkpt lat="45.7218728" lon="8.7559846"><ele>299.8</ele><time>2026-05-04T09:58:01.166Z</time></trkpt><trkpt lat="45.7217727" lon="8.7559374"><ele>301.0</ele><time>2026-05-04T09:58:03.164Z</time></trkpt><trkpt lat="45.7216496" lon="8.7559165"><ele>301.0</ele><time>2026-05-04T09:58:05.167Z</time></trkpt><trkpt lat="45.7215374" lon="8.7558679"><ele>301.0</ele><time>2026-05-04T09:58:06.164Z</time></trkpt><trkpt lat="45.7213872" lon="8.755796"><ele>301.0</ele><time>2026-05-04T09:58:08.164Z</time></trkpt><trkpt lat="45.7212379" lon="8.7557642"><ele>301.0</ele><time>2026-05-04T09:58:10.164Z</time></trkpt><trkpt lat="45.7211541" lon="8.7557133"><ele>301.0</ele><time>2026-05-04T09:58:11.164Z</time></trkpt><trkpt lat="45.7210929" lon="8.755684"><ele>301.0</ele><time>2026-05-04T09:58:12.163Z</time></trkpt><trkpt lat="45.7210172" lon="8.7556837"><ele>301.0</ele><time>2026-05-04T09:58:14.164Z</time></trkpt><trkpt lat="45.7209127" lon="8.7556498"><ele>301.0</ele><time>2026-05-04T09:58:16.165Z</time></trkpt><trkpt lat="45.7208014" lon="8.7555763"><ele>301.0</ele><time>2026-05-04T09:58:18.164Z</time></trkpt><trkpt lat="45.7206621" lon="8.7555313"><ele>300.66666666666663</ele><time>2026-05-04T09:58:20.165Z</time></trkpt><trkpt lat="45.7205987" lon="8.7555098"><ele>300.3333333333333</ele><time>2026-05-04T09:58:21.165Z</time></trkpt><trkpt lat="45.7204915" lon="8.7555566"><ele>300.0</ele><time>2026-05-04T09:58:23.165Z</time></trkpt><trkpt lat="45.7204113" lon="8.7556144"><ele>299.6666666666667</ele><time>2026-05-04T09:58:24.165Z</time></trkpt><trkpt lat="45.7203093" lon="8.7555499"><ele>299.33333333333337</ele><time>2026-05-04T09:58:25.164Z</time></trkpt><trkpt lat="45.7202484" lon="8.755576"><ele>299.0</ele><time>2026-05-04T09:58:26.165Z</time></trkpt><trkpt lat="45.7201897" lon="8.755536"><ele>299.0</ele><time>2026-05-04T09:58:27.165Z</time></trkpt><trkpt lat="45.7200783" lon="8.7555234"><ele>299.0</ele><time>2026-05-04T09:58:29.165Z</time></trkpt><trkpt lat="45.7199571" lon="8.7554865"><ele>299.0</ele><time>2026-05-04T09:58:31.164Z</time></trkpt><trkpt lat="45.7198733" lon="8.7554862"><ele>299.0</ele><time>2026-05-04T09:58:32.164Z</time></trkpt><trkpt lat="45.7197963" lon="8.7554877"><ele>299.0</ele><time>2026-05-04T09:58:33.164Z</time></trkpt><trkpt lat="45.7197321" lon="8.7554821"><ele>299.0</ele><time>2026-05-04T09:58:34.164Z</time></trkpt><trkpt lat="45.7196513" lon="8.7555313"><ele>299.0</ele><time>2026-05-04T09:58:35.166Z</time></trkpt><trkpt lat="45.7195843" lon="8.7555441"><ele>299.0</ele><time>2026-05-04T09:58:36.165Z</time></trkpt><trkpt lat="45.7194886" lon="8.7555058"><ele>299.0</ele><time>2026-05-04T09:58:38.164Z</time></trkpt><trkpt lat="45.7193886" lon="8.755485"><ele>299.0</ele><time>2026-05-04T09:58:40.165Z</time></trkpt><trkpt lat="45.7193055" lon="8.7554976"><ele>299.0</ele><time>2026-05-04T09:58:42.165Z</time></trkpt><trkpt lat="45.7192401" lon="8.7555161"><ele>299.0</ele><time>2026-05-04T09:58:43.164Z</time></trkpt><trkpt lat="45.7191294" lon="8.7555232"><ele>299.0</ele><time>2026-05-04T09:58:45.165Z</time></trkpt><trkpt lat="45.7190449" lon="8.7555308"><ele>299.0</ele><time>2026-05-04T09:58:46.166Z</time></trkpt><trkpt lat="45.7189274" lon="8.7555648"><ele>299.0</ele><time>2026-05-04T09:58:48.166Z</time></trkpt><trkpt lat="45.7188589" lon="8.7555663"><ele>299.0</ele><time>2026-05-04T09:58:49.164Z</time></trkpt><trkpt lat="45.7187913" lon="8.755593"><ele>299.0</ele><time>2026-05-04T09:58:50.164Z</time></trkpt><trkpt lat="45.7187148" lon="8.7556014"><ele>299.0</ele><time>2026-05-04T09:58:51.165Z</time></trkpt><trkpt lat="45.7185647" lon="8.7555518"><ele>299.0</ele><time>2026-05-04T09:58:53.164Z</time></trkpt><trkpt lat="45.7184969" lon="8.755559"><ele>299.0</ele><time>2026-05-04T09:58:54.164Z</time></trkpt><trkpt lat="45.7183724" lon="8.7555774"><ele>299.0</ele><time>2026-05-04T09:58:55.167Z</time></trkpt><trkpt lat="45.7182826" lon="8.7555383"><ele>298.75</ele><time>2026-05-04T09:58:57.164Z</time></trkpt><trkpt lat="45.7181701" lon="8.7555072"><ele>298.5</ele><time>2026-05-04T09:58:59.166Z</time></trkpt><trkpt lat="45.7180565" lon="8.7555007"><ele>298.25</ele><time>2026-05-04T09:59:01.164Z</time></trkpt><trkpt lat="45.7179653" lon="8.7554581"><ele>298.0</ele><time>2026-05-04T09:59:04.165Z</time></trkpt><trkpt lat="45.7178353" lon="8.7554251"><ele>298.0</ele><time>2026-05-04T09:59:05.165Z</time></trkpt><trkpt lat="45.7177706" lon="8.7553703"><ele>298.0</ele><time>2026-05-04T09:59:06.164Z</time></trkpt><trkpt lat="45.7176726" lon="8.7553576"><ele>298.0</ele><time>2026-05-04T09:59:07.166Z</time></trkpt><trkpt lat="45.7175993" lon="8.7553471"><ele>298.0</ele><time>2026-05-04T09:59:08.165Z</time></trkpt><trkpt lat="45.7174793" lon="8.7553361"><ele>298.0</ele><time>2026-05-04T09:59:09.164Z</time></trkpt><trkpt lat="45.7173866" lon="8.7553271"><ele>297.16666666666663</ele><time>2026-05-04T09:59:10.165Z</time></trkpt><trkpt lat="45.7172841" lon="8.7553207"><ele>296.3333333333333</ele><time>2026-05-04T09:59:11.165Z</time></trkpt><trkpt lat="45.7172217" lon="8.7552858"><ele>295.5</ele><time>2026-05-04T09:59:12.163Z</time></trkpt><trkpt lat="45.7171402" lon="8.7552318"><ele>294.6666666666667</ele><time>2026-05-04T09:59:13.164Z</time></trkpt><trkpt lat="45.7170629" lon="8.7551906"><ele>293.83333333333337</ele><time>2026-05-04T09:59:14.164Z</time></trkpt><trkpt lat="45.7169921" lon="8.7551656"><ele>293.0</ele><time>2026-05-04T09:59:15.164Z</time></trkpt><trkpt lat="45.7169298" lon="8.7551391"><ele>291.4</ele><time>2026-05-04T09:59:16.164Z</time></trkpt><trkpt lat="45.716866" lon="8.7551128"><ele>289.8</ele><time>2026-05-04T09:59:17.165Z</time></trkpt><trkpt lat="45.7167941" lon="8.7550865"><ele>288.2</ele><time>2026-05-04T09:59:18.165Z</time></trkpt><trkpt lat="45.7166895" lon="8.7549946"><ele>286.6</ele><time>2026-05-04T09:59:20.164Z</time></trkpt><trkpt lat="45.7165636" lon="8.754942"><ele>285.0</ele><time>2026-05-04T09:59:22.164Z</time></trkpt><trkpt lat="45.7164544" lon="8.7548971"><ele>285.0</ele><time>2026-05-04T09:59:24.165Z</time></trkpt><trkpt lat="45.7163909" lon="8.7548723"><ele>285.0</ele><time>2026-05-04T09:59:34.163Z</time></trkpt><trkpt lat="45.716325" lon="8.7548067"><ele>285.0</ele><time>2026-05-04T09:59:36.165Z</time></trkpt><trkpt lat="45.716267" lon="8.7547271"><ele>285.0</ele><time>2026-05-04T09:59:48.164Z</time></trkpt><trkpt lat="45.7161971" lon="8.7546977"><ele>285.0</ele><time>2026-05-04T09:59:50.164Z</time></trkpt><trkpt lat="45.7161296" lon="8.7546491"><ele>285.0</ele><time>2026-05-04T09:59:52.165Z</time></trkpt><trkpt lat="45.7160659" lon="8.7545781"><ele>285.5</ele><time>2026-05-04T09:59:54.164Z</time></trkpt><trkpt lat="45.7160071" lon="8.7545438"><ele>286.0</ele><time>2026-05-04T09:59:56.165Z</time></trkpt><trkpt lat="45.7159383" lon="8.7545106"><ele>286.5</ele><time>2026-05-04T09:59:58.164Z</time></trkpt><trkpt lat="45.7159013" lon="8.7544358"><ele>287.0</ele><time>2026-05-04T10:00:00.164Z</time></trkpt><trkpt lat="45.7158553" lon="8.7543299"><ele>287.5</ele><time>2026-05-04T10:00:03.164Z</time></trkpt><trkpt lat="45.7157802" lon="8.7542303"><ele>288.0</ele><time>2026-05-04T10:00:05.165Z</time></trkpt><trkpt lat="45.7157054" lon="8.7541882"><ele>288.0</ele><time>2026-05-04T10:00:07.165Z</time></trkpt><trkpt lat="45.715609" lon="8.7541105"><ele>288.0</ele><time>2026-05-04T10:00:09.164Z</time></trkpt><trkpt lat="45.7155362" lon="8.7541119"><ele>288.0</ele><time>2026-05-04T10:00:10.165Z</time></trkpt><trkpt lat="45.7154342" lon="8.7540488"><ele>288.0</ele><time>2026-05-04T10:00:12.165Z</time></trkpt><trkpt lat="45.7153475" lon="8.7540148"><ele>288.0</ele><time>2026-05-04T10:00:14.164Z</time></trkpt><trkpt lat="45.7152337" lon="8.7540237"><ele>287.1666666666667</ele><time>2026-05-04T10:00:16.164Z</time></trkpt><trkpt lat="45.7151865" lon="8.7539254"><ele>286.3333333333333</ele><time>2026-05-04T10:00:18.165Z</time></trkpt><trkpt lat="45.7150841" lon="8.7539002"><ele>285.5</ele><time>2026-05-04T10:00:20.164Z</time></trkpt><trkpt lat="45.7150168" lon="8.7538572"><ele>284.66666666666663</ele><time>2026-05-04T10:00:21.165Z</time></trkpt><trkpt lat="45.714937" lon="8.7538543"><ele>283.8333333333333</ele><time>2026-05-04T10:00:22.164Z</time></trkpt><trkpt lat="45.714869" lon="8.753878"><ele>283.0</ele><time>2026-05-04T10:00:23.165Z</time></trkpt><trkpt lat="45.714772" lon="8.7539162"><ele>283.0</ele><time>2026-05-04T10:00:25.164Z</time></trkpt><trkpt lat="45.7147085" lon="8.7539191"><ele>283.0</ele><time>2026-05-04T10:00:26.165Z</time></trkpt><trkpt lat="45.714614" lon="8.7538815"><ele>283.0</ele><time>2026-05-04T10:00:28.165Z</time></trkpt><trkpt lat="45.7145327" lon="8.7538631"><ele>283.0</ele><time>2026-05-04T10:00:30.165Z</time></trkpt><trkpt lat="45.7144629" lon="8.7538358"><ele>283.0</ele><time>2026-05-04T10:00:32.164Z</time></trkpt><trkpt lat="45.7143468" lon="8.7537886"><ele>283.0</ele><time>2026-05-04T10:00:34.163Z</time></trkpt><trkpt lat="45.7142768" lon="8.7537621"><ele>283.5</ele><time>2026-05-04T10:00:35.164Z</time></trkpt><trkpt lat="45.7141839" lon="8.7537329"><ele>284.0</ele><time>2026-05-04T10:00:37.165Z</time></trkpt><trkpt lat="45.714113" lon="8.753721"><ele>284.5</ele><time>2026-05-04T10:00:39.164Z</time></trkpt><trkpt lat="45.7140352" lon="8.7537042"><ele>285.0</ele><time>2026-05-04T10:00:41.163Z</time></trkpt><trkpt lat="45.7139562" lon="8.7536547"><ele>285.5</ele><time>2026-05-04T10:00:43.165Z</time></trkpt><trkpt lat="45.7138856" lon="8.7536617"><ele>286.0</ele><time>2026-05-04T10:00:46.165Z</time></trkpt><trkpt lat="45.7138198" lon="8.7536547"><ele>286.0</ele><time>2026-05-04T10:00:49.165Z</time></trkpt><trkpt lat="45.7137372" lon="8.7536691"><ele>286.0</ele><time>2026-05-04T10:00:52.165Z</time></trkpt><trkpt lat="45.7137769" lon="8.7535852"><ele>286.0</ele><time>2026-05-04T10:00:53.164Z</time></trkpt><trkpt lat="45.713743" lon="8.7535068"><ele>286.0</ele><time>2026-05-04T10:00:55.164Z</time></trkpt><trkpt lat="45.7137071" lon="8.7534282"><ele>286.0</ele><time>2026-05-04T10:00:57.165Z</time></trkpt><trkpt lat="45.713607" lon="8.7533203"><ele>286.0</ele><time>2026-05-04T10:00:59.164Z</time></trkpt><trkpt lat="45.7135698" lon="8.7532353"><ele>285.8</ele><time>2026-05-04T10:01:00.165Z</time></trkpt><trkpt lat="45.7134878" lon="8.7531202"><ele>285.6</ele><time>2026-05-04T10:01:02.165Z</time></trkpt><trkpt lat="45.7134498" lon="8.7529867"><ele>285.4</ele><time>2026-05-04T10:01:04.164Z</time></trkpt><trkpt lat="45.7133857" lon="8.7529106"><ele>285.2</ele><time>2026-05-04T10:01:06.166Z</time></trkpt><trkpt lat="45.7133032" lon="8.752833"><ele>285.0</ele><time>2026-05-04T10:01:08.165Z</time></trkpt><trkpt lat="45.713258" lon="8.7527287"><ele>285.4</ele><time>2026-05-04T10:01:09.165Z</time></trkpt><trkpt lat="45.713229" lon="8.752574"><ele>285.8</ele><time>2026-05-04T10:01:11.164Z</time></trkpt><trkpt lat="45.7132283" lon="8.7524305"><ele>286.2</ele><time>2026-05-04T10:01:13.164Z</time></trkpt><trkpt lat="45.7132118" lon="8.7523034"><ele>286.6</ele><time>2026-05-04T10:01:15.165Z</time></trkpt><trkpt lat="45.7132388" lon="8.7521944"><ele>287.0</ele><time>2026-05-04T10:01:17.165Z</time></trkpt><trkpt lat="45.7131822" lon="8.7520668"><ele>287.0</ele><time>2026-05-04T10:01:19.164Z</time></trkpt><trkpt lat="45.713146" lon="8.7519342"><ele>287.0</ele><time>2026-05-04T10:01:21.164Z</time></trkpt><trkpt lat="45.7131019" lon="8.7517748"><ele>287.0</ele><time>2026-05-04T10:01:23.165Z</time></trkpt><trkpt lat="45.7130516" lon="8.7516866"><ele>287.0</ele><time>2026-05-04T10:01:24.164Z</time></trkpt><trkpt lat="45.7129466" lon="8.7515992"><ele>287.0</ele><time>2026-05-04T10:01:26.164Z</time></trkpt><trkpt lat="45.7128877" lon="8.7515296"><ele>287.4</ele><time>2026-05-04T10:01:27.165Z</time></trkpt><trkpt lat="45.7128495" lon="8.7516255"><ele>287.79999999999995</ele><time>2026-05-04T10:02:13.164Z</time></trkpt><trkpt lat="45.7127897" lon="8.7516674"><ele>288.2</ele><time>2026-05-04T10:02:15.164Z</time></trkpt><trkpt lat="45.7126916" lon="8.7516717"><ele>288.59999999999997</ele><time>2026-05-04T10:02:17.165Z</time></trkpt><trkpt lat="45.7126119" lon="8.7517728"><ele>289.0</ele><time>2026-05-04T10:02:19.165Z</time></trkpt><trkpt lat="45.7125642" lon="8.7519021"><ele>287.7142857142857</ele><time>2026-05-04T10:02:21.165Z</time></trkpt><trkpt lat="45.7125149" lon="8.7519904"><ele>286.42857142857144</ele><time>2026-05-04T10:02:24.164Z</time></trkpt><trkpt lat="45.7125224" lon="8.751885"><ele>285.1428571428571</ele><time>2026-05-04T10:03:11.165Z</time></trkpt><trkpt lat="45.7125131" lon="8.7517742"><ele>283.8571428571429</ele><time>2026-05-04T10:03:15.165Z</time></trkpt><trkpt lat="45.7124516" lon="8.7517415"><ele>282.57142857142856</ele><time>2026-05-04T10:03:19.166Z</time></trkpt><trkpt lat="45.7124393" lon="8.7518351"><ele>281.2857142857143</ele><time>2026-05-04T10:03:23.164Z</time></trkpt><trkpt lat="45.7123738" lon="8.7518576"><ele>280.0</ele><time>2026-05-04T10:04:16.165Z</time></trkpt><trkpt lat="45.7123147" lon="8.7518162"><ele>280.0</ele><time>2026-05-04T10:04:18.166Z</time></trkpt><trkpt lat="45.7122575" lon="8.7517666"><ele>280.0</ele><time>2026-05-04T10:04:23.165Z</time></trkpt><trkpt lat="45.7122054" lon="8.7516816"><ele>280.0</ele><time>2026-05-04T10:04:38.166Z</time></trkpt><trkpt lat="45.7121449" lon="8.7515995"><ele>280.0</ele><time>2026-05-04T10:04:41.165Z</time></trkpt><trkpt lat="45.712079" lon="8.751642"><ele>280.0</ele><time>2026-05-04T10:04:44.165Z</time></trkpt><trkpt lat="45.7119948" lon="8.7516086"><ele>280.0</ele><time>2026-05-04T10:04:47.164Z</time></trkpt><trkpt lat="45.7119606" lon="8.7515011"><ele>280.0</ele><time>2026-05-04T10:04:50.166Z</time></trkpt><trkpt lat="45.7119429" lon="8.7513966"><ele>280.0</ele><time>2026-05-04T10:04:54.165Z</time></trkpt><trkpt lat="45.7119276" lon="8.7512962"><ele>280.0</ele><time>2026-05-04T10:04:58.166Z</time></trkpt><trkpt lat="45.7119284" lon="8.7512038"><ele>280.0</ele><time>2026-05-04T10:05:42.164Z</time></trkpt><trkpt lat="45.7118774" lon="8.7512633"><ele>280.0</ele><time>2026-05-04T10:05:50.164Z</time></trkpt><trkpt lat="45.7118091" lon="8.751278"><ele>280.0</ele><time>2026-05-04T10:06:17.165Z</time></trkpt><trkpt lat="45.7117292" lon="8.7513079"><ele>280.0</ele><time>2026-05-04T10:06:21.165Z</time></trkpt><trkpt lat="45.7116776" lon="8.7513703"><ele>280.16666666666663</ele><time>2026-05-04T10:06:25.166Z</time></trkpt><trkpt lat="45.7116404" lon="8.7514659"><ele>280.3333333333333</ele><time>2026-05-04T10:06:57.164Z</time></trkpt><trkpt lat="45.7115903" lon="8.7515346"><ele>280.5</ele><time>2026-05-04T10:07:13.164Z</time></trkpt><trkpt lat="45.7115156" lon="8.7515438"><ele>280.6666666666667</ele><time>2026-05-04T10:07:17.165Z</time></trkpt><trkpt lat="45.7114417" lon="8.7515893"><ele>280.83333333333337</ele><time>2026-05-04T10:07:22.165Z</time></trkpt><trkpt lat="45.7113689" lon="8.751634"><ele>281.0</ele><time>2026-05-04T10:07:25.164Z</time></trkpt><trkpt lat="45.7113116" lon="8.7516969"><ele>281.00000000000006</ele><time>2026-05-04T10:07:28.165Z</time></trkpt><trkpt lat="45.7112636" lon="8.7517557"><ele>281.0</ele><time>2026-05-04T10:07:31.164Z</time></trkpt><trkpt lat="45.7112116" lon="8.7518098"><ele>281.0</ele><time>2026-05-04T10:07:34.167Z</time></trkpt><trkpt lat="45.7111419" lon="8.7518171"><ele>281.0</ele><time>2026-05-04T10:07:38.164Z</time></trkpt><trkpt lat="45.7111359" lon="8.75172"><ele>281.0</ele><time>2026-05-04T10:07:41.165Z</time></trkpt><trkpt lat="45.7111762" lon="8.7516189"><ele>281.00000000000006</ele><time>2026-05-04T10:07:44.164Z</time></trkpt><trkpt lat="45.7111883" lon="8.7514985"><ele>281.0</ele><time>2026-05-04T10:07:47.164Z</time></trkpt><trkpt lat="45.7112071" lon="8.7513966"><ele>281.0</ele><time>2026-05-04T10:07:50.164Z</time></trkpt><trkpt lat="45.7112175" lon="8.7512734"><ele>281.0</ele><time>2026-05-04T10:07:53.164Z</time></trkpt><trkpt lat="45.7112394" lon="8.7511505"><ele>281.0</ele><time>2026-05-04T10:07:56.167Z</time></trkpt><trkpt lat="45.7112465" lon="8.75103"><ele>281.0</ele><time>2026-05-04T10:07:59.165Z</time></trkpt><trkpt lat="45.7111935" lon="8.7509682"><ele>281.0</ele><time>2026-05-04T10:08:02.164Z</time></trkpt><trkpt lat="45.7111249" lon="8.7509237"><ele>281.0</ele><time>2026-05-04T10:08:05.166Z</time></trkpt><trkpt lat="45.7110364" lon="8.7509092"><ele>282.33333333333337</ele><time>2026-05-04T10:08:08.165Z</time></trkpt><trkpt lat="45.7109672" lon="8.750926"><ele>283.6666666666667</ele><time>2026-05-04T10:08:10.165Z</time></trkpt><trkpt lat="45.7109057" lon="8.7509506"><ele>285.0</ele><time>2026-05-04T10:08:12.165Z</time></trkpt><trkpt lat="45.7108248" lon="8.7509903"><ele>286.3333333333333</ele><time>2026-05-04T10:08:15.164Z</time></trkpt><trkpt lat="45.7107511" lon="8.7510393"><ele>287.66666666666663</ele><time>2026-05-04T10:08:18.165Z</time></trkpt><trkpt lat="45.7106697" lon="8.7510665"><ele>289.0</ele><time>2026-05-04T10:08:21.163Z</time></trkpt><trkpt lat="45.7105862" lon="8.7510865"><ele>289.3333333333333</ele><time>2026-05-04T10:08:24.165Z</time></trkpt><trkpt lat="45.7105123" lon="8.7510747"><ele>289.66666666666663</ele><time>2026-05-04T10:08:27.165Z</time></trkpt><trkpt lat="45.7104283" lon="8.7510942"><ele>290.0</ele><time>2026-05-04T10:08:35.165Z</time></trkpt><trkpt lat="45.7103588" lon="8.7511131"><ele>290.3333333333333</ele><time>2026-05-04T10:08:37.164Z</time></trkpt><trkpt lat="45.7102833" lon="8.7511388"><ele>290.6666666666667</ele><time>2026-05-04T10:08:39.165Z</time></trkpt><trkpt lat="45.7102074" lon="8.7511632"><ele>291.0</ele><time>2026-05-04T10:08:41.164Z</time></trkpt><trkpt lat="45.7101274" lon="8.7511978"><ele>290.0</ele><time>2026-05-04T10:08:43.164Z</time></trkpt><trkpt lat="45.7100448" lon="8.7512154"><ele>289.0</ele><time>2026-05-04T10:08:45.165Z</time></trkpt><trkpt lat="45.7099596" lon="8.7512298"><ele>288.0</ele><time>2026-05-04T10:08:47.164Z</time></trkpt><trkpt lat="45.7098774" lon="8.7512418"><ele>287.0</ele><time>2026-05-04T10:08:49.164Z</time></trkpt><trkpt lat="45.709795" lon="8.751254"><ele>286.0</ele><time>2026-05-04T10:08:51.166Z</time></trkpt><trkpt lat="45.7097146" lon="8.7512754"><ele>285.0</ele><time>2026-05-04T10:08:53.165Z</time></trkpt><trkpt lat="45.7096405" lon="8.7512951"><ele>285.0</ele><time>2026-05-04T10:08:55.165Z</time></trkpt><trkpt lat="45.7095694" lon="8.7513119"><ele>285.0</ele><time>2026-05-04T10:08:57.166Z</time></trkpt><trkpt lat="45.7094987" lon="8.7513253"><ele>285.0</ele><time>2026-05-04T10:08:59.164Z</time></trkpt><trkpt lat="45.7094304" lon="8.7513335"><ele>285.0</ele><time>2026-05-04T10:09:01.165Z</time></trkpt><trkpt lat="45.7093668" lon="8.7513423"><ele>285.0</ele><time>2026-05-04T10:09:03.165Z</time></trkpt><trkpt lat="45.7093023" lon="8.7513457"><ele>285.0</ele><time>2026-05-04T10:09:05.164Z</time></trkpt><trkpt lat="45.7092108" lon="8.7513439"><ele>285.0</ele><time>2026-05-04T10:09:08.164Z</time></trkpt><trkpt lat="45.7091328" lon="8.7513605"><ele>285.85714285714283</ele><time>2026-05-04T10:09:11.165Z</time></trkpt><trkpt lat="45.709062" lon="8.7514096"><ele>286.7142857142857</ele><time>2026-05-04T10:09:14.165Z</time></trkpt><trkpt lat="45.7090009" lon="8.7514776"><ele>287.57142857142856</ele><time>2026-05-04T10:09:17.165Z</time></trkpt><trkpt lat="45.7089446" lon="8.7515246"><ele>288.42857142857144</ele><time>2026-05-04T10:09:20.165Z</time></trkpt><trkpt lat="45.7088904" lon="8.7514459"><ele>289.2857142857143</ele><time>2026-05-04T10:09:42.164Z</time></trkpt><trkpt lat="45.7088655" lon="8.75134"><ele>290.1428571428571</ele><time>2026-05-04T10:09:45.164Z</time></trkpt><trkpt lat="45.708835" lon="8.7512595"><ele>291.0</ele><time>2026-05-04T10:09:53.164Z</time></trkpt><trkpt lat="45.7088187" lon="8.7511671"><ele>291.0</ele><time>2026-05-04T10:09:56.166Z</time></trkpt><trkpt lat="45.7088196" lon="8.7510478"><ele>291.0</ele><time>2026-05-04T10:09:59.164Z</time></trkpt><trkpt lat="45.708801" lon="8.7509542"><ele>291.0</ele><time>2026-05-04T10:10:01.164Z</time></trkpt><trkpt lat="45.7087802" lon="8.7508518"><ele>291.0</ele><time>2026-05-04T10:10:03.166Z</time></trkpt><trkpt lat="45.7087588" lon="8.7507487"><ele>291.0</ele><time>2026-05-04T10:10:05.166Z</time></trkpt><trkpt lat="45.7087345" lon="8.7506387"><ele>291.0</ele><time>2026-05-04T10:10:07.165Z</time></trkpt><trkpt lat="45.7087113" lon="8.7505271"><ele>290.6666666666667</ele><time>2026-05-04T10:10:09.165Z</time></trkpt><trkpt lat="45.7086913" lon="8.7504219"><ele>290.3333333333333</ele><time>2026-05-04T10:10:11.166Z</time></trkpt><trkpt lat="45.7086679" lon="8.7503154"><ele>290.0</ele><time>2026-05-04T10:10:13.165Z</time></trkpt><trkpt lat="45.7086447" lon="8.7502062"><ele>289.66666666666663</ele><time>2026-05-04T10:10:15.165Z</time></trkpt><trkpt lat="45.708626" lon="8.7500904"><ele>289.3333333333333</ele><time>2026-05-04T10:10:17.165Z</time></trkpt><trkpt lat="45.7086081" lon="8.7499731"><ele>289.0</ele><time>2026-05-04T10:10:19.164Z</time></trkpt><trkpt lat="45.7085826" lon="8.7498407"><ele>288.59999999999997</ele><time>2026-05-04T10:10:21.165Z</time></trkpt><trkpt lat="45.7085542" lon="8.7496938"><ele>288.2</ele><time>2026-05-04T10:10:23.165Z</time></trkpt><trkpt lat="45.7085274" lon="8.7495564"><ele>287.79999999999995</ele><time>2026-05-04T10:10:25.165Z</time></trkpt><trkpt lat="45.7084986" lon="8.7494074"><ele>287.4</ele><time>2026-05-04T10:10:27.164Z</time></trkpt><trkpt lat="45.708467" lon="8.7492428"><ele>287.0</ele><time>2026-05-04T10:10:29.164Z</time></trkpt><trkpt lat="45.7084369" lon="8.7490953"><ele>286.5</ele><time>2026-05-04T10:10:31.165Z</time></trkpt><trkpt lat="45.7083879" lon="8.7489971"><ele>286.0</ele><time>2026-05-04T10:10:33.165Z</time></trkpt><trkpt lat="45.7083147" lon="8.7489955"><ele>285.5</ele><time>2026-05-04T10:10:36.164Z</time></trkpt><trkpt lat="45.7082496" lon="8.7490412"><ele>285.0</ele><time>2026-05-04T10:10:41.164Z</time></trkpt><trkpt lat="45.7083189" lon="8.7490085"><ele>284.5</ele><time>2026-05-04T10:13:29.165Z</time></trkpt><trkpt lat="45.7083485" lon="8.7488839"><ele>284.0</ele><time>2026-05-04T10:13:32.165Z</time></trkpt><trkpt lat="45.7083884" lon="8.7487786"><ele>284.0</ele><time>2026-05-04T10:13:35.164Z</time></trkpt><trkpt lat="45.7083616" lon="8.7486897"><ele>284.0</ele><time>2026-05-04T10:13:58.165Z</time></trkpt><trkpt lat="45.7082964" lon="8.7486102"><ele>284.0</ele><time>2026-05-04T10:14:01.165Z</time></trkpt><trkpt lat="45.7082393" lon="8.7485376"><ele>284.0</ele><time>2026-05-04T10:14:03.164Z</time></trkpt><trkpt lat="45.7081804" lon="8.7484767"><ele>284.0</ele><time>2026-05-04T10:14:05.164Z</time></trkpt><trkpt lat="45.708114" lon="8.748442"><ele>284.0</ele><time>2026-05-04T10:14:07.164Z</time></trkpt><trkpt lat="45.7080349" lon="8.7484265"><ele>284.0</ele><time>2026-05-04T10:14:09.165Z</time></trkpt><trkpt lat="45.707956" lon="8.7483947"><ele>284.0</ele><time>2026-05-04T10:14:11.165Z</time></trkpt><trkpt lat="45.7078836" lon="8.74834"><ele>284.0</ele><time>2026-05-04T10:14:13.165Z</time></trkpt><trkpt lat="45.7078178" lon="8.7482691"><ele>284.0</ele><time>2026-05-04T10:14:15.166Z</time></trkpt><trkpt lat="45.7077585" lon="8.748182"><ele>284.0</ele><time>2026-05-04T10:14:17.164Z</time></trkpt><trkpt lat="45.7077063" lon="8.7480896"><ele>284.0</ele><time>2026-05-04T10:14:19.164Z</time></trkpt><trkpt lat="45.7076576" lon="8.747992"><ele>283.5</ele><time>2026-05-04T10:14:21.165Z</time></trkpt><trkpt lat="45.7076129" lon="8.7478975"><ele>283.0</ele><time>2026-05-04T10:14:23.166Z</time></trkpt><trkpt lat="45.7075745" lon="8.7478099"><ele>282.5</ele><time>2026-05-04T10:14:25.164Z</time></trkpt><trkpt lat="45.7075103" lon="8.7477216"><ele>282.0</ele><time>2026-05-04T10:14:28.165Z</time></trkpt><trkpt lat="45.7074568" lon="8.7476438"><ele>281.5</ele><time>2026-05-04T10:14:31.166Z</time></trkpt><trkpt lat="45.7074015" lon="8.7475663"><ele>281.0</ele><time>2026-05-04T10:14:34.165Z</time></trkpt><trkpt lat="45.7073433" lon="8.7475047"><ele>281.00000000000006</ele><time>2026-05-04T10:14:36.165Z</time></trkpt><trkpt lat="45.7072854" lon="8.747447"><ele>281.0</ele><time>2026-05-04T10:14:38.164Z</time></trkpt><trkpt lat="45.7072298" lon="8.747399"><ele>281.0</ele><time>2026-05-04T10:14:40.165Z</time></trkpt><trkpt lat="45.7071711" lon="8.7473537"><ele>281.0</ele><time>2026-05-04T10:14:42.165Z</time></trkpt><trkpt lat="45.7071161" lon="8.7473017"><ele>281.0</ele><time>2026-05-04T10:14:44.164Z</time></trkpt><trkpt lat="45.7070379" lon="8.7472386"><ele>281.00000000000006</ele><time>2026-05-04T10:14:47.165Z</time></trkpt><trkpt lat="45.7069767" lon="8.7471876"><ele>281.0</ele><time>2026-05-04T10:14:50.166Z</time></trkpt><trkpt lat="45.7069617" lon="8.7470994"><ele>281.0</ele><time>2026-05-04T10:14:53.165Z</time></trkpt><trkpt lat="45.7069818" lon="8.7469776"><ele>281.0</ele><time>2026-05-04T10:14:56.163Z</time></trkpt><trkpt lat="45.7070024" lon="8.7468838"><ele>281.0</ele><time>2026-05-04T10:14:58.166Z</time></trkpt><trkpt lat="45.7070371" lon="8.7467826"><ele>281.0</ele><time>2026-05-04T10:15:00.165Z</time></trkpt><trkpt lat="45.7070648" lon="8.7466719"><ele>281.0</ele><time>2026-05-04T10:15:02.165Z</time></trkpt><trkpt lat="45.7070712" lon="8.7465537"><ele>281.0</ele><time>2026-05-04T10:15:05.164Z</time></trkpt><trkpt lat="45.707075" lon="8.7466583"><ele>281.0</ele><time>2026-05-04T10:15:39.164Z</time></trkpt><trkpt lat="45.7070618" lon="8.7467959"><ele>281.0</ele><time>2026-05-04T10:15:42.165Z</time></trkpt><trkpt lat="45.7070246" lon="8.7469163"><ele>281.0</ele><time>2026-05-04T10:15:44.165Z</time></trkpt><trkpt lat="45.706996" lon="8.7470264"><ele>281.0</ele><time>2026-05-04T10:15:46.165Z</time></trkpt><trkpt lat="45.706965" lon="8.7471191"><ele>281.0</ele><time>2026-05-04T10:15:48.164Z</time></trkpt><trkpt lat="45.7069226" lon="8.7472012"><ele>281.0</ele><time>2026-05-04T10:15:50.165Z</time></trkpt><trkpt lat="45.7068783" lon="8.7472942"><ele>280.6666666666667</ele><time>2026-05-04T10:15:53.165Z</time></trkpt><trkpt lat="45.706805" lon="8.7473556"><ele>280.33333333333337</ele><time>2026-05-04T10:15:56.165Z</time></trkpt><trkpt lat="45.7067118" lon="8.7473268"><ele>280.0</ele><time>2026-05-04T10:15:59.164Z</time></trkpt><trkpt lat="45.7066452" lon="8.7472924"><ele>279.6666666666667</ele><time>2026-05-04T10:16:01.165Z</time></trkpt><trkpt lat="45.7065765" lon="8.7472708"><ele>279.3333333333333</ele><time>2026-05-04T10:16:03.165Z</time></trkpt><trkpt lat="45.7065042" lon="8.7472721"><ele>279.0</ele><time>2026-05-04T10:16:05.164Z</time></trkpt><trkpt lat="45.7064171" lon="8.7472856"><ele>279.0</ele><time>2026-05-04T10:16:07.165Z</time></trkpt><trkpt lat="45.706333" lon="8.7473202"><ele>279.0</ele><time>2026-05-04T10:16:09.164Z</time></trkpt><trkpt lat="45.7062725" lon="8.747355"><ele>279.0</ele><time>2026-05-04T10:16:11.165Z</time></trkpt><trkpt lat="45.7062161" lon="8.7474345"><ele>279.0</ele><time>2026-05-04T10:16:14.165Z</time></trkpt><trkpt lat="45.7061707" lon="8.7475175"><ele>279.0</ele><time>2026-05-04T10:16:17.165Z</time></trkpt><trkpt lat="45.7061309" lon="8.7475908"><ele>279.0</ele><time>2026-05-04T10:16:20.165Z</time></trkpt><trkpt lat="45.7061721" lon="8.7476992"><ele>278.3333333333333</ele><time>2026-05-04T10:16:23.164Z</time></trkpt><trkpt lat="45.706224" lon="8.7477546"><ele>277.6666666666667</ele><time>2026-05-04T10:16:25.165Z</time></trkpt><trkpt lat="45.7062862" lon="8.7478264"><ele>277.0</ele><time>2026-05-04T10:16:28.164Z</time></trkpt><trkpt lat="45.7063474" lon="8.747892"><ele>276.33333333333337</ele><time>2026-05-04T10:16:43.165Z</time></trkpt><trkpt lat="45.7064175" lon="8.7479271"><ele>275.6666666666667</ele><time>2026-05-04T10:16:45.165Z</time></trkpt><trkpt lat="45.7064813" lon="8.7479598"><ele>275.0</ele><time>2026-05-04T10:16:47.164Z</time></trkpt><trkpt lat="45.7063959" lon="8.747982"><ele>275.0</ele><time>2026-05-04T10:16:54.165Z</time></trkpt><trkpt lat="45.7063196" lon="8.7479251"><ele>275.0</ele><time>2026-05-04T10:16:56.165Z</time></trkpt><trkpt lat="45.7062411" lon="8.7478701"><ele>275.0</ele><time>2026-05-04T10:16:58.165Z</time></trkpt><trkpt lat="45.7061618" lon="8.7478123"><ele>275.0</ele><time>2026-05-04T10:17:00.164Z</time></trkpt><trkpt lat="45.7060868" lon="8.7477548"><ele>275.0</ele><time>2026-05-04T10:17:02.164Z</time></trkpt><trkpt lat="45.7059882" lon="8.7477181"><ele>275.0</ele><time>2026-05-04T10:17:04.163Z</time></trkpt><trkpt lat="45.7058913" lon="8.7476944"><ele>275.1666666666667</ele><time>2026-05-04T10:17:06.165Z</time></trkpt><trkpt lat="45.7058011" lon="8.7476692"><ele>275.33333333333337</ele><time>2026-05-04T10:17:08.165Z</time></trkpt><trkpt lat="45.7057044" lon="8.7476327"><ele>275.5</ele><time>2026-05-04T10:17:10.165Z</time></trkpt><trkpt lat="45.7056149" lon="8.747613"><ele>275.6666666666667</ele><time>2026-05-04T10:17:12.164Z</time></trkpt><trkpt lat="45.7055259" lon="8.7476233"><ele>275.8333333333333</ele><time>2026-05-04T10:17:14.165Z</time></trkpt><trkpt lat="45.7054617" lon="8.747632"><ele>276.0</ele><time>2026-05-04T10:17:16.164Z</time></trkpt><trkpt lat="45.7054006" lon="8.7476691"><ele>276.57142857142856</ele><time>2026-05-04T10:17:18.165Z</time></trkpt><trkpt lat="45.7053487" lon="8.7477374"><ele>277.14285714285717</ele><time>2026-05-04T10:17:20.164Z</time></trkpt><trkpt lat="45.7052704" lon="8.7477705"><ele>277.7142857142857</ele><time>2026-05-04T10:17:22.164Z</time></trkpt><trkpt lat="45.7052074" lon="8.7477363"><ele>278.2857142857143</ele><time>2026-05-04T10:17:25.165Z</time></trkpt><trkpt lat="45.7051362" lon="8.7477287"><ele>278.8571428571429</ele><time>2026-05-04T10:17:29.164Z</time></trkpt><trkpt lat="45.7050536" lon="8.7477028"><ele>279.42857142857144</ele><time>2026-05-04T10:17:32.165Z</time></trkpt><trkpt lat="45.7049859" lon="8.7476666"><ele>280.0</ele><time>2026-05-04T10:17:36.165Z</time></trkpt><trkpt lat="45.7050102" lon="8.7475681"><ele>280.57142857142856</ele><time>2026-05-04T10:17:39.165Z</time></trkpt><trkpt lat="45.7050391" lon="8.7474729"><ele>281.1428571428571</ele><time>2026-05-04T10:17:41.164Z</time></trkpt><trkpt lat="45.7050864" lon="8.7473811"><ele>281.7142857142857</ele><time>2026-05-04T10:17:43.164Z</time></trkpt><trkpt lat="45.7051002" lon="8.7472694"><ele>282.2857142857143</ele><time>2026-05-04T10:17:45.164Z</time></trkpt><trkpt lat="45.7051274" lon="8.7471847"><ele>282.85714285714283</ele><time>2026-05-04T10:17:47.164Z</time></trkpt><trkpt lat="45.7051651" lon="8.7470852"><ele>283.42857142857144</ele><time>2026-05-04T10:17:50.164Z</time></trkpt><trkpt lat="45.7051497" lon="8.746997"><ele>284.0</ele><time>2026-05-04T10:17:53.165Z</time></trkpt><trkpt lat="45.7051711" lon="8.746899"><ele>283.83333333333337</ele><time>2026-05-04T10:17:56.165Z</time></trkpt><trkpt lat="45.7051956" lon="8.7468127"><ele>283.6666666666667</ele><time>2026-05-04T10:17:58.165Z</time></trkpt><trkpt lat="45.70523" lon="8.7467188"><ele>283.5</ele><time>2026-05-04T10:18:00.164Z</time></trkpt><trkpt lat="45.7052551" lon="8.7466071"><ele>283.3333333333333</ele><time>2026-05-04T10:18:02.164Z</time></trkpt><trkpt lat="45.7052642" lon="8.7464916"><ele>283.16666666666663</ele><time>2026-05-04T10:18:04.165Z</time></trkpt><trkpt lat="45.7052686" lon="8.7463731"><ele>283.0</ele><time>2026-05-04T10:18:06.164Z</time></trkpt><trkpt lat="45.7052772" lon="8.7462773"><ele>283.0</ele><time>2026-05-04T10:18:08.165Z</time></trkpt><trkpt lat="45.7052917" lon="8.7461461"><ele>283.0</ele><time>2026-05-04T10:18:11.164Z</time></trkpt><trkpt lat="45.7052577" lon="8.7460487"><ele>283.0</ele><time>2026-05-04T10:18:15.164Z</time></trkpt><trkpt lat="45.7051819" lon="8.7460349"><ele>283.0</ele><time>2026-05-04T10:18:20.163Z</time></trkpt><trkpt lat="45.7050894" lon="8.7460438"><ele>283.0</ele><time>2026-05-04T10:18:23.165Z</time></trkpt><trkpt lat="45.705008" lon="8.7460631"><ele>283.0</ele><time>2026-05-04T10:18:26.165Z</time></trkpt><trkpt lat="45.7049295" lon="8.7460939"><ele>283.16666666666663</ele><time>2026-05-04T10:18:29.164Z</time></trkpt><trkpt lat="45.7048366" lon="8.746084"><ele>283.3333333333333</ele><time>2026-05-04T10:18:32.165Z</time></trkpt><trkpt lat="45.7047405" lon="8.7460774"><ele>283.5</ele><time>2026-05-04T10:18:35.165Z</time></trkpt><trkpt lat="45.704655" lon="8.7460649"><ele>283.6666666666667</ele><time>2026-05-04T10:18:38.164Z</time></trkpt><trkpt lat="45.70458" lon="8.7460147"><ele>283.83333333333337</ele><time>2026-05-04T10:18:41.164Z</time></trkpt><trkpt lat="45.70451" lon="8.7459583"><ele>284.0</ele><time>2026-05-04T10:18:44.164Z</time></trkpt><trkpt lat="45.7044363" lon="8.7458647"><ele>284.5</ele><time>2026-05-04T10:18:47.165Z</time></trkpt><trkpt lat="45.7043793" lon="8.745802"><ele>285.0</ele><time>2026-05-04T10:18:49.164Z</time></trkpt><trkpt lat="45.7043152" lon="8.7457471"><ele>285.5</ele><time>2026-05-04T10:18:51.165Z</time></trkpt><trkpt lat="45.7042547" lon="8.7456669"><ele>286.0</ele><time>2026-05-04T10:18:53.164Z</time></trkpt><trkpt lat="45.7042031" lon="8.7455936"><ele>286.5</ele><time>2026-05-04T10:18:55.165Z</time></trkpt><trkpt lat="45.7041374" lon="8.7455002"><ele>287.0</ele><time>2026-05-04T10:18:57.165Z</time></trkpt><trkpt lat="45.7040761" lon="8.7454106"><ele>287.0</ele><time>2026-05-04T10:18:59.164Z</time></trkpt><trkpt lat="45.7040084" lon="8.7453087"><ele>287.0</ele><time>2026-05-04T10:19:01.165Z</time></trkpt><trkpt lat="45.7039223" lon="8.7452156"><ele>287.0</ele><time>2026-05-04T10:19:03.164Z</time></trkpt><trkpt lat="45.7037883" lon="8.745058"><ele>287.0</ele><time>2026-05-04T10:19:05.164Z</time></trkpt><trkpt lat="45.7037191" lon="8.7449059"><ele>286.5</ele><time>2026-05-04T10:19:07.164Z</time></trkpt><trkpt lat="45.7036759" lon="8.7447926"><ele>286.0</ele><time>2026-05-04T10:19:09.165Z</time></trkpt><trkpt lat="45.7036115" lon="8.7446709"><ele>285.5</ele><time>2026-05-04T10:19:11.163Z</time></trkpt><trkpt lat="45.7035461" lon="8.7445808"><ele>285.0</ele><time>2026-05-04T10:19:13.165Z</time></trkpt><trkpt lat="45.7034293" lon="8.7443297"><ele>287.0</ele><time>2026-05-04T10:19:52.166Z</time></trkpt><trkpt lat="45.7033958" lon="8.7442498"><ele>289.0</ele><time>2026-05-04T10:19:53.164Z</time></trkpt><trkpt lat="45.7033366" lon="8.7441337"><ele>291.0</ele><time>2026-05-04T10:19:55.166Z</time></trkpt><trkpt lat="45.7032939" lon="8.7440507"><ele>293.0</ele><time>2026-05-04T10:19:56.164Z</time></trkpt><trkpt lat="45.7032059" lon="8.7439455"><ele>295.0</ele><time>2026-05-04T10:19:58.165Z</time></trkpt><trkpt lat="45.7030945" lon="8.7439055"><ele>295.0</ele><time>2026-05-04T10:20:00.165Z</time></trkpt><trkpt lat="45.7030131" lon="8.7438057"><ele>295.0</ele><time>2026-05-04T10:20:02.165Z</time></trkpt><trkpt lat="45.702932" lon="8.7437122"><ele>295.0</ele><time>2026-05-04T10:20:04.165Z</time></trkpt><trkpt lat="45.7028987" lon="8.7435952"><ele>295.0</ele><time>2026-05-04T10:20:06.163Z</time></trkpt><trkpt lat="45.7028714" lon="8.7434746"><ele>295.0</ele><time>2026-05-04T10:20:08.165Z</time></trkpt><trkpt lat="45.7028441" lon="8.7433503"><ele>294.0</ele><time>2026-05-04T10:20:10.164Z</time></trkpt><trkpt lat="45.7028287" lon="8.7432436"><ele>293.0</ele><time>2026-05-04T10:20:12.164Z</time></trkpt><trkpt lat="45.7027906" lon="8.7431393"><ele>292.0</ele><time>2026-05-04T10:20:14.165Z</time></trkpt><trkpt lat="45.7027563" lon="8.7429803"><ele>291.0</ele><time>2026-05-04T10:20:16.165Z</time></trkpt><trkpt lat="45.7027307" lon="8.7428262"><ele>290.0</ele><time>2026-05-04T10:20:18.165Z</time></trkpt><trkpt lat="45.7027253" lon="8.7427301"><ele>291.83333333333337</ele><time>2026-05-04T10:20:19.165Z</time></trkpt><trkpt lat="45.7026943" lon="8.7425933"><ele>293.6666666666667</ele><time>2026-05-04T10:20:21.164Z</time></trkpt><trkpt lat="45.7026668" lon="8.7424562"><ele>295.5</ele><time>2026-05-04T10:20:23.165Z</time></trkpt><trkpt lat="45.7026438" lon="8.7423357"><ele>297.3333333333333</ele><time>2026-05-04T10:20:25.164Z</time></trkpt><trkpt lat="45.7026032" lon="8.7422457"><ele>299.16666666666663</ele><time>2026-05-04T10:20:27.165Z</time></trkpt><trkpt lat="45.7025798" lon="8.7421492"><ele>301.0</ele><time>2026-05-04T10:20:30.165Z</time></trkpt><trkpt lat="45.7025909" lon="8.7420484"><ele>301.0</ele><time>2026-05-04T10:20:32.164Z</time></trkpt><trkpt lat="45.7026033" lon="8.7419451"><ele>301.0</ele><time>2026-05-04T10:20:34.164Z</time></trkpt><trkpt lat="45.702615" lon="8.7418428"><ele>301.0</ele><time>2026-05-04T10:20:36.165Z</time></trkpt><trkpt lat="45.7026206" lon="8.741707"><ele>301.0</ele><time>2026-05-04T10:20:38.164Z</time></trkpt><trkpt lat="45.7026271" lon="8.7415728"><ele>301.0</ele><time>2026-05-04T10:20:40.164Z</time></trkpt><trkpt lat="45.7026347" lon="8.7414454"><ele>301.0</ele><time>2026-05-04T10:20:42.165Z</time></trkpt><trkpt lat="45.7026399" lon="8.7413234"><ele>301.5</ele><time>2026-05-04T10:20:44.164Z</time></trkpt><trkpt lat="45.7026598" lon="8.7411884"><ele>302.0</ele><time>2026-05-04T10:20:46.164Z</time></trkpt><trkpt lat="45.7026823" lon="8.741067"><ele>302.5</ele><time>2026-05-04T10:20:48.164Z</time></trkpt><trkpt lat="45.7026997" lon="8.7409612"><ele>303.0</ele><time>2026-05-04T10:20:50.164Z</time></trkpt><trkpt lat="45.7027156" lon="8.740846"><ele>303.5</ele><time>2026-05-04T10:20:52.164Z</time></trkpt><trkpt lat="45.7027182" lon="8.7407397"><ele>304.0</ele><time>2026-05-04T10:20:54.164Z</time></trkpt><trkpt lat="45.7027275" lon="8.7406352"><ele>303.2</ele><time>2026-05-04T10:20:56.164Z</time></trkpt><trkpt lat="45.702753" lon="8.7405089"><ele>302.4</ele><time>2026-05-04T10:20:58.164Z</time></trkpt><trkpt lat="45.7027922" lon="8.7403602"><ele>301.6</ele><time>2026-05-04T10:21:00.164Z</time></trkpt><trkpt lat="45.7028379" lon="8.7402022"><ele>300.8</ele><time>2026-05-04T10:21:01.165Z</time></trkpt><trkpt lat="45.7028533" lon="8.7401039"><ele>300.0</ele><time>2026-05-04T10:21:02.165Z</time></trkpt><trkpt lat="45.7028723" lon="8.7399633"><ele>300.0</ele><time>2026-05-04T10:21:04.164Z</time></trkpt><trkpt lat="45.7028885" lon="8.7398612"><ele>300.0</ele><time>2026-05-04T10:21:05.165Z</time></trkpt><trkpt lat="45.7029164" lon="8.7397043"><ele>300.0</ele><time>2026-05-04T10:21:07.164Z</time></trkpt><trkpt lat="45.7029355" lon="8.7395474"><ele>300.0</ele><time>2026-05-04T10:21:09.165Z</time></trkpt><trkpt lat="45.7029649" lon="8.7394019"><ele>300.0</ele><time>2026-05-04T10:21:11.165Z</time></trkpt><trkpt lat="45.7030028" lon="8.7392438"><ele>300.1666666666667</ele><time>2026-05-04T10:21:13.163Z</time></trkpt><trkpt lat="45.7030423" lon="8.7390806"><ele>300.3333333333333</ele><time>2026-05-04T10:21:15.165Z</time></trkpt><trkpt lat="45.7030729" lon="8.7389843"><ele>300.5</ele><time>2026-05-04T10:21:16.164Z</time></trkpt><trkpt lat="45.703102" lon="8.7388797"><ele>300.66666666666663</ele><time>2026-05-04T10:21:17.164Z</time></trkpt><trkpt lat="45.7031271" lon="8.7387939"><ele>300.8333333333333</ele><time>2026-05-04T10:21:18.164Z</time></trkpt><trkpt lat="45.7031488" lon="8.7386955"><ele>301.0</ele><time>2026-05-04T10:21:19.165Z</time></trkpt><trkpt lat="45.7031691" lon="8.738587"><ele>301.14285714285717</ele><time>2026-05-04T10:21:20.164Z</time></trkpt><trkpt lat="45.7031844" lon="8.7384893"><ele>301.2857142857143</ele><time>2026-05-04T10:21:21.164Z</time></trkpt><trkpt lat="45.7031997" lon="8.7383938"><ele>301.42857142857144</ele><time>2026-05-04T10:21:22.165Z</time></trkpt><trkpt lat="45.7032319" lon="8.7382592"><ele>301.57142857142856</ele><time>2026-05-04T10:21:24.164Z</time></trkpt><trkpt lat="45.7032514" lon="8.7381714"><ele>301.7142857142857</ele><time>2026-05-04T10:21:25.164Z</time></trkpt><trkpt lat="45.7032773" lon="8.7380876"><ele>301.8571428571429</ele><time>2026-05-04T10:21:26.164Z</time></trkpt><trkpt lat="45.7032984" lon="8.7379939"><ele>302.0</ele><time>2026-05-04T10:21:27.164Z</time></trkpt><trkpt lat="45.703342" lon="8.7378237"><ele>301.8</ele><time>2026-05-04T10:21:29.164Z</time></trkpt><trkpt lat="45.7033877" lon="8.737661"><ele>301.6</ele><time>2026-05-04T10:21:31.165Z</time></trkpt><trkpt lat="45.7034115" lon="8.7375771"><ele>301.40000000000003</ele><time>2026-05-04T10:21:32.165Z</time></trkpt><trkpt lat="45.7034564" lon="8.7374283"><ele>301.2</ele><time>2026-05-04T10:21:34.164Z</time></trkpt><trkpt lat="45.7034486" lon="8.7372768"><ele>301.0</ele><time>2026-05-04T10:21:36.164Z</time></trkpt><trkpt lat="45.7034279" lon="8.7371391"><ele>301.0</ele><time>2026-05-04T10:21:38.165Z</time></trkpt><trkpt lat="45.703426" lon="8.7369953"><ele>301.0</ele><time>2026-05-04T10:21:40.164Z</time></trkpt><trkpt lat="45.7034799" lon="8.7368521"><ele>301.0</ele><time>2026-05-04T10:21:42.164Z</time></trkpt><trkpt lat="45.7034982" lon="8.7367626"><ele>301.0</ele><time>2026-05-04T10:21:43.164Z</time></trkpt><trkpt lat="45.7035139" lon="8.7365978"><ele>301.0</ele><time>2026-05-04T10:21:45.164Z</time></trkpt><trkpt lat="45.7035518" lon="8.7365249"><ele>301.0</ele><time>2026-05-04T10:21:46.164Z</time></trkpt><trkpt lat="45.703578" lon="8.7364205"><ele>301.0</ele><time>2026-05-04T10:21:47.163Z</time></trkpt><trkpt lat="45.7036042" lon="8.736325"><ele>301.0</ele><time>2026-05-04T10:21:48.164Z</time></trkpt><trkpt lat="45.7036448" lon="8.7362135"><ele>301.0</ele><time>2026-05-04T10:21:49.164Z</time></trkpt><trkpt lat="45.7036873" lon="8.7361313"><ele>301.0</ele><time>2026-05-04T10:21:50.165Z</time></trkpt><trkpt lat="45.703788" lon="8.7360203"><ele>301.0</ele><time>2026-05-04T10:21:52.164Z</time></trkpt><trkpt lat="45.7038365" lon="8.7359471"><ele>301.0</ele><time>2026-05-04T10:21:53.164Z</time></trkpt><trkpt lat="45.7039292" lon="8.7358408"><ele>301.0</ele><time>2026-05-04T10:21:55.165Z</time></trkpt><trkpt lat="45.7039952" lon="8.7357315"><ele>301.0</ele><time>2026-05-04T10:21:57.164Z</time></trkpt><trkpt lat="45.7040441" lon="8.7355653"><ele>301.0</ele><time>2026-05-04T10:21:59.165Z</time></trkpt><trkpt lat="45.7040688" lon="8.73542"><ele>301.0</ele><time>2026-05-04T10:22:01.164Z</time></trkpt><trkpt lat="45.7041026" lon="8.7352555"><ele>301.0</ele><time>2026-05-04T10:22:03.165Z</time></trkpt><trkpt lat="45.7041049" lon="8.7350846"><ele>301.0</ele><time>2026-05-04T10:22:05.163Z</time></trkpt><trkpt lat="45.7040902" lon="8.7349311"><ele>301.0</ele><time>2026-05-04T10:22:07.164Z</time></trkpt><trkpt lat="45.7040774" lon="8.7348157"><ele>301.0</ele><time>2026-05-04T10:22:08.164Z</time></trkpt><trkpt lat="45.7041371" lon="8.7347142"><ele>300.8333333333333</ele><time>2026-05-04T10:22:09.164Z</time></trkpt><trkpt lat="45.704149" lon="8.7345909"><ele>300.66666666666663</ele><time>2026-05-04T10:22:11.165Z</time></trkpt><trkpt lat="45.7041643" lon="8.7345013"><ele>300.5</ele><time>2026-05-04T10:22:12.165Z</time></trkpt><trkpt lat="45.7042027" lon="8.7344204"><ele>300.3333333333333</ele><time>2026-05-04T10:22:13.165Z</time></trkpt><trkpt lat="45.7042501" lon="8.7342712"><ele>300.1666666666667</ele><time>2026-05-04T10:22:15.165Z</time></trkpt><trkpt lat="45.7042659" lon="8.734177"><ele>300.0</ele><time>2026-05-04T10:22:16.164Z</time></trkpt><trkpt lat="45.7043099" lon="8.7340273"><ele>300.4</ele><time>2026-05-04T10:22:18.165Z</time></trkpt><trkpt lat="45.7043679" lon="8.73387"><ele>300.8</ele><time>2026-05-04T10:22:20.164Z</time></trkpt><trkpt lat="45.7044492" lon="8.7337595"><ele>301.2</ele><time>2026-05-04T10:22:22.165Z</time></trkpt><trkpt lat="45.7045238" lon="8.7336356"><ele>301.6</ele><time>2026-05-04T10:22:24.164Z</time></trkpt><trkpt lat="45.7045876" lon="8.7335644"><ele>302.0</ele><time>2026-05-04T10:22:26.164Z</time></trkpt><trkpt lat="45.7046457" lon="8.7334958"><ele>302.0</ele><time>2026-05-04T10:22:27.163Z</time></trkpt><trkpt lat="45.7047025" lon="8.7333941"><ele>302.0</ele><time>2026-05-04T10:22:28.164Z</time></trkpt><trkpt lat="45.704786" lon="8.7332865"><ele>302.0</ele><time>2026-05-04T10:22:30.165Z</time></trkpt><trkpt lat="45.7048035" lon="8.7331931"><ele>302.0</ele><time>2026-05-04T10:22:31.165Z</time></trkpt><trkpt lat="45.7048881" lon="8.7332037"><ele>302.0</ele><time>2026-05-04T10:22:32.165Z</time></trkpt><trkpt lat="45.7049175" lon="8.7331207"><ele>302.0</ele><time>2026-05-04T10:22:33.165Z</time></trkpt><trkpt lat="45.7049844" lon="8.7329977"><ele>302.0</ele><time>2026-05-04T10:22:35.166Z</time></trkpt><trkpt lat="45.7050609" lon="8.7329038"><ele>302.0</ele><time>2026-05-04T10:22:37.165Z</time></trkpt><trkpt lat="45.7051178" lon="8.7328085"><ele>302.0</ele><time>2026-05-04T10:22:39.164Z</time></trkpt><trkpt lat="45.7051609" lon="8.7326782"><ele>302.0</ele><time>2026-05-04T10:22:41.164Z</time></trkpt><trkpt lat="45.7052321" lon="8.7326544"><ele>302.0</ele><time>2026-05-04T10:22:43.164Z</time></trkpt><trkpt lat="45.7051584" lon="8.7325599"><ele>302.25</ele><time>2026-05-04T10:22:45.164Z</time></trkpt><trkpt lat="45.7050937" lon="8.7324049"><ele>302.5</ele><time>2026-05-04T10:22:47.165Z</time></trkpt><trkpt lat="45.7050229" lon="8.7322461"><ele>302.75</ele><time>2026-05-04T10:22:49.165Z</time></trkpt><trkpt lat="45.7050009" lon="8.7320796"><ele>303.0</ele><time>2026-05-04T10:22:51.165Z</time></trkpt><trkpt lat="45.7049518" lon="8.7319196"><ele>303.5</ele><time>2026-05-04T10:22:53.163Z</time></trkpt><trkpt lat="45.7046778" lon="8.7315599"><ele>304.0</ele><time>2026-05-04T10:23:03.164Z</time></trkpt><trkpt lat="45.7046667" lon="8.7314265"><ele>304.0</ele><time>2026-05-04T10:23:05.164Z</time></trkpt><trkpt lat="45.7046108" lon="8.7313561"><ele>304.0</ele><time>2026-05-04T10:23:07.164Z</time></trkpt><trkpt lat="45.704544" lon="8.7312645"><ele>304.0</ele><time>2026-05-04T10:23:09.165Z</time></trkpt><trkpt lat="45.7044714" lon="8.7311643"><ele>304.0</ele><time>2026-05-04T10:23:11.164Z</time></trkpt><trkpt lat="45.7044291" lon="8.7310711"><ele>304.0</ele><time>2026-05-04T10:23:13.164Z</time></trkpt><trkpt lat="45.7044024" lon="8.730985"><ele>304.0</ele><time>2026-05-04T10:23:15.164Z</time></trkpt><trkpt lat="45.7043699" lon="8.7308918"><ele>305.0</ele><time>2026-05-04T10:23:17.165Z</time></trkpt><trkpt lat="45.7043356" lon="8.7307964"><ele>306.0</ele><time>2026-05-04T10:23:19.164Z</time></trkpt><trkpt lat="45.704306" lon="8.7307128"><ele>307.0</ele><time>2026-05-04T10:23:21.164Z</time></trkpt><trkpt lat="45.7042762" lon="8.73062"><ele>308.0</ele><time>2026-05-04T10:23:23.164Z</time></trkpt><trkpt lat="45.7042423" lon="8.7305234"><ele>309.0</ele><time>2026-05-04T10:23:25.164Z</time></trkpt><trkpt lat="45.7042102" lon="8.7304231"><ele>310.0</ele><time>2026-05-04T10:23:27.165Z</time></trkpt><trkpt lat="45.7041935" lon="8.7303033"><ele>310.2</ele><time>2026-05-04T10:23:29.164Z</time></trkpt><trkpt lat="45.7042117" lon="8.7301842"><ele>310.4</ele><time>2026-05-04T10:23:31.165Z</time></trkpt><trkpt lat="45.7042351" lon="8.7300781"><ele>310.6</ele><time>2026-05-04T10:23:33.164Z</time></trkpt><trkpt lat="45.7042649" lon="8.7299711"><ele>310.8</ele><time>2026-05-04T10:23:35.164Z</time></trkpt><trkpt lat="45.7043392" lon="8.7297143"><ele>311.0</ele><time>2026-05-04T10:23:37.164Z</time></trkpt><trkpt lat="45.7043882" lon="8.7296439"><ele>310.8</ele><time>2026-05-04T10:23:38.164Z</time></trkpt><trkpt lat="45.7044606" lon="8.7295057"><ele>310.6</ele><time>2026-05-04T10:23:40.165Z</time></trkpt><trkpt lat="45.7044926" lon="8.7293953"><ele>310.4</ele><time>2026-05-04T10:23:41.166Z</time></trkpt><trkpt lat="45.7045321" lon="8.7293099"><ele>310.2</ele><time>2026-05-04T10:23:42.163Z</time></trkpt><trkpt lat="45.7045643" lon="8.7292078"><ele>310.0</ele><time>2026-05-04T10:23:43.165Z</time></trkpt><trkpt lat="45.7046492" lon="8.7290153"><ele>309.4</ele><time>2026-05-04T10:23:45.163Z</time></trkpt><trkpt lat="45.704724" lon="8.7288594"><ele>308.8</ele><time>2026-05-04T10:23:47.164Z</time></trkpt><trkpt lat="45.70482" lon="8.7286748"><ele>308.2</ele><time>2026-05-04T10:23:49.166Z</time></trkpt><trkpt lat="45.7048595" lon="8.7285967"><ele>307.6</ele><time>2026-05-04T10:23:50.164Z</time></trkpt><trkpt lat="45.7049202" lon="8.7285638"><ele>307.0</ele><time>2026-05-04T10:23:51.164Z</time></trkpt><trkpt lat="45.7049997" lon="8.728482"><ele>307.0</ele><time>2026-05-04T10:23:52.164Z</time></trkpt><trkpt lat="45.7050549" lon="8.7283325"><ele>307.0</ele><time>2026-05-04T10:23:54.166Z</time></trkpt><trkpt lat="45.7051177" lon="8.7281995"><ele>307.0</ele><time>2026-05-04T10:23:56.164Z</time></trkpt><trkpt lat="45.7051974" lon="8.7281085"><ele>307.0</ele><time>2026-05-04T10:23:58.164Z</time></trkpt><trkpt lat="45.7052455" lon="8.7279808"><ele>307.0</ele><time>2026-05-04T10:24:00.165Z</time></trkpt><trkpt lat="45.7052767" lon="8.7278674"><ele>306.25</ele><time>2026-05-04T10:24:02.164Z</time></trkpt><trkpt lat="45.7052882" lon="8.7277513"><ele>305.5</ele><time>2026-05-04T10:24:04.164Z</time></trkpt><trkpt lat="45.7053154" lon="8.7276223"><ele>304.75</ele><time>2026-05-04T10:24:07.164Z</time></trkpt><trkpt lat="45.7054539" lon="8.7273368"><ele>304.0</ele><time>2026-05-04T10:24:16.164Z</time></trkpt><trkpt lat="45.7054985" lon="8.7272685"><ele>303.8333333333333</ele><time>2026-05-04T10:24:20.164Z</time></trkpt><trkpt lat="45.7055606" lon="8.7272044"><ele>303.66666666666663</ele><time>2026-05-04T10:24:47.163Z</time></trkpt><trkpt lat="45.7055861" lon="8.7270881"><ele>303.5</ele><time>2026-05-04T10:24:50.164Z</time></trkpt><trkpt lat="45.7056356" lon="8.7269906"><ele>303.3333333333333</ele><time>2026-05-04T10:24:53.166Z</time></trkpt><trkpt lat="45.7056819" lon="8.7269035"><ele>303.1666666666667</ele><time>2026-05-04T10:24:57.165Z</time></trkpt><trkpt lat="45.705653" lon="8.726782"><ele>303.0</ele><time>2026-05-04T10:25:01.164Z</time></trkpt><trkpt lat="45.705641" lon="8.7266579"><ele>303.6666666666667</ele><time>2026-05-04T10:25:03.164Z</time></trkpt><trkpt lat="45.7056329" lon="8.7265476"><ele>304.3333333333333</ele><time>2026-05-04T10:25:05.165Z</time></trkpt><trkpt lat="45.7056168" lon="8.7264452"><ele>305.0</ele><time>2026-05-04T10:25:07.165Z</time></trkpt><trkpt lat="45.7055846" lon="8.7263558"><ele>305.66666666666663</ele><time>2026-05-04T10:25:09.164Z</time></trkpt><trkpt lat="45.7055708" lon="8.7262587"><ele>306.3333333333333</ele><time>2026-05-04T10:25:11.165Z</time></trkpt><trkpt lat="45.7055549" lon="8.7261343"><ele>307.0</ele><time>2026-05-04T10:25:13.163Z</time></trkpt><trkpt lat="45.7055199" lon="8.7260127"><ele>307.4</ele><time>2026-05-04T10:25:15.164Z</time></trkpt><trkpt lat="45.7054774" lon="8.7258967"><ele>307.79999999999995</ele><time>2026-05-04T10:25:17.164Z</time></trkpt><trkpt lat="45.7054294" lon="8.7257993"><ele>308.2</ele><time>2026-05-04T10:25:19.166Z</time></trkpt><trkpt lat="45.7053789" lon="8.7256731"><ele>308.59999999999997</ele><time>2026-05-04T10:25:21.164Z</time></trkpt><trkpt lat="45.7053519" lon="8.7255532"><ele>309.0</ele><time>2026-05-04T10:25:23.163Z</time></trkpt><trkpt lat="45.705331" lon="8.7254165"><ele>309.0</ele><time>2026-05-04T10:25:25.164Z</time></trkpt><trkpt lat="45.7053457" lon="8.7252804"><ele>309.0</ele><time>2026-05-04T10:25:27.165Z</time></trkpt><trkpt lat="45.7053639" lon="8.7250469"><ele>309.0</ele><time>2026-05-04T10:25:29.163Z</time></trkpt><trkpt lat="45.7053937" lon="8.7249502"><ele>309.0</ele><time>2026-05-04T10:25:30.163Z</time></trkpt><trkpt lat="45.7054416" lon="8.7248541"><ele>309.0</ele><time>2026-05-04T10:25:32.163Z</time></trkpt><trkpt lat="45.705485" lon="8.7247094"><ele>310.1666666666667</ele><time>2026-05-04T10:25:34.164Z</time></trkpt><trkpt lat="45.7054961" lon="8.7245729"><ele>311.3333333333333</ele><time>2026-05-04T10:25:36.164Z</time></trkpt><trkpt lat="45.7055159" lon="8.7244823"><ele>312.5</ele><time>2026-05-04T10:25:38.164Z</time></trkpt><trkpt lat="45.7055485" lon="8.7243654"><ele>313.66666666666663</ele><time>2026-05-04T10:25:40.163Z</time></trkpt><trkpt lat="45.705633" lon="8.7243165"><ele>314.8333333333333</ele><time>2026-05-04T10:25:42.165Z</time></trkpt><trkpt lat="45.7056697" lon="8.7242177"><ele>316.0</ele><time>2026-05-04T10:25:44.165Z</time></trkpt><trkpt lat="45.7057324" lon="8.724178"><ele>316.6</ele><time>2026-05-04T10:25:45.163Z</time></trkpt><trkpt lat="45.7058238" lon="8.7241115"><ele>317.20000000000005</ele><time>2026-05-04T10:25:47.163Z</time></trkpt><trkpt lat="45.7058779" lon="8.7240118"><ele>317.79999999999995</ele><time>2026-05-04T10:25:49.164Z</time></trkpt><trkpt lat="45.7059499" lon="8.7239561"><ele>318.4</ele><time>2026-05-04T10:25:51.163Z</time></trkpt><trkpt lat="45.7059726" lon="8.7238125"><ele>319.0</ele><time>2026-05-04T10:25:53.165Z</time></trkpt><trkpt lat="45.7060168" lon="8.723706"><ele>319.0</ele><time>2026-05-04T10:25:55.165Z</time></trkpt><trkpt lat="45.7060367" lon="8.7236016"><ele>319.0</ele><time>2026-05-04T10:25:57.164Z</time></trkpt><trkpt lat="45.7060612" lon="8.7234179"><ele>319.0</ele><time>2026-05-04T10:25:59.164Z</time></trkpt><trkpt lat="45.7060871" lon="8.7232923"><ele>319.0</ele><time>2026-05-04T10:26:02.166Z</time></trkpt><trkpt lat="45.706098" lon="8.7231673"><ele>319.0</ele><time>2026-05-04T10:26:04.164Z</time></trkpt><trkpt lat="45.706105" lon="8.7230664"><ele>319.3333333333333</ele><time>2026-05-04T10:26:06.164Z</time></trkpt><trkpt lat="45.7061449" lon="8.722951"><ele>319.66666666666663</ele><time>2026-05-04T10:26:08.164Z</time></trkpt><trkpt lat="45.7061827" lon="8.7228741"><ele>320.0</ele><time>2026-05-04T10:26:09.164Z</time></trkpt><trkpt lat="45.706267" lon="8.7227896"><ele>320.3333333333333</ele><time>2026-05-04T10:26:11.164Z</time></trkpt><trkpt lat="45.7063608" lon="8.7227104"><ele>320.6666666666667</ele><time>2026-05-04T10:26:14.165Z</time></trkpt><trkpt lat="45.7064146" lon="8.7226517"><ele>321.0</ele><time>2026-05-04T10:26:16.166Z</time></trkpt><trkpt lat="45.7064745" lon="8.7225819"><ele>321.0</ele><time>2026-05-04T10:26:18.165Z</time></trkpt><trkpt lat="45.7065359" lon="8.7225187"><ele>321.0</ele><time>2026-05-04T10:26:20.165Z</time></trkpt><trkpt lat="45.7065557" lon="8.7224147"><ele>321.0</ele><time>2026-05-04T10:26:23.165Z</time></trkpt><trkpt lat="45.7065749" lon="8.7223127"><ele>321.0</ele><time>2026-05-04T10:26:26.164Z</time></trkpt><trkpt lat="45.7065957" lon="8.7222111"><ele>321.0</ele><time>2026-05-04T10:26:28.164Z</time></trkpt><trkpt lat="45.7066499" lon="8.7221134"><ele>321.0</ele><time>2026-05-04T10:26:30.163Z</time></trkpt><trkpt lat="45.706714" lon="8.7220819"><ele>321.0</ele><time>2026-05-04T10:26:32.162Z</time></trkpt><trkpt lat="45.7067721" lon="8.7220412"><ele>321.0</ele><time>2026-05-04T10:26:34.163Z</time></trkpt><trkpt lat="45.7068552" lon="8.7220004"><ele>321.0</ele><time>2026-05-04T10:26:36.162Z</time></trkpt><trkpt lat="45.7069235" lon="8.7219519"><ele>321.0</ele><time>2026-05-04T10:26:38.165Z</time></trkpt><trkpt lat="45.7069634" lon="8.7218756"><ele>321.0</ele><time>2026-05-04T10:26:40.164Z</time></trkpt><trkpt lat="45.7070089" lon="8.7218037"><ele>321.0</ele><time>2026-05-04T10:26:42.164Z</time></trkpt><trkpt lat="45.7070637" lon="8.7216975"><ele>320.8</ele><time>2026-05-04T10:26:45.163Z</time></trkpt><trkpt lat="45.7071029" lon="8.7216089"><ele>320.6</ele><time>2026-05-04T10:26:48.164Z</time></trkpt><trkpt lat="45.707153" lon="8.7215062"><ele>320.4</ele><time>2026-05-04T10:26:51.165Z</time></trkpt><trkpt lat="45.7072127" lon="8.7214046"><ele>320.2</ele><time>2026-05-04T10:26:54.163Z</time></trkpt><trkpt lat="45.7073263" lon="8.7213338"><ele>320.0</ele><time>2026-05-04T10:26:56.163Z</time></trkpt><trkpt lat="45.7074427" lon="8.7212729"><ele>320.0</ele><time>2026-05-04T10:26:58.163Z</time></trkpt><trkpt lat="45.7075172" lon="8.7212522"><ele>320.0</ele><time>2026-05-04T10:26:59.162Z</time></trkpt><trkpt lat="45.7076239" lon="8.7212747"><ele>320.0</ele><time>2026-05-04T10:27:00.163Z</time></trkpt><trkpt lat="45.7077157" lon="8.7212626"><ele>320.0</ele><time>2026-05-04T10:27:02.164Z</time></trkpt><trkpt lat="45.7077787" lon="8.7212376"><ele>320.0</ele><time>2026-05-04T10:27:05.163Z</time></trkpt><trkpt lat="45.7077398" lon="8.7211571"><ele>320.0</ele><time>2026-05-04T10:27:10.165Z</time></trkpt><trkpt lat="45.7076692" lon="8.721145"><ele>320.0</ele><time>2026-05-04T10:27:15.165Z</time></trkpt><trkpt lat="45.7076065" lon="8.7210937"><ele>320.0</ele><time>2026-05-04T10:27:17.164Z</time></trkpt><trkpt lat="45.7075268" lon="8.7210589"><ele>320.0</ele><time>2026-05-04T10:27:19.163Z</time></trkpt><trkpt lat="45.7074602" lon="8.7209928"><ele>320.0</ele><time>2026-05-04T10:27:21.166Z</time></trkpt><trkpt lat="45.7074739" lon="8.7209045"><ele>320.0</ele><time>2026-05-04T10:27:26.164Z</time></trkpt><trkpt lat="45.7075299" lon="8.7208542"><ele>320.0</ele><time>2026-05-04T10:27:36.165Z</time></trkpt><trkpt lat="45.7075863" lon="8.7207953"><ele>320.0</ele><time>2026-05-04T10:27:43.164Z</time></trkpt><trkpt lat="45.7075464" lon="8.7207074"><ele>317.6</ele><time>2026-05-04T10:27:47.164Z</time></trkpt><trkpt lat="45.707489" lon="8.720646"><ele>315.2</ele><time>2026-05-04T10:27:50.164Z</time></trkpt><trkpt lat="45.7074112" lon="8.720591"><ele>312.8</ele><time>2026-05-04T10:27:54.165Z</time></trkpt><trkpt lat="45.7072787" lon="8.7204968"><ele>310.4</ele><time>2026-05-04T10:27:56.163Z</time></trkpt><trkpt lat="45.7072115" lon="8.720425"><ele>308.0</ele><time>2026-05-04T10:27:58.163Z</time></trkpt><trkpt lat="45.7071432" lon="8.7203826"><ele>308.0</ele><time>2026-05-04T10:27:59.166Z</time></trkpt><trkpt lat="45.7070998" lon="8.7202702"><ele>308.0</ele><time>2026-05-04T10:28:03.165Z</time></trkpt><trkpt lat="45.7070047" lon="8.7201426"><ele>308.0</ele><time>2026-05-04T10:28:05.165Z</time></trkpt><trkpt lat="45.7069494" lon="8.7200483"><ele>308.0</ele><time>2026-05-04T10:28:06.164Z</time></trkpt><trkpt lat="45.706882" lon="8.7199544"><ele>308.0</ele><time>2026-05-04T10:28:07.165Z</time></trkpt><trkpt lat="45.7068063" lon="8.7198629"><ele>306.83333333333337</ele><time>2026-05-04T10:28:08.165Z</time></trkpt><trkpt lat="45.7067383" lon="8.7198547"><ele>305.6666666666667</ele><time>2026-05-04T10:28:10.165Z</time></trkpt><trkpt lat="45.7066799" lon="8.7197861"><ele>304.5</ele><time>2026-05-04T10:28:12.165Z</time></trkpt><trkpt lat="45.7066218" lon="8.719723"><ele>303.3333333333333</ele><time>2026-05-04T10:28:14.163Z</time></trkpt><trkpt lat="45.7065564" lon="8.7196695"><ele>302.16666666666663</ele><time>2026-05-04T10:28:16.165Z</time></trkpt><trkpt lat="45.7065009" lon="8.719604"><ele>301.0</ele><time>2026-05-04T10:28:18.164Z</time></trkpt><trkpt lat="45.706423" lon="8.7195235"><ele>301.0</ele><time>2026-05-04T10:28:21.164Z</time></trkpt><trkpt lat="45.7063508" lon="8.7194454"><ele>301.0</ele><time>2026-05-04T10:28:24.165Z</time></trkpt><trkpt lat="45.7062854" lon="8.7193692"><ele>301.0</ele><time>2026-05-04T10:28:27.164Z</time></trkpt><trkpt lat="45.7062336" lon="8.7192949"><ele>301.0</ele><time>2026-05-04T10:28:30.164Z</time></trkpt><trkpt lat="45.7062011" lon="8.7191838"><ele>301.0</ele><time>2026-05-04T10:28:33.164Z</time></trkpt><trkpt lat="45.7061866" lon="8.7190859"><ele>301.0</ele><time>2026-05-04T10:28:36.165Z</time></trkpt><trkpt lat="45.7062003" lon="8.7189871"><ele>301.66666666666663</ele><time>2026-05-04T10:28:39.165Z</time></trkpt><trkpt lat="45.7062193" lon="8.7188642"><ele>302.3333333333333</ele><time>2026-05-04T10:28:42.165Z</time></trkpt><trkpt lat="45.7062204" lon="8.7187289"><ele>303.0</ele><time>2026-05-04T10:28:45.164Z</time></trkpt><trkpt lat="45.7062024" lon="8.7186423"><ele>303.6666666666667</ele><time>2026-05-04T10:28:47.165Z</time></trkpt><trkpt lat="45.706173" lon="8.7185517"><ele>304.33333333333337</ele><time>2026-05-04T10:28:50.165Z</time></trkpt><trkpt lat="45.7060831" lon="8.7184971"><ele>305.0</ele><time>2026-05-04T10:28:54.165Z</time></trkpt><trkpt lat="45.706007" lon="8.7184609"><ele>305.0</ele><time>2026-05-04T10:28:56.165Z</time></trkpt><trkpt lat="45.7059254" lon="8.7184099"><ele>305.0</ele><time>2026-05-04T10:28:59.165Z</time></trkpt><trkpt lat="45.7058437" lon="8.7183685"><ele>305.0</ele><time>2026-05-04T10:29:02.165Z</time></trkpt><trkpt lat="45.7057809" lon="8.7183229"><ele>305.0</ele><time>2026-05-04T10:29:04.164Z</time></trkpt><trkpt lat="45.7056942" lon="8.7182579"><ele>305.0</ele><time>2026-05-04T10:29:07.164Z</time></trkpt><trkpt lat="45.7056242" lon="8.7182117"><ele>305.0</ele><time>2026-05-04T10:29:09.164Z</time></trkpt><trkpt lat="45.70555" lon="8.7181869"><ele>305.0</ele><time>2026-05-04T10:29:11.164Z</time></trkpt><trkpt lat="45.7054798" lon="8.7181799"><ele>305.0</ele><time>2026-05-04T10:29:13.165Z</time></trkpt><trkpt lat="45.7054143" lon="8.718178"><ele>305.0</ele><time>2026-05-04T10:29:15.164Z</time></trkpt><trkpt lat="45.7053489" lon="8.7181702"><ele>305.0</ele><time>2026-05-04T10:29:17.164Z</time></trkpt><trkpt lat="45.7052749" lon="8.7181394"><ele>305.0</ele><time>2026-05-04T10:29:21.165Z</time></trkpt><trkpt lat="45.7052064" lon="8.718103"><ele>305.0</ele><time>2026-05-04T10:29:24.165Z</time></trkpt><trkpt lat="45.7051284" lon="8.7180995"><ele>305.0</ele><time>2026-05-04T10:29:27.165Z</time></trkpt><trkpt lat="45.7050435" lon="8.7181213"><ele>305.5</ele><time>2026-05-04T10:29:31.164Z</time></trkpt><trkpt lat="45.7049901" lon="8.7181774"><ele>306.0</ele><time>2026-05-04T10:29:33.164Z</time></trkpt><trkpt lat="45.7049171" lon="8.7182544"><ele>306.5</ele><time>2026-05-04T10:29:36.164Z</time></trkpt><trkpt lat="45.7048576" lon="8.7182972"><ele>307.0</ele><time>2026-05-04T10:29:38.165Z</time></trkpt><trkpt lat="45.704786" lon="8.7183572"><ele>307.5</ele><time>2026-05-04T10:29:41.165Z</time></trkpt><trkpt lat="45.7047134" lon="8.7184137"><ele>308.0</ele><time>2026-05-04T10:29:44.164Z</time></trkpt><trkpt lat="45.7046497" lon="8.718472"><ele>308.0</ele><time>2026-05-04T10:29:47.164Z</time></trkpt><trkpt lat="45.704595" lon="8.7185302"><ele>308.0</ele><time>2026-05-04T10:29:50.164Z</time></trkpt><trkpt lat="45.704514" lon="8.7185754"><ele>308.0</ele><time>2026-05-04T10:29:53.164Z</time></trkpt><trkpt lat="45.704454" lon="8.7186336"><ele>308.0</ele><time>2026-05-04T10:29:56.165Z</time></trkpt><trkpt lat="45.7044102" lon="8.7186991"><ele>308.0</ele><time>2026-05-04T10:29:59.165Z</time></trkpt><trkpt lat="45.7043479" lon="8.7187878"><ele>308.0</ele><time>2026-05-04T10:30:02.164Z</time></trkpt><trkpt lat="45.7042958" lon="8.7188752"><ele>308.25</ele><time>2026-05-04T10:30:04.165Z</time></trkpt><trkpt lat="45.7042247" lon="8.7189609"><ele>308.5</ele><time>2026-05-04T10:30:06.164Z</time></trkpt><trkpt lat="45.7040977" lon="8.7190765"><ele>308.75</ele><time>2026-05-04T10:30:08.163Z</time></trkpt><trkpt lat="45.704008" lon="8.7191152"><ele>309.0</ele><time>2026-05-04T10:30:10.165Z</time></trkpt><trkpt lat="45.7039141" lon="8.7192111"><ele>309.0</ele><time>2026-05-04T10:30:12.164Z</time></trkpt><trkpt lat="45.7038575" lon="8.7192699"><ele>309.0</ele><time>2026-05-04T10:30:13.165Z</time></trkpt><trkpt lat="45.7037631" lon="8.7193573"><ele>309.0</ele><time>2026-05-04T10:30:15.165Z</time></trkpt><trkpt lat="45.7036751" lon="8.7194313"><ele>309.0</ele><time>2026-05-04T10:30:17.164Z</time></trkpt><trkpt lat="45.7035959" lon="8.7195049"><ele>309.0</ele><time>2026-05-04T10:30:19.164Z</time></trkpt><trkpt lat="45.7035339" lon="8.7195375"><ele>309.0</ele><time>2026-05-04T10:30:20.165Z</time></trkpt><trkpt lat="45.7034784" lon="8.7195813"><ele>308.3333333333333</ele><time>2026-05-04T10:30:21.164Z</time></trkpt><trkpt lat="45.7034056" lon="8.7196659"><ele>307.6666666666667</ele><time>2026-05-04T10:30:24.165Z</time></trkpt><trkpt lat="45.7033328" lon="8.7197132"><ele>307.0</ele><time>2026-05-04T10:30:26.164Z</time></trkpt><trkpt lat="45.7032545" lon="8.7197651"><ele>306.33333333333337</ele><time>2026-05-04T10:30:28.165Z</time></trkpt><trkpt lat="45.7031722" lon="8.7198093"><ele>305.6666666666667</ele><time>2026-05-04T10:30:31.163Z</time></trkpt><trkpt lat="45.7030992" lon="8.7198302"><ele>305.0</ele><time>2026-05-04T10:30:34.164Z</time></trkpt><trkpt lat="45.7030052" lon="8.719852"><ele>305.0</ele><time>2026-05-04T10:30:37.164Z</time></trkpt><trkpt lat="45.702935" lon="8.7198629"><ele>305.0</ele><time>2026-05-04T10:30:39.164Z</time></trkpt><trkpt lat="45.7028485" lon="8.7198627"><ele>305.0</ele><time>2026-05-04T10:30:41.164Z</time></trkpt><trkpt lat="45.7027522" lon="8.7198667"><ele>305.0</ele><time>2026-05-04T10:30:43.164Z</time></trkpt><trkpt lat="45.7026727" lon="8.7198725"><ele>305.0</ele><time>2026-05-04T10:30:46.165Z</time></trkpt><trkpt lat="45.7025981" lon="8.7199171"><ele>305.0</ele><time>2026-05-04T10:30:48.165Z</time></trkpt><trkpt lat="45.7025294" lon="8.7199656"><ele>304.83333333333337</ele><time>2026-05-04T10:30:50.164Z</time></trkpt><trkpt lat="45.7024734" lon="8.7200457"><ele>304.6666666666667</ele><time>2026-05-04T10:30:52.164Z</time></trkpt><trkpt lat="45.702406" lon="8.7201133"><ele>304.5</ele><time>2026-05-04T10:30:54.165Z</time></trkpt><trkpt lat="45.7023304" lon="8.720131"><ele>304.3333333333333</ele><time>2026-05-04T10:30:56.165Z</time></trkpt><trkpt lat="45.702249" lon="8.7201565"><ele>304.16666666666663</ele><time>2026-05-04T10:30:58.164Z</time></trkpt><trkpt lat="45.7021517" lon="8.7202198"><ele>304.0</ele><time>2026-05-04T10:31:00.164Z</time></trkpt><trkpt lat="45.7020807" lon="8.7202785"><ele>304.0</ele><time>2026-05-04T10:31:02.165Z</time></trkpt><trkpt lat="45.7020124" lon="8.720339"><ele>304.0</ele><time>2026-05-04T10:31:04.165Z</time></trkpt><trkpt lat="45.7019462" lon="8.7203919"><ele>304.0</ele><time>2026-05-04T10:31:06.164Z</time></trkpt><trkpt lat="45.7018603" lon="8.7204635"><ele>304.0</ele><time>2026-05-04T10:31:09.164Z</time></trkpt><trkpt lat="45.7017862" lon="8.7205232"><ele>304.0</ele><time>2026-05-04T10:31:11.165Z</time></trkpt><trkpt lat="45.7017068" lon="8.7205768"><ele>304.0</ele><time>2026-05-04T10:31:13.164Z</time></trkpt><trkpt lat="45.701632" lon="8.7206395"><ele>304.0</ele><time>2026-05-04T10:31:15.165Z</time></trkpt><trkpt lat="45.701537" lon="8.7207171"><ele>304.0</ele><time>2026-05-04T10:31:17.165Z</time></trkpt><trkpt lat="45.7014558" lon="8.7207862"><ele>304.0</ele><time>2026-05-04T10:31:19.164Z</time></trkpt><trkpt lat="45.7013687" lon="8.720854"><ele>304.0</ele><time>2026-05-04T10:31:21.164Z</time></trkpt><trkpt lat="45.7012721" lon="8.7209338"><ele>304.0</ele><time>2026-05-04T10:31:23.164Z</time></trkpt><trkpt lat="45.7011254" lon="8.7211118"><ele>303.8333333333333</ele><time>2026-05-04T10:31:25.164Z</time></trkpt><trkpt lat="45.7010688" lon="8.7211707"><ele>303.66666666666663</ele><time>2026-05-04T10:31:26.163Z</time></trkpt><trkpt lat="45.700981" lon="8.7212963"><ele>303.5</ele><time>2026-05-04T10:31:28.164Z</time></trkpt><trkpt lat="45.7009297" lon="8.7213796"><ele>303.3333333333333</ele><time>2026-05-04T10:31:30.164Z</time></trkpt><trkpt lat="45.7008903" lon="8.7214615"><ele>303.1666666666667</ele><time>2026-05-04T10:31:32.164Z</time></trkpt><trkpt lat="45.7008248" lon="8.7215467"><ele>303.0</ele><time>2026-05-04T10:31:34.165Z</time></trkpt><trkpt lat="45.7007534" lon="8.7216376"><ele>303.0</ele><time>2026-05-04T10:31:36.165Z</time></trkpt><trkpt lat="45.700695" lon="8.7217091"><ele>303.0</ele><time>2026-05-04T10:31:38.164Z</time></trkpt><trkpt lat="45.7006318" lon="8.7217768"><ele>303.0</ele><time>2026-05-04T10:31:41.164Z</time></trkpt><trkpt lat="45.7005628" lon="8.7218588"><ele>303.0</ele><time>2026-05-04T10:31:44.165Z</time></trkpt><trkpt lat="45.7005081" lon="8.7219185"><ele>303.0</ele><time>2026-05-04T10:31:46.164Z</time></trkpt><trkpt lat="45.7004529" lon="8.7219973"><ele>303.0</ele><time>2026-05-04T10:31:48.165Z</time></trkpt><trkpt lat="45.7003836" lon="8.7220881"><ele>303.2</ele><time>2026-05-04T10:31:50.164Z</time></trkpt><trkpt lat="45.7003105" lon="8.7221633"><ele>303.4</ele><time>2026-05-04T10:31:52.165Z</time></trkpt><trkpt lat="45.7002494" lon="8.7222527"><ele>303.59999999999997</ele><time>2026-05-04T10:31:54.164Z</time></trkpt><trkpt lat="45.7001749" lon="8.7223453"><ele>303.8</ele><time>2026-05-04T10:31:56.164Z</time></trkpt><trkpt lat="45.7000874" lon="8.7223622"><ele>304.0</ele><time>2026-05-04T10:31:58.165Z</time></trkpt><trkpt lat="45.6999876" lon="8.7223468"><ele>304.0</ele><time>2026-05-04T10:31:59.165Z</time></trkpt><trkpt lat="45.6999067" lon="8.7222446"><ele>304.0</ele><time>2026-05-04T10:32:01.163Z</time></trkpt><trkpt lat="45.6998443" lon="8.722153"><ele>304.0</ele><time>2026-05-04T10:32:03.164Z</time></trkpt><trkpt lat="45.6997826" lon="8.7220851"><ele>304.0</ele><time>2026-05-04T10:32:05.164Z</time></trkpt><trkpt lat="45.699726" lon="8.7220162"><ele>304.0</ele><time>2026-05-04T10:32:07.164Z</time></trkpt><trkpt lat="45.6996678" lon="8.721916"><ele>304.0</ele><time>2026-05-04T10:32:09.165Z</time></trkpt><trkpt lat="45.6996184" lon="8.7218091"><ele>304.16666666666663</ele><time>2026-05-04T10:32:11.164Z</time></trkpt><trkpt lat="45.6995595" lon="8.7217164"><ele>304.3333333333333</ele><time>2026-05-04T10:32:13.165Z</time></trkpt><trkpt lat="45.6994976" lon="8.7216274"><ele>304.5</ele><time>2026-05-04T10:32:15.165Z</time></trkpt><trkpt lat="45.6994501" lon="8.7215315"><ele>304.6666666666667</ele><time>2026-05-04T10:32:17.163Z</time></trkpt><trkpt lat="45.6994015" lon="8.7214471"><ele>304.83333333333337</ele><time>2026-05-04T10:32:19.164Z</time></trkpt><trkpt lat="45.6993621" lon="8.7213489"><ele>305.0</ele><time>2026-05-04T10:32:21.166Z</time></trkpt><trkpt lat="45.6993274" lon="8.7212489"><ele>305.6666666666667</ele><time>2026-05-04T10:32:23.165Z</time></trkpt><trkpt lat="45.6992756" lon="8.7211625"><ele>306.33333333333337</ele><time>2026-05-04T10:32:25.163Z</time></trkpt><trkpt lat="45.6992085" lon="8.7210739"><ele>307.0</ele><time>2026-05-04T10:32:28.165Z</time></trkpt><trkpt lat="45.6991419" lon="8.7210393"><ele>307.6666666666667</ele><time>2026-05-04T10:32:33.165Z</time></trkpt><trkpt lat="45.6990776" lon="8.7210361"><ele>308.3333333333333</ele><time>2026-05-04T10:32:37.165Z</time></trkpt><trkpt lat="45.6989901" lon="8.721049"><ele>309.0</ele><time>2026-05-04T10:32:41.165Z</time></trkpt><trkpt lat="45.6988992" lon="8.7210242"><ele>309.0</ele><time>2026-05-04T10:32:43.164Z</time></trkpt><trkpt lat="45.6987883" lon="8.7209843"><ele>309.0</ele><time>2026-05-04T10:32:45.164Z</time></trkpt><trkpt lat="45.6986955" lon="8.7209768"><ele>309.0</ele><time>2026-05-04T10:32:47.165Z</time></trkpt><trkpt lat="45.6986088" lon="8.7209908"><ele>309.0</ele><time>2026-05-04T10:32:49.164Z</time></trkpt><trkpt lat="45.6985309" lon="8.720964"><ele>309.0</ele><time>2026-05-04T10:32:51.165Z</time></trkpt><trkpt lat="45.6984439" lon="8.7209503"><ele>309.0</ele><time>2026-05-04T10:32:52.163Z</time></trkpt><trkpt lat="45.6983495" lon="8.7209564"><ele>309.0</ele><time>2026-05-04T10:32:54.163Z</time></trkpt><trkpt lat="45.6982604" lon="8.7209819"><ele>309.0</ele><time>2026-05-04T10:32:55.165Z</time></trkpt><trkpt lat="45.6981797" lon="8.7209069"><ele>309.0</ele><time>2026-05-04T10:32:57.165Z</time></trkpt><trkpt lat="45.6980803" lon="8.7209008"><ele>309.0</ele><time>2026-05-04T10:32:59.164Z</time></trkpt><trkpt lat="45.6979917" lon="8.7209469"><ele>309.0</ele><time>2026-05-04T10:33:01.165Z</time></trkpt><trkpt lat="45.6979197" lon="8.7209859"><ele>309.0</ele><time>2026-05-04T10:33:03.163Z</time></trkpt><trkpt lat="45.6978354" lon="8.7210337"><ele>309.0</ele><time>2026-05-04T10:33:05.163Z</time></trkpt><trkpt lat="45.6977626" lon="8.7210564"><ele>309.0</ele><time>2026-05-04T10:33:07.164Z</time></trkpt><trkpt lat="45.6976666" lon="8.7210147"><ele>309.0</ele><time>2026-05-04T10:33:09.163Z</time></trkpt><trkpt lat="45.6975939" lon="8.7209744"><ele>309.0</ele><time>2026-05-04T10:33:11.165Z</time></trkpt><trkpt lat="45.6975408" lon="8.7208873"><ele>309.6666666666667</ele><time>2026-05-04T10:33:13.165Z</time></trkpt><trkpt lat="45.6974871" lon="8.7208208"><ele>310.3333333333333</ele><time>2026-05-04T10:33:14.163Z</time></trkpt><trkpt lat="45.6974103" lon="8.7207076"><ele>311.0</ele><time>2026-05-04T10:33:16.166Z</time></trkpt><trkpt lat="45.6973441" lon="8.720635"><ele>311.66666666666663</ele><time>2026-05-04T10:33:17.165Z</time></trkpt><trkpt lat="45.6972685" lon="8.7205894"><ele>312.3333333333333</ele><time>2026-05-04T10:33:19.165Z</time></trkpt><trkpt lat="45.697201" lon="8.7205277"><ele>313.0</ele><time>2026-05-04T10:33:21.165Z</time></trkpt><trkpt lat="45.6971071" lon="8.7204482"><ele>313.0</ele><time>2026-05-04T10:33:23.165Z</time></trkpt><trkpt lat="45.6970228" lon="8.720339"><ele>313.0</ele><time>2026-05-04T10:33:25.165Z</time></trkpt><trkpt lat="45.69698" lon="8.7202603"><ele>313.0</ele><time>2026-05-04T10:33:26.164Z</time></trkpt><trkpt lat="45.6969167" lon="8.7201683"><ele>313.0</ele><time>2026-05-04T10:33:28.164Z</time></trkpt><trkpt lat="45.6968579" lon="8.7200638"><ele>313.0</ele><time>2026-05-04T10:33:30.164Z</time></trkpt><trkpt lat="45.6967859" lon="8.7199677"><ele>312.6</ele><time>2026-05-04T10:33:32.165Z</time></trkpt><trkpt lat="45.6967484" lon="8.7198914"><ele>312.20000000000005</ele><time>2026-05-04T10:33:33.163Z</time></trkpt><trkpt lat="45.6966953" lon="8.7196935"><ele>311.8</ele><time>2026-05-04T10:33:35.164Z</time></trkpt><trkpt lat="45.6966413" lon="8.7195557"><ele>311.40000000000003</ele><time>2026-05-04T10:33:37.164Z</time></trkpt><trkpt lat="45.6965948" lon="8.7194296"><ele>311.0</ele><time>2026-05-04T10:33:39.164Z</time></trkpt><trkpt lat="45.6965791" lon="8.7193423"><ele>311.0</ele><time>2026-05-04T10:33:40.164Z</time></trkpt><trkpt lat="45.6965263" lon="8.7192897"><ele>311.0</ele><time>2026-05-04T10:33:42.165Z</time></trkpt><trkpt lat="45.6965017" lon="8.7192016"><ele>311.0</ele><time>2026-05-04T10:33:44.163Z</time></trkpt><trkpt lat="45.6964457" lon="8.7191552"><ele>311.0</ele><time>2026-05-04T10:33:46.164Z</time></trkpt><trkpt lat="45.6963895" lon="8.7190793"><ele>311.0</ele><time>2026-05-04T10:33:49.166Z</time></trkpt><trkpt lat="45.6963437" lon="8.7189984"><ele>311.0</ele><time>2026-05-04T10:33:50.164Z</time></trkpt><trkpt lat="45.6962899" lon="8.7189113"><ele>311.0</ele><time>2026-05-04T10:33:52.164Z</time></trkpt><trkpt lat="45.6962208" lon="8.7188175"><ele>311.0</ele><time>2026-05-04T10:33:54.165Z</time></trkpt><trkpt lat="45.6961476" lon="8.7186862"><ele>311.0</ele><time>2026-05-04T10:33:56.163Z</time></trkpt><trkpt lat="45.6960782" lon="8.7186604"><ele>311.0</ele><time>2026-05-04T10:33:57.164Z</time></trkpt><trkpt lat="45.6960065" lon="8.7186891"><ele>311.0</ele><time>2026-05-04T10:33:59.163Z</time></trkpt><trkpt lat="45.6959443" lon="8.7186717"><ele>311.0</ele><time>2026-05-04T10:34:00.166Z</time></trkpt><trkpt lat="45.6958368" lon="8.7186956"><ele>311.0</ele><time>2026-05-04T10:34:02.164Z</time></trkpt><trkpt lat="45.6957292" lon="8.7186857"><ele>310.8</ele><time>2026-05-04T10:34:05.165Z</time></trkpt><trkpt lat="45.6956249" lon="8.7186679"><ele>310.6</ele><time>2026-05-04T10:34:07.165Z</time></trkpt><trkpt lat="45.6955424" lon="8.7186202"><ele>310.4</ele><time>2026-05-04T10:34:09.164Z</time></trkpt><trkpt lat="45.6954523" lon="8.7185613"><ele>310.2</ele><time>2026-05-04T10:34:11.165Z</time></trkpt><trkpt lat="45.6953735" lon="8.7185089"><ele>310.0</ele><time>2026-05-04T10:34:13.164Z</time></trkpt><trkpt lat="45.6952787" lon="8.7184729"><ele>310.0</ele><time>2026-05-04T10:34:15.164Z</time></trkpt><trkpt lat="45.6951952" lon="8.7184445"><ele>310.0</ele><time>2026-05-04T10:34:17.164Z</time></trkpt><trkpt lat="45.695048" lon="8.718376"><ele>310.0</ele><time>2026-05-04T10:34:19.164Z</time></trkpt><trkpt lat="45.6949753" lon="8.7183692"><ele>310.0</ele><time>2026-05-04T10:34:20.165Z</time></trkpt><trkpt lat="45.6948633" lon="8.7183292"><ele>310.0</ele><time>2026-05-04T10:34:22.165Z</time></trkpt><trkpt lat="45.6947692" lon="8.7183327"><ele>310.0</ele><time>2026-05-04T10:34:24.165Z</time></trkpt><trkpt lat="45.6947011" lon="8.7183577"><ele>310.0</ele><time>2026-05-04T10:34:25.164Z</time></trkpt><trkpt lat="45.6946222" lon="8.7183888"><ele>310.0</ele><time>2026-05-04T10:34:27.165Z</time></trkpt><trkpt lat="45.6945345" lon="8.718414"><ele>310.0</ele><time>2026-05-04T10:34:29.165Z</time></trkpt><trkpt lat="45.6944385" lon="8.718464"><ele>310.0</ele><time>2026-05-04T10:34:31.164Z</time></trkpt><trkpt lat="45.694327" lon="8.7185163"><ele>308.4</ele><time>2026-05-04T10:34:33.164Z</time></trkpt><trkpt lat="45.6942034" lon="8.7185735"><ele>306.8</ele><time>2026-05-04T10:34:35.165Z</time></trkpt><trkpt lat="45.6941411" lon="8.7186098"><ele>305.2</ele><time>2026-05-04T10:34:36.165Z</time></trkpt><trkpt lat="45.6940796" lon="8.7186621"><ele>303.6</ele><time>2026-05-04T10:34:37.165Z</time></trkpt><trkpt lat="45.6939555" lon="8.7187611"><ele>302.0</ele><time>2026-05-04T10:34:39.164Z</time></trkpt><trkpt lat="45.6938983" lon="8.718804"><ele>302.0</ele><time>2026-05-04T10:34:40.164Z</time></trkpt><trkpt lat="45.6937923" lon="8.7188858"><ele>302.0</ele><time>2026-05-04T10:34:42.164Z</time></trkpt><trkpt lat="45.6936788" lon="8.7189464"><ele>302.0</ele><time>2026-05-04T10:34:44.165Z</time></trkpt><trkpt lat="45.6935732" lon="8.7190498"><ele>302.0</ele><time>2026-05-04T10:34:46.165Z</time></trkpt><trkpt lat="45.6934762" lon="8.7191523"><ele>300.8</ele><time>2026-05-04T10:34:48.165Z</time></trkpt><trkpt lat="45.6933869" lon="8.7192541"><ele>299.6</ele><time>2026-05-04T10:34:50.164Z</time></trkpt><trkpt lat="45.6932898" lon="8.7193102"><ele>298.40000000000003</ele><time>2026-05-04T10:34:52.165Z</time></trkpt><trkpt lat="45.6931868" lon="8.7193359"><ele>297.2</ele><time>2026-05-04T10:34:54.164Z</time></trkpt><trkpt lat="45.6930926" lon="8.7193618"><ele>296.0</ele><time>2026-05-04T10:34:56.164Z</time></trkpt><trkpt lat="45.6930265" lon="8.7193772"><ele>296.0</ele><time>2026-05-04T10:34:57.163Z</time></trkpt><trkpt lat="45.6929444" lon="8.7193924"><ele>296.0</ele><time>2026-05-04T10:34:59.164Z</time></trkpt><trkpt lat="45.6930339" lon="8.7193955"><ele>296.0</ele><time>2026-05-04T10:35:41.164Z</time></trkpt><trkpt lat="45.6931132" lon="8.7193888"><ele>296.0</ele><time>2026-05-04T10:35:44.163Z</time></trkpt><trkpt lat="45.6930449" lon="8.7193986"><ele>296.0</ele><time>2026-05-04T10:37:40.164Z</time></trkpt><trkpt lat="45.6929437" lon="8.7194094"><ele>296.0</ele><time>2026-05-04T10:37:42.164Z</time></trkpt><trkpt lat="45.6928314" lon="8.7194359"><ele>296.75</ele><time>2026-05-04T10:37:44.164Z</time></trkpt><trkpt lat="45.6927207" lon="8.7194779"><ele>297.5</ele><time>2026-05-04T10:37:46.163Z</time></trkpt><trkpt lat="45.692597" lon="8.7194925"><ele>298.25</ele><time>2026-05-04T10:37:48.165Z</time></trkpt><trkpt lat="45.6924732" lon="8.7195096"><ele>299.0</ele><time>2026-05-04T10:37:50.164Z</time></trkpt><trkpt lat="45.6923583" lon="8.7195407"><ele>299.0</ele><time>2026-05-04T10:37:52.164Z</time></trkpt><trkpt lat="45.6922427" lon="8.7195635"><ele>299.0</ele><time>2026-05-04T10:37:54.165Z</time></trkpt><trkpt lat="45.692133" lon="8.7195981"><ele>299.0</ele><time>2026-05-04T10:37:56.163Z</time></trkpt><trkpt lat="45.6920421" lon="8.7196335"><ele>299.0</ele><time>2026-05-04T10:37:58.164Z</time></trkpt><trkpt lat="45.6919587" lon="8.7196445"><ele>299.0</ele><time>2026-05-04T10:38:00.164Z</time></trkpt><trkpt lat="45.6918573" lon="8.7196686"><ele>298.4</ele><time>2026-05-04T10:38:02.164Z</time></trkpt><trkpt lat="45.6917599" lon="8.7196702"><ele>297.79999999999995</ele><time>2026-05-04T10:38:04.164Z</time></trkpt><trkpt lat="45.6916573" lon="8.7196676"><ele>297.20000000000005</ele><time>2026-05-04T10:38:06.164Z</time></trkpt><trkpt lat="45.691541" lon="8.7196837"><ele>296.6</ele><time>2026-05-04T10:38:08.165Z</time></trkpt><trkpt lat="45.6914468" lon="8.71973"><ele>296.0</ele><time>2026-05-04T10:38:10.165Z</time></trkpt><trkpt lat="45.6913266" lon="8.7197422"><ele>296.0</ele><time>2026-05-04T10:38:12.164Z</time></trkpt><trkpt lat="45.69126" lon="8.7197512"><ele>296.0</ele><time>2026-05-04T10:38:13.164Z</time></trkpt><trkpt lat="45.6911423" lon="8.7197625"><ele>296.0</ele><time>2026-05-04T10:38:15.165Z</time></trkpt><trkpt lat="45.6910295" lon="8.7197915"><ele>296.0</ele><time>2026-05-04T10:38:17.163Z</time></trkpt><trkpt lat="45.690915" lon="8.7198126"><ele>296.0</ele><time>2026-05-04T10:38:19.163Z</time></trkpt><trkpt lat="45.6908192" lon="8.7198631"><ele>296.2</ele><time>2026-05-04T10:38:21.164Z</time></trkpt><trkpt lat="45.690714" lon="8.7199009"><ele>296.40000000000003</ele><time>2026-05-04T10:38:23.164Z</time></trkpt><trkpt lat="45.6906191" lon="8.7199369"><ele>296.6</ele><time>2026-05-04T10:38:25.164Z</time></trkpt><trkpt lat="45.6905283" lon="8.7199769"><ele>296.8</ele><time>2026-05-04T10:38:27.163Z</time></trkpt><trkpt lat="45.6904359" lon="8.7200358"><ele>297.0</ele><time>2026-05-04T10:38:29.164Z</time></trkpt><trkpt lat="45.6903505" lon="8.720095"><ele>297.0</ele><time>2026-05-04T10:38:31.164Z</time></trkpt><trkpt lat="45.6902626" lon="8.720168"><ele>297.0</ele><time>2026-05-04T10:38:33.165Z</time></trkpt><trkpt lat="45.6901844" lon="8.7202403"><ele>297.0</ele><time>2026-05-04T10:38:35.165Z</time></trkpt><trkpt lat="45.6901034" lon="8.7203333"><ele>297.0</ele><time>2026-05-04T10:38:37.163Z</time></trkpt><trkpt lat="45.6900432" lon="8.7204024"><ele>297.0</ele><time>2026-05-04T10:38:38.164Z</time></trkpt><trkpt lat="45.6899632" lon="8.7204797"><ele>298.0</ele><time>2026-05-04T10:38:40.163Z</time></trkpt><trkpt lat="45.6898728" lon="8.7205937"><ele>299.0</ele><time>2026-05-04T10:38:42.164Z</time></trkpt><trkpt lat="45.6897783" lon="8.7206945"><ele>300.0</ele><time>2026-05-04T10:38:44.163Z</time></trkpt><trkpt lat="45.6896909" lon="8.7208164"><ele>301.0</ele><time>2026-05-04T10:38:46.164Z</time></trkpt><trkpt lat="45.6896" lon="8.7209249"><ele>301.0</ele><time>2026-05-04T10:38:48.164Z</time></trkpt><trkpt lat="45.6894829" lon="8.7209777"><ele>301.0</ele><time>2026-05-04T10:38:50.164Z</time></trkpt><trkpt lat="45.6893554" lon="8.7209854"><ele>301.0</ele><time>2026-05-04T10:38:52.164Z</time></trkpt><trkpt lat="45.6892819" lon="8.7209705"><ele>301.0</ele><time>2026-05-04T10:38:53.163Z</time></trkpt><trkpt lat="45.689216" lon="8.7209238"><ele>301.0</ele><time>2026-05-04T10:38:54.165Z</time></trkpt><trkpt lat="45.6891078" lon="8.720891"><ele>300.3333333333333</ele><time>2026-05-04T10:38:56.164Z</time></trkpt><trkpt lat="45.689063" lon="8.7208098"><ele>299.66666666666663</ele><time>2026-05-04T10:38:57.164Z</time></trkpt><trkpt lat="45.6890034" lon="8.7207415"><ele>299.0</ele><time>2026-05-04T10:38:58.163Z</time></trkpt><trkpt lat="45.6889556" lon="8.720653"><ele>298.3333333333333</ele><time>2026-05-04T10:38:59.165Z</time></trkpt><trkpt lat="45.6889125" lon="8.7205105"><ele>297.6666666666667</ele><time>2026-05-04T10:39:01.165Z</time></trkpt><trkpt lat="45.6888763" lon="8.7203845"><ele>297.0</ele><time>2026-05-04T10:39:03.165Z</time></trkpt><trkpt lat="45.6888579" lon="8.7202931"><ele>296.2</ele><time>2026-05-04T10:39:05.163Z</time></trkpt><trkpt lat="45.688819" lon="8.7201763"><ele>295.4</ele><time>2026-05-04T10:39:12.163Z</time></trkpt><trkpt lat="45.6887734" lon="8.7200516"><ele>294.6</ele><time>2026-05-04T10:39:14.164Z</time></trkpt><trkpt lat="45.6887147" lon="8.719906"><ele>293.8</ele><time>2026-05-04T10:39:16.164Z</time></trkpt><trkpt lat="45.688654" lon="8.719775"><ele>293.0</ele><time>2026-05-04T10:39:18.164Z</time></trkpt><trkpt lat="45.68857" lon="8.7197124"><ele>292.2</ele><time>2026-05-04T10:39:20.164Z</time></trkpt><trkpt lat="45.6884695" lon="8.7196957"><ele>291.4</ele><time>2026-05-04T10:39:22.165Z</time></trkpt><trkpt lat="45.6883724" lon="8.7196929"><ele>290.59999999999997</ele><time>2026-05-04T10:39:24.164Z</time></trkpt><trkpt lat="45.6882721" lon="8.7196498"><ele>289.8</ele><time>2026-05-04T10:39:26.165Z</time></trkpt><trkpt lat="45.6882262" lon="8.7195316"><ele>289.0</ele><time>2026-05-04T10:39:28.164Z</time></trkpt><trkpt lat="45.6881808" lon="8.7194022"><ele>288.8</ele><time>2026-05-04T10:39:30.164Z</time></trkpt><trkpt lat="45.6881292" lon="8.7192785"><ele>288.59999999999997</ele><time>2026-05-04T10:39:32.164Z</time></trkpt><trkpt lat="45.6880893" lon="8.7191768"><ele>288.4</ele><time>2026-05-04T10:39:34.163Z</time></trkpt><trkpt lat="45.68804" lon="8.7190638"><ele>288.2</ele><time>2026-05-04T10:39:36.164Z</time></trkpt><trkpt lat="45.6880058" lon="8.7189428"><ele>288.0</ele><time>2026-05-04T10:39:38.164Z</time></trkpt><trkpt lat="45.68797" lon="8.7188103"><ele>288.00000000000006</ele><time>2026-05-04T10:39:40.164Z</time></trkpt><trkpt lat="45.6879361" lon="8.7187042"><ele>288.0</ele><time>2026-05-04T10:39:42.163Z</time></trkpt><trkpt lat="45.6879014" lon="8.7186074"><ele>288.0</ele><time>2026-05-04T10:39:44.164Z</time></trkpt><trkpt lat="45.6878701" lon="8.7185134"><ele>288.0</ele><time>2026-05-04T10:39:46.164Z</time></trkpt><trkpt lat="45.6878368" lon="8.718419"><ele>288.0</ele><time>2026-05-04T10:39:48.164Z</time></trkpt><trkpt lat="45.6878053" lon="8.7183208"><ele>288.00000000000006</ele><time>2026-05-04T10:39:50.164Z</time></trkpt><trkpt lat="45.6877552" lon="8.718254"><ele>288.0</ele><time>2026-05-04T10:39:52.163Z</time></trkpt><trkpt lat="45.6876727" lon="8.7182557"><ele>289.2</ele><time>2026-05-04T10:39:54.163Z</time></trkpt><trkpt lat="45.6875969" lon="8.7182782"><ele>290.4</ele><time>2026-05-04T10:39:56.166Z</time></trkpt><trkpt lat="45.6875121" lon="8.7182939"><ele>291.59999999999997</ele><time>2026-05-04T10:39:58.165Z</time></trkpt><trkpt lat="45.6874096" lon="8.718331"><ele>292.8</ele><time>2026-05-04T10:40:00.164Z</time></trkpt><trkpt lat="45.6873058" lon="8.7183768"><ele>294.0</ele><time>2026-05-04T10:40:02.165Z</time></trkpt><trkpt lat="45.6872009" lon="8.7183757"><ele>294.0</ele><time>2026-05-04T10:40:04.164Z</time></trkpt><trkpt lat="45.6871234" lon="8.7184164"><ele>294.0</ele><time>2026-05-04T10:40:06.165Z</time></trkpt><trkpt lat="45.6870186" lon="8.7184189"><ele>294.0</ele><time>2026-05-04T10:40:08.165Z</time></trkpt><trkpt lat="45.6869147" lon="8.7184195"><ele>294.0</ele><time>2026-05-04T10:40:10.165Z</time></trkpt><trkpt lat="45.686819" lon="8.7184629"><ele>294.0</ele><time>2026-05-04T10:40:12.164Z</time></trkpt><trkpt lat="45.6867305" lon="8.7183954"><ele>291.0</ele><time>2026-05-04T10:40:14.165Z</time></trkpt><trkpt lat="45.6866845" lon="8.7183298"><ele>291.0</ele><time>2026-05-04T10:40:15.164Z</time></trkpt></trkseg></trk></gpx>